# Wetter Temperatur Luftdruck Luftfeuchtigkeit Sichtweite Windgeschwindigkeit Windrichtung Zeit
1 Rain 30 1015 74 10000 3.6 280 19:56 17.10.2019
2 Rain 29 1015 74 10000 3.6 280 19:37 17.10.2019
3 Rain 29 1015 74 10000 3.6 280 19:18 17.10.2019
4 Rain 31 1015 70 10000 4.6 270 18:42 17.10.2019
5 Rain 30 1015 70 10000 4.6 270 18:21 17.10.2019
6 Clouds 29 1015 74 10000 4.1 270 17:55 17.10.2019
7 Clouds 29 1015 74 10000 4.1 270 17:37 17.10.2019
8 Clouds 29 1015 78 10000 3.6 260 17:19 17.10.2019
9 Clouds 28 1015 78 10000 3.6 260 16:42 17.10.2019
10 Clouds 28 1015 78 10000 3.6 260 16:42 17.10.2019
11 Clouds 28 1015 78 10000 3.6 260 16:19 17.10.2019
12 Clouds 28 1015 83 10000 3.6 260 15:59 17.10.2019
13 Clouds 28 1015 83 10000 3.6 260 15:40 17.10.2019
14 Clouds 28 1015 83 10000 3.6 260 15:20 17.10.2019
15 -273 0 0 0 0 0 14:57 17.10.2019
16 Clouds 27 1014 88 10000 1.5 250 14:38 17.10.2019
17 Clouds 26 1014 88 10000 1.5 250 14:20 17.10.2019
18 Clouds 25 1014 94 10000 2.1 240 13:41 17.10.2019
19 Clouds 25 1013 94 10000 1.5 240 13:21 17.10.2019
20 Clouds 25 1013 94 10000 1.5 240 12:58 17.10.2019
21 Clouds 25 1013 94 10000 1.5 240 12:38 17.10.2019
22 Clouds 25 1013 94 10000 1.5 240 12:19 17.10.2019
23 Clouds 27 1013 79 0 5.234 256 11:55 17.10.2019
24 Clouds 27 1013 79 0 5.234 256 11:55 17.10.2019
25 Clouds 27 1013 79 0 5.234 256 11:55 17.10.2019
26 Clouds 27 1013 79 0 5.234 256 11:55 17.10.2019
27 Clouds 27 1013 79 0 5.234 256 11:37 17.10.2019
28 Clouds 27 1013 79 0 5.234 256 11:18 17.10.2019
29 Clouds 27 1013 79 0 5.234 256 10:42 17.10.2019
30 Clouds 27 1013 79 0 5.234 256 10:41 17.10.2019
31 Clouds 27 1013 79 0 5.234 256 10:19 17.10.2019
32 Clouds 27 1013 79 0 5.234 256 09:56 17.10.2019
33 Clouds 27 1013 79 0 5.234 256 09:56 17.10.2019
34 Clouds 27 1013 80 0 4.259 255 09:38 17.10.2019
35 Clouds 25 1013 88 10000 1.5 250 09:19 17.10.2019
36 Clouds 25 1013 88 10000 1.5 250 08:48 17.10.2019
37 Clouds 25 1013 88 10000 1.5 250 08:27 17.10.2019
38 Clouds 24 1014 94 10000 2.1 230 07:59 17.10.2019
39 Clouds 24 1014 94 10000 2.1 230 07:41 17.10.2019
40 Clouds 24 1014 94 10000 2.1 230 07:21 17.10.2019
41 Clouds 24 1014 94 10000 2.1 230 07:21 17.10.2019
42 Clouds 25 1014 88 10000 2.1 160 06:43 17.10.2019
43 Clouds 26 1015 83 10000 2.1 150 06:24 17.10.2019
44 Clouds 26 1015 83 10000 2.1 150 05:59 17.10.2019
45 Clouds 26 1015 83 10000 2.1 150 05:35 17.10.2019
46 Clouds 25 1015 83 10000 1.5 150 04:58 17.10.2019
47 Clouds 25 1015 83 10000 1.5 150 04:31 17.10.2019
48 Clouds 26 1015 78 10000 1.5 160 03:45 17.10.2019
49 Clouds 27 1014 74 10000 1.5 180 01:56 17.10.2019
50 Clouds 27 1014 74 10000 1.5 180 01:56 17.10.2019
51 Clouds 28 1014 69 10000 2.6 180 00:42 17.10.2019
52 Clouds 29 1014 66 10000 3.1 180 00:20 17.10.2019
53 Clouds 29 1014 66 10000 3.1 180 23:42 16.10.2019
54 Clouds 30 1014 66 10000 3.1 180 23:22 16.10.2019
55 Clouds 30 1014 62 10000 2.6 220 22:58 16.10.2019
56 Clouds 30 1014 62 10000 2.6 220 22:38 16.10.2019
57 Clouds 30 1014 62 10000 2.6 200 22:20 16.10.2019
58 Clouds 30 1014 62 10000 2.6 200 21:58 16.10.2019
59 Clouds 30 1014 62 10000 2.6 200 21:38 16.10.2019
60 Clouds 30 1014 62 10000 2.6 200 21:20 16.10.2019
61 Clouds 30 1015 62 10000 3.1 240 20:59 16.10.2019
62 Clouds 30 1015 62 10000 3.1 240 20:59 16.10.2019
63 Clouds 30 1015 62 10000 3.1 240 20:41 16.10.2019
64 Clouds 30 1015 58 10000 3.1 220 20:22 16.10.2019
65 Clouds 30 1015 58 10000 3.1 220 19:59 16.10.2019
66 Clouds 30 1015 58 10000 3.1 220 19:40 16.10.2019
67 Clouds 30 1015 58 10000 3.1 220 19:21 16.10.2019
68 -273 0 0 0 0 0 18:56 16.10.2019
69 Clouds 30 1016 58 10000 3.1 150 18:56 16.10.2019
70 Clouds 30 1016 58 10000 3.1 150 18:56 16.10.2019
71 Clouds 30 1016 58 10000 3.1 150 18:37 16.10.2019
72 Clouds 30 1016 58 10000 3.1 150 18:18 16.10.2019
73 Clouds 29 1016 62 10000 2.6 180 17:54 16.10.2019
74 Clouds 30 1016 62 10000 2.6 180 17:36 16.10.2019
75 Clouds 29 1017 65 10000 2.6 170 17:18 16.10.2019
76 Clouds 29 1017 65 10000 2.6 170 16:43 16.10.2019
77 Clouds 28 1016 74 10000 2.1 140 16:21 16.10.2019
78 Clouds 28 1016 74 10000 2.1 140 15:58 16.10.2019
79 Clouds 28 1016 74 10000 2.1 140 15:39 16.10.2019
80 Clouds 28 1016 74 10000 2.1 140 15:39 16.10.2019
81 Clouds 28 1016 74 10000 2.1 140 15:39 16.10.2019
82 Clouds 25 1016 94 10000 0.5 0 15:19 16.10.2019
83 Clouds 25 1016 94 10000 0.5 0 14:58 16.10.2019
84 Clouds 25 1016 94 10000 0.5 0 14:38 16.10.2019
85 Clouds 24 1016 94 10000 0.5 0 14:19 16.10.2019
86 Clouds 23 1016 94 10000 2.511 146 13:57 16.10.2019
87 Clouds 23 1016 94 10000 2.511 146 13:56 16.10.2019
88 Clouds 23 1016 94 10000 2.511 146 13:38 16.10.2019
89 Clouds 23 1016 94 10000 2.511 146 13:38 16.10.2019
90 Clouds 22 1016 94 10000 2.511 146 13:19 16.10.2019
91 -273 0 0 0 0 0 12:42 16.10.2019
92 Clouds 21 1016 94 10000 3.553 129 12:19 16.10.2019
93 Clouds 21 1015 94 10000 3.553 129 11:44 16.10.2019
94 Clouds 21 1015 94 10000 3.553 129 11:19 16.10.2019
95 Clouds 22 1015 94 10000 3.553 129 10:41 16.10.2019
96 Clouds 22 1015 94 10000 3.553 129 10:22 16.10.2019
97 Clouds 22 1015 94 10000 3.553 129 10:22 16.10.2019
98 Clouds 22 1016 94 10000 3.553 129 09:58 16.10.2019
99 Clouds 22 1016 94 10000 2.943 120 09:38 16.10.2019
100 Clouds 22 1016 94 10000 3.687 96 09:20 16.10.2019
101 Clouds 23 1016 88 10000 1 0 08:43 16.10.2019
102 Clouds 23 1016 88 10000 1 0 08:25 16.10.2019
103 Clouds 22 1016 94 10000 0.5 0 07:56 16.10.2019
104 Clouds 22 1016 94 10000 0.5 0 07:56 16.10.2019
105 Clouds 22 1016 94 10000 0.5 0 07:38 16.10.2019
106 Clouds 22 1016 94 10000 0.5 0 07:19 16.10.2019
107 Clouds 23 1016 88 10000 0.5 0 06:40 16.10.2019
108 Clouds 23 1017 88 10000 4.473 92 05:56 16.10.2019
109 Clouds 26 1016 74 10000 2.1 100 03:27 16.10.2019
110 Clouds 26 1016 74 10000 2.6 90 02:50 16.10.2019
111 Clouds 27 1016 69 10000 3.1 90 01:20 16.10.2019
112 Clouds 27 1016 69 10000 4.1 90 00:52 16.10.2019
113 Clouds 27 1016 69 10000 4.1 90 00:32 16.10.2019
114 Clouds 27 1016 69 10000 4.1 70 23:41 15.10.2019
115 Clouds 27 1016 69 10000 4.1 70 23:41 15.10.2019
116 Clouds 28 1016 69 10000 3.6 80 23:22 15.10.2019
117 Clouds 28 1016 69 10000 3.6 80 22:56 15.10.2019
118 Clouds 28 1016 69 10000 3.6 80 22:38 15.10.2019
119 Clouds 28 1016 69 10000 3.6 80 22:38 15.10.2019
120 Clouds 28 1016 69 10000 3.6 80 22:20 15.10.2019
121 Clouds 28 1016 66 10000 4.1 70 21:56 15.10.2019
122 Clouds 28 1016 66 10000 4.1 70 21:56 15.10.2019
123 -273 0 0 0 0 0 21:56 15.10.2019
124 Clouds 28 1016 66 10000 4.1 70 21:56 15.10.2019
125 Clouds 28 1016 66 10000 4.1 70 21:38 15.10.2019
126 Clouds 28 1016 66 10000 4.1 70 21:20 15.10.2019
127 Clouds 28 1017 69 0 4.1 80 20:57 15.10.2019
128 Clouds 28 1017 69 0 4.1 80 20:39 15.10.2019
129 Clouds 28 1017 69 0 4.1 80 20:39 15.10.2019
130 Clouds 28 1017 69 0 4.1 80 20:39 15.10.2019
131 Clouds 28 1017 69 0 4.1 80 20:20 15.10.2019
132 Clouds 28 1017 69 0 4.1 80 20:20 15.10.2019
133 Clouds 28 1017 69 10000 4.6 80 19:58 15.10.2019
134 Clouds 28 1017 69 10000 4.6 80 19:40 15.10.2019
135 Clouds 28 1017 69 10000 4.6 80 19:19 15.10.2019
136 Clouds 28 1018 69 10000 4.6 80 18:47 15.10.2019
137 Clouds 28 1018 69 10000 4.6 80 18:28 15.10.2019
138 Clouds 27 1019 74 10000 5.1 70 17:58 15.10.2019
139 Clouds 27 1019 74 10000 5.1 70 17:39 15.10.2019
140 Clouds 27 1019 74 10000 5.1 70 17:20 15.10.2019
141 Clouds 27 1018 74 10000 5.1 90 16:46 15.10.2019
142 Clouds 27 1018 74 10000 5.1 90 16:24 15.10.2019
143 Clouds 27 1018 74 10000 5.1 90 15:59 15.10.2019
144 Clouds 27 1018 74 10000 5.1 90 15:41 15.10.2019
145 Clouds 27 1018 74 10000 5.1 90 15:41 15.10.2019
146 Clouds 27 1018 74 10000 5.1 90 15:20 15.10.2019
147 Clouds 26 1018 78 10000 3.1 90 14:57 15.10.2019
148 Clouds 26 1018 78 10000 3.1 90 14:38 15.10.2019
149 Clouds 26 1018 78 10000 3.1 90 14:19 15.10.2019
150 Clouds 26 1018 78 10000 2.6 90 13:44 15.10.2019
151 Clouds 26 1018 78 10000 2.6 90 13:21 15.10.2019
152 Clouds 26 1017 78 10000 3.1 80 12:59 15.10.2019
153 Clouds 26 1017 78 10000 3.1 80 12:39 15.10.2019
154 Clouds 26 1017 78 10000 3.1 80 12:39 15.10.2019
155 Clouds 26 1017 78 10000 3.1 80 12:20 15.10.2019
156 Clouds 26 1017 83 10000 2.6 70 11:44 15.10.2019
157 Clouds 26 1017 83 10000 2.6 70 11:21 15.10.2019
158 Clouds 26 1017 83 10000 3.1 90 10:58 15.10.2019
159 Clouds 26 1017 83 10000 3.1 90 10:39 15.10.2019
160 Clouds 26 1017 83 10000 3.1 90 10:19 15.10.2019
161 Clouds 26 1017 83 10000 2.6 80 09:57 15.10.2019
162 Clouds 26 1017 83 10000 2.6 80 09:37 15.10.2019
163 Clouds 26 1017 83 10000 2.6 80 09:19 15.10.2019
164 Clouds 26 1018 83 10000 2.6 70 08:42 15.10.2019
165 Clouds 26 1018 83 10000 2.6 70 08:21 15.10.2019
166 Clouds 26 1018 83 10000 2.6 90 07:56 15.10.2019
167 Clouds 26 1018 83 10000 2.6 90 07:56 15.10.2019
168 Clouds 26 1018 83 10000 2.6 90 07:56 15.10.2019
169 Clouds 26 1018 83 10000 2.6 90 07:38 15.10.2019
170 Clouds 26 1018 83 10000 2.6 90 07:18 15.10.2019
171 Clouds 26 1018 83 10000 2.1 90 06:43 15.10.2019
172 Clouds 26 1018 83 10000 2.1 90 06:22 15.10.2019
173 Clouds 26 1018 83 10000 2.1 90 05:37 15.10.2019
174 Clouds 26 1018 83 10000 2.1 90 05:19 15.10.2019
175 Clouds 26 1018 78 10000 3.6 100 04:23 15.10.2019
176 Clouds 27 1017 78 10000 3.6 100 03:36 15.10.2019
177 Clouds 27 1017 78 10000 4.1 70 02:22 15.10.2019
178 Clouds 27 1017 78 10000 3.1 80 01:47 15.10.2019
179 Clouds 27 1017 78 10000 3.1 80 01:18 15.10.2019
180 Clouds 27 1017 78 10000 4.1 80 00:28 15.10.2019
181 Clouds 28 1017 70 10000 5.1 60 23:59 14.10.2019
182 Clouds 28 1017 70 10000 5.1 60 23:39 14.10.2019
183 Clouds 28 1017 70 10000 5.1 60 23:19 14.10.2019
184 Clouds 28 1017 66 10000 5.7 70 22:40 14.10.2019
185 Clouds 28 1017 66 10000 5.7 70 22:21 14.10.2019
186 Clouds 28 1017 70 0 5.7 50 21:59 14.10.2019
187 Clouds 28 1017 70 0 5.7 50 21:40 14.10.2019
188 Clouds 28 1017 70 0 5.7 50 21:40 14.10.2019
189 Clouds 29 1017 70 0 5.7 50 21:21 14.10.2019
190 Clouds 28 1017 69 10000 5.7 50 20:58 14.10.2019
191 Clouds 28 1017 69 10000 5.7 50 20:38 14.10.2019
192 Clouds 28 1018 62 10000 4.6 60 20:19 14.10.2019
193 Clouds 28 1018 62 10000 4.6 60 19:55 14.10.2019
194 Clouds 28 1018 62 10000 4.6 60 19:54 14.10.2019
195 Clouds 28 1018 62 10000 4.6 60 19:36 14.10.2019
196 Clouds 28 1018 62 10000 4.6 60 19:18 14.10.2019
197 Clouds 28 1018 69 10000 5.1 80 18:54 14.10.2019
198 Clouds 28 1018 69 10000 5.1 80 18:36 14.10.2019
199 Clouds 28 1018 69 10000 5.1 80 18:18 14.10.2019
200 Clouds 28 1019 69 10000 5.7 60 17:41 14.10.2019
201 Clouds 28 1019 69 10000 5.7 60 17:22 14.10.2019
202 Rain 28 1018 76 0 3.13 39 16:54 14.10.2019
203 Rain 28 1018 76 0 3.13 63 16:36 14.10.2019
204 Clouds 28 1018 69 10000 3.6 70 16:18 14.10.2019
205 Clouds 28 1018 69 10000 3.6 70 15:40 14.10.2019
206 Clouds 28 1018 69 10000 3.6 70 15:40 14.10.2019
207 Clouds 27 1017 83 10000 2.6 70 15:21 14.10.2019
208 Clouds 27 1017 83 10000 2.6 70 14:44 14.10.2019
209 Clouds 26 1017 83 10000 2.6 70 14:25 14.10.2019
210 Clouds 26 1017 83 10000 2.1 70 13:57 14.10.2019
211 -273 0 0 0 0 0 13:39 14.10.2019
212 Clouds 25 1016 83 10000 1.5 90 13:20 14.10.2019
213 Clouds 25 1016 83 10000 1.5 90 12:41 14.10.2019
214 Clouds 25 1016 83 10000 1.5 90 12:20 14.10.2019
215 Clouds 27 1015 79 0 5.59 54.914 11:48 14.10.2019
216 Clear 25 1016 83 10000 1 0 11:27 14.10.2019
217 Clouds 27 1015 79 0 5.59 54.914 10:59 14.10.2019
218 Clouds 27 1015 79 0 5.59 54.914 10:41 14.10.2019
219 Clouds 27 1015 79 0 5.59 54.914 10:21 14.10.2019
220 Clouds 27 1015 79 0 5.59 54.914 10:21 14.10.2019
221 Clouds 27 1015 79 0 5.59 54.914 09:57 14.10.2019
222 Clouds 27 1015 79 0 5.59 54.914 09:38 14.10.2019
223 Clouds 27 1016 81 0 7.4 73.219 09:19 14.10.2019
224 Clouds 27 1016 81 0 7.4 73.219 08:45 14.10.2019
225 Clouds 27 1016 81 0 7.4 73.219 08:22 14.10.2019
226 Clouds 27 1016 81 0 7.4 73.219 07:43 14.10.2019
227 Clouds 27 1016 81 0 7.4 73.219 07:19 14.10.2019
228 Clouds 27 1016 81 0 7.4 73.219 06:53 14.10.2019
229 Clouds 27 1016 81 0 7.4 73.219 06:26 14.10.2019
230 Clouds 27 1017 82 0 8.2 75.322 05:49 14.10.2019
231 Clouds 27 1018 74 10000 4.1 90 04:48 14.10.2019
232 Clouds 27 1017 74 10000 4.1 90 03:28 14.10.2019
233 Clouds 27 1017 74 10000 3.6 90 02:49 14.10.2019
234 Clouds 27 1016 74 10000 3.6 90 01:24 14.10.2019
235 Rain 27 1016 69 10000 4.6 110 00:58 14.10.2019
236 Rain 27 1016 69 10000 4.6 110 00:20 14.10.2019
237 Clouds 28 1016 65 10000 5.1 90 23:45 13.10.2019
238 Clouds 28 1016 65 10000 5.1 90 23:20 13.10.2019
239 Rain 28 1016 66 10000 5.1 110 22:58 13.10.2019
240 Rain 28 1016 66 10000 5.1 110 22:40 13.10.2019
241 Rain 28 1016 66 10000 5.1 110 22:40 13.10.2019
242 Rain 29 1016 66 10000 5.1 110 22:21 13.10.2019
243 Rain 29 1016 62 10000 4.6 100 21:58 13.10.2019
244 Rain 29 1016 62 10000 4.6 100 21:37 13.10.2019
245 Rain 29 1016 62 10000 4.6 100 21:19 13.10.2019
246 Clouds 29 1017 66 10000 5.7 80 20:57 13.10.2019
247 Clouds 29 1017 66 10000 5.7 80 20:57 13.10.2019
248 Clouds 29 1017 66 10000 5.7 80 20:38 13.10.2019
249 Clouds 29 1017 66 10000 5.7 80 20:20 13.10.2019
250 Clouds 29 1017 66 10000 6.2 90 19:58 13.10.2019
251 -273 0 0 0 0 0 19:39 13.10.2019
252 Clouds 29 1017 66 10000 6.2 90 19:21 13.10.2019
253 Clouds 28 1018 69 10000 5.7 80 18:57 13.10.2019
254 Clouds 28 1018 69 10000 5.7 80 18:57 13.10.2019
255 Clouds 28 1018 69 10000 5.7 80 18:37 13.10.2019
256 Clouds 29 1017 66 10000 4.6 100 18:19 13.10.2019
257 Clouds 29 1017 66 10000 4.6 100 17:57 13.10.2019
258 Clouds 29 1017 66 10000 4.6 100 17:38 13.10.2019
259 Clouds 29 1017 66 10000 4.6 100 17:20 13.10.2019
260 Rain 27 1017 74 10000 4.1 90 16:41 13.10.2019
261 Rain 27 1017 74 10000 4.1 90 16:18 13.10.2019
262 Clouds 27 1016 74 10000 4.1 120 15:57 13.10.2019
263 Clouds 27 1016 74 10000 4.1 120 15:37 13.10.2019
264 Clouds 27 1016 74 10000 4.1 120 15:37 13.10.2019
265 Clouds 26 1015 74 10000 4.1 90 15:18 13.10.2019
266 Clouds 26 1015 74 10000 4.1 90 14:56 13.10.2019
267 -273 0 0 0 0 0 14:56 13.10.2019
268 Clouds 26 1015 74 10000 4.1 90 14:37 13.10.2019
269 Clouds 26 1015 74 10000 3.6 100 14:18 13.10.2019
270 Clouds 26 1015 74 10000 3.6 100 13:39 13.10.2019
271 Clouds 26 1015 74 10000 3.6 100 13:39 13.10.2019
272 Clouds 26 1015 74 10000 3.6 100 13:21 13.10.2019
273 Rain 25 1015 78 10000 3.1 100 12:57 13.10.2019
274 Rain 25 1015 78 10000 3.1 100 12:39 13.10.2019
275 Rain 25 1015 78 10000 3.1 100 12:39 13.10.2019
276 Rain 25 1015 78 10000 3.1 100 12:20 13.10.2019
277 Rain 26 1015 74 10000 2.6 100 11:58 13.10.2019
278 Rain 26 1015 74 10000 2.6 100 11:38 13.10.2019
279 Rain 26 1015 74 10000 2.6 100 11:19 13.10.2019
280 Rain 25 1015 73 10000 3.1 120 10:42 13.10.2019
281 Rain 25 1015 73 10000 3.1 120 10:23 13.10.2019
282 Thunderstorm 26 1016 69 10000 3.1 110 09:58 13.10.2019
283 Thunderstorm 26 1016 69 10000 3.1 110 09:58 13.10.2019
284 Thunderstorm 26 1016 69 10000 3.1 110 09:38 13.10.2019
285 Thunderstorm 26 1016 69 10000 3.1 110 09:19 13.10.2019
286 Thunderstorm 26 1016 69 10000 3.6 100 08:43 13.10.2019
287 Thunderstorm 26 1016 69 10000 3.6 100 08:23 13.10.2019
288 Thunderstorm 26 1017 69 10000 3.6 100 07:50 13.10.2019
289 Thunderstorm 26 1017 69 10000 3.6 100 07:30 13.10.2019
290 Thunderstorm 26 1017 69 10000 4.6 100 06:48 13.10.2019
291 Thunderstorm 27 1017 65 10000 5.1 90 05:57 13.10.2019
292 Thunderstorm 27 1017 69 10000 5.1 90 04:52 13.10.2019
293 Thunderstorm 27 1017 65 10000 6.7 90 04:33 13.10.2019
294 Clouds 27 1016 69 10000 5.1 80 02:48 13.10.2019
295 Clouds 27 1016 69 10000 5.1 80 02:23 13.10.2019
296 Clouds 27 1015 65 10000 6.2 80 01:34 13.10.2019
297 Clouds 27 1015 74 10000 5.7 80 00:52 13.10.2019
298 Clouds 27 1015 74 10000 5.7 80 00:52 13.10.2019
299 Clouds 28 1014 69 10000 6.7 80 00:22 13.10.2019
300 Clouds 28 1014 69 10000 6.7 80 23:58 12.10.2019
301 Clouds 28 1014 69 10000 6.7 80 23:39 12.10.2019
302 Clouds 28 1014 69 10000 6.7 80 23:21 12.10.2019
303 Clouds 29 1014 66 10000 6.7 80 22:58 12.10.2019
304 Clouds 29 1014 66 10000 6.7 80 22:58 12.10.2019
305 Clouds 29 1014 66 10000 6.7 80 22:39 12.10.2019
306 Clouds 27 1013 78 0 8.97 64.81 22:20 12.10.2019
307 Clouds 27 1013 78 0 8.97 64.81 21:55 12.10.2019
308 Clouds 27 1013 78 0 8.97 64.81 21:37 12.10.2019
309 Clouds 28 1014 74 10000 6.2 80 21:19 12.10.2019
310 Clouds 28 1014 74 10000 6.2 80 21:19 12.10.2019
311 Clouds 28 1014 74 10000 6.2 80 20:41 12.10.2019
312 Clouds 28 1014 74 10000 6.2 80 20:41 12.10.2019
313 Clouds 28 1014 74 10000 6.2 80 20:41 12.10.2019
314 Clouds 28 1014 74 10000 6.2 80 20:23 12.10.2019
315 Clouds 28 1015 74 10000 6.7 80 19:40 12.10.2019
316 Clouds 28 1015 74 10000 6.7 80 19:40 12.10.2019
317 Rain 28 1015 74 10000 7.2 80 19:22 12.10.2019
318 Rain 28 1015 74 10000 7.2 80 18:59 12.10.2019
319 Rain 28 1015 74 10000 7.2 80 18:40 12.10.2019
320 Rain 28 1015 74 10000 7.2 80 18:22 12.10.2019
321 Clouds 29 1015 70 10000 6.7 90 17:44 12.10.2019
322 Clouds 29 1015 70 10000 6.7 90 17:19 12.10.2019
323 Rain 28 1015 74 10000 6.2 80 16:55 12.10.2019
324 Rain 28 1015 74 10000 6.2 80 16:36 12.10.2019
325 Rain 28 1015 74 10000 6.2 80 16:36 12.10.2019
326 Rain 28 1015 74 10000 6.2 80 16:18 12.10.2019
327 Rain 27 1015 78 10000 5.1 80 15:44 12.10.2019
328 Rain 27 1015 78 10000 5.1 80 15:25 12.10.2019
329 Rain 27 1015 78 10000 5.1 80 15:25 12.10.2019
330 Rain 27 1014 78 10000 4.1 80 14:43 12.10.2019
331 Thunderstorm 26 1014 83 10000 4.6 90 14:22 12.10.2019
332 Thunderstorm 26 1014 83 10000 4.6 90 13:59 12.10.2019
333 Thunderstorm 26 1014 83 10000 4.6 90 13:40 12.10.2019
334 Thunderstorm 26 1014 88 10000 4.6 90 13:21 12.10.2019
335 Thunderstorm 26 1014 88 10000 4.6 90 12:40 12.10.2019
336 Thunderstorm 27 1014 78 10000 5.1 80 12:21 12.10.2019
337 Thunderstorm 27 1014 78 10000 5.1 80 11:58 12.10.2019
338 Thunderstorm 27 1014 78 10000 5.1 80 11:39 12.10.2019
339 Rain 27 1012 81 0 7.71 78.985 11:20 12.10.2019
340 Rain 27 1012 81 0 7.71 78.985 10:43 12.10.2019
341 Clouds 27 1014 78 10000 4.6 90 10:23 12.10.2019
342 Clouds 27 1014 78 10000 4.6 90 09:58 12.10.2019
343 Clouds 27 1014 78 10000 4.6 90 09:39 12.10.2019
344 Clouds 27 1014 78 10000 4.6 90 09:21 12.10.2019
345 Clouds 27 1014 74 10000 3.6 90 08:57 12.10.2019
346 Clouds 27 1014 74 10000 3.6 90 08:57 12.10.2019
347 Clouds 27 1014 74 10000 3.6 90 08:38 12.10.2019
348 Thunderstorm 27 1015 78 10000 4.1 100 08:18 12.10.2019
349 Thunderstorm 27 1015 78 10000 4.1 100 07:33 12.10.2019
350 Thunderstorm 27 1015 78 10000 4.1 100 06:51 12.10.2019
351 Thunderstorm 27 1015 78 10000 4.6 100 05:47 12.10.2019
352 Thunderstorm 27 1015 78 10000 4.6 100 05:22 12.10.2019
353 Thunderstorm 27 1014 83 10000 5.1 80 03:58 12.10.2019
354 Clouds 27 1013 78 10000 4.1 90 02:57 12.10.2019
355 Clouds 28 1013 78 10000 4.6 70 01:36 12.10.2019
356 Clouds 28 1013 78 10000 4.6 70 01:36 12.10.2019
357 Rain 28 1013 74 10000 4.6 80 00:59 12.10.2019
358 Rain 28 1013 74 10000 4.6 80 00:39 12.10.2019
359 Thunderstorm 29 1013 74 10000 5.1 80 23:57 11.10.2019
360 Thunderstorm 29 1013 74 10000 5.1 80 23:38 11.10.2019
361 Thunderstorm 29 1013 70 10000 5.7 70 23:19 11.10.2019
362 Thunderstorm 29 1013 70 10000 5.7 70 22:39 11.10.2019
363 Thunderstorm 29 1013 70 10000 5.7 70 22:21 11.10.2019
364 Clouds 29 1013 74 10000 6.7 90 21:55 11.10.2019
365 Clouds 29 1013 74 10000 6.7 90 21:37 11.10.2019
366 Clouds 29 1013 74 10000 6.7 90 21:18 11.10.2019
367 Clouds 29 1013 74 10000 5.1 40 20:43 11.10.2019
368 Clouds 29 1014 70 10000 4.6 60 20:25 11.10.2019
369 Clouds 29 1014 70 10000 4.6 60 19:56 11.10.2019
370 Clouds 29 1014 70 10000 4.6 60 19:38 11.10.2019
371 Clouds 29 1014 70 10000 4.6 60 19:38 11.10.2019
372 Clouds 29 1014 70 10000 4.6 60 19:18 11.10.2019
373 Clouds 29 1014 70 10000 4.6 50 18:56 11.10.2019
374 Clouds 29 1014 70 10000 4.6 50 18:37 11.10.2019
375 Clouds 29 1014 70 10000 4.6 50 18:18 11.10.2019
376 Clouds 29 1014 70 10000 4.6 90 17:57 11.10.2019
377 Clouds 29 1014 70 10000 4.6 90 17:37 11.10.2019
378 Clouds 29 1014 70 10000 4.6 90 17:18 11.10.2019
379 Clouds 28 1014 74 10000 4.1 70 16:42 11.10.2019
380 Clouds 28 1014 74 10000 4.1 70 16:21 11.10.2019
381 Clouds 28 1014 78 10000 3.6 70 15:59 11.10.2019
382 Clouds 28 1014 78 10000 3.6 70 15:39 11.10.2019
383 Clouds 27 1013 83 10000 3.6 70 15:19 11.10.2019
384 Clouds 27 1013 83 10000 3.6 70 14:47 11.10.2019
385 Clouds 28 1012 70 0 4.2 34.857 14:29 11.10.2019
386 Clouds 28 1012 70 0 4.2 34.857 13:57 11.10.2019
387 Clouds 28 1012 70 0 4.2 34.857 13:38 11.10.2019
388 Clouds 27 1012 83 10000 2.6 90 13:19 11.10.2019
389 Clouds 27 1012 83 10000 2.6 90 12:56 11.10.2019
390 Clouds 27 1012 83 10000 2.6 90 12:38 11.10.2019
391 Clouds 27 1012 83 10000 2.6 90 12:18 11.10.2019
392 Clouds 27 1012 78 10000 2.6 80 11:41 11.10.2019
393 Clouds 27 1012 78 10000 2.6 80 11:22 11.10.2019
394 Clouds 27 1012 78 10000 2.6 80 11:22 11.10.2019
395 Clouds 28 1011 74 0 4.48 29.888 10:58 11.10.2019
396 Clouds 28 1011 74 0 4.48 29.888 10:58 11.10.2019
397 Clouds 28 1011 74 0 4.48 29.888 10:40 11.10.2019
398 Clouds 28 1011 74 0 4.48 29.888 10:22 11.10.2019
399 Clouds 28 1011 74 0 4.48 29.888 09:55 11.10.2019
400 Clear 28 1011 76 0 4.19 20.599 09:37 11.10.2019
401 Rain 28 1011 73 0 3.18 29.803 09:18 11.10.2019
402 Rain 28 1011 73 0 3.18 29.803 08:54 11.10.2019
403 Rain 28 1011 73 0 3.18 29.803 08:54 11.10.2019
404 Rain 28 1011 73 0 3.18 29.803 08:36 11.10.2019
405 Rain 28 1011 73 0 3.18 29.803 08:18 11.10.2019
406 Rain 28 1011 73 0 3.18 29.803 07:41 11.10.2019
407 Rain 28 1011 73 0 3.18 29.803 07:22 11.10.2019
408 Rain 28 1011 73 0 3.18 29.803 06:47 11.10.2019
409 Clouds 27 1014 78 10000 1.5 20 06:22 11.10.2019
410 Clouds 27 1014 78 10000 1.5 20 05:37 11.10.2019
411 Clouds 27 1014 83 10000 1.5 10 04:59 11.10.2019
412 Clouds 27 1014 83 10000 1.5 10 04:24 11.10.2019
413 Rain 27 1012 83 10000 1 0 02:18 11.10.2019
414 Rain 27 1013 83 10000 2.6 70 00:42 11.10.2019
415 Rain 28 1012 78 10000 2.1 350 00:23 11.10.2019
416 Rain 28 1012 78 10000 2.1 350 00:23 11.10.2019
417 Rain 28 1012 78 10000 2.1 350 23:42 10.10.2019
418 Clouds 28 1011 72 0 4.26 354.522 23:21 10.10.2019
419 Clouds 28 1011 72 0 4.26 354.522 22:57 10.10.2019
420 Clouds 28 1011 72 0 4.26 354.522 22:38 10.10.2019
421 Rain 30 1013 70 10000 2.6 30 22:19 10.10.2019
422 Rain 30 1013 70 10000 2.6 30 21:54 10.10.2019
423 Rain 30 1013 70 10000 2.6 30 21:36 10.10.2019
424 Clouds 29 1013 74 10000 3.1 40 21:18 10.10.2019
425 Clouds 29 1013 74 10000 3.1 40 20:41 10.10.2019
426 Clouds 29 1013 74 10000 3.1 40 20:21 10.10.2019
427 Clouds 29 1014 70 10000 3.1 360 19:58 10.10.2019
428 Clouds 29 1014 70 10000 3.1 360 19:39 10.10.2019
429 Clouds 29 1015 74 10000 2.6 360 19:19 10.10.2019
430 Clouds 29 1015 74 10000 2.6 360 18:54 10.10.2019
431 Clouds 29 1015 74 10000 2.6 360 18:36 10.10.2019
432 Clouds 29 1015 74 10000 4.1 360 18:18 10.10.2019
433 Clouds 29 1015 74 10000 4.1 360 17:40 10.10.2019
434 Clouds 29 1015 74 10000 4.1 360 17:20 10.10.2019
435 Clouds 28 1015 83 10000 3.1 340 16:58 10.10.2019
436 Clouds 28 1015 83 10000 3.1 340 16:39 10.10.2019
437 Clouds 28 1015 83 10000 3.1 340 16:21 10.10.2019
438 Clouds 28 1014 83 10000 3.1 340 15:43 10.10.2019
439 Clouds 26 1014 94 10000 0.75 196.545 15:23 10.10.2019
440 Clouds 26 1014 94 10000 0.75 196.545 14:59 10.10.2019
441 Clouds 26 1014 94 10000 0.75 196.545 14:37 10.10.2019
442 Clouds 25 1014 94 10000 0.75 196.545 14:19 10.10.2019
443 Clouds 25 1014 94 10000 0.75 196.545 13:58 10.10.2019
444 Clouds 25 1014 94 10000 0.75 196.545 13:39 10.10.2019
445 Clouds 25 1014 94 10000 0.69 218.673 13:18 10.10.2019
446 Clouds 24 1013 100 10000 0.5 0 12:42 10.10.2019
447 Clouds 24 1013 100 10000 0.5 0 12:21 10.10.2019
448 Clouds 25 1013 94 0 1.5 10 11:58 10.10.2019
449 Clouds 25 1013 94 0 1.5 10 11:40 10.10.2019
450 Clouds 25 1013 94 10000 0.5 0 11:19 10.10.2019
451 Clouds 25 1013 94 10000 0.5 0 10:47 10.10.2019
452 Clouds 25 1013 94 10000 0.5 0 10:47 10.10.2019
453 Clouds 25 1013 94 10000 0.5 0 10:28 10.10.2019
454 Clouds 25 1013 94 10000 0.5 0 10:28 10.10.2019
455 Clouds 25 1013 94 10000 2.6 190 09:59 10.10.2019
456 Clouds 25 1013 94 10000 2.6 190 09:41 10.10.2019
457 Clouds 25 1013 94 10000 2.6 190 09:23 10.10.2019
458 Clouds 25 1015 94 10000 1.03 182.164 08:59 10.10.2019
459 Clouds 25 1015 94 10000 1.03 182.164 08:40 10.10.2019
460 Clouds 25 1015 94 10000 1.03 182.164 08:20 10.10.2019
461 Clouds 25 1015 94 10000 1.03 182.164 07:47 10.10.2019
462 Clouds 25 1015 94 10000 1.03 182.164 07:25 10.10.2019
463 Clouds 25 1016 94 10000 0.5 0 06:55 10.10.2019
464 Clouds 25 1016 94 10000 0.5 0 06:36 10.10.2019
465 Clouds 26 1015 88 10000 0.5 0 05:39 10.10.2019
466 Clouds 26 1015 88 10000 0.5 0 05:18 10.10.2019
467 Clouds 26 1015 94 10000 0.5 0 04:34 10.10.2019
468 Clouds 29 1013 74 10000 1.5 30 02:29 10.10.2019
469 Clouds 29 1013 74 10000 1.5 30 01:37 10.10.2019
470 Clouds 29 1013 74 10000 1.5 30 01:18 10.10.2019
471 Rain 29 1013 74 10000 1.5 30 00:25 10.10.2019
472 Rain 29 1013 74 10000 1.5 30 23:42 09.10.2019
473 Rain 29 1013 74 10000 1.5 30 23:23 09.10.2019
474 Rain 29 1013 74 10000 2.6 20 22:59 09.10.2019
475 Rain 29 1013 74 10000 2.6 20 22:59 09.10.2019
476 Rain 29 1013 74 10000 2.6 20 22:40 09.10.2019
477 Rain 29 1014 79 10000 3.6 30 22:22 09.10.2019
478 Rain 29 1014 79 10000 3.6 30 21:42 09.10.2019
479 Rain 29 1014 79 10000 3.6 30 21:21 09.10.2019
480 Rain 29 1014 79 10000 3.6 30 21:21 09.10.2019
481 Rain 29 1014 79 10000 2.1 50 20:56 09.10.2019
482 Rain 29 1014 79 10000 2.1 50 20:38 09.10.2019
483 Rain 29 1015 83 10000 3.1 300 20:19 09.10.2019
484 Rain 29 1015 83 10000 3.1 300 19:59 09.10.2019
485 Rain 29 1015 83 10000 3.1 300 19:59 09.10.2019
486 Rain 29 1015 83 10000 3.1 300 19:59 09.10.2019
487 Rain 29 1015 83 10000 3.1 300 19:40 09.10.2019
488 Rain 29 1015 83 10000 3.1 300 19:22 09.10.2019
489 Clouds 29 1013 71 0 1.79 168.401 18:38 09.10.2019
490 Clouds 29 1016 79 10000 4.1 260 18:20 09.10.2019
491 Clouds 29 1016 79 10000 4.1 260 17:58 09.10.2019
492 Clouds 29 1016 79 10000 4.1 260 17:58 09.10.2019
493 Clouds 29 1016 79 10000 4.1 260 17:37 09.10.2019
494 Clouds 29 1016 79 10000 4.1 260 17:37 09.10.2019
495 Clouds 29 1016 79 10000 3.1 210 17:19 09.10.2019
496 Clouds 29 1016 79 10000 3.1 210 16:56 09.10.2019
497 Clouds 29 1016 79 10000 3.1 210 16:37 09.10.2019
498 Clouds 29 1015 83 10000 2.1 210 16:18 09.10.2019
499 Clouds 29 1015 83 10000 2.1 210 16:18 09.10.2019
500 Clouds 29 1015 83 10000 2.1 210 15:55 09.10.2019
501 Clouds 28 1015 83 10000 2.1 210 15:36 09.10.2019
502 Clouds 27 1015 94 10000 1.5 210 15:18 09.10.2019
503 Clouds 27 1015 94 10000 1.5 210 14:44 09.10.2019
504 Clouds 27 1014 94 10000 1 0 14:19 09.10.2019
505 Clouds 26 1014 94 10000 1 0 13:58 09.10.2019
506 Clouds 26 1014 94 10000 1 0 13:36 09.10.2019
507 Clouds 26 1014 94 10000 1 0 13:18 09.10.2019
508 Clouds 25 1014 94 10000 1.5 210 12:42 09.10.2019
509 Thunderstorm 25 1013 94 10000 1.5 180 12:22 09.10.2019
510 Thunderstorm 25 1013 94 10000 1.5 180 11:58 09.10.2019
511 Thunderstorm 25 1013 94 10000 1.5 180 11:39 09.10.2019
512 Thunderstorm 25 1013 94 10000 1.5 180 11:20 09.10.2019
513 Clouds 28 1012 77 0 3.55 169.402 10:57 09.10.2019
514 Clouds 28 1012 77 0 3.55 169.402 10:57 09.10.2019
515 Clouds 28 1012 77 0 3.55 169.402 10:39 09.10.2019
516 Clouds 28 1012 77 0 3.55 169.402 10:18 09.10.2019
517 Clouds 28 1012 77 0 3.55 169.402 09:42 09.10.2019
518 Rain 28 1013 77 0 1.14 54.532 09:19 09.10.2019
519 Rain 28 1013 77 0 1.14 54.532 08:56 09.10.2019
520 Rain 28 1014 80 0 1.52 224.149 08:37 09.10.2019
521 Thunderstorm 26 1015 94 10000 1.5 270 08:18 09.10.2019
522 Thunderstorm 26 1015 94 10000 1.5 270 07:42 09.10.2019
523 Thunderstorm 26 1015 94 10000 1.5 270 07:22 09.10.2019
524 Thunderstorm 26 1015 94 10000 1 0 06:52 09.10.2019
525 Thunderstorm 26 1015 94 10000 1 0 06:20 09.10.2019
526 Thunderstorm 26 1015 94 10000 1 0 06:20 09.10.2019
527 Thunderstorm 28 1016 83 10000 1 0 05:46 09.10.2019
528 Thunderstorm 28 1015 88 10000 1 0 04:27 09.10.2019
529 Thunderstorm 28 1014 88 10000 3.1 210 02:54 09.10.2019
530 Clouds 28 1013 83 10000 3.1 180 01:44 09.10.2019
531 Clouds 28 1013 83 10000 3.1 180 01:21 09.10.2019
532 Clouds 28 1013 79 10000 4.1 190 00:57 09.10.2019
533 Clouds 29 1013 79 10000 4.1 190 00:38 09.10.2019
534 Clouds 29 1013 79 10000 4.1 190 00:20 09.10.2019
535 Clouds 30 1012 74 10000 5.7 180 23:39 08.10.2019
536 Clouds 30 1012 74 10000 5.7 180 23:19 08.10.2019
537 Clouds 30 1012 74 10000 5.7 190 22:57 08.10.2019
538 Clouds 31 1012 74 10000 5.7 190 22:38 08.10.2019
539 Clouds 31 1012 74 10000 5.7 190 22:19 08.10.2019
540 Clouds 31 1013 70 10000 6.2 200 21:57 08.10.2019
541 Clouds 31 1013 70 10000 6.2 200 21:39 08.10.2019
542 Clouds 31 1013 70 10000 6.2 200 21:19 08.10.2019
543 Clouds 31 1013 74 10000 6.2 170 20:56 08.10.2019
544 Clouds 31 1013 74 10000 6.2 170 20:37 08.10.2019
545 Clouds 31 1013 74 10000 6.2 170 20:19 08.10.2019
546 Clouds 31 1014 79 10000 7.2 200 19:56 08.10.2019
547 Clouds 31 1014 79 10000 7.2 200 19:37 08.10.2019
548 Clouds 31 1014 79 10000 7.2 200 19:19 08.10.2019
549 Clouds 31 1015 74 10000 6.7 200 18:46 08.10.2019
550 Clouds 30 1015 79 10000 6.7 190 18:27 08.10.2019
551 Clouds 31 1015 79 10000 6.7 190 17:59 08.10.2019
552 Clouds 31 1015 79 10000 6.7 190 17:40 08.10.2019
553 Clouds 31 1015 79 10000 6.7 190 17:40 08.10.2019
554 Clouds 31 1015 79 10000 6.7 190 17:40 08.10.2019
555 Clouds 30 1015 79 10000 6.7 190 17:20 08.10.2019
556 Clouds 30 1015 79 10000 6.7 190 17:20 08.10.2019
557 Clouds 29 1015 83 10000 5.7 190 16:56 08.10.2019
558 Clouds 30 1015 83 10000 5.7 190 16:37 08.10.2019
559 Clouds 29 1015 83 10000 5.7 190 16:19 08.10.2019
560 Clouds 29 1014 83 10000 5.1 190 15:40 08.10.2019
561 Clouds 28 1014 88 10000 3.6 170 15:20 08.10.2019
562 Clouds 28 1014 88 10000 3.6 170 14:57 08.10.2019
563 Clouds 27 1014 88 10000 3.6 170 14:38 08.10.2019
564 Rain 27 1013 88 10000 3.6 180 14:20 08.10.2019
565 Rain 27 1013 88 10000 3.6 180 13:55 08.10.2019
566 Rain 27 1013 88 10000 3.6 180 13:55 08.10.2019
567 Rain 27 1013 88 10000 3.6 180 13:37 08.10.2019
568 Rain 27 1013 88 10000 3.6 180 13:37 08.10.2019
569 Rain 27 1013 88 10000 3.6 180 13:18 08.10.2019
570 Rain 26 1013 94 10000 2.6 170 12:41 08.10.2019
571 Rain 26 1013 94 10000 2.6 170 12:20 08.10.2019
572 Rain 26 1013 88 10000 3.6 120 11:58 08.10.2019
573 Rain 26 1013 88 10000 3.6 120 11:39 08.10.2019
574 Rain 26 1013 88 10000 3.6 120 11:21 08.10.2019
575 Thunderstorm 25 1013 94 10000 2.6 140 10:54 08.10.2019
576 Thunderstorm 25 1013 94 10000 2.6 140 10:54 08.10.2019
577 Thunderstorm 25 1013 94 10000 2.6 140 10:36 08.10.2019
578 Thunderstorm 25 1013 94 10000 2.6 140 10:18 08.10.2019
579 Thunderstorm 25 1013 94 10000 1.5 110 09:40 08.10.2019
580 Thunderstorm 25 1013 94 10000 1.5 110 09:22 08.10.2019
581 Thunderstorm 25 1013 94 10000 0.5 0 08:45 08.10.2019
582 Thunderstorm 25 1013 94 10000 0.5 0 08:25 08.10.2019
583 Thunderstorm 25 1014 94 10000 1 0 07:58 08.10.2019
584 Thunderstorm 25 1014 94 10000 1 0 07:40 08.10.2019
585 Thunderstorm 25 1014 94 10000 1 0 07:19 08.10.2019
586 Thunderstorm 25 1015 94 10000 1 0 06:46 08.10.2019
587 Thunderstorm 25 1015 94 10000 1 0 06:23 08.10.2019
588 Rain 25 1015 94 10000 1 0 05:43 08.10.2019
589 Rain 25 1015 94 10000 1 0 05:43 08.10.2019
590 Rain 25 1015 94 10000 1 0 05:19 08.10.2019
591 Rain 23 1014 100 10000 1.5 100 03:31 08.10.2019
592 Thunderstorm 23 1014 94 6000 6.2 270 02:43 08.10.2019
593 Clouds 25 1013 94 10000 1.5 210 02:25 08.10.2019
594 Clouds 25 1013 94 10000 1.5 210 01:41 08.10.2019
595 Rain 24 1012 94 10000 4.1 160 00:56 08.10.2019
596 Rain 26 1012 83 10000 3.1 180 00:25 08.10.2019
597 Rain 26 1012 83 10000 3.1 180 23:56 07.10.2019
598 Thunderstorm 28 1012 83 10000 3.1 180 23:37 07.10.2019
599 Rain 28 1011 78 0 9.88 226.935 23:19 07.10.2019
600 Rain 29 1011 78 0 0.45 262 22:54 07.10.2019
601 Rain 29 1011 78 0 0.45 262 22:54 07.10.2019
602 Rain 29 1011 78 0 9.88 226.935 22:36 07.10.2019
603 Clouds 26 1012 94 10000 2.6 230 22:18 07.10.2019
604 Clouds 27 1012 94 10000 2.6 230 21:54 07.10.2019
605 Clouds 27 1012 94 10000 2.6 230 21:36 07.10.2019
606 Clouds 27 1012 94 10000 2.6 230 21:18 07.10.2019
607 Clouds 27 1012 94 10000 2.6 230 21:18 07.10.2019
608 Rain 28 1013 83 8000 4.1 190 20:54 07.10.2019
609 Rain 28 1013 83 8000 4.1 190 20:36 07.10.2019
610 Rain 28 1013 78 10000 6.7 180 20:18 07.10.2019
611 Rain 28 1013 78 10000 6.7 180 19:41 07.10.2019
612 Thunderstorm 30 1014 70 10000 7.7 180 19:20 07.10.2019
613 Thunderstorm 30 1014 70 10000 7.7 180 18:59 07.10.2019
614 Thunderstorm 30 1014 70 10000 7.7 180 18:40 07.10.2019
615 Clouds 29 1014 74 10000 8.2 190 18:19 07.10.2019
616 Clouds 29 1014 74 10000 8.2 190 18:19 07.10.2019
617 Clouds 29 1014 74 10000 8.2 190 17:55 07.10.2019
618 Clouds 30 1014 74 10000 8.2 190 17:37 07.10.2019
619 Clouds 30 1014 74 10000 8.2 190 17:18 07.10.2019
620 Rain 30 1013 79 10000 7.2 190 16:43 07.10.2019
621 Rain 29 1013 79 10000 7.2 190 16:25 07.10.2019
622 Rain 28 1013 78 10000 4.6 200 15:46 07.10.2019
623 Clouds 27 1012 83 10000 4.6 190 15:27 07.10.2019
624 Clouds 27 1012 83 10000 4.6 190 14:59 07.10.2019
625 Clouds 27 1012 83 10000 4.6 190 14:40 07.10.2019
626 Clouds 27 1012 83 10000 4.6 190 14:22 07.10.2019
627 Clouds 26 1012 88 10000 4.6 180 13:44 07.10.2019
628 Clouds 26 1012 88 10000 4.1 160 13:21 07.10.2019
629 Clouds 26 1012 88 10000 4.1 160 12:57 07.10.2019
630 Clouds 26 1012 88 10000 4.1 160 12:39 07.10.2019
631 Clouds 26 1012 88 10000 4.1 160 12:19 07.10.2019
632 Rain 24 1012 94 10000 8.2 180 11:58 07.10.2019
633 Rain 24 1012 94 10000 8.2 180 11:38 07.10.2019
634 Rain 28 1010 78 0 6.75 117.009 11:20 07.10.2019
635 Rain 28 1010 78 0 6.75 117.009 10:42 07.10.2019
636 Rain 25 1012 94 9000 6.7 170 10:21 07.10.2019
637 Rain 25 1012 94 9000 6.7 170 09:55 07.10.2019
638 Rain 25 1012 94 9000 6.7 170 09:55 07.10.2019
639 Rain 25 1012 94 9000 6.7 170 09:54 07.10.2019
640 Rain 25 1012 94 9000 6.7 170 09:36 07.10.2019
641 Clouds 27 1012 83 10000 4.1 130 09:18 07.10.2019
642 Clouds 27 1012 83 10000 4.1 130 08:41 07.10.2019
643 Clouds 27 1013 83 10000 3.6 120 08:20 07.10.2019
644 Clouds 26 1013 83 10000 3.6 120 07:44 07.10.2019
645 Clouds 26 1013 83 10000 3.6 120 07:25 07.10.2019
646 Clouds 26 1013 83 10000 3.6 140 06:56 07.10.2019
647 Clouds 26 1013 83 10000 3.6 140 06:37 07.10.2019
648 Clouds 26 1013 88 10000 2.1 130 05:54 07.10.2019
649 Clouds 27 1013 88 10000 2.1 130 05:25 07.10.2019
650 Clouds 26 1013 88 10000 3.1 120 04:44 07.10.2019
651 Clouds 27 1013 78 10000 2.6 110 03:45 07.10.2019
652 Clouds 27 1013 78 10000 2.6 110 03:23 07.10.2019
653 Clouds 27 1012 74 10000 3.6 120 02:23 07.10.2019
654 Clouds 28 1012 74 10000 4.6 140 01:57 07.10.2019
655 Clouds 28 1012 74 10000 4.6 140 01:22 07.10.2019
656 Clouds 28 1012 74 10000 6.2 150 00:44 07.10.2019
657 Clouds 29 1012 70 10000 6.2 150 00:22 07.10.2019
658 Clouds 29 1012 70 10000 6.2 150 23:56 06.10.2019
659 Clouds 29 1012 70 10000 6.2 150 23:38 06.10.2019
660 Clouds 29 1012 70 10000 6.2 150 23:18 06.10.2019
661 Clouds 29 1012 70 10000 4.1 80 22:42 06.10.2019
662 Clouds 29 1012 70 10000 4.1 80 22:22 06.10.2019
663 Clouds 28 1012 70 10000 4.1 50 21:58 06.10.2019
664 Clouds 28 1012 70 10000 4.1 50 21:58 06.10.2019
665 Clouds 29 1012 70 10000 4.1 50 21:38 06.10.2019
666 Clouds 29 1012 70 10000 4.1 50 21:19 06.10.2019
667 Clouds 29 1013 70 10000 5.1 50 20:59 06.10.2019
668 Clouds 29 1013 70 10000 5.1 50 20:40 06.10.2019
669 Clouds 29 1013 70 10000 5.1 50 20:21 06.10.2019
670 Clouds 29 1013 66 10000 5.1 70 19:58 06.10.2019
671 Clouds 29 1013 66 10000 5.1 70 19:38 06.10.2019
672 Clouds 29 1013 66 10000 5.1 70 19:20 06.10.2019
673 Rain 29 1012 74 0 0.89 58 18:57 06.10.2019
674 Rain 28 1013 75 0 1.34 55 18:39 06.10.2019
675 Clouds 28 1014 74 10000 5.1 50 18:20 06.10.2019
676 Clouds 28 1014 74 10000 5.1 50 17:59 06.10.2019
677 Clouds 28 1014 74 10000 5.1 50 17:39 06.10.2019
678 Clouds 28 1014 74 10000 5.1 50 17:19 06.10.2019
679 Clouds 28 1014 74 10000 4.6 50 16:42 06.10.2019
680 Clouds 28 1014 74 10000 4.6 50 16:24 06.10.2019
681 Clouds 27 1014 74 10000 3.6 70 15:58 06.10.2019
682 Clouds 27 1014 74 10000 3.6 70 15:58 06.10.2019
683 Clouds 27 1014 74 10000 3.6 70 15:39 06.10.2019
684 Clouds 27 1014 74 10000 3.6 70 15:18 06.10.2019
685 Clouds 27 1014 74 10000 3.6 70 15:18 06.10.2019
686 Clouds 27 1014 74 10000 3.6 80 14:43 06.10.2019
687 Clouds 27 1014 74 10000 3.6 80 14:24 06.10.2019
688 Clouds 26 1013 74 10000 3.1 80 13:58 06.10.2019
689 Clouds 26 1013 74 10000 3.1 80 13:39 06.10.2019
690 Clouds 26 1013 74 10000 3.1 80 13:20 06.10.2019
691 Clouds 26 1013 74 10000 3.6 70 12:57 06.10.2019
692 Clouds 26 1013 74 10000 3.6 70 12:57 06.10.2019
693 Clouds 26 1013 74 10000 3.6 70 12:38 06.10.2019
694 Clouds 26 1013 74 10000 3.6 70 12:20 06.10.2019
695 Clouds 26 1012 78 10000 3.1 90 11:56 06.10.2019
696 Clouds 26 1012 78 10000 3.1 90 11:37 06.10.2019
697 Clouds 26 1012 78 10000 3.1 90 11:37 06.10.2019
698 Clouds 26 1012 78 10000 3.1 90 11:18 06.10.2019
699 Rain 27 1012 76 0 7.89 68.485 10:42 06.10.2019
700 Clouds 27 1013 74 10000 4.6 90 10:24 06.10.2019
701 Clouds 27 1013 74 10000 4.6 90 09:56 06.10.2019
702 Clouds 27 1013 74 10000 4.6 90 09:38 06.10.2019
703 Clouds 27 1013 74 10000 4.6 90 09:18 06.10.2019
704 Clouds 27 1013 78 10000 3.1 100 08:40 06.10.2019
705 Clouds 27 1013 78 10000 3.1 100 08:20 06.10.2019
706 Clouds 27 1013 78 10000 4.6 110 07:44 06.10.2019
707 Clouds 27 1013 78 10000 4.6 110 07:18 06.10.2019
708 Clouds 27 1014 78 10000 4.6 100 06:19 06.10.2019
709 Clouds 27 1014 78 10000 4.1 90 05:28 06.10.2019
710 Clouds 28 1013 74 10000 4.1 90 03:35 06.10.2019
711 Clouds 28 1013 74 10000 4.1 90 02:42 06.10.2019
712 Clouds 28 1013 74 10000 5.7 90 02:19 06.10.2019
713 Clouds 28 1013 74 10000 5.7 90 01:38 06.10.2019
714 Clouds 28 1013 74 10000 6.7 90 01:20 06.10.2019
715 Clouds 28 1013 74 10000 6.7 90 00:45 06.10.2019
716 Clouds 29 1013 70 10000 7.2 80 00:24 06.10.2019
717 Clouds 29 1013 70 10000 7.2 80 23:43 05.10.2019
718 Clouds 30 1013 66 10000 6.2 90 23:22 05.10.2019
719 Clouds 30 1013 66 10000 6.2 90 22:57 05.10.2019
720 Clouds 30 1013 66 10000 6.2 90 22:38 05.10.2019
721 Clouds 30 1013 66 10000 6.2 90 22:38 05.10.2019
722 Clouds 30 1013 66 10000 6.7 80 22:19 05.10.2019
723 Clouds 30 1013 66 10000 6.7 80 21:42 05.10.2019
724 Clouds 30 1013 66 10000 6.7 80 21:42 05.10.2019
725 Clouds 30 1013 66 10000 6.7 80 21:24 05.10.2019
726 Rain 30 1014 70 10000 6.2 80 20:59 05.10.2019
727 Rain 30 1014 70 10000 6.2 80 20:40 05.10.2019
728 Clouds 29 1014 70 10000 6.2 80 20:20 05.10.2019
729 Clouds 29 1014 70 10000 6.2 80 19:56 05.10.2019
730 Clouds 29 1014 70 10000 6.2 80 19:37 05.10.2019
731 Clouds 29 1014 70 10000 6.2 80 19:18 05.10.2019
732 Rain 28 1013 78 0 7.5 67.425 18:55 05.10.2019
733 Rain 28 1013 78 0 7.5 67.425 18:55 05.10.2019
734 Clouds 28 1015 78 0 5.7 90 18:36 05.10.2019
735 Clouds 28 1015 78 0 5.7 90 18:18 05.10.2019
736 Clouds 28 1015 78 0 5.7 90 17:42 05.10.2019
737 Clouds 28 1015 78 0 5.7 90 17:21 05.10.2019
738 Clouds 29 1015 74 10000 5.1 80 16:55 05.10.2019
739 Clouds 29 1015 74 10000 5.1 80 16:55 05.10.2019
740 Clouds 29 1015 74 10000 5.1 80 16:36 05.10.2019
741 Clouds 28 1014 78 10000 4.6 80 16:18 05.10.2019
742 Clouds 28 1014 78 10000 4.6 80 15:55 05.10.2019
743 Clouds 28 1014 78 10000 4.6 80 15:37 05.10.2019
744 Clouds 27 1014 83 10000 3.1 80 15:18 05.10.2019
745 Clouds 27 1014 83 10000 3.1 80 14:41 05.10.2019
746 Clouds 26 1013 83 10000 2.6 70 14:22 05.10.2019
747 Clouds 26 1013 83 10000 2.6 70 13:43 05.10.2019
748 Clouds 26 1013 83 10000 2.6 70 13:25 05.10.2019
749 Clouds 26 1013 83 10000 2.6 70 12:58 05.10.2019
750 Clouds 26 1013 83 10000 2.6 70 12:40 05.10.2019
751 Clouds 26 1013 83 10000 2.6 70 12:18 05.10.2019
752 Clouds 26 1013 83 10000 2.6 80 11:39 05.10.2019
753 Clouds 26 1013 83 10000 2.6 80 11:20 05.10.2019
754 Clouds 26 1013 83 10000 2.1 80 10:55 05.10.2019
755 Clouds 26 1013 83 10000 2.1 80 10:37 05.10.2019
756 Clouds 26 1013 83 10000 2.1 80 10:18 05.10.2019
757 Clouds 26 1013 83 10000 1.5 80 09:39 05.10.2019
758 Clouds 26 1013 83 10000 1.5 80 09:21 05.10.2019
759 Clouds 26 1013 88 10000 2.1 90 08:41 05.10.2019
760 Clouds 26 1014 88 10000 1.5 80 08:21 05.10.2019
761 Clouds 26 1014 88 10000 1.5 80 07:58 05.10.2019
762 Clouds 26 1014 88 10000 1.5 80 07:37 05.10.2019
763 Clouds 26 1014 88 10000 1.5 80 07:19 05.10.2019
764 Clouds 26 1015 88 10000 1.5 80 06:28 05.10.2019
765 Clouds 27 1015 83 10000 2.1 80 05:52 05.10.2019
766 Clouds 27 1014 79 0 5.02 87.99 04:33 05.10.2019
767 Clouds 27 1014 83 10000 2.1 90 03:29 05.10.2019
768 Clouds 27 1014 83 10000 1.5 130 01:52 05.10.2019
769 Clouds 27 1013 78 10000 3.6 170 01:23 05.10.2019
770 Clouds 27 1013 78 10000 3.6 170 00:44 05.10.2019
771 Rain 28 1014 74 10000 1.5 120 00:25 05.10.2019
772 Rain 28 1014 74 10000 1.5 120 23:45 04.10.2019
773 Rain 28 1014 74 10000 1.5 120 23:26 04.10.2019
774 Rain 28 1014 74 10000 1.5 120 23:26 04.10.2019
775 Rain 28 1014 78 10000 1.5 190 22:59 04.10.2019
776 Rain 28 1014 78 10000 1.5 190 22:39 04.10.2019
777 Rain 28 1014 78 10000 1.5 190 22:20 04.10.2019
778 Rain 29 1014 74 10000 2.6 110 21:57 04.10.2019
779 Rain 29 1014 74 10000 2.6 110 21:38 04.10.2019
780 Clouds 29 1015 74 10000 2.6 120 21:19 04.10.2019
781 Clouds 29 1015 74 10000 2.6 120 20:55 04.10.2019
782 Clouds 29 1015 74 10000 2.6 120 20:55 04.10.2019
783 Clouds 29 1015 74 10000 2.6 120 20:36 04.10.2019
784 Clouds 28 1015 78 10000 2.1 120 20:18 04.10.2019
785 Clouds 28 1015 78 10000 2.1 120 19:45 04.10.2019
786 Rain 27 1016 83 10000 2.6 120 19:26 04.10.2019
787 Rain 27 1016 83 10000 2.6 120 18:57 04.10.2019
788 Rain 27 1016 83 10000 2.6 120 18:38 04.10.2019
789 Rain 27 1016 88 10000 1.5 70 18:19 04.10.2019
790 Rain 27 1016 88 10000 1.5 70 17:42 04.10.2019
791 Rain 27 1016 88 10000 1.5 70 17:42 04.10.2019
792 Rain 28 1016 83 10000 2.1 150 17:22 04.10.2019
793 Rain 28 1016 83 10000 2.1 150 16:59 04.10.2019
794 Rain 28 1016 83 10000 2.1 150 16:41 04.10.2019
795 Clouds 27 1016 83 10000 2.1 120 16:19 04.10.2019
796 Clouds 27 1016 83 10000 2.1 120 16:19 04.10.2019
797 Clouds 27 1016 83 10000 2.1 120 15:58 04.10.2019
798 Clouds 27 1016 83 10000 2.1 120 15:39 04.10.2019
799 Clouds 26 1015 88 10000 4.24 56.01 15:20 04.10.2019
800 Clouds 27 1014 76 0 4.24 56.01 14:56 04.10.2019
801 Clouds 27 1014 76 0 4.24 56.01 14:38 04.10.2019
802 Clouds 24 1015 94 10000 4.24 56.01 14:20 04.10.2019
803 Clouds 24 1015 94 10000 4.24 56.01 13:45 04.10.2019
804 Clouds 24 1015 94 10000 4.2 52.682 13:22 04.10.2019
805 Clouds 27 1014 76 0 4.2 52.682 12:55 04.10.2019
806 Clouds 27 1014 76 0 4.2 52.682 12:55 04.10.2019
807 Clouds 27 1014 76 0 4.2 52.682 12:36 04.10.2019
808 Clouds 23 1014 94 10000 1 0 12:18 04.10.2019
809 Clouds 23 1014 94 10000 1 0 11:42 04.10.2019
810 Clouds 23 1014 94 10000 1 0 11:22 04.10.2019
811 Clouds 24 1014 94 10000 4.15 60.526 10:42 04.10.2019
812 Clouds 27 1013 79 0 4.15 60.526 10:22 04.10.2019
813 Clouds 27 1013 79 0 4.15 60.526 09:58 04.10.2019
814 Clouds 27 1013 79 0 4.15 60.526 09:58 04.10.2019
815 Clouds 27 1013 79 0 4.15 60.526 09:58 04.10.2019
816 Clouds 27 1013 79 0 4.15 60.526 09:40 04.10.2019
817 Clouds 27 1013 79 0 4.15 60.526 09:40 04.10.2019
818 Clouds 24 1015 88 10000 1 0 09:22 04.10.2019
819 Clouds 24 1015 88 10000 1 0 08:45 04.10.2019
820 Clouds 27 1014 81 0 4.38 70.994 08:26 04.10.2019
821 Clouds 27 1014 81 0 4.38 70.994 07:47 04.10.2019
822 -273 0 0 0 0 0 07:24 04.10.2019
823 Clouds 27 1014 81 0 4.38 70.994 06:56 04.10.2019
824 Clouds 27 1014 81 0 4.38 70.994 06:37 04.10.2019
825 Clouds 27 1016 83 10000 2.6 90 06:18 04.10.2019
826 Clouds 27 1016 83 10000 2.6 90 05:19 04.10.2019
827 Clouds 28 1015 78 10000 3.1 100 04:35 04.10.2019
828 Clouds 27 1015 78 10000 3.1 90 02:56 04.10.2019
829 Clouds 27 1015 78 10000 3.1 90 02:37 04.10.2019
830 Clouds 28 1014 74 10000 4.1 90 01:43 04.10.2019
831 Clouds 28 1014 74 10000 4.1 90 01:25 04.10.2019
832 Clouds 29 1014 70 10000 5.7 70 00:29 04.10.2019
833 Clouds 29 1014 70 10000 5.7 70 23:38 03.10.2019
834 Clouds 29 1014 70 10000 5.7 70 23:19 03.10.2019
835 Clouds 29 1014 70 10000 6.2 70 22:57 03.10.2019
836 Clouds 29 1014 70 10000 6.2 70 22:39 03.10.2019
837 Clouds 29 1014 70 10000 5.7 80 22:21 03.10.2019
838 Clouds 29 1014 70 10000 5.7 80 21:56 03.10.2019
839 Clouds 29 1014 70 10000 5.7 80 21:37 03.10.2019
840 Clouds 29 1014 70 10000 5.7 80 21:37 03.10.2019
841 Clouds 29 1014 70 10000 5.7 80 21:19 03.10.2019
842 Rain 27 1014 81 0 5.45 75.303 20:56 03.10.2019
843 Rain 27 1013 81 0 5.92 81.406 20:37 03.10.2019
844 Rain 27 1013 81 0 5.92 81.406 20:19 03.10.2019
845 Rain 29 1015 70 10000 6.2 70 19:55 03.10.2019
846 Rain 29 1015 70 10000 6.2 70 19:36 03.10.2019
847 Rain 29 1015 70 10000 6.2 70 19:18 03.10.2019
848 Clouds 29 1015 70 10000 5.1 70 18:40 03.10.2019
849 Clouds 29 1015 70 10000 5.1 70 18:19 03.10.2019
850 Clouds 29 1015 70 10000 5.1 70 18:19 03.10.2019
851 Clouds 29 1015 70 10000 5.1 70 18:19 03.10.2019
852 Clouds 29 1016 70 10000 4.6 80 17:59 03.10.2019
853 Clouds 29 1016 70 10000 4.6 80 17:41 03.10.2019
854 Clouds 29 1016 70 10000 4.6 80 17:19 03.10.2019
855 Clouds 29 1015 70 10000 4.6 90 16:44 03.10.2019
856 Clouds 29 1015 70 10000 4.6 90 16:26 03.10.2019
857 Clouds 28 1015 74 10000 4.6 90 15:56 03.10.2019
858 Clouds 28 1015 74 10000 4.6 90 15:38 03.10.2019
859 Clouds 28 1015 74 10000 4.6 90 15:20 03.10.2019
860 Clouds 27 1014 78 10000 2.6 90 14:46 03.10.2019
861 Clouds 27 1014 78 10000 2.6 90 14:27 03.10.2019
862 Clouds 26 1014 83 10000 2.6 90 13:59 03.10.2019
863 Clouds 26 1014 83 10000 2.6 90 13:41 03.10.2019
864 Clouds 26 1014 83 10000 2.6 90 13:19 03.10.2019
865 Clouds 26 1013 83 10000 2.1 80 12:56 03.10.2019
866 Clouds 26 1013 83 10000 2.1 80 12:37 03.10.2019
867 Clouds 26 1013 83 10000 2.1 80 12:19 03.10.2019
868 Clouds 26 1013 83 10000 2.1 80 12:19 03.10.2019
869 Clouds 26 1013 83 10000 2.1 80 12:19 03.10.2019
870 Clouds 26 1013 83 10000 2.1 100 11:41 03.10.2019
871 Clouds 26 1013 83 10000 2.1 100 11:41 03.10.2019
872 Clouds 26 1013 83 10000 2.1 100 11:23 03.10.2019
873 Clouds 26 1013 83 10000 2.6 90 10:59 03.10.2019
874 Clouds 26 1013 83 10000 2.6 90 10:40 03.10.2019
875 Clouds 26 1013 83 10000 2.6 90 10:19 03.10.2019
876 Clouds 26 1013 83 10000 1.5 100 09:58 03.10.2019
877 Clouds 26 1013 83 10000 1.5 100 09:39 03.10.2019
878 Clouds 26 1013 83 10000 1.5 100 09:20 03.10.2019
879 Clouds 26 1013 83 10000 2.6 90 08:44 03.10.2019
880 Clouds 26 1013 83 10000 2.6 90 08:26 03.10.2019
881 Clouds 26 1014 83 10000 2.1 90 07:57 03.10.2019
882 Clouds 26 1014 83 10000 2.1 90 07:38 03.10.2019
883 Clouds 26 1014 83 10000 2.1 90 07:19 03.10.2019
884 Clouds 27 1014 78 10000 2.6 90 06:45 03.10.2019
885 Clouds 27 1014 78 10000 2.6 90 06:18 03.10.2019
886 Clouds 27 1014 78 10000 2.6 80 05:38 03.10.2019
887 Clouds 27 1014 78 10000 2.6 100 04:51 03.10.2019
888 Clouds 27 1014 78 10000 2.6 100 04:25 03.10.2019
889 Clouds 27 1014 78 10000 2.6 100 04:25 03.10.2019
890 Clouds 27 1013 78 10000 3.6 90 03:21 03.10.2019
891 Clouds 27 1013 78 10000 3.6 90 02:33 03.10.2019
892 Rain 27 1012 78 10000 4.6 100 01:50 03.10.2019
893 Rain 28 1012 78 10000 5.7 90 01:31 03.10.2019
894 Rain 28 1012 78 10000 5.7 90 00:45 03.10.2019
895 Rain 27 1011 79 0 6.3 82.951 23:58 02.10.2019
896 Rain 27 1011 79 0 6.3 82.951 23:38 02.10.2019
897 Rain 27 1011 79 0 6.3 82.951 23:19 02.10.2019
898 Rain 27 1011 79 0 6.3 82.951 22:43 02.10.2019
899 Rain 27 1011 79 0 6.3 82.951 22:21 02.10.2019
900 Rain 27 1011 79 0 6.3 82.951 21:56 02.10.2019
901 Rain 27 1011 79 0 6.3 82.951 21:38 02.10.2019
902 Rain 29 1013 74 10000 6.2 80 21:19 02.10.2019
903 Rain 29 1013 74 10000 6.2 80 21:19 02.10.2019
904 Rain 29 1013 74 10000 6.2 80 20:55 02.10.2019
905 Rain 29 1013 74 10000 6.2 80 20:37 02.10.2019
906 Rain 27 1011 81 0 6.6 80.335 20:19 02.10.2019
907 Rain 27 1011 81 0 6.6 80.335 19:45 02.10.2019
908 Rain 27 1011 81 0 6.6 80.335 19:45 02.10.2019
909 Rain 27 1011 81 0 6.6 80.335 19:23 02.10.2019
910 Rain 27 1011 81 0 6.6 80.335 18:59 02.10.2019
911 Rain 27 1011 81 0 6.6 80.335 18:40 02.10.2019
912 Clear 27 1013 80 0 6.26 77.134 18:21 02.10.2019
913 Clear 27 1013 80 0 6.26 77.134 17:58 02.10.2019
914 Clear 27 1013 80 0 6.26 77.134 17:39 02.10.2019
915 Clear 27 1013 80 0 6.26 77.134 17:39 02.10.2019
916 Clear 27 1013 80 0 6.26 77.134 17:20 02.10.2019
917 Clear 27 1013 80 0 6.26 77.134 16:57 02.10.2019
918 Clear 27 1013 80 0 6.26 77.134 16:37 02.10.2019
919 Clear 27 1013 80 0 6.26 77.134 16:18 02.10.2019
920 Clear 27 1013 80 0 6.26 77.134 15:55 02.10.2019
921 Clear 27 1013 80 0 6.26 77.134 15:36 02.10.2019
922 Rain 27 1011 78 0 5.78 85.526 15:18 02.10.2019
923 Rain 27 1011 78 0 5.78 85.526 14:43 02.10.2019
924 Rain 27 1011 78 0 5.78 85.526 14:22 02.10.2019
925 Rain 27 1011 78 0 5.78 85.526 13:48 02.10.2019
926 Clouds 27 1011 78 0 5.41 89.65 13:29 02.10.2019
927 Clouds 27 1011 78 0 5.41 89.65 12:59 02.10.2019
928 Clouds 27 1011 78 0 5.41 89.65 12:39 02.10.2019
929 Rain 27 1010 79 0 5.52 97.276 12:20 02.10.2019
930 Rain 27 1010 79 0 5.52 97.276 11:45 02.10.2019
931 Rain 27 1010 79 0 5.52 97.276 11:23 02.10.2019
932 Rain 27 1010 79 0 5.52 97.276 10:42 02.10.2019
933 Rain 27 1010 79 0 5.52 97.276 10:20 02.10.2019
934 Rain 27 1010 79 0 5.52 97.276 09:59 02.10.2019
935 Rain 27 1010 79 0 5.52 97.276 09:38 02.10.2019
936 Rain 27 1011 81 0 6.72 100.473 09:20 02.10.2019
937 Rain 27 1011 80 0 6.59 107.973 08:45 02.10.2019
938 Rain 27 1011 80 0 6.59 107.973 08:25 02.10.2019
939 Rain 27 1011 80 0 6.59 107.973 08:25 02.10.2019
940 Rain 27 1011 80 0 6.59 107.973 07:59 02.10.2019
941 Rain 27 1011 80 0 6.59 107.973 07:39 02.10.2019
942 Rain 27 1011 80 0 6.59 107.973 07:20 02.10.2019
943 Rain 27 1011 80 0 6.59 107.973 07:20 02.10.2019
944 Rain 27 1011 80 0 6.59 107.973 06:36 02.10.2019
945 Rain 27 1012 80 0 7.4 87.366 05:55 02.10.2019
946 Rain 27 1012 80 0 7.4 87.366 05:55 02.10.2019
947 Thunderstorm 27 1012 78 10000 4.1 80 05:24 02.10.2019
948 Thunderstorm 27 1012 78 10000 4.1 80 04:53 02.10.2019
949 Thunderstorm 27 1012 78 10000 4.1 80 03:52 02.10.2019
950 Rain 26 1012 88 10000 3.6 60 02:41 02.10.2019
951 Rain 26 1012 88 10000 3.6 60 02:23 02.10.2019
952 Clouds 28 1011 74 10000 3.6 80 01:24 02.10.2019
953 Clouds 28 1011 69 10000 5.7 80 00:49 02.10.2019
954 Clouds 28 1011 69 10000 5.7 80 00:25 02.10.2019
955 Clouds 30 1011 66 10000 5.7 80 23:43 01.10.2019
956 Clouds 30 1011 66 10000 5.7 80 23:25 01.10.2019
957 Clouds 30 1011 70 10000 4.6 110 22:59 01.10.2019
958 Clouds 30 1011 70 10000 4.6 110 22:39 01.10.2019
959 Clouds 30 1011 70 10000 4.6 110 22:19 01.10.2019
960 Clouds 30 1011 62 10000 5.1 100 21:55 01.10.2019
961 Clouds 30 1011 62 10000 5.1 100 21:37 01.10.2019
962 Clouds 30 1011 62 10000 5.1 100 21:18 01.10.2019
963 Clouds 30 1012 62 10000 6.2 130 20:54 01.10.2019
964 Clouds 30 1012 62 10000 6.2 130 20:36 01.10.2019
965 Clouds 30 1012 62 10000 6.2 130 20:18 01.10.2019
966 Rain 30 1012 62 10000 5.1 130 19:43 01.10.2019
967 Rain 30 1012 62 10000 5.1 130 19:24 01.10.2019
968 Clouds 29 1012 66 10000 3.6 90 18:58 01.10.2019
969 Clouds 29 1012 66 10000 3.6 90 18:39 01.10.2019
970 Clouds 29 1012 66 10000 3.6 90 18:21 01.10.2019
971 Clouds 29 1013 66 10000 4.6 80 17:55 01.10.2019
972 Clouds 29 1013 66 10000 4.6 80 17:36 01.10.2019
973 Clouds 29 1013 66 10000 4.6 80 17:18 01.10.2019
974 Clouds 28 1012 74 10000 5.7 60 16:42 01.10.2019
975 Clouds 28 1012 74 10000 5.7 60 16:22 01.10.2019
976 Clear 27 1012 79 0 5.76 60.649 15:59 01.10.2019
977 Clear 27 1012 79 0 5.76 60.649 15:40 01.10.2019
978 Clouds 28 1012 69 10000 3.6 80 15:21 01.10.2019
979 Clouds 28 1012 69 10000 3.6 80 14:41 01.10.2019
980 Clouds 28 1012 69 10000 3.6 80 14:20 01.10.2019
981 Clouds 26 1011 74 10000 5.1 80 13:57 01.10.2019
982 Clouds 26 1011 74 10000 5.1 80 13:57 01.10.2019
983 Clouds 26 1011 74 10000 5.1 80 13:38 01.10.2019
984 Clouds 26 1011 74 10000 5.1 80 13:18 01.10.2019
985 Clouds 26 1011 78 10000 5.1 80 12:56 01.10.2019
986 Clouds 26 1011 78 10000 5.1 80 12:38 01.10.2019
987 Clouds 26 1011 78 10000 5.1 80 12:18 01.10.2019
988 Clouds 26 1012 78 10000 4.1 80 11:56 01.10.2019
989 Clouds 26 1012 78 10000 4.1 80 11:37 01.10.2019
990 Clouds 26 1012 78 10000 4.1 80 11:18 01.10.2019
991 Clouds 27 1011 74 10000 5.1 80 10:47 01.10.2019
992 Clouds 27 1011 74 10000 5.1 80 10:28 01.10.2019
993 Clouds 27 1011 74 10000 5.1 80 09:46 01.10.2019
994 Clouds 27 1011 74 10000 5.1 80 09:26 01.10.2019
995 Clouds 27 1012 74 10000 5.7 80 08:45 01.10.2019
996 Clouds 27 1012 74 10000 5.7 80 08:27 01.10.2019
997 Clouds 26 1012 74 10000 4.1 90 07:56 01.10.2019
998 Clouds 26 1012 74 10000 4.1 90 07:38 01.10.2019
999 Clouds 27 1013 74 10000 3.6 70 07:19 01.10.2019
1000 Clouds 27 1013 74 10000 3.6 70 06:41 01.10.2019
1001 Clouds 27 1013 74 10000 3.6 70 06:18 01.10.2019
1002 Clouds 27 1013 65 10000 5.1 90 05:43 01.10.2019
1003 Clouds 27 1013 65 10000 4.1 80 04:42 01.10.2019
1004 Clouds 27 1013 69 10000 4.6 80 03:46 01.10.2019
1005 Clouds 27 1012 69 10000 4.6 80 02:20 01.10.2019
1006 Clouds 27 1013 69 10000 4.6 80 01:56 01.10.2019
1007 Clouds 27 1013 69 10000 4.6 80 01:56 01.10.2019
1008 Clouds 27 1012 69 10000 7.2 70 00:46 01.10.2019
1009 Clouds 27 1012 69 10000 7.2 70 00:25 01.10.2019
1010 Rain 27 1012 69 10000 6.7 60 23:42 30.09.2019
1011 Rain 28 1012 69 10000 6.7 60 23:23 30.09.2019
1012 Clouds 28 1013 62 10000 6.7 80 22:56 30.09.2019
1013 Clouds 28 1013 62 10000 6.7 80 22:37 30.09.2019
1014 Clouds 28 1013 62 10000 6.7 80 22:19 30.09.2019
1015 Clouds 28 1013 66 10000 7.2 60 21:55 30.09.2019
1016 Clouds 28 1013 66 10000 7.2 60 21:36 30.09.2019
1017 Clouds 29 1013 66 10000 7.2 60 21:18 30.09.2019
1018 Clouds 29 1013 66 10000 8.2 50 20:54 30.09.2019
1019 Clouds 29 1013 66 10000 8.2 50 20:36 30.09.2019
1020 Clouds 29 1013 66 10000 8.2 50 20:36 30.09.2019
1021 Clouds 29 1013 66 10000 8.2 50 20:18 30.09.2019
1022 Clouds 29 1013 66 10000 8.2 50 20:18 30.09.2019
1023 Clouds 28 1012 74 0 4.92 71 19:42 30.09.2019
1024 Clouds 29 1015 66 10000 7.7 70 19:20 30.09.2019
1025 Clouds 29 1015 66 10000 7.7 70 18:58 30.09.2019
1026 Clouds 29 1015 66 10000 7.7 70 18:40 30.09.2019
1027 Clouds 29 1015 66 10000 7.7 70 18:20 30.09.2019
1028 Clouds 28 1015 66 10000 7.7 60 17:55 30.09.2019
1029 Clouds 28 1015 66 10000 7.7 60 17:37 30.09.2019
1030 Clouds 28 1015 66 10000 7.7 60 17:18 30.09.2019
1031 Clouds 28 1015 69 10000 7.7 80 16:42 30.09.2019
1032 Clouds 28 1015 69 10000 7.7 80 16:20 30.09.2019
1033 Clouds 28 1015 69 10000 7.7 80 16:19 30.09.2019
1034 Clouds 28 1015 69 10000 7.7 70 15:59 30.09.2019
1035 Clouds 28 1015 69 10000 7.7 70 15:38 30.09.2019
1036 Clouds 28 1015 69 10000 7.7 70 15:19 30.09.2019
1037 Clouds 27 1015 74 10000 7.2 70 14:58 30.09.2019
1038 Clouds 27 1015 74 10000 7.2 70 14:38 30.09.2019
1039 Clouds 27 1015 74 10000 7.2 70 14:19 30.09.2019
1040 Clouds 27 1014 78 10000 5.7 70 13:58 30.09.2019
1041 Clouds 27 1014 78 10000 5.7 70 13:39 30.09.2019
1042 Clouds 27 1014 78 10000 5.7 70 13:20 30.09.2019
1043 Clouds 27 1014 74 10000 5.7 70 12:43 30.09.2019
1044 Clouds 27 1014 74 10000 5.7 70 12:22 30.09.2019
1045 Clouds 27 1014 74 10000 5.1 70 11:57 30.09.2019
1046 Clouds 27 1014 74 10000 5.1 70 11:39 30.09.2019
1047 Clouds 27 1014 74 10000 5.1 70 11:19 30.09.2019
1048 Clouds 27 1014 74 10000 6.7 80 10:54 30.09.2019
1049 Clouds 27 1014 74 10000 6.7 80 10:36 30.09.2019
1050 Clouds 27 1014 74 10000 6.7 80 10:18 30.09.2019
1051 Clouds 27 1014 74 10000 6.2 90 09:40 30.09.2019
1052 Clouds 27 1014 74 10000 6.2 90 09:40 30.09.2019
1053 Clouds 27 1014 74 10000 6.2 90 09:21 30.09.2019
1054 Clouds 27 1015 74 10000 5.1 80 08:51 30.09.2019
1055 Clouds 27 1015 74 10000 5.1 80 08:33 30.09.2019
1056 Clouds 27 1015 74 10000 5.7 80 07:46 30.09.2019
1057 Clouds 27 1015 74 10000 5.7 80 07:28 30.09.2019
1058 Clouds 27 1016 74 10000 5.1 90 06:59 30.09.2019
1059 Clouds 27 1016 74 10000 5.1 90 06:34 30.09.2019
1060 Clouds 27 1016 74 10000 5.1 80 05:49 30.09.2019
1061 Clouds 27 1016 74 10000 5.1 80 05:25 30.09.2019
1062 Clouds 27 1015 74 10000 6.7 80 02:49 30.09.2019
1063 Rain 27 1014 76 0 5.36 79 01:39 30.09.2019
1064 Clouds 27 1014 69 10000 7.2 60 00:44 30.09.2019
1065 -273 0 0 0 0 0 00:24 30.09.2019
1066 Clouds 28 1015 62 10000 7.2 60 23:56 29.09.2019
1067 Clouds 28 1015 62 10000 7.2 60 23:38 29.09.2019
1068 Clouds 28 1015 62 10000 7.2 60 23:19 29.09.2019
1069 Clouds 28 1015 66 10000 7.7 60 22:42 29.09.2019
1070 Clouds 28 1015 66 10000 7.7 60 22:23 29.09.2019
1071 Rain 28 1014 74 0 4.02 31 21:58 29.09.2019
1072 Rain 28 1014 75 0 4.47 76 21:38 29.09.2019
1073 Clouds 28 1016 69 10000 7.2 50 21:19 29.09.2019
1074 Clouds 28 1016 69 10000 7.2 50 20:57 29.09.2019
1075 Clouds 28 1016 69 10000 7.2 50 20:38 29.09.2019
1076 Clouds 28 1016 69 10000 7.2 50 20:19 29.09.2019
1077 Clouds 29 1017 66 10000 6.7 60 19:39 29.09.2019
1078 Clouds 28 1017 66 10000 6.7 60 19:19 29.09.2019
1079 Clouds 29 1018 66 10000 5.7 70 18:57 29.09.2019
1080 Clouds 29 1018 66 10000 5.7 70 18:57 29.09.2019
1081 Clouds 29 1018 66 10000 5.7 70 18:38 29.09.2019
1082 Clouds 28 1018 66 10000 5.7 70 18:20 29.09.2019
1083 Clouds 29 1018 62 10000 5.7 60 17:59 29.09.2019
1084 Clouds 29 1018 62 10000 5.7 60 17:41 29.09.2019
1085 Clouds 29 1018 62 10000 5.7 60 17:20 29.09.2019
1086 Clouds 29 1018 62 10000 5.7 60 17:20 29.09.2019
1087 Clouds 28 1018 65 10000 6.2 60 16:59 29.09.2019
1088 Clouds 28 1018 65 10000 6.2 60 16:40 29.09.2019
1089 Clouds 28 1018 65 10000 6.2 60 16:19 29.09.2019
1090 Clouds 27 1017 69 10000 6.7 60 15:57 29.09.2019
1091 Clouds 27 1017 69 10000 6.7 60 15:37 29.09.2019
1092 Clouds 27 1017 69 10000 6.7 60 15:18 29.09.2019
1093 Clouds 27 1016 69 10000 5.1 70 14:55 29.09.2019
1094 Clouds 27 1016 69 10000 5.1 70 14:36 29.09.2019
1095 Clouds 27 1016 69 10000 5.1 70 14:36 29.09.2019
1096 Clouds 27 1016 69 10000 5.1 70 14:18 29.09.2019
1097 Clouds 27 1016 69 10000 5.1 70 14:18 29.09.2019
1098 Clouds 26 1016 74 10000 4.6 70 13:42 29.09.2019
1099 Clouds 26 1016 74 10000 4.6 70 13:19 29.09.2019
1100 Clouds 26 1016 69 10000 5.1 70 12:58 29.09.2019
1101 Clouds 26 1016 69 10000 5.1 70 12:40 29.09.2019
1102 Clouds 26 1016 69 10000 5.1 70 12:21 29.09.2019
1103 Clouds 26 1016 78 10000 5.1 60 11:57 29.09.2019
1104 Clouds 26 1016 78 10000 5.1 60 11:39 29.09.2019
1105 Clouds 26 1016 78 10000 5.1 60 11:19 29.09.2019
1106 Clouds 27 1014 79 0 8.11 52.863 10:57 29.09.2019
1107 Clouds 27 1014 79 0 8.11 52.863 10:57 29.09.2019
1108 Clouds 27 1014 79 0 8.11 52.863 10:37 29.09.2019
1109 Clouds 27 1014 79 0 8.11 52.863 10:18 29.09.2019
1110 Clouds 27 1014 79 0 8.11 52.863 10:18 29.09.2019
1111 Clouds 27 1014 79 0 8.11 52.863 09:47 29.09.2019
1112 Clouds 27 1016 78 10000 4.6 80 09:21 29.09.2019
1113 Clouds 27 1016 78 10000 4.6 80 08:59 29.09.2019
1114 Clouds 27 1016 78 10000 4.6 80 08:39 29.09.2019
1115 Clouds 27 1016 78 10000 4.6 80 08:20 29.09.2019
1116 Clouds 27 1017 83 10000 5.1 80 07:43 29.09.2019
1117 Clouds 27 1017 83 10000 5.1 80 07:24 29.09.2019
1118 Clouds 27 1017 83 0 4.1 80 06:43 29.09.2019
1119 Clouds 27 1018 83 10000 3.6 80 05:27 29.09.2019
1120 Clouds 28 1017 78 10000 4.6 80 04:38 29.09.2019
1121 Clouds 28 1017 78 10000 4.6 80 04:18 29.09.2019
1122 Clouds 28 1016 78 10000 4.1 80 02:47 29.09.2019
1123 Clouds 28 1016 78 10000 4.1 80 02:18 29.09.2019
1124 Rain 28 1016 83 10000 5.7 90 01:32 29.09.2019
1125 Clouds 28 1016 78 10000 4.6 80 00:48 29.09.2019
1126 Clouds 28 1016 78 10000 4.6 80 00:20 29.09.2019
1127 Clouds 28 1016 74 10000 5.1 80 23:43 28.09.2019
1128 Clouds 29 1016 74 10000 5.1 80 23:22 28.09.2019
1129 Clouds 29 1016 74 10000 5.1 80 23:22 28.09.2019
1130 Clouds 28 1015 70 0 3.58 47 22:57 28.09.2019
1131 Clouds 28 1015 71 0 4.02 26 22:38 28.09.2019
1132 Rain 29 1016 74 10000 5.1 50 22:20 28.09.2019
1133 Rain 28 1016 74 10000 5.1 50 21:56 28.09.2019
1134 Rain 29 1016 74 10000 5.1 50 21:37 28.09.2019
1135 Rain 29 1016 74 10000 5.1 50 21:19 28.09.2019
1136 Rain 29 1016 74 10000 5.1 50 21:19 28.09.2019
1137 Rain 30 1017 74 10000 5.1 50 20:57 28.09.2019
1138 Rain 29 1017 74 10000 5.1 50 20:37 28.09.2019
1139 Rain 29 1017 74 10000 5.1 50 20:18 28.09.2019
1140 Rain 30 1017 66 10000 4.6 70 19:54 28.09.2019
1141 Rain 29 1017 66 10000 4.6 70 19:36 28.09.2019
1142 Rain 30 1017 66 10000 4.6 70 19:18 28.09.2019
1143 Rain 30 1018 74 10000 5.7 70 18:41 28.09.2019
1144 Rain 30 1018 74 10000 5.7 70 18:22 28.09.2019
1145 Rain 30 1018 74 10000 5.7 70 18:22 28.09.2019
1146 Clouds 29 1018 79 10000 5.7 70 17:59 28.09.2019
1147 Clouds 29 1018 79 10000 5.7 70 17:40 28.09.2019
1148 Clouds 29 1018 79 10000 5.7 70 17:21 28.09.2019
1149 Clear 29 1017 74 0 2.68 67 16:49 28.09.2019
1150 Clouds 29 1017 79 10000 4.1 80 16:29 28.09.2019
1151 Clouds 29 1017 79 10000 4.1 80 15:59 28.09.2019
1152 Clouds 29 1017 79 10000 4.1 80 15:39 28.09.2019
1153 Clouds 29 1017 79 10000 4.1 80 15:39 28.09.2019
1154 Clouds 29 1017 79 10000 4.1 80 15:21 28.09.2019
1155 Clouds 28 1016 78 10000 2.1 80 14:54 28.09.2019
1156 Clouds 28 1016 78 10000 2.1 80 14:36 28.09.2019
1157 Clouds 28 1016 78 10000 2.1 80 14:18 28.09.2019
1158 Clouds 28 1016 78 10000 2.1 80 14:18 28.09.2019
1159 Clouds 27 1015 94 10000 2.6 90 13:43 28.09.2019
1160 Clouds 27 1015 94 10000 2.6 90 13:20 28.09.2019
1161 Clouds 27 1015 88 10000 2.6 90 12:55 28.09.2019
1162 Clouds 27 1015 88 10000 2.6 90 12:36 28.09.2019
1163 Clouds 27 1014 82 0 6.66 73.727 12:18 28.09.2019
1164 Clouds 27 1014 82 0 6.66 73.727 11:40 28.09.2019
1165 Clouds 27 1014 82 0 6.66 73.727 11:20 28.09.2019
1166 Clouds 27 1014 82 0 6.66 73.727 10:44 28.09.2019
1167 Clouds 27 1015 83 10000 3.1 90 10:21 28.09.2019
1168 Clouds 27 1015 83 10000 3.1 90 09:59 28.09.2019
1169 Clouds 27 1015 83 10000 3.1 90 09:59 28.09.2019
1170 Clouds 27 1015 83 10000 3.1 90 09:40 28.09.2019
1171 Clouds 27 1015 83 10000 3.1 90 09:40 28.09.2019
1172 Clouds 27 1015 83 10000 3.1 90 09:19 28.09.2019
1173 Clouds 27 1015 83 10000 3.1 90 08:47 28.09.2019
1174 Clouds 27 1015 83 10000 4.1 90 08:29 28.09.2019
1175 Clouds 27 1016 83 10000 4.1 90 07:56 28.09.2019
1176 Clouds 27 1016 83 10000 4.1 90 07:38 28.09.2019
1177 Clouds 27 1016 83 10000 4.1 90 07:18 28.09.2019
1178 Clouds 27 1016 83 10000 3.6 80 06:37 28.09.2019
1179 Clouds 27 1016 83 10000 3.6 80 06:18 28.09.2019
1180 Clouds 27 1016 83 10000 4.1 90 05:25 28.09.2019
1181 Clouds 28 1016 78 10000 4.1 90 04:45 28.09.2019
1182 Clouds 28 1016 78 10000 4.1 90 04:26 28.09.2019
1183 Rain 28 1016 78 10000 4.1 90 03:33 28.09.2019
1184 Rain 28 1015 78 10000 5.7 90 02:57 28.09.2019
1185 Clouds 27 1014 70 0 3.58 56 02:36 28.09.2019
1186 Clouds 28 1014 78 10000 4.1 80 01:56 28.09.2019
1187 Clouds 28 1014 78 10000 4.1 80 01:56 28.09.2019
1188 Clouds 27 1014 71 0 3.58 60 01:38 28.09.2019
1189 Clouds 29 1015 70 10000 5.1 90 01:18 28.09.2019
1190 Clouds 29 1015 70 10000 5.1 90 00:43 28.09.2019
1191 Clouds 29 1015 70 10000 5.1 90 00:25 28.09.2019
1192 Clouds 29 1014 70 10000 6.2 80 23:38 27.09.2019
1193 Clouds 29 1014 70 10000 6.2 80 23:20 27.09.2019
1194 Clouds 29 1014 70 10000 5.7 80 22:47 27.09.2019
1195 Clouds 29 1014 70 10000 5.7 80 22:47 27.09.2019
1196 Clouds 29 1014 70 10000 5.7 80 22:20 27.09.2019
1197 Clouds 29 1014 70 10000 5.7 90 21:59 27.09.2019
1198 Clear 29 1013 75 0 2.68 84 21:39 27.09.2019
1199 Clouds 30 1015 70 10000 6.2 70 21:20 27.09.2019
1200 Clouds 29 1015 70 10000 6.2 70 20:58 27.09.2019
1201 Clouds 29 1015 70 10000 6.2 70 20:58 27.09.2019
1202 Clouds 29 1015 70 10000 6.2 70 20:40 27.09.2019
1203 Clouds 29 1015 70 10000 6.2 70 20:19 27.09.2019
1204 Clouds 29 1015 70 10000 6.2 70 20:19 27.09.2019
1205 Clouds 29 1016 66 10000 5.1 80 19:57 27.09.2019
1206 Clouds 29 1016 66 10000 5.1 80 19:38 27.09.2019
1207 Clouds 29 1016 66 10000 5.1 80 19:38 27.09.2019
1208 Clouds 29 1016 66 10000 5.1 80 19:19 27.09.2019
1209 Clouds 29 1016 66 10000 4.6 100 18:41 27.09.2019
1210 Clouds 29 1016 66 10000 4.6 100 18:22 27.09.2019
1211 Clouds 29 1016 66 10000 4.6 100 18:22 27.09.2019
1212 Clouds 29 1016 74 10000 5.1 80 17:56 27.09.2019
1213 Clouds 29 1016 74 10000 5.1 80 17:56 27.09.2019
1214 Clouds 29 1016 74 10000 5.1 80 17:37 27.09.2019
1215 Clouds 29 1016 74 10000 5.1 80 17:18 27.09.2019
1216 Rain 28 1016 78 10000 5.1 80 16:57 27.09.2019
1217 Rain 28 1016 78 10000 5.1 80 16:37 27.09.2019
1218 Rain 28 1016 78 10000 5.1 80 16:18 27.09.2019
1219 Clouds 27 1015 78 10000 4.6 90 15:45 27.09.2019
1220 Clouds 27 1015 78 10000 4.6 90 15:21 27.09.2019
1221 Clouds 27 1014 83 10000 1.5 70 14:57 27.09.2019
1222 Clouds 27 1014 83 10000 1.5 70 14:39 27.09.2019
1223 Clouds 27 1014 83 10000 1.5 70 14:20 27.09.2019
1224 Clouds 27 1014 83 10000 1.5 80 13:57 27.09.2019
1225 Clouds 26 1014 83 10000 1.5 80 13:38 27.09.2019
1226 Clouds 26 1014 83 10000 1.5 80 13:19 27.09.2019
1227 Clouds 26 1013 83 10000 2.1 90 12:51 27.09.2019
1228 Clouds 26 1013 83 10000 2.1 90 12:23 27.09.2019
1229 Clouds 26 1013 83 10000 2.6 100 11:57 27.09.2019
1230 Clouds 26 1013 83 10000 2.6 100 11:37 27.09.2019
1231 Clouds 26 1013 83 10000 2.6 100 11:19 27.09.2019
1232 Clear 27 1012 81 0 6.68 77.785 10:42 27.09.2019
1233 Clouds 26 1013 83 10000 2.1 90 10:21 27.09.2019
1234 Clouds 26 1013 83 10000 2.1 90 09:56 27.09.2019
1235 Clouds 26 1013 83 10000 2.1 90 09:56 27.09.2019
1236 Clouds 26 1013 83 10000 2.1 90 09:37 27.09.2019
1237 Clouds 26 1013 83 10000 2.1 90 09:18 27.09.2019
1238 Clouds 26 1013 83 10000 2.6 80 08:41 27.09.2019
1239 Clouds 26 1013 83 10000 2.6 80 08:20 27.09.2019
1240 Clouds 26 1013 83 10000 2.6 80 08:20 27.09.2019
1241 Clouds 27 1014 78 10000 3.6 100 07:49 27.09.2019
1242 Clouds 27 1014 78 10000 3.6 100 07:24 27.09.2019
1243 Rain 27 1014 78 10000 3.6 100 06:46 27.09.2019
1244 Rain 27 1014 78 10000 3.6 100 06:46 27.09.2019
1245 Rain 27 1014 78 10000 3.6 100 06:27 27.09.2019
1246 Rain 27 1014 78 10000 4.1 100 05:52 27.09.2019
1247 Rain 27 1014 78 10000 4.1 100 05:33 27.09.2019
1248 Rain 27 1013 74 10000 3.6 100 03:59 27.09.2019
1249 Rain 27 1013 74 10000 3.6 100 03:37 27.09.2019
1250 Rain 28 1012 69 10000 4.1 70 01:53 27.09.2019
1251 Rain 28 1012 69 10000 4.1 70 01:29 27.09.2019
1252 Rain 28 1012 69 10000 4.6 80 00:34 27.09.2019
1253 Rain 28 1012 69 10000 6.7 90 23:57 26.09.2019
1254 Rain 28 1012 69 10000 6.7 90 23:38 26.09.2019
1255 Rain 28 1012 69 10000 6.7 90 23:19 26.09.2019
1256 Rain 28 1012 70 10000 6.2 70 22:57 26.09.2019
1257 Rain 28 1012 70 10000 6.2 70 22:39 26.09.2019
1258 Rain 28 1012 70 10000 6.2 70 22:18 26.09.2019
1259 Rain 28 1012 70 10000 6.2 80 21:57 26.09.2019
1260 Rain 28 1012 70 10000 6.2 80 21:37 26.09.2019
1261 Rain 29 1012 70 10000 6.2 80 21:19 26.09.2019
1262 Rain 29 1012 70 10000 6.2 80 21:19 26.09.2019
1263 Clouds 28 1013 74 10000 6.2 80 20:58 26.09.2019
1264 Rain 28 1011 74 0 3.13 50 20:39 26.09.2019
1265 Clouds 29 1013 70 10000 6.2 60 20:21 26.09.2019
1266 Rain 28 1012 75 0 3.13 58 19:41 26.09.2019
1267 Clouds 28 1014 74 10000 5.7 80 19:21 26.09.2019
1268 Clouds 28 1014 74 10000 5.7 80 18:59 26.09.2019
1269 Clouds 28 1014 74 10000 5.7 80 18:41 26.09.2019
1270 Clouds 28 1014 74 10000 5.7 80 18:22 26.09.2019
1271 Clouds 28 1014 74 10000 5.1 80 17:58 26.09.2019
1272 Rain 28 1013 75 0 2.24 29 17:37 26.09.2019
1273 Clouds 28 1014 74 10000 4.1 100 17:18 26.09.2019
1274 Clouds 28 1014 74 10000 4.1 100 16:55 26.09.2019
1275 Clouds 28 1014 74 10000 4.1 100 16:36 26.09.2019
1276 Clouds 28 1014 74 10000 4.1 100 16:18 26.09.2019
1277 Clouds 27 1013 78 10000 4.1 90 15:40 26.09.2019
1278 Clouds 27 1013 78 10000 4.1 90 15:22 26.09.2019
1279 Clouds 27 1013 78 10000 4.1 90 15:22 26.09.2019
1280 Clouds 27 1012 83 10000 2.6 90 14:58 26.09.2019
1281 Clouds 26 1012 83 10000 2.6 90 14:39 26.09.2019
1282 Clouds 26 1012 83 10000 2.6 90 14:21 26.09.2019
1283 Clouds 26 1012 78 10000 2.1 80 13:55 26.09.2019
1284 Clouds 26 1012 78 10000 2.1 80 13:37 26.09.2019
1285 Clouds 26 1012 78 10000 2.1 80 13:18 26.09.2019
1286 Clouds 26 1012 78 10000 2.6 90 12:41 26.09.2019
1287 Clouds 26 1012 78 10000 2.6 90 12:21 26.09.2019
1288 Clouds 26 1012 78 10000 2.6 90 11:55 26.09.2019
1289 -273 0 0 0 0 0 11:55 26.09.2019
1290 Rain 26 1010 81 0 6.54 56.414 11:36 26.09.2019
1291 Clouds 26 1012 78 10000 3.1 90 11:18 26.09.2019
1292 Rain 26 1010 81 0 6.54 56.414 10:42 26.09.2019
1293 Rain 26 1010 81 0 6.54 56.414 10:23 26.09.2019
1294 Rain 26 1010 81 0 6.54 56.414 09:45 26.09.2019
1295 Clouds 26 1012 78 10000 2.6 100 09:27 26.09.2019
1296 Clouds 26 1012 78 10000 2.6 100 08:59 26.09.2019
1297 Clouds 26 1012 78 10000 2.6 100 08:41 26.09.2019
1298 Clouds 26 1012 78 10000 2.6 100 08:23 26.09.2019
1299 Clouds 27 1012 74 10000 2.6 100 07:44 26.09.2019
1300 Clouds 27 1012 74 10000 2.6 100 07:22 26.09.2019
1301 Clouds 26 1011 80 0 5.31 62.938 06:50 26.09.2019
1302 Clouds 27 1013 74 10000 3.1 80 06:27 26.09.2019
1303 Clouds 27 1013 74 10000 3.1 80 05:46 26.09.2019
1304 Clouds 27 1013 74 10000 3.1 80 05:25 26.09.2019
1305 Clouds 27 1012 74 10000 3.6 80 03:18 26.09.2019
1306 Clouds 27 1012 69 10000 4.6 50 01:54 26.09.2019
1307 Clouds 27 1012 69 10000 4.6 50 01:31 26.09.2019
1308 Clouds 27 1012 69 10000 5.1 60 00:56 26.09.2019
1309 Clouds 28 1012 65 10000 5.1 50 00:38 26.09.2019
1310 Clouds 28 1012 65 10000 5.1 50 00:19 26.09.2019
1311 Clouds 28 1012 65 10000 5.1 50 23:42 25.09.2019
1312 Clouds 28 1012 65 10000 5.1 50 23:19 25.09.2019
1313 Clouds 28 1012 66 10000 5.1 40 22:42 25.09.2019
1314 Clouds 28 1012 66 10000 5.1 40 22:21 25.09.2019
1315 Clear 28 1011 72 0 4.02 41 21:58 25.09.2019
1316 Clear 28 1011 73 0 4.02 45 21:39 25.09.2019
1317 Clouds 28 1013 69 10000 5.1 30 21:19 25.09.2019
1318 Clouds 28 1013 69 10000 5.1 30 20:58 25.09.2019
1319 Clouds 28 1013 69 10000 5.1 30 20:40 25.09.2019
1320 Clouds 28 1013 69 10000 5.1 30 20:22 25.09.2019
1321 Clouds 29 1014 62 10000 4.6 10 19:54 25.09.2019
1322 Clouds 29 1014 62 10000 4.6 10 19:36 25.09.2019
1323 Clouds 28 1014 66 10000 4.1 30 19:18 25.09.2019
1324 Clouds 28 1014 66 10000 4.1 30 18:55 25.09.2019
1325 Clouds 29 1014 66 10000 4.1 30 18:37 25.09.2019
1326 Clouds 28 1014 69 10000 3.6 30 18:18 25.09.2019
1327 Clouds 28 1014 69 10000 3.6 30 17:38 25.09.2019
1328 Clouds 28 1014 69 10000 3.6 30 17:19 25.09.2019
1329 Clouds 28 1013 65 10000 3.6 30 16:46 25.09.2019
1330 Clouds 28 1013 65 10000 3.6 30 16:28 25.09.2019
1331 Clouds 28 1013 69 10000 3.1 50 15:59 25.09.2019
1332 Clouds 28 1013 69 10000 3.1 50 15:41 25.09.2019
1333 Clouds 28 1013 69 10000 3.1 50 15:23 25.09.2019
1334 Clouds 27 1012 78 10000 2.1 50 14:57 25.09.2019
1335 Rain 27 1012 73 0 2.24 15 14:39 25.09.2019
1336 Rain 27 1012 73 0 2.24 15 14:39 25.09.2019
1337 Clouds 26 1011 78 10000 2.1 60 14:21 25.09.2019
1338 Clouds 26 1011 78 10000 2.1 60 13:41 25.09.2019
1339 Clouds 26 1011 78 10000 2.1 60 13:41 25.09.2019
1340 Clouds 25 1011 78 10000 2.1 60 13:23 25.09.2019
1341 Clouds 22 1011 94 10000 1 0 12:59 25.09.2019
1342 Clouds 22 1011 94 10000 1 0 12:39 25.09.2019
1343 Clouds 22 1011 94 10000 1 0 12:21 25.09.2019
1344 Clouds 23 1011 88 10000 0.5 0 11:55 25.09.2019
1345 Clouds 23 1011 88 10000 0.5 0 11:55 25.09.2019
1346 Clouds 23 1011 88 10000 0.5 0 11:36 25.09.2019
1347 Clouds 23 1011 88 10000 0.5 0 11:18 25.09.2019
1348 Clouds 25 1011 83 10000 1 0 10:41 25.09.2019
1349 Clouds 25 1011 83 10000 1 0 10:22 25.09.2019
1350 Clouds 25 1011 83 10000 1.5 100 09:56 25.09.2019
1351 Clouds 25 1011 83 10000 1.5 100 09:36 25.09.2019
1352 Clouds 25 1011 83 10000 1.5 100 09:18 25.09.2019
1353 Clouds 24 1012 88 10000 4.59 61.408 08:42 25.09.2019
1354 Clouds 24 1012 88 10000 4.59 61.408 08:21 25.09.2019
1355 Clouds 26 1012 78 10000 1.5 120 07:56 25.09.2019
1356 Clouds 26 1012 78 10000 1.5 120 07:37 25.09.2019
1357 Clouds 27 1013 74 10000 1.5 110 07:19 25.09.2019
1358 Clouds 27 1013 74 10000 1.5 110 06:38 25.09.2019
1359 Clouds 27 1013 74 10000 2.6 80 05:52 25.09.2019
1360 Clouds 27 1013 74 10000 2.6 80 05:27 25.09.2019
1361 Clouds 27 1012 74 10000 3.1 70 04:49 25.09.2019
1362 Clouds 27 1012 74 10000 3.1 70 04:49 25.09.2019
1363 Clouds 27 1011 74 10000 3.6 50 01:54 25.09.2019
1364 Clouds 27 1010 69 10000 4.1 40 00:43 25.09.2019
1365 Clouds 28 1010 69 10000 4.1 40 00:23 25.09.2019
1366 Clouds 28 1010 69 10000 4.1 30 23:54 24.09.2019
1367 Clouds 28 1010 69 10000 4.1 30 23:54 24.09.2019
1368 Clouds 28 1010 69 10000 4.1 30 23:36 24.09.2019
1369 Clouds 28 1010 69 10000 4.1 30 23:18 24.09.2019
1370 Clouds 28 1010 69 10000 4.6 40 22:38 24.09.2019
1371 Clouds 28 1010 69 10000 4.6 40 22:38 24.09.2019
1372 Clouds 28 1010 69 10000 4.6 40 22:20 24.09.2019
1373 Clouds 28 1011 74 10000 4.1 30 21:56 24.09.2019
1374 Clouds 28 1011 74 10000 4.1 30 21:37 24.09.2019
1375 Clouds 28 1011 74 10000 4.1 30 21:18 24.09.2019
1376 Clouds 28 1012 70 10000 4.6 30 20:57 24.09.2019
1377 Clouds 28 1012 70 10000 4.6 30 20:38 24.09.2019
1378 Clouds 28 1012 70 10000 4.6 30 20:19 24.09.2019
1379 Clouds 28 1012 74 10000 5.1 30 19:43 24.09.2019
1380 Clouds 28 1012 74 10000 5.1 30 19:21 24.09.2019
1381 Clouds 27 1013 78 10000 4.1 30 18:58 24.09.2019
1382 Clouds 27 1013 78 10000 4.1 30 18:39 24.09.2019
1383 Clouds 28 1013 78 10000 4.1 30 18:21 24.09.2019
1384 Rain 27 1013 83 10000 4.6 30 17:57 24.09.2019
1385 Rain 27 1013 83 10000 4.6 30 17:38 24.09.2019
1386 Rain 27 1013 83 10000 4.6 30 17:20 24.09.2019
1387 Clouds 27 1012 78 10000 5.1 20 16:42 24.09.2019
1388 Clouds 27 1012 78 10000 5.1 20 16:21 24.09.2019
1389 Clouds 27 1012 83 10000 3.1 60 15:59 24.09.2019
1390 Clouds 27 1012 83 10000 3.1 60 15:41 24.09.2019
1391 Clouds 27 1012 83 10000 3.1 60 15:22 24.09.2019
1392 Clouds 27 1012 88 10000 1.5 70 14:40 24.09.2019
1393 Clouds 27 1012 88 10000 1.5 70 14:19 24.09.2019
1394 Clouds 25 1011 94 10000 2.1 50 13:45 24.09.2019
1395 Clouds 24 1011 94 10000 2.1 50 13:23 24.09.2019
1396 Clouds 24 1011 88 10000 2.1 60 12:57 24.09.2019
1397 Clouds 24 1011 88 10000 2.1 60 12:39 24.09.2019
1398 Clouds 25 1010 88 10000 2.6 60 12:18 24.09.2019
1399 Clouds 25 1010 88 10000 2.6 60 11:41 24.09.2019
1400 Clouds 25 1010 88 10000 2.6 60 11:21 24.09.2019
1401 Rain 26 1010 84 0 5.32 29.524 10:55 24.09.2019
1402 Rain 26 1010 84 0 5.32 29.524 10:36 24.09.2019
1403 Rain 26 1010 84 0 5.32 29.524 10:18 24.09.2019
1404 Rain 26 1010 84 0 5.32 29.524 10:18 24.09.2019
1405 Rain 26 1010 84 0 5.32 29.524 09:43 24.09.2019
1406 Clouds 26 1010 83 0 6.41 43.628 09:21 24.09.2019
1407 Clouds 26 1010 83 0 6.41 43.628 08:57 24.09.2019
1408 Clear 26 1010 63 0 2.68 27 08:38 24.09.2019
1409 Clear 26 1010 63 0 2.68 27 08:19 24.09.2019
1410 Clear 26 1010 63 0 2.68 27 07:47 24.09.2019
1411 Clouds 27 1013 78 10000 4.1 60 07:25 24.09.2019
1412 Clouds 27 1013 78 10000 4.1 60 06:51 24.09.2019
1413 Clouds 27 1013 78 10000 4.1 60 06:32 24.09.2019
1414 Clouds 27 1013 78 10000 4.6 50 05:51 24.09.2019
1415 Clouds 27 1013 78 10000 4.6 50 05:18 24.09.2019
1416 Clouds 28 1013 69 10000 4.1 60 03:44 24.09.2019
1417 Clouds 28 1012 69 10000 4.6 60 02:47 24.09.2019
1418 Rain 28 1012 74 10000 4.6 60 01:55 24.09.2019
1419 Clouds 28 1012 66 10000 5.7 60 00:44 24.09.2019
1420 Clouds 28 1012 66 10000 5.7 60 00:25 24.09.2019
1421 Clouds 28 1012 70 10000 6.2 60 23:56 23.09.2019
1422 Clouds 28 1012 70 10000 6.2 60 23:38 23.09.2019
1423 Clouds 29 1012 70 10000 6.2 60 23:20 23.09.2019
1424 Clouds 29 1012 74 10000 6.7 50 22:39 23.09.2019
1425 Clouds 29 1012 74 10000 6.7 50 22:20 23.09.2019
1426 Rain 29 1013 74 10000 6.7 50 21:57 23.09.2019
1427 Rain 29 1013 74 10000 6.7 50 21:39 23.09.2019
1428 Rain 29 1013 74 10000 6.7 50 21:19 23.09.2019
1429 Clouds 29 1013 74 10000 6.2 60 20:41 23.09.2019
1430 Clouds 29 1013 74 10000 6.2 60 20:20 23.09.2019
1431 Clouds 29 1014 74 10000 7.2 60 19:59 23.09.2019
1432 Clouds 29 1014 74 10000 7.2 60 19:39 23.09.2019
1433 Clouds 29 1014 74 10000 7.2 60 19:21 23.09.2019
1434 Clouds 28 1014 78 10000 6.2 60 18:55 23.09.2019
1435 Clouds 28 1014 78 10000 6.2 60 18:37 23.09.2019
1436 Clouds 28 1014 78 10000 6.2 60 18:37 23.09.2019
1437 Clouds 28 1014 78 10000 6.2 60 18:37 23.09.2019
1438 Clouds 28 1014 78 10000 6.2 60 18:18 23.09.2019
1439 Clouds 28 1014 78 10000 6.7 70 17:55 23.09.2019
1440 Clouds 28 1014 78 10000 6.7 70 17:55 23.09.2019
1441 Clouds 28 1014 78 10000 6.7 70 17:55 23.09.2019
1442 Clouds 28 1014 78 10000 6.7 70 17:36 23.09.2019
1443 Clouds 28 1014 78 10000 6.7 70 17:36 23.09.2019
1444 Clouds 28 1014 78 10000 6.7 70 17:18 23.09.2019
1445 Clouds 27 1014 88 10000 3.6 120 16:39 23.09.2019
1446 Clouds 27 1014 88 10000 3.6 120 16:21 23.09.2019
1447 Rain 27 1014 78 10000 4.6 80 15:58 23.09.2019
1448 Rain 27 1014 78 10000 4.6 80 15:39 23.09.2019
1449 Rain 26 1014 78 10000 4.6 80 15:19 23.09.2019
1450 Clouds 27 1013 83 10000 4.1 70 14:57 23.09.2019
1451 Clouds 27 1013 83 10000 4.1 70 14:36 23.09.2019
1452 Clouds 27 1013 83 10000 4.1 70 14:18 23.09.2019
1453 Clouds 26 1013 88 10000 3.6 80 13:40 23.09.2019
1454 Clouds 26 1013 88 10000 5.1 90 13:19 23.09.2019
1455 Clouds 26 1013 88 10000 5.1 90 13:19 23.09.2019
1456 Clouds 26 1013 88 10000 5.1 90 12:59 23.09.2019
1457 Clouds 26 1013 88 10000 5.1 90 12:40 23.09.2019
1458 Clouds 26 1013 88 10000 5.1 90 12:21 23.09.2019
1459 Clouds 26 1013 88 10000 5.1 90 11:45 23.09.2019
1460 Clouds 26 1013 88 10000 5.1 90 11:45 23.09.2019
1461 Clouds 26 1013 88 10000 5.1 90 11:26 23.09.2019
1462 Clouds 26 1013 88 10000 5.1 80 10:57 23.09.2019
1463 Clouds 26 1013 88 10000 5.1 80 10:39 23.09.2019
1464 Clouds 26 1013 88 10000 5.1 80 10:20 23.09.2019
1465 Clouds 26 1013 88 10000 5.1 80 10:20 23.09.2019
1466 Rain 27 1012 86 0 9.08 59.655 09:40 23.09.2019
1467 Clouds 26 1014 88 10000 6.7 70 09:21 23.09.2019
1468 Clouds 26 1014 88 10000 6.7 70 08:57 23.09.2019
1469 Clouds 26 1014 88 10000 6.7 70 08:38 23.09.2019
1470 Clouds 26 1014 88 10000 6.7 70 08:18 23.09.2019
1471 Clouds 26 1014 88 10000 7.2 70 07:33 23.09.2019
1472 Clouds 26 1015 88 10000 6.2 70 06:50 23.09.2019
1473 Clouds 26 1015 88 10000 6.2 70 06:18 23.09.2019
1474 Clouds 26 1016 88 10000 5.7 70 05:22 23.09.2019
1475 Clouds 26 1012 83 10000 5.7 80 04:55 23.09.2019
1476 Rain 27 1015 83 10000 5.7 80 03:54 23.09.2019
1477 Rain 25 1014 94 10000 4.6 80 01:22 23.09.2019
1478 Rain 25 1014 94 10000 4.1 80 00:23 23.09.2019
1479 Rain 25 1014 94 10000 5.7 90 23:57 22.09.2019
1480 Rain 25 1014 94 10000 5.7 90 23:33 22.09.2019
1481 Rain 25 1014 94 10000 5.7 90 23:33 22.09.2019
1482 Rain 25 1014 88 10000 5.1 70 22:59 22.09.2019
1483 Rain 25 1014 88 10000 5.1 70 22:41 22.09.2019
1484 Rain 25 1014 88 10000 5.1 70 22:23 22.09.2019
1485 Rain 25 1014 88 10000 5.1 70 22:23 22.09.2019
1486 Rain 25 1015 94 10000 3.6 90 21:55 22.09.2019
1487 Rain 25 1015 94 10000 3.6 90 21:37 22.09.2019
1488 Rain 25 1015 94 10000 3.6 90 21:19 22.09.2019
1489 Rain 26 1015 88 10000 6.2 90 20:42 22.09.2019
1490 Rain 25 1015 88 10000 6.2 90 20:23 22.09.2019
1491 Rain 25 1016 94 10000 5.7 90 19:55 22.09.2019
1492 Rain 25 1016 94 10000 5.7 90 19:55 22.09.2019
1493 Rain 25 1016 94 10000 5.7 90 19:37 22.09.2019
1494 Rain 25 1016 94 10000 7.2 100 19:18 22.09.2019
1495 Rain 25 1016 94 10000 7.2 100 18:42 22.09.2019
1496 Rain 25 1016 94 10000 7.2 100 18:20 22.09.2019
1497 Rain 26 1016 88 10000 7.7 80 17:59 22.09.2019
1498 Rain 26 1016 88 10000 7.7 80 17:41 22.09.2019
1499 Rain 26 1016 88 10000 7.7 80 17:20 22.09.2019
1500 Rain 26 1016 88 10000 6.2 70 16:45 22.09.2019
1501 Rain 26 1016 88 10000 6.2 70 16:45 22.09.2019
1502 Rain 26 1016 88 10000 6.2 70 16:26 22.09.2019
1503 Rain 27 1015 78 10000 7.7 80 15:57 22.09.2019
1504 Rain 27 1015 78 10000 7.7 80 15:38 22.09.2019
1505 Rain 27 1015 78 10000 7.7 80 15:19 22.09.2019
1506 Rain 27 1014 82 0 11.99 55.413 14:43 22.09.2019
1507 Rain 27 1014 82 0 11.99 55.413 14:25 22.09.2019
1508 Rain 27 1014 82 0 11.99 55.413 13:57 22.09.2019
1509 Rain 27 1014 82 0 11.99 55.413 13:57 22.09.2019
1510 Rain 27 1014 82 0 11.99 55.413 13:39 22.09.2019
1511 Rain 27 1014 82 0 11.99 55.413 13:39 22.09.2019
1512 Clouds 27 1015 78 10000 7.7 80 13:21 22.09.2019
1513 Clouds 27 1015 78 10000 7.7 80 12:44 22.09.2019
1514 Clouds 27 1015 78 10000 7.7 80 12:24 22.09.2019
1515 Rain 27 1015 78 10000 7.7 70 11:56 22.09.2019
1516 Rain 27 1015 78 10000 7.7 70 11:38 22.09.2019
1517 Rain 27 1015 78 10000 7.7 70 11:38 22.09.2019
1518 Rain 27 1015 78 10000 7.7 70 11:20 22.09.2019
1519 Clouds 27 1015 78 10000 7.7 70 10:44 22.09.2019
1520 Clouds 27 1015 78 10000 7.7 70 10:20 22.09.2019
1521 Rain 26 1015 83 10000 6.2 90 09:57 22.09.2019
1522 Rain 26 1015 83 10000 6.2 90 09:38 22.09.2019
1523 Rain 26 1015 83 10000 6.2 90 09:19 22.09.2019
1524 Clouds 26 1015 88 10000 4.6 80 08:45 22.09.2019
1525 Clouds 26 1015 88 10000 4.6 80 08:24 22.09.2019
1526 Clouds 27 1016 83 10000 7.2 90 07:54 22.09.2019
1527 Clouds 27 1016 83 10000 7.2 90 07:36 22.09.2019
1528 Clouds 27 1016 83 10000 4.6 90 07:18 22.09.2019
1529 Clouds 27 1016 83 10000 4.6 90 07:18 22.09.2019
1530 Clouds 27 1016 83 10000 4.6 90 06:46 22.09.2019
1531 Clouds 26 1016 88 10000 6.7 90 05:23 22.09.2019
1532 Clouds 26 1015 83 10000 6.2 80 02:59 22.09.2019
1533 Rain 27 1015 81 0 13.35 73.604 02:36 22.09.2019
1534 Rain 25 1015 88 10000 5.7 80 02:18 22.09.2019
1535 Rain 27 1015 83 10000 6.2 110 00:57 22.09.2019
1536 Rain 27 1015 83 10000 6.2 110 00:33 22.09.2019
1537 Rain 27 1015 83 10000 6.7 80 23:57 21.09.2019
1538 Rain 27 1015 83 10000 6.7 80 23:39 21.09.2019
1539 Clouds 27 1016 83 10000 7.2 80 22:57 21.09.2019
1540 Clouds 27 1016 83 10000 7.2 80 22:38 21.09.2019
1541 Clouds 27 1016 83 10000 7.2 80 22:20 21.09.2019
1542 Rain 26 1016 83 10000 8.7 90 21:41 21.09.2019
1543 Rain 26 1016 83 10000 8.7 90 21:19 21.09.2019
1544 Rain 27 1016 83 10000 7.2 90 20:56 21.09.2019
1545 Rain 27 1016 83 10000 7.2 90 20:37 21.09.2019
1546 Rain 27 1016 83 10000 7.2 90 20:18 21.09.2019
1547 Rain 27 1017 83 10000 7.7 90 20:18 21.09.2019
1548 Rain 27 1016 83 10000 7.2 90 20:18 21.09.2019
1549 Rain 27 1017 83 10000 7.7 90 19:45 21.09.2019
1550 Rain 27 1017 83 10000 7.7 90 19:21 21.09.2019
1551 Rain 25 1018 94 10000 8.2 100 18:41 21.09.2019
1552 Rain 25 1018 94 10000 8.2 100 18:22 21.09.2019
1553 Clouds 27 1017 83 10000 7.7 80 17:43 21.09.2019
1554 Clouds 27 1017 83 10000 7.7 80 17:24 21.09.2019
1555 Clouds 27 1017 88 0 6.2 110 16:57 21.09.2019
1556 Clouds 27 1017 88 0 6.2 110 16:38 21.09.2019
1557 Clouds 27 1017 88 0 6.2 110 16:19 21.09.2019
1558 Clouds 28 1017 78 10000 8.7 90 15:44 21.09.2019
1559 Clouds 28 1017 78 10000 8.7 90 15:22 21.09.2019
1560 Clouds 27 1016 83 10000 5.7 80 14:49 21.09.2019
1561 Clouds 26 1016 83 10000 5.7 100 14:31 21.09.2019
1562 Clouds 26 1016 83 10000 5.7 100 13:54 21.09.2019
1563 Clouds 26 1016 83 10000 5.7 100 13:36 21.09.2019
1564 Clouds 26 1015 88 10000 5.7 90 13:18 21.09.2019
1565 Clouds 26 1015 88 10000 5.7 90 12:41 21.09.2019
1566 Clouds 26 1015 88 10000 5.7 90 12:22 21.09.2019
1567 Clouds 27 1015 83 10000 5.1 80 11:59 21.09.2019
1568 Clouds 27 1015 83 10000 5.1 80 11:41 21.09.2019
1569 Clouds 27 1015 83 10000 5.1 80 11:21 21.09.2019
1570 Clouds 26 1015 83 10000 5.7 80 10:41 21.09.2019
1571 Clouds 26 1015 83 10000 5.7 80 10:23 21.09.2019
1572 Clouds 27 1016 83 10000 5.7 70 09:57 21.09.2019
1573 Clouds 27 1016 83 10000 5.7 70 09:38 21.09.2019
1574 Clouds 27 1016 83 10000 5.7 70 09:20 21.09.2019
1575 Clouds 27 1016 83 10000 5.7 70 08:50 21.09.2019
1576 Clouds 27 1016 83 10000 5.7 70 08:22 21.09.2019
1577 Rain 28 1015 77 0 10.05 80.536 07:40 21.09.2019
1578 Clouds 27 1017 78 10000 7.7 80 07:20 21.09.2019
1579 Clouds 27 1017 78 10000 7.7 80 06:36 21.09.2019
1580 Rain 27 1017 83 10000 7.7 80 05:51 21.09.2019
1581 Rain 26 1017 88 10000 7.7 90 04:40 21.09.2019
1582 Rain 26 1017 88 10000 6.7 90 03:39 21.09.2019
1583 Clouds 27 1016 83 10000 5.7 80 02:25 21.09.2019
1584 Clouds 27 1016 83 10000 5.7 80 01:49 21.09.2019
1585 Clouds 27 1016 83 10000 5.7 80 01:26 21.09.2019
1586 Clouds 28 1015 74 10000 7.7 80 00:26 21.09.2019
1587 Clouds 29 1015 70 10000 8.2 90 23:57 20.09.2019
1588 Clouds 29 1015 70 10000 8.2 90 23:30 20.09.2019
1589 Clouds 29 1015 70 10000 8.2 90 23:30 20.09.2019
1590 Clouds 29 1015 70 10000 7.7 80 22:56 20.09.2019
1591 Clouds 29 1015 70 10000 7.7 80 22:37 20.09.2019
1592 Clouds 29 1015 70 10000 7.7 80 22:19 20.09.2019
1593 Clouds 29 1015 70 10000 7.2 90 21:55 20.09.2019
1594 Clouds 29 1015 70 10000 7.2 90 21:36 20.09.2019
1595 Clouds 29 1015 70 10000 7.2 90 21:18 20.09.2019
1596 Rain 27 1016 83 10000 6.7 80 20:41 20.09.2019
1597 Rain 27 1016 83 10000 6.7 80 20:20 20.09.2019
1598 Rain 27 1016 83 10000 6.7 80 20:20 20.09.2019
1599 Rain 27 1017 83 10000 6.2 80 19:56 20.09.2019
1600 Rain 27 1017 83 10000 6.2 80 19:37 20.09.2019
1601 Rain 26 1016 88 10000 6.7 120 19:19 20.09.2019
1602 Rain 26 1016 88 10000 6.7 120 18:39 20.09.2019
1603 Rain 28 1016 78 10000 7.2 100 18:20 20.09.2019
1604 Rain 28 1016 78 10000 7.2 100 17:57 20.09.2019
1605 Rain 28 1016 78 10000 7.2 100 17:57 20.09.2019
1606 Rain 28 1016 78 10000 7.2 100 17:57 20.09.2019
1607 Rain 28 1016 78 10000 7.2 100 17:38 20.09.2019
1608 Rain 28 1016 78 10000 7.2 100 17:18 20.09.2019
1609 Rain 28 1016 69 10000 7.2 100 16:41 20.09.2019
1610 Rain 28 1016 69 10000 7.2 100 16:19 20.09.2019
1611 Rain 27 1015 77 0 11.45 78.122 15:42 20.09.2019
1612 Clouds 27 1015 74 10000 6.7 90 15:23 20.09.2019
1613 Clouds 27 1015 74 10000 6.7 90 15:23 20.09.2019
1614 Clouds 27 1015 74 10000 6.7 90 14:56 20.09.2019
1615 Clouds 27 1015 74 10000 6.7 90 14:38 20.09.2019
1616 Clouds 27 1015 74 10000 6.7 90 14:18 20.09.2019
1617 Rain 28 1013 75 0 11.02 70.327 13:44 20.09.2019
1618 Clouds 27 1013 74 10000 4.6 80 13:25 20.09.2019
1619 Clouds 27 1013 74 10000 4.6 80 12:42 20.09.2019
1620 Clouds 27 1013 74 10000 4.6 80 12:23 20.09.2019
1621 Clouds 27 1013 74 10000 5.7 90 11:57 20.09.2019
1622 Clouds 27 1013 74 10000 5.7 90 11:39 20.09.2019
1623 Clouds 27 1013 74 10000 5.7 90 11:19 20.09.2019
1624 Clouds 27 1013 74 10000 4.6 90 10:42 20.09.2019
1625 Clouds 27 1013 74 10000 4.6 90 10:22 20.09.2019
1626 Clouds 27 1013 74 10000 4.6 90 10:22 20.09.2019
1627 Clouds 27 1013 69 10000 4.1 90 09:38 20.09.2019
1628 Clouds 27 1013 69 10000 4.1 90 09:19 20.09.2019
1629 Clouds 27 1014 69 10000 5.1 90 08:48 20.09.2019
1630 Clouds 27 1014 69 10000 5.1 90 08:29 20.09.2019
1631 Clouds 27 1014 65 10000 6.7 90 07:59 20.09.2019
1632 Clouds 27 1014 65 10000 6.7 90 07:40 20.09.2019
1633 Clouds 27 1014 65 10000 6.7 90 07:22 20.09.2019
1634 Clouds 26 1014 74 10000 4.6 110 06:42 20.09.2019
1635 Clouds 26 1014 74 10000 4.6 110 06:42 20.09.2019
1636 Clouds 26 1014 74 10000 4.6 110 06:18 20.09.2019
1637 Clouds 27 1014 69 10000 5.1 100 04:32 20.09.2019
1638 Rain 26 1014 74 10000 7.7 90 03:27 20.09.2019
1639 Clouds 27 1013 74 10000 5.7 60 02:18 20.09.2019
1640 Clouds 28 1013 65 10000 7.2 70 01:39 20.09.2019
1641 Clouds 28 1012 65 10000 8.2 70 00:42 20.09.2019
1642 Clouds 29 1012 62 10000 7.7 60 23:50 19.09.2019
1643 Clouds 29 1012 62 10000 7.7 60 23:28 19.09.2019
1644 Rain 29 1012 62 10000 7.7 50 22:59 19.09.2019
1645 Rain 29 1012 62 10000 7.7 50 22:40 19.09.2019
1646 Rain 29 1012 62 10000 7.7 50 22:21 19.09.2019
1647 Clouds 30 1012 58 10000 8.2 70 21:57 19.09.2019
1648 Clouds 30 1012 58 10000 8.2 70 21:38 19.09.2019
1649 Clouds 30 1012 58 10000 8.2 70 21:19 19.09.2019
1650 Rain 27 1012 72 0 9.48 54.432 20:44 19.09.2019
1651 Clouds 30 1013 58 10000 7.7 60 20:23 19.09.2019
1652 Clouds 30 1013 58 10000 7.7 60 19:58 19.09.2019
1653 Clouds 30 1013 58 10000 7.7 60 19:39 19.09.2019
1654 Clouds 28 1013 61 10000 6.7 60 19:21 19.09.2019
1655 Clouds 28 1013 61 10000 6.7 60 18:56 19.09.2019
1656 Clouds 28 1013 61 10000 6.7 60 18:38 19.09.2019
1657 Clouds 29 1014 58 10000 6.7 70 18:19 19.09.2019
1658 Clouds 29 1014 58 10000 6.7 70 17:42 19.09.2019
1659 Clouds 29 1014 58 10000 6.7 70 17:23 19.09.2019
1660 Clouds 28 1013 61 10000 7.2 60 16:58 19.09.2019
1661 Clouds 28 1013 61 10000 7.2 60 16:39 19.09.2019
1662 Clouds 28 1013 61 10000 7.2 60 16:39 19.09.2019
1663 Clouds 28 1013 61 10000 7.2 60 16:19 19.09.2019
1664 Rain 27 1013 73 0 9.37 49.556 15:39 19.09.2019
1665 Clouds 27 1013 65 10000 6.2 60 15:20 19.09.2019
1666 Clouds 27 1013 65 10000 6.2 60 14:42 19.09.2019
1667 Clouds 27 1013 65 10000 6.2 60 14:24 19.09.2019
1668 Rain 26 1012 74 10000 5.1 80 13:59 19.09.2019
1669 Rain 26 1012 74 10000 5.1 80 13:40 19.09.2019
1670 Rain 26 1012 74 10000 5.1 80 13:20 19.09.2019
1671 Clouds 26 1012 74 10000 6.2 50 12:40 19.09.2019
1672 Clouds 26 1012 69 10000 6.2 50 12:20 19.09.2019
1673 Clouds 26 1012 69 10000 6.2 50 12:20 19.09.2019
1674 Clouds 26 1012 69 10000 6.2 50 11:58 19.09.2019
1675 Clouds 26 1012 69 10000 6.2 50 11:39 19.09.2019
1676 Clouds 26 1012 69 10000 6.2 50 11:20 19.09.2019
1677 Clouds 27 1012 61 10000 5.7 50 10:41 19.09.2019
1678 Clouds 27 1012 61 10000 5.7 50 10:22 19.09.2019
1679 Clouds 27 1012 61 10000 5.1 60 09:59 19.09.2019
1680 Clouds 27 1012 61 10000 5.1 60 09:41 19.09.2019
1681 Clouds 27 1012 61 10000 5.1 60 09:21 19.09.2019
1682 Clouds 27 1013 65 10000 6.7 60 08:55 19.09.2019
1683 Clouds 27 1013 65 10000 6.7 60 08:28 19.09.2019
1684 Rain 25 1013 78 10000 5.1 70 07:56 19.09.2019
1685 Rain 25 1013 78 10000 5.1 70 07:38 19.09.2019
1686 Clouds 27 1013 65 10000 5.7 50 07:19 19.09.2019
1687 Clouds 27 1013 65 10000 5.7 50 06:43 19.09.2019
1688 Clouds 27 1013 65 10000 5.7 50 06:43 19.09.2019
1689 Clouds 27 1013 65 10000 5.7 50 06:25 19.09.2019
1690 Clouds 27 1014 61 10000 6.7 50 05:50 19.09.2019
1691 Clouds 27 1014 61 10000 6.7 50 05:50 19.09.2019
1692 Clouds 28 1013 61 10000 6.2 50 04:27 19.09.2019
1693 Clouds 28 1013 65 10000 5.7 50 03:21 19.09.2019
1694 Clouds 28 1012 69 10000 6.7 50 01:50 19.09.2019
1695 Clouds 28 1012 69 10000 6.7 50 01:20 19.09.2019
1696 Clouds 29 1012 62 10000 6.7 50 00:45 19.09.2019
1697 Clouds 30 1012 62 10000 6.7 60 00:20 19.09.2019
1698 Clouds 30 1012 62 10000 6.7 60 23:38 18.09.2019
1699 Clouds 30 1012 62 10000 6.7 60 23:20 18.09.2019
1700 Clouds 29 1012 70 10000 6.7 50 22:42 18.09.2019
1701 Clouds 29 1012 70 10000 6.7 50 22:42 18.09.2019
1702 Clouds 29 1012 70 10000 6.7 50 22:20 18.09.2019
1703 Clouds 30 1012 66 10000 7.2 50 21:58 18.09.2019
1704 Clouds 30 1012 66 10000 7.2 50 21:40 18.09.2019
1705 Clouds 30 1012 66 10000 7.2 50 21:18 18.09.2019
1706 Clouds 30 1013 62 10000 8.2 50 20:58 18.09.2019
1707 Clouds 30 1013 62 10000 8.2 50 20:39 18.09.2019
1708 Clouds 30 1013 62 10000 8.2 50 20:21 18.09.2019
1709 Clouds 29 1013 70 10000 7.7 40 19:57 18.09.2019
1710 Clouds 29 1013 70 10000 7.7 40 19:57 18.09.2019
1711 Clouds 29 1013 70 10000 7.7 40 19:38 18.09.2019
1712 Clouds 30 1013 70 10000 8.2 40 19:19 18.09.2019
1713 Clouds 30 1013 70 10000 8.2 40 19:19 18.09.2019
1714 Clouds 30 1013 70 10000 8.2 40 18:55 18.09.2019
1715 Clouds 30 1013 70 10000 8.2 40 18:37 18.09.2019
1716 Clouds 30 1013 70 10000 8.2 40 18:18 18.09.2019
1717 Clouds 30 1013 70 10000 6.7 40 17:56 18.09.2019
1718 Clouds 30 1013 70 10000 6.7 40 17:56 18.09.2019
1719 Clouds 30 1013 70 10000 6.7 40 17:38 18.09.2019
1720 Clouds 30 1013 70 10000 6.7 40 17:18 18.09.2019
1721 Clouds 30 1013 70 10000 6.7 40 17:18 18.09.2019
1722 Clouds 29 1013 74 10000 5.7 40 16:43 18.09.2019
1723 Clouds 29 1013 74 10000 5.7 40 16:22 18.09.2019
1724 Clouds 28 1013 78 10000 5.1 30 15:59 18.09.2019
1725 Clouds 28 1013 78 10000 5.1 30 15:59 18.09.2019
1726 Clouds 28 1013 78 10000 5.1 30 15:40 18.09.2019
1727 Clouds 28 1013 78 10000 5.1 30 15:20 18.09.2019
1728 Clouds 28 1013 74 10000 4.6 30 14:58 18.09.2019
1729 Clouds 28 1013 74 10000 4.6 30 14:40 18.09.2019
1730 Clouds 28 1013 74 10000 4.6 30 14:22 18.09.2019
1731 Clouds 27 1012 78 10000 3.6 30 13:59 18.09.2019
1732 Clouds 27 1012 78 10000 3.6 30 13:38 18.09.2019
1733 Clouds 27 1012 83 10000 5.1 20 13:18 18.09.2019
1734 Clouds 27 1012 83 10000 5.1 20 12:44 18.09.2019
1735 Clouds 27 1012 83 10000 5.1 20 12:26 18.09.2019
1736 Clouds 27 1012 83 10000 3.6 360 11:40 18.09.2019
1737 Clouds 27 1012 83 10000 3.6 360 11:20 18.09.2019
1738 Clouds 27 1012 78 10000 3.1 36 10:58 18.09.2019
1739 Clouds 27 1012 78 10000 3.1 36 10:39 18.09.2019
1740 Clouds 27 1012 78 10000 3.1 36 10:20 18.09.2019
1741 Clouds 27 1012 78 10000 3.1 36 10:20 18.09.2019
1742 Clear 28 1010 77 0 5.63 5.308 09:57 18.09.2019
1743 Clear 28 1010 77 0 5.63 5.308 09:37 18.09.2019
1744 Clouds 27 1012 78 10000 3.6 20 09:19 18.09.2019
1745 Clouds 27 1012 78 10000 3.6 20 08:41 18.09.2019
1746 Clouds 27 1012 78 10000 3.6 20 08:41 18.09.2019
1747 Clouds 28 1012 78 10000 3.6 20 08:21 18.09.2019
1748 Clouds 28 1013 78 10000 3.1 30 07:45 18.09.2019
1749 Clouds 28 1013 78 10000 3.1 30 07:23 18.09.2019
1750 Clouds 28 1013 78 10000 4.6 30 06:54 18.09.2019
1751 Clouds 28 1013 78 10000 4.6 30 06:29 18.09.2019
1752 Clouds 28 1013 78 10000 5.1 30 05:39 18.09.2019
1753 Clouds 28 1013 74 10000 2.6 340 03:49 18.09.2019
1754 Clouds 28 1012 74 10000 4.1 340 02:41 18.09.2019
1755 Clouds 29 1012 74 10000 3.6 340 01:50 18.09.2019
1756 Clouds 30 1012 70 10000 4.6 350 00:57 18.09.2019
1757 Clouds 30 1012 70 10000 4.6 350 00:34 18.09.2019
1758 Clouds 30 1012 74 10000 5.1 340 23:48 17.09.2019
1759 Clouds 30 1012 74 10000 5.1 340 23:25 17.09.2019
1760 Clouds 30 1012 74 10000 6.2 340 22:59 17.09.2019
1761 Clouds 30 1012 74 10000 6.2 340 22:41 17.09.2019
1762 Clouds 30 1012 74 10000 6.2 340 22:22 17.09.2019
1763 Clouds 31 1013 70 10000 5.7 340 21:54 17.09.2019
1764 Clouds 31 1013 70 10000 5.7 340 21:36 17.09.2019
1765 Clouds 31 1013 70 10000 5.7 340 21:18 17.09.2019
1766 Clouds 31 1013 70 10000 5.7 340 21:18 17.09.2019
1767 Clouds 30 1013 74 10000 6.2 340 20:56 17.09.2019
1768 Clouds 30 1013 74 10000 6.2 340 20:56 17.09.2019
1769 Clouds 30 1013 74 10000 6.2 340 20:38 17.09.2019
1770 Clouds 30 1013 74 10000 6.2 340 20:19 17.09.2019
1771 Clouds 30 1013 74 10000 6.2 340 20:19 17.09.2019
1772 Clouds 30 1013 74 10000 5.1 330 19:54 17.09.2019
1773 Clouds 30 1013 74 10000 5.1 330 19:54 17.09.2019
1774 Clouds 30 1013 74 10000 5.1 330 19:36 17.09.2019
1775 Clouds 30 1014 74 10000 4.6 340 19:18 17.09.2019
1776 Clouds 30 1014 74 10000 4.6 340 18:42 17.09.2019
1777 Clouds 30 1014 74 10000 4.6 340 18:22 17.09.2019
1778 Clouds 30 1014 74 10000 4.6 340 18:22 17.09.2019
1779 Clouds 30 1014 74 10000 4.6 330 17:55 17.09.2019
1780 Clouds 30 1014 74 10000 4.6 330 17:37 17.09.2019
1781 Clouds 30 1014 74 10000 4.6 330 17:18 17.09.2019
1782 Clouds 30 1014 74 10000 5.1 300 16:41 17.09.2019
1783 Clouds 30 1014 74 10000 5.1 300 16:41 17.09.2019
1784 Clouds 30 1014 74 10000 5.1 300 16:41 17.09.2019
1785 Clouds 30 1014 74 10000 5.1 300 16:22 17.09.2019
1786 Clouds 29 1014 79 10000 3.6 300 15:56 17.09.2019
1787 Clouds 29 1014 79 10000 3.6 300 15:37 17.09.2019
1788 Clouds 29 1014 79 10000 3.6 300 15:19 17.09.2019
1789 Clouds 27 1013 88 10000 2.6 300 14:55 17.09.2019
1790 Clouds 27 1013 88 10000 2.6 300 14:37 17.09.2019
1791 Clouds 27 1013 88 10000 2.6 300 14:18 17.09.2019
1792 Clouds 27 1013 83 10000 2.1 300 13:41 17.09.2019
1793 Clouds 27 1013 83 10000 2.1 300 13:23 17.09.2019
1794 Clouds 27 1012 83 10000 2.6 310 12:55 17.09.2019
1795 Clouds 27 1012 83 10000 2.6 310 12:37 17.09.2019
1796 Clouds 27 1012 88 10000 2.6 290 12:18 17.09.2019
1797 Clouds 27 1012 88 10000 2.6 290 11:41 17.09.2019
1798 Clouds 27 1012 88 10000 2.6 290 11:19 17.09.2019
1799 Clear 28 1010 78 0 3.72 294.769 10:42 17.09.2019
1800 Clouds 27 1012 88 10000 2.1 250 10:23 17.09.2019
1801 Clouds 27 1012 88 10000 2.1 250 09:59 17.09.2019
1802 Clouds 27 1012 88 10000 2.1 250 09:40 17.09.2019
1803 Clouds 27 1012 88 10000 2.1 250 09:40 17.09.2019
1804 Clouds 27 1012 88 10000 2.1 250 09:20 17.09.2019
1805 Clouds 27 1012 88 10000 2.1 250 09:20 17.09.2019
1806 Clouds 27 1013 88 10000 1.5 250 08:44 17.09.2019
1807 Clouds 27 1013 88 10000 1.5 250 08:25 17.09.2019
1808 Clouds 27 1013 88 10000 1.5 250 08:25 17.09.2019
1809 Clouds 27 1013 88 10000 2.1 250 07:55 17.09.2019
1810 Clouds 27 1013 88 10000 2.1 250 07:36 17.09.2019
1811 Clouds 28 1013 83 10000 2.6 280 07:18 17.09.2019
1812 Clouds 28 1013 83 10000 2.6 280 06:45 17.09.2019
1813 Clouds 28 1013 83 10000 2.6 280 06:19 17.09.2019
1814 Clouds 28 1014 83 10000 2.6 280 05:33 17.09.2019
1815 Clouds 28 1014 65 10000 3.1 290 04:21 17.09.2019
1816 Clouds 28 1013 78 10000 4.1 310 02:41 17.09.2019
1817 Rain 29 1012 80 0 5.78 309.807 01:55 17.09.2019
1818 Clouds 30 1013 79 10000 5.7 310 00:59 17.09.2019
1819 Thunderstorm 31 1013 74 10000 4.6 290 23:57 16.09.2019
1820 Thunderstorm 31 1013 74 10000 4.6 290 23:36 16.09.2019
1821 Thunderstorm 31 1013 74 10000 4.6 290 23:36 16.09.2019
1822 Thunderstorm 31 1013 74 10000 4.6 290 23:18 16.09.2019
1823 Clouds 30 1013 79 10000 5.1 290 22:41 16.09.2019
1824 Clouds 30 1013 79 10000 5.1 290 22:23 16.09.2019
1825 Clouds 30 1014 79 10000 6.2 280 21:58 16.09.2019
1826 Clouds 30 1014 79 10000 6.2 280 21:38 16.09.2019
1827 Clouds 30 1014 79 10000 6.2 280 21:20 16.09.2019
1828 Clouds 29 1014 83 10000 3.6 280 20:55 16.09.2019
1829 Clouds 29 1014 83 10000 3.6 280 20:37 16.09.2019
1830 Clouds 29 1014 83 10000 3.6 280 20:18 16.09.2019
1831 Rain 27 1015 88 10000 4.1 270 19:42 16.09.2019
1832 Rain 27 1015 88 10000 4.1 270 19:21 16.09.2019
1833 Thunderstorm 27 1016 88 10000 3.6 290 18:59 16.09.2019
1834 Thunderstorm 27 1016 88 10000 3.6 290 18:59 16.09.2019
1835 Thunderstorm 27 1016 88 10000 3.6 290 18:41 16.09.2019
1836 Thunderstorm 27 1016 88 10000 3.6 290 18:21 16.09.2019
1837 Clear 29 1015 79 0 5.75 237.85 17:43 16.09.2019
1838 Thunderstorm 29 1016 74 10000 3.1 260 17:24 16.09.2019
1839 Thunderstorm 29 1016 74 10000 3.1 260 16:58 16.09.2019
1840 Thunderstorm 29 1016 74 10000 3.1 260 16:39 16.09.2019
1841 Thunderstorm 29 1016 74 10000 3.1 260 16:20 16.09.2019
1842 Clouds 29 1015 79 10000 4.6 240 15:56 16.09.2019
1843 Clouds 29 1015 79 10000 4.6 240 15:37 16.09.2019
1844 Clouds 29 1015 79 10000 4.6 240 15:19 16.09.2019
1845 Clouds 28 1015 78 10000 4.6 230 14:44 16.09.2019
1846 Clouds 28 1015 78 10000 4.6 230 14:24 16.09.2019
1847 Thunderstorm 27 1015 83 10000 4.1 230 13:59 16.09.2019
1848 Thunderstorm 27 1015 83 10000 4.1 230 13:39 16.09.2019
1849 Thunderstorm 27 1015 83 10000 4.1 230 13:21 16.09.2019
1850 Thunderstorm 27 1014 88 10000 3.6 230 12:46 16.09.2019
1851 Thunderstorm 27 1014 88 10000 3.6 230 12:27 16.09.2019
1852 Thunderstorm 27 1014 83 10000 3.6 240 11:58 16.09.2019
1853 Thunderstorm 27 1014 83 10000 3.6 240 11:39 16.09.2019
1854 Thunderstorm 27 1014 83 10000 3.6 240 11:21 16.09.2019
1855 Thunderstorm 27 1014 88 10000 4.1 220 10:39 16.09.2019
1856 Thunderstorm 27 1014 88 10000 4.1 220 10:20 16.09.2019
1857 Clouds 27 1014 88 10000 3.6 230 09:58 16.09.2019
1858 Clouds 27 1014 88 10000 3.6 230 09:39 16.09.2019
1859 Clouds 27 1014 88 10000 3.6 230 09:19 16.09.2019
1860 Thunderstorm 27 1015 88 10000 3.6 210 08:46 16.09.2019
1861 Thunderstorm 27 1015 88 10000 3.6 210 08:26 16.09.2019
1862 Thunderstorm 27 1015 88 10000 3.1 220 07:56 16.09.2019
1863 Thunderstorm 27 1015 88 10000 3.1 220 07:56 16.09.2019
1864 Thunderstorm 27 1015 88 10000 3.1 220 07:37 16.09.2019
1865 Thunderstorm 28 1015 83 10000 3.6 240 07:19 16.09.2019
1866 Thunderstorm 28 1015 83 10000 3.6 240 06:45 16.09.2019
1867 Thunderstorm 28 1015 83 10000 3.6 240 06:26 16.09.2019
1868 Thunderstorm 28 1016 83 10000 3.6 240 05:49 16.09.2019
1869 Thunderstorm 28 1016 83 10000 3.6 240 05:29 16.09.2019
1870 Clouds 29 1015 79 10000 3.6 240 04:33 16.09.2019
1871 Clouds 29 1015 79 10000 3.6 240 04:33 16.09.2019
1872 Clouds 30 1014 72 0 6.95 221.69 02:32 16.09.2019
1873 Clouds 30 1014 70 10000 4.1 210 00:44 16.09.2019
1874 Clouds 30 1014 70 10000 4.1 210 00:25 16.09.2019
1875 Rain 30 1013 72 0 5.48 214.096 23:42 15.09.2019
1876 Clouds 32 1014 66 10000 6.2 210 23:21 15.09.2019
1877 Clouds 32 1014 66 10000 6.2 210 22:44 15.09.2019
1878 Clouds 32 1014 66 10000 6.2 210 22:23 15.09.2019
1879 Clouds 32 1014 66 10000 6.2 210 22:23 15.09.2019
1880 Clouds 31 1014 70 10000 5.48 214.096 21:59 15.09.2019
1881 Clouds 31 1014 70 10000 5.48 214.096 21:40 15.09.2019
1882 Clouds 31 1014 70 10000 4.73 213.552 21:22 15.09.2019
1883 Thunderstorm 31 1015 74 10000 4.6 220 20:59 15.09.2019
1884 Thunderstorm 31 1015 74 10000 4.6 220 20:59 15.09.2019
1885 Thunderstorm 31 1015 74 10000 4.6 220 20:41 15.09.2019
1886 Thunderstorm 31 1015 74 10000 4.6 220 20:23 15.09.2019
1887 Rain 29 1015 83 10000 3.1 270 19:45 15.09.2019
1888 Rain 29 1015 83 10000 3.1 270 19:25 15.09.2019
1889 Thunderstorm 31 1016 74 10000 5.1 230 18:55 15.09.2019
1890 Thunderstorm 31 1016 74 10000 5.1 230 18:36 15.09.2019
1891 Thunderstorm 31 1016 74 10000 5.1 230 18:18 15.09.2019
1892 Thunderstorm 31 1016 74 10000 5.1 230 18:18 15.09.2019
1893 Rain 29 1015 77 0 7.35 201.371 17:40 15.09.2019
1894 Rain 29 1015 77 0 7.35 201.371 17:21 15.09.2019
1895 Thunderstorm 29 1015 83 10000 5.1 230 16:44 15.09.2019
1896 Thunderstorm 29 1015 83 10000 5.1 230 16:26 15.09.2019
1897 Clouds 29 1015 83 10000 5.7 220 15:59 15.09.2019
1898 Clouds 29 1015 83 10000 5.7 220 15:41 15.09.2019
1899 Clouds 29 1015 83 10000 5.7 220 15:21 15.09.2019
1900 Thunderstorm 28 1015 88 10000 5.1 220 14:58 15.09.2019
1901 Thunderstorm 28 1015 88 10000 5.1 220 14:40 15.09.2019
1902 Thunderstorm 28 1015 88 10000 5.1 220 14:20 15.09.2019
1903 Rain 27 1014 88 10000 3.6 230 13:47 15.09.2019
1904 Rain 27 1014 88 10000 3.6 230 13:24 15.09.2019
1905 Thunderstorm 28 1013 83 10000 4.1 240 12:56 15.09.2019
1906 Thunderstorm 28 1013 83 10000 4.1 240 12:38 15.09.2019
1907 Thunderstorm 28 1013 83 10000 4.1 240 12:18 15.09.2019
1908 Thunderstorm 28 1013 88 10000 3.6 240 11:42 15.09.2019
1909 Thunderstorm 28 1013 88 10000 3.6 240 11:22 15.09.2019
1910 Thunderstorm 28 1013 83 10000 4.1 240 10:58 15.09.2019
1911 Thunderstorm 28 1013 83 10000 4.1 240 10:39 15.09.2019
1912 Thunderstorm 28 1013 83 10000 4.1 240 10:20 15.09.2019
1913 Rain 29 1012 78 0 6.72 222.281 09:40 15.09.2019
1914 Thunderstorm 27 1014 83 10000 3.6 230 09:20 15.09.2019
1915 Thunderstorm 27 1014 83 10000 3.6 230 08:48 15.09.2019
1916 Thunderstorm 28 1014 83 10000 3.6 230 08:29 15.09.2019
1917 Thunderstorm 28 1014 83 10000 3.1 250 07:51 15.09.2019
1918 Thunderstorm 28 1014 83 10000 3.1 250 07:33 15.09.2019
1919 Clouds 28 1014 83 10000 3.6 240 06:43 15.09.2019
1920 Clouds 28 1013 83 10000 3.1 250 04:38 15.09.2019
1921 Rain 28 1013 79 10000 3.1 260 02:55 15.09.2019
1922 Rain 29 1012 74 10000 4.1 270 01:49 15.09.2019
1923 Rain 29 1012 74 10000 4.1 270 01:28 15.09.2019
1924 Clouds 30 1012 70 10000 6.2 280 00:50 15.09.2019
1925 Clouds 30 1012 70 10000 6.2 280 00:24 15.09.2019
1926 Clouds 31 1012 66 10000 4.6 290 23:59 14.09.2019
1927 Clouds 31 1012 66 10000 4.6 290 23:41 14.09.2019
1928 Clouds 30 1012 66 10000 4.6 290 23:22 14.09.2019
1929 Clouds 31 1012 66 10000 4.6 280 22:59 14.09.2019
1930 Clouds 31 1012 66 10000 4.6 280 22:41 14.09.2019
1931 Clouds 32 1012 66 10000 4.6 280 22:22 14.09.2019
1932 Clouds 31 1012 66 10000 5.7 290 21:59 14.09.2019
1933 Clouds 31 1012 66 10000 5.7 290 21:39 14.09.2019
1934 Clouds 31 1012 66 10000 5.7 290 21:20 14.09.2019
1935 Clouds 31 1013 70 10000 5.7 280 20:55 14.09.2019
1936 Clouds 32 1011 71 0 1.79 262 20:37 14.09.2019
1937 Clouds 31 1013 70 10000 5.1 280 20:19 14.09.2019
1938 Clouds 31 1013 70 10000 5.1 280 19:44 14.09.2019
1939 Clouds 31 1013 70 10000 5.1 280 19:21 14.09.2019
1940 Clouds 31 1013 74 10000 5.7 280 18:55 14.09.2019
1941 Clouds 31 1013 74 10000 5.7 280 18:37 14.09.2019
1942 Clouds 31 1013 74 10000 5.7 280 18:18 14.09.2019
1943 Clouds 30 1014 74 10000 4.6 270 17:42 14.09.2019
1944 Clouds 30 1014 74 10000 4.6 270 17:22 14.09.2019
1945 Clouds 29 1013 74 10000 4.6 260 16:47 14.09.2019
1946 Clouds 29 1013 74 10000 4.6 260 16:47 14.09.2019
1947 Clouds 29 1013 74 10000 4.6 260 16:26 14.09.2019
1948 Clouds 29 1013 74 10000 3.1 260 15:57 14.09.2019
1949 Clouds 29 1013 74 10000 3.1 260 15:38 14.09.2019
1950 Clouds 29 1013 74 10000 3.1 260 15:19 14.09.2019
1951 Clouds 28 1012 83 10000 2.1 240 14:43 14.09.2019
1952 Clouds 27 1012 83 10000 2.1 240 14:19 14.09.2019
1953 Clouds 26 1012 88 0 1.5 250 13:48 14.09.2019
1954 Clouds 25 1012 88 0 1.5 250 13:23 14.09.2019
1955 Clouds 26 1012 88 10000 2.1 280 12:48 14.09.2019
1956 Clouds 26 1012 88 10000 2.1 280 12:28 14.09.2019
1957 Clouds 26 1011 88 10000 1.5 280 11:56 14.09.2019
1958 Clouds 26 1011 88 10000 1.5 280 11:37 14.09.2019
1959 Clouds 26 1011 88 10000 1.5 280 11:19 14.09.2019
1960 Clouds 25 1011 94 10000 1 0 10:37 14.09.2019
1961 Clouds 25 1011 94 10000 1 0 10:37 14.09.2019
1962 Clouds 25 1011 94 10000 1 0 10:19 14.09.2019
1963 Clear 28 1009 79 0 6.45 277.7 09:56 14.09.2019
1964 Clear 27 1011 80 0 6.45 277.7 09:38 14.09.2019
1965 Clouds 27 1011 80 0 6.61 319.686 09:19 14.09.2019
1966 Rain 27 1011 80 0 4.99 298.368 08:45 14.09.2019
1967 Clouds 27 1013 88 10000 2.1 50 08:23 14.09.2019
1968 Clouds 27 1013 88 10000 2.1 50 08:23 14.09.2019
1969 Clouds 27 1013 88 10000 2.1 50 07:46 14.09.2019
1970 Clouds 27 1013 88 10000 2.1 50 07:28 14.09.2019
1971 Clouds 27 1013 88 10000 2.1 50 07:28 14.09.2019
1972 Clouds 27 1013 83 10000 2.6 60 06:40 14.09.2019
1973 Clouds 27 1013 83 10000 2.6 60 06:21 14.09.2019
1974 Clouds 27 1013 83 10000 3.1 70 05:21 14.09.2019
1975 Clouds 28 1013 78 10000 4.1 70 03:43 14.09.2019
1976 Clouds 28 1013 78 10000 4.1 60 02:52 14.09.2019
1977 Rain 28 1012 74 10000 5.1 80 01:50 14.09.2019
1978 Rain 28 1012 74 10000 5.1 80 01:22 14.09.2019
1979 Rain 28 1012 74 10000 5.1 70 00:57 14.09.2019
1980 Rain 28 1012 74 10000 5.1 70 00:37 14.09.2019
1981 Rain 28 1012 74 10000 6.2 80 00:18 14.09.2019
1982 Rain 29 1012 74 10000 6.2 80 23:38 13.09.2019
1983 Rain 29 1012 74 10000 6.2 80 23:19 13.09.2019
1984 Rain 29 1012 70 10000 6.7 70 22:56 13.09.2019
1985 Rain 29 1012 70 10000 6.7 70 22:56 13.09.2019
1986 Rain 29 1012 70 10000 6.7 70 22:37 13.09.2019
1987 Rain 29 1012 70 10000 6.7 70 22:37 13.09.2019
1988 Rain 29 1012 70 10000 6.7 70 22:19 13.09.2019
1989 Clouds 29 1012 70 10000 6.7 70 21:40 13.09.2019
1990 Clouds 29 1012 70 10000 6.7 70 21:19 13.09.2019
1991 Clouds 29 1013 74 10000 6.7 70 20:58 13.09.2019
1992 Clouds 29 1013 74 10000 6.7 70 20:38 13.09.2019
1993 Clouds 29 1013 74 10000 6.7 70 20:20 13.09.2019
1994 Clouds 29 1013 70 10000 6.2 60 19:55 13.09.2019
1995 Clouds 29 1013 70 10000 6.2 60 19:37 13.09.2019
1996 Clouds 30 1013 70 10000 6.7 60 19:18 13.09.2019
1997 Clouds 29 1013 70 10000 6.7 60 18:38 13.09.2019
1998 Clouds 29 1013 70 10000 6.7 60 18:20 13.09.2019
1999 Clouds 29 1013 74 10000 5.7 60 17:58 13.09.2019
2000 Clouds 29 1013 74 10000 5.7 60 17:37 13.09.2019
2001 Clouds 29 1013 74 10000 5.7 60 17:18 13.09.2019
2002 Rain 29 1013 79 10000 5.1 90 16:40 13.09.2019
2003 Rain 29 1013 79 10000 5.1 90 16:20 13.09.2019
2004 Clouds 28 1013 78 10000 5.1 100 15:44 13.09.2019
2005 Clouds 28 1013 78 10000 5.1 100 15:25 13.09.2019
2006 Clouds 28 1012 78 10000 4.6 90 14:56 13.09.2019
2007 Clouds 27 1015 88 10000 2.6 90 14:37 13.09.2019
2008 Clouds 27 1015 88 10000 2.6 90 14:19 13.09.2019
2009 Clouds 27 1015 88 10000 2.6 90 13:44 13.09.2019
2010 Rain 25 1015 88 10000 2.6 90 13:22 13.09.2019
2011 Rain 26 1011 83 10000 4.6 50 12:46 13.09.2019
2012 Rain 26 1011 83 10000 4.6 50 12:26 13.09.2019
2013 Clouds 27 1011 83 10000 3.6 70 11:57 13.09.2019
2014 Clouds 27 1011 83 10000 3.6 70 11:21 13.09.2019
2015 Clouds 27 1011 83 10000 2.6 60 10:59 13.09.2019
2016 Clouds 27 1011 83 10000 2.6 60 10:37 13.09.2019
2017 Clouds 27 1011 83 10000 2.6 60 10:18 13.09.2019
2018 Clouds 27 1011 83 10000 2.6 90 09:43 13.09.2019
2019 Clouds 27 1011 83 10000 2.6 90 09:43 13.09.2019
2020 Clouds 27 1011 83 10000 2.6 90 09:21 13.09.2019
2021 Clouds 27 1012 88 10000 3.1 90 08:57 13.09.2019
2022 Clouds 26 1012 88 10000 3.1 90 08:39 13.09.2019
2023 Clouds 26 1012 88 10000 3.1 90 08:39 13.09.2019
2024 Clouds 26 1012 88 10000 3.1 90 08:20 13.09.2019
2025 Rain 27 1012 83 10000 6.2 80 07:41 13.09.2019
2026 Clouds 27 1012 83 10000 7.2 80 07:22 13.09.2019
2027 Clouds 27 1012 83 10000 7.2 80 06:38 13.09.2019
2028 Clouds 28 1013 78 10000 5.7 70 05:36 13.09.2019
2029 Rain 27 1013 78 10000 5.1 70 03:53 13.09.2019
2030 Rain 27 1013 78 10000 5.1 70 03:26 13.09.2019
2031 Clouds 27 1012 83 10000 5.7 80 02:20 13.09.2019
2032 Rain 27 1011 81 0 4.47 60 01:37 13.09.2019
2033 Clouds 27 1010 82 0 3.13 155 00:59 13.09.2019
2034 Clouds 27 1010 81 0 5.81 35 00:35 13.09.2019
2035 Clouds 28 1011 78 10000 5.7 70 23:53 12.09.2019
2036 Rain 27 1012 88 10000 3.6 80 23:26 12.09.2019
2037 Rain 27 1012 88 10000 3.6 80 22:58 12.09.2019
2038 Rain 27 1012 88 10000 3.6 80 22:39 12.09.2019
2039 Rain 27 1012 88 10000 3.6 80 22:21 12.09.2019
2040 Rain 26 1012 83 10000 4.6 90 21:55 12.09.2019
2041 Clouds 26 1012 83 10000 4.6 90 21:37 12.09.2019
2042 Rain 25 1012 83 10000 4.6 90 21:18 12.09.2019
2043 Rain 28 1013 70 10000 7.2 60 20:44 12.09.2019
2044 Rain 30 1013 70 10000 7.2 60 20:23 12.09.2019
2045 Clouds 30 1013 66 10000 8.2 60 19:57 12.09.2019
2046 Clouds 29 1013 66 10000 8.2 60 19:39 12.09.2019
2047 Clouds 29 1013 66 10000 8.2 60 19:19 12.09.2019
2048 Clouds 29 1013 70 10000 7.2 70 18:56 12.09.2019
2049 Clouds 29 1013 70 10000 7.2 70 18:36 12.09.2019
2050 Clouds 29 1013 70 10000 7.2 70 18:36 12.09.2019
2051 Clouds 29 1014 74 10000 7.2 60 18:18 12.09.2019
2052 Clouds 29 1014 74 10000 7.2 60 17:40 12.09.2019
2053 Clouds 29 1014 74 10000 7.2 60 17:20 12.09.2019
2054 Clouds 29 1014 74 10000 7.2 60 17:20 12.09.2019
2055 -273 0 0 0 0 0 16:56 12.09.2019
2056 Rain 27 1014 78 10000 5.1 70 16:55 12.09.2019
2057 Rain 28 1014 78 10000 5.1 70 16:36 12.09.2019
2058 Rain 27 1014 78 10000 5.1 70 16:18 12.09.2019
2059 Rain 27 1014 83 10000 5.1 80 15:41 12.09.2019
2060 Rain 27 1014 83 10000 5.1 80 15:23 12.09.2019
2061 Rain 27 1012 80 0 2.24 52 14:45 12.09.2019
2062 Clouds 25 1013 88 10000 4.1 70 14:21 12.09.2019
2063 Clouds 26 1013 88 10000 4.1 70 13:55 12.09.2019
2064 Clouds 26 1013 88 10000 4.1 70 13:37 12.09.2019
2065 Rain 26 1011 83 0 1.79 46 13:18 12.09.2019
2066 Rain 28 1012 76 0 8.05 61.734 12:43 12.09.2019
2067 Clouds 27 1012 78 10000 4.6 70 12:19 12.09.2019
2068 Clouds 27 1012 78 10000 4.6 70 11:55 12.09.2019
2069 Clouds 27 1012 78 10000 4.6 70 11:37 12.09.2019
2070 Clouds 27 1012 78 10000 4.6 70 11:19 12.09.2019
2071 Rain 28 1011 74 0 8.16 51.797 10:44 12.09.2019
2072 Clouds 27 1013 78 10000 4.1 90 10:24 12.09.2019
2073 Clouds 27 1013 78 10000 4.1 90 09:44 12.09.2019
2074 Clouds 27 1013 78 10000 4.1 90 09:44 12.09.2019
2075 Clouds 27 1013 78 10000 4.1 90 09:21 12.09.2019
2076 Rain 27 1013 78 10000 3.6 80 08:58 12.09.2019
2077 Rain 27 1013 78 10000 3.6 80 08:39 12.09.2019
2078 Rain 27 1013 78 10000 3.6 80 08:21 12.09.2019
2079 Clouds 27 1014 78 10000 4.1 90 07:39 12.09.2019
2080 Clouds 27 1014 74 10000 5.7 80 07:19 12.09.2019
2081 Clouds 27 1014 74 10000 5.7 80 06:49 12.09.2019
2082 Clouds 28 1015 69 10000 6.2 80 06:19 12.09.2019
2083 Clouds 28 1015 69 10000 6.2 80 05:48 12.09.2019
2084 Clouds 28 1015 69 10000 6.2 80 05:27 12.09.2019
2085 Clouds 28 1015 83 10000 6.2 80 04:31 12.09.2019
2086 Clouds 28 1015 83 10000 6.2 80 04:31 12.09.2019
2087 Clouds 28 1014 69 10000 7.2 70 01:47 12.09.2019
2088 Clouds 28 1014 69 10000 7.2 70 01:28 12.09.2019
2089 Rain 28 1015 66 10000 7.2 70 00:50 12.09.2019
2090 Rain 28 1015 66 10000 7.2 70 00:31 12.09.2019
2091 Clouds 28 1015 70 10000 7.2 70 23:49 11.09.2019
2092 Clouds 28 1015 70 10000 7.2 70 23:27 11.09.2019
2093 Clouds 28 1015 70 10000 7.2 70 23:27 11.09.2019
2094 Rain 28 1015 78 10000 8.2 80 22:58 11.09.2019
2095 Rain 27 1015 78 10000 8.2 80 22:38 11.09.2019
2096 Rain 28 1015 78 10000 8.2 80 22:20 11.09.2019
2097 Rain 28 1015 78 10000 8.2 80 22:20 11.09.2019
2098 Thunderstorm 28 1015 78 10000 7.2 40 21:59 11.09.2019
2099 Thunderstorm 28 1015 78 10000 7.2 40 21:41 11.09.2019
2100 Thunderstorm 28 1015 78 10000 7.2 40 21:22 11.09.2019
2101 Rain 29 1016 70 10000 5.7 70 20:56 11.09.2019
2102 Rain 29 1016 70 10000 5.7 70 20:38 11.09.2019
2103 Rain 29 1016 70 10000 5.7 70 20:19 11.09.2019
2104 -273 0 0 0 0 0 19:56 11.09.2019
2105 Rain 30 1016 70 10000 7.7 80 19:37 11.09.2019
2106 Rain 30 1016 70 10000 7.7 80 19:37 11.09.2019
2107 Clouds 29 1017 70 10000 8.2 70 19:19 11.09.2019
2108 Clouds 30 1017 70 10000 8.2 70 18:44 11.09.2019
2109 Clouds 30 1017 70 10000 8.2 70 18:26 11.09.2019
2110 Clouds 29 1018 74 10000 7.2 80 17:59 11.09.2019
2111 Clouds 29 1018 74 10000 7.2 80 17:41 11.09.2019
2112 Clouds 29 1018 74 10000 7.2 80 17:21 11.09.2019
2113 Rain 29 1018 74 10000 6.7 70 16:56 11.09.2019
2114 Rain 29 1018 74 10000 6.7 70 16:37 11.09.2019
2115 Rain 29 1018 74 10000 6.7 70 16:19 11.09.2019
2116 Rain 28 1018 74 10000 5.1 80 15:46 11.09.2019
2117 Rain 28 1018 74 10000 5.1 80 15:46 11.09.2019
2118 Rain 27 1018 74 10000 5.1 80 15:23 11.09.2019
2119 Clouds 28 1017 78 10000 5.1 80 14:58 11.09.2019
2120 Clouds 28 1017 78 10000 5.1 80 14:38 11.09.2019
2121 Clouds 28 1017 78 10000 5.1 80 14:20 11.09.2019
2122 Clouds 27 1017 83 10000 3.6 80 13:57 11.09.2019
2123 Clouds 27 1017 83 10000 3.6 80 13:36 11.09.2019
2124 Clouds 27 1017 83 10000 3.6 80 13:18 11.09.2019
2125 Clouds 27 1017 78 10000 4.6 80 12:41 11.09.2019
2126 Clouds 27 1017 78 10000 4.6 80 12:21 11.09.2019
2127 Clouds 27 1017 83 10000 4.6 100 11:56 11.09.2019
2128 Clouds 27 1017 83 10000 4.6 100 11:36 11.09.2019
2129 Clouds 27 1017 83 10000 4.6 100 11:18 11.09.2019
2130 Clouds 27 1017 83 10000 4.6 100 11:18 11.09.2019
2131 Clouds 27 1017 83 10000 4.6 90 10:40 11.09.2019
2132 Clouds 27 1017 83 10000 4.6 90 10:22 11.09.2019
2133 Clouds 27 1017 78 10000 5.1 90 09:41 11.09.2019
2134 Clouds 27 1017 78 10000 5.1 90 09:20 11.09.2019
2135 Rain 28 1018 83 10000 4.1 70 08:59 11.09.2019
2136 Rain 28 1018 83 10000 4.1 70 08:39 11.09.2019
2137 Rain 28 1018 83 10000 4.1 70 08:21 11.09.2019
2138 Clouds 28 1018 74 10000 5.1 90 07:45 11.09.2019
2139 Clouds 28 1018 74 10000 5.1 90 07:23 11.09.2019
2140 Clouds 28 1018 78 10000 4.6 80 06:53 11.09.2019
2141 Clouds 28 1018 78 10000 4.6 80 06:35 11.09.2019
2142 Clouds 29 1019 74 10000 5.7 80 05:49 11.09.2019
2143 Clouds 29 1019 74 10000 5.7 80 05:28 11.09.2019
2144 Clouds 29 1019 74 10000 6.2 80 04:46 11.09.2019
2145 Clouds 29 1018 74 10000 6.2 80 03:36 11.09.2019
2146 Rain 28 1017 79 0 4.02 44 02:49 11.09.2019
2147 Thunderstorm 29 1018 74 10000 7.2 60 02:20 11.09.2019
2148 Clouds 29 1018 74 10000 7.2 60 00:52 11.09.2019
2149 Clouds 29 1018 74 10000 7.2 60 00:26 11.09.2019
2150 Clouds 30 1018 74 10000 6.7 60 23:56 10.09.2019
2151 Clouds 30 1018 74 10000 6.7 60 23:37 10.09.2019
2152 Clouds 30 1018 70 10000 7.2 80 23:19 10.09.2019
2153 Clouds 30 1018 70 10000 7.2 80 23:19 10.09.2019
2154 Clouds 29 1018 70 10000 7.2 80 22:41 10.09.2019
2155 Clouds 29 1018 70 10000 7.2 80 22:19 10.09.2019
2156 Rain 28 1019 78 10000 6.2 70 21:55 10.09.2019
2157 Rain 28 1019 78 10000 6.2 70 21:37 10.09.2019
2158 Rain 28 1019 78 10000 6.2 70 21:19 10.09.2019
2159 Thunderstorm 28 1019 66 10000 8.7 70 20:57 10.09.2019
2160 Thunderstorm 29 1019 70 10000 7.2 60 20:38 10.09.2019
2161 Thunderstorm 30 1019 70 10000 7.2 60 20:20 10.09.2019
2162 Clouds 30 1020 74 10000 6.7 50 19:56 10.09.2019
2163 Clouds 30 1020 74 10000 6.7 50 19:37 10.09.2019
2164 Clouds 30 1020 74 10000 6.7 50 19:19 10.09.2019
2165 Clouds 31 1020 70 10000 5.7 70 18:55 10.09.2019
2166 Clouds 30 1020 70 10000 5.7 70 18:37 10.09.2019
2167 Clouds 30 1021 74 10000 5.7 70 18:18 10.09.2019
2168 Clouds 30 1021 74 10000 5.7 70 17:42 10.09.2019
2169 Clouds 30 1021 74 10000 5.7 70 17:21 10.09.2019
2170 Clouds 29 1020 79 10000 6.2 80 16:58 10.09.2019
2171 Rain 29 1020 78 0 3.13 34 16:39 10.09.2019
2172 Clouds 29 1020 79 10000 5.7 70 16:20 10.09.2019
2173 Clouds 29 1020 79 10000 5.7 70 15:56 10.09.2019
2174 Clouds 29 1020 79 10000 5.7 70 15:38 10.09.2019
2175 Clouds 29 1020 79 10000 5.7 70 15:19 10.09.2019
2176 Rain 29 1019 78 0 3.13 86 14:40 10.09.2019
2177 Clouds 28 1019 78 10000 4.1 80 14:22 10.09.2019
2178 Clouds 28 1019 78 10000 4.1 80 13:48 10.09.2019
2179 Clouds 28 1019 78 10000 4.1 80 13:24 10.09.2019
2180 Clouds 28 1018 78 10000 2.6 80 12:56 10.09.2019
2181 Clouds 28 1018 78 10000 2.6 80 12:37 10.09.2019
2182 Clouds 28 1018 78 10000 3.1 100 12:19 10.09.2019
2183 Clear 28 1017 80 0 1.34 53 11:42 10.09.2019
2184 Clouds 28 1019 78 10000 2.6 110 11:22 10.09.2019
2185 Clouds 28 1019 78 10000 2.6 110 10:59 10.09.2019
2186 Clouds 28 1019 78 10000 2.6 110 10:37 10.09.2019
2187 Clouds 28 1019 78 10000 2.1 100 10:18 10.09.2019
2188 Clouds 28 1019 78 10000 2.1 100 09:44 10.09.2019
2189 Clouds 28 1019 78 10000 3.6 100 09:20 10.09.2019
2190 Clouds 28 1019 78 10000 3.6 100 08:56 10.09.2019
2191 Clouds 28 1019 78 10000 3.6 100 08:38 10.09.2019
2192 Clear 28 1018 79 0 1.34 65 08:19 10.09.2019
2193 Clear 28 1018 79 0 1.34 65 07:43 10.09.2019
2194 Clouds 28 1019 74 10000 4.6 90 07:25 10.09.2019
2195 Clouds 28 1019 74 10000 4.6 90 06:46 10.09.2019
2196 Clouds 28 1019 74 10000 4.6 90 06:28 10.09.2019
2197 Clouds 29 1020 70 10000 5.1 80 04:25 10.09.2019
2198 Clouds 29 1019 70 10000 5.1 90 02:41 10.09.2019
2199 Clouds 29 1019 70 10000 5.1 90 02:21 10.09.2019
2200 Clouds 29 1019 70 10000 5.1 90 02:21 10.09.2019
2201 Clouds 29 1019 70 10000 5.1 90 02:21 10.09.2019
2202 Clouds 29 1019 70 10000 5.1 90 01:50 10.09.2019
2203 Clouds 29 1019 70 10000 5.1 90 01:23 10.09.2019
2204 Rain 29 1019 74 10000 6.2 80 00:42 10.09.2019
2205 Rain 29 1019 74 10000 6.2 80 00:22 10.09.2019
2206 Clouds 30 1019 66 10000 6.2 80 23:40 09.09.2019
2207 Clouds 31 1019 66 10000 6.2 80 23:19 09.09.2019
2208 Clouds 31 1019 66 10000 6.2 80 22:55 09.09.2019
2209 Clouds 31 1019 66 10000 6.2 80 22:55 09.09.2019
2210 -273 0 0 0 0 0 22:55 09.09.2019
2211 Clouds 30 1019 66 10000 6.2 80 22:36 09.09.2019
2212 Clouds 31 1019 58 10000 6.2 100 22:18 09.09.2019
2213 Clouds 31 1019 58 10000 6.2 100 21:55 09.09.2019
2214 Clouds 31 1019 58 10000 6.2 100 21:55 09.09.2019
2215 Clouds 30 1019 58 10000 6.2 100 21:36 09.09.2019
2216 Clouds 31 1019 62 10000 6.2 100 21:18 09.09.2019
2217 Clouds 31 1019 62 10000 6.2 100 20:55 09.09.2019
2218 Clouds 31 1019 62 10000 6.2 100 20:36 09.09.2019
2219 Clouds 31 1019 74 0 3.13 71 20:18 09.09.2019
2220 Clouds 31 1019 75 0 1.79 79 19:55 09.09.2019
2221 Clouds 31 1020 66 10000 5.7 100 19:37 09.09.2019
2222 Clouds 31 1020 66 10000 5.7 100 19:18 09.09.2019
2223 Clouds 31 1020 66 10000 5.7 100 18:43 09.09.2019
2224 Clouds 30 1020 70 10000 4.6 110 18:22 09.09.2019
2225 Clouds 30 1020 70 10000 4.6 110 17:59 09.09.2019
2226 Clouds 30 1020 70 10000 4.6 110 17:41 09.09.2019
2227 Clouds 30 1020 70 10000 4.6 110 17:21 09.09.2019
2228 Clouds 30 1020 70 10000 4.6 100 16:57 09.09.2019
2229 Clouds 30 1020 70 10000 4.6 100 16:39 09.09.2019
2230 Clouds 30 1020 70 10000 4.6 100 16:20 09.09.2019
2231 Clouds 30 1020 70 10000 4.1 100 16:20 09.09.2019
2232 Clouds 30 1020 70 10000 4.1 100 15:56 09.09.2019
2233 Clouds 30 1020 70 10000 4.1 100 15:56 09.09.2019
2234 Clouds 30 1020 70 10000 4.1 100 15:37 09.09.2019
2235 Clouds 29 1019 79 10000 3.6 110 15:18 09.09.2019
2236 Clouds 29 1019 79 10000 3.6 110 14:55 09.09.2019
2237 Clouds 30 1019 79 10000 3.6 110 14:37 09.09.2019
2238 Clouds 29 1018 83 10000 3.6 110 14:19 09.09.2019
2239 Clouds 29 1018 83 10000 3.6 110 14:19 09.09.2019
2240 Clouds 28 1018 83 10000 3.6 110 13:44 09.09.2019
2241 Clouds 28 1018 83 10000 2.6 90 13:20 09.09.2019
2242 Clouds 28 1018 83 10000 2.6 90 12:58 09.09.2019
2243 Clouds 28 1018 83 10000 2.6 90 12:38 09.09.2019
2244 Clouds 28 1018 83 10000 3.6 120 12:20 09.09.2019
2245 Clouds 28 1018 83 10000 3.6 120 12:20 09.09.2019
2246 Clouds 28 1018 83 10000 3.6 120 11:47 09.09.2019
2247 Clouds 28 1018 83 10000 3.6 120 11:23 09.09.2019
2248 Clouds 28 1018 83 10000 3.1 110 10:58 09.09.2019
2249 Clouds 29 1016 78 0 6.67 97.172 10:40 09.09.2019
2250 Clouds 28 1018 78 10000 4.1 120 10:20 09.09.2019
2251 Clouds 28 1018 78 10000 4.1 120 09:56 09.09.2019
2252 Clouds 28 1018 78 10000 4.1 120 09:37 09.09.2019
2253 Clouds 28 1018 83 10000 3.6 100 09:18 09.09.2019
2254 Clouds 28 1018 83 10000 3.6 100 08:38 09.09.2019
2255 Clouds 28 1019 78 10000 4.1 120 08:19 09.09.2019
2256 Clouds 28 1019 78 10000 4.1 120 07:44 09.09.2019
2257 Clouds 28 1019 78 10000 3.6 120 07:22 09.09.2019
2258 Clouds 28 1019 78 10000 3.6 120 06:56 09.09.2019
2259 Clouds 28 1019 78 10000 3.6 120 06:56 09.09.2019
2260 Clouds 28 1019 78 10000 3.6 120 06:31 09.09.2019
2261 Clouds 29 1019 74 10000 3.6 110 04:45 09.09.2019
2262 Clouds 29 1017 77 0 1.34 156 02:43 09.09.2019
2263 Clouds 29 1017 70 10000 4.1 120 01:47 09.09.2019
2264 Clouds 30 1017 58 10000 4.6 120 00:25 09.09.2019
2265 Clouds 30 1016 75 0 0.89 93 23:58 08.09.2019
2266 Clouds 29 1016 76 0 0.45 101 23:39 08.09.2019
2267 Clouds 30 1017 66 10000 5.1 140 23:21 08.09.2019
2268 Clouds 31 1017 66 10000 5.1 140 22:41 08.09.2019
2269 Clouds 30 1017 66 10000 5.1 140 22:23 08.09.2019
2270 Clouds 31 1018 62 10000 5.1 140 21:59 08.09.2019
2271 Clouds 31 1018 62 10000 5.1 140 21:40 08.09.2019
2272 Clouds 31 1018 62 10000 4.1 140 21:22 08.09.2019
2273 Clouds 31 1018 62 10000 4.1 140 20:56 08.09.2019
2274 Clouds 32 1018 62 10000 4.1 140 20:37 08.09.2019
2275 Clouds 32 1018 62 10000 4.1 140 20:19 08.09.2019
2276 Clouds 31 1018 66 10000 4.1 140 19:40 08.09.2019
2277 Clouds 32 1018 62 10000 4.6 140 19:21 08.09.2019
2278 Clouds 32 1018 62 10000 4.6 140 18:59 08.09.2019
2279 Clouds 32 1018 62 10000 4.6 140 18:39 08.09.2019
2280 Clouds 31 1018 66 10000 4.1 140 18:20 08.09.2019
2281 Clouds 31 1018 66 10000 4.1 140 17:59 08.09.2019
2282 Clouds 31 1018 66 10000 4.1 140 17:37 08.09.2019
2283 Clouds 31 1018 62 10000 3.6 140 17:19 08.09.2019
2284 Clouds 31 1018 62 10000 3.6 140 16:57 08.09.2019
2285 Clouds 31 1018 62 10000 3.6 140 16:39 08.09.2019
2286 Clouds 30 1018 74 10000 2.1 120 16:20 08.09.2019
2287 Clouds 30 1018 74 10000 2.1 120 15:42 08.09.2019
2288 Clouds 30 1018 74 10000 2.1 120 15:22 08.09.2019
2289 Clouds 30 1018 79 10000 2.1 140 14:59 08.09.2019
2290 Clouds 30 1018 79 10000 2.1 140 14:39 08.09.2019
2291 Clouds 30 1018 79 10000 2.1 140 14:39 08.09.2019
2292 Clouds 29 1018 79 10000 2.1 140 14:21 08.09.2019
2293 Clouds 28 1017 83 10000 1.5 160 13:57 08.09.2019
2294 Clouds 27 1017 83 10000 1.5 160 13:39 08.09.2019
2295 Clouds 27 1016 83 10000 1.5 100 13:21 08.09.2019
2296 Clouds 27 1016 83 10000 1.5 100 12:54 08.09.2019
2297 Clouds 27 1016 83 10000 1.5 100 12:54 08.09.2019
2298 Clouds 27 1016 83 10000 1.5 100 12:36 08.09.2019
2299 Clouds 27 1016 83 10000 2.6 160 12:18 08.09.2019
2300 Clouds 27 1016 83 10000 2.6 160 11:54 08.09.2019
2301 Clouds 27 1016 83 10000 2.6 160 11:36 08.09.2019
2302 Clouds 28 1016 78 10000 2.1 160 11:18 08.09.2019
2303 Clouds 28 1016 78 10000 2.1 160 10:41 08.09.2019
2304 Clouds 28 1016 78 10000 2.1 160 10:22 08.09.2019
2305 Clouds 27 1016 78 10000 2.6 160 09:55 08.09.2019
2306 Clouds 27 1016 78 10000 2.6 160 09:55 08.09.2019
2307 Clouds 27 1016 78 10000 2.6 160 09:37 08.09.2019
2308 Clouds 28 1016 78 10000 3.6 150 09:18 08.09.2019
2309 Clouds 28 1016 78 10000 3.6 150 08:39 08.09.2019
2310 Clouds 28 1016 78 10000 4.1 150 08:18 08.09.2019
2311 Clouds 28 1016 78 10000 4.1 150 07:41 08.09.2019
2312 Clouds 29 1016 74 10000 4.1 150 07:21 08.09.2019
2313 Clouds 28 1016 74 10000 4.1 150 06:54 08.09.2019
2314 Clouds 28 1016 74 10000 4.1 150 06:34 08.09.2019
2315 Clouds 28 1016 79 10000 4.1 150 05:39 08.09.2019
2316 Clouds 29 1016 79 10000 4.1 150 04:27 08.09.2019
2317 Clouds 28 1016 78 10000 2.1 170 03:19 08.09.2019
2318 Clouds 28 1016 78 10000 2.1 170 03:19 08.09.2019
2319 Clouds 29 1015 74 0 2.1 190 02:29 08.09.2019
2320 Clouds 29 1015 74 0 2.1 190 01:52 08.09.2019
2321 Clouds 30 1015 70 10000 3.1 190 01:23 08.09.2019
2322 Clouds 30 1015 70 10000 3.1 190 00:46 08.09.2019
2323 Clouds 30 1015 70 10000 3.1 190 00:27 08.09.2019
2324 Clouds 31 1015 70 10000 2.6 20 23:39 07.09.2019
2325 Clouds 31 1015 70 10000 2.6 20 23:21 07.09.2019
2326 Clouds 31 1015 70 10000 2.6 110 22:58 07.09.2019
2327 Clouds 31 1015 70 10000 2.6 110 22:39 07.09.2019
2328 Clouds 32 1015 70 10000 2.6 110 22:20 07.09.2019
2329 Clouds 32 1015 62 10000 2.6 220 21:43 07.09.2019
2330 Clouds 32 1015 62 10000 2.6 220 21:25 07.09.2019
2331 Clouds 32 1016 62 10000 2.6 220 20:58 07.09.2019
2332 Clouds 32 1016 62 10000 2.6 220 20:39 07.09.2019
2333 Clouds 32 1016 62 10000 2.6 220 20:39 07.09.2019
2334 Clouds 32 1016 62 10000 3.1 220 20:20 07.09.2019
2335 Clouds 32 1016 62 10000 3.1 220 19:55 07.09.2019
2336 Clouds 32 1016 62 10000 3.1 220 19:37 07.09.2019
2337 Clouds 30 1017 70 10000 2.6 220 19:19 07.09.2019
2338 Clouds 30 1017 70 10000 2.6 220 18:56 07.09.2019
2339 Clouds 30 1017 70 10000 2.6 220 18:36 07.09.2019
2340 Clouds 31 1017 70 10000 3.6 210 18:18 07.09.2019
2341 Clouds 31 1017 70 10000 3.6 210 17:56 07.09.2019
2342 Clouds 31 1017 70 10000 3.6 210 17:37 07.09.2019
2343 Clouds 30 1017 74 10000 3.1 220 17:18 07.09.2019
2344 Clouds 31 1017 74 10000 3.1 220 16:43 07.09.2019
2345 Clouds 31 1016 74 10000 3.1 230 16:21 07.09.2019
2346 Clouds 31 1016 74 10000 3.1 230 15:50 07.09.2019
2347 Clouds 30 1016 74 10000 3.1 230 15:27 07.09.2019
2348 Clouds 29 1016 83 10000 1.5 230 14:58 07.09.2019
2349 Clouds 28 1016 83 10000 1.5 230 14:38 07.09.2019
2350 Clouds 27 1016 94 10000 1.5 240 14:19 07.09.2019
2351 Clouds 27 1016 94 10000 1.5 240 14:19 07.09.2019
2352 Clouds 27 1016 94 10000 1.5 240 13:58 07.09.2019
2353 Clouds 27 1016 94 10000 1.5 240 13:40 07.09.2019
2354 Clouds 27 1016 94 10000 1.5 240 13:40 07.09.2019
2355 Clouds 27 1016 94 10000 1.5 240 13:40 07.09.2019
2356 Clouds 27 1016 94 10000 1.5 240 13:40 07.09.2019
2357 Clouds 26 1016 94 10000 1.5 240 13:22 07.09.2019
2358 Clouds 26 1015 94 10000 1.5 260 12:44 07.09.2019
2359 Clouds 27 1015 88 10000 2.1 250 12:26 07.09.2019
2360 Clouds 27 1015 88 10000 2.1 250 11:58 07.09.2019
2361 Clouds 27 1015 88 10000 2.1 250 11:39 07.09.2019
2362 Rain 29 1014 78 0 5.08 206.716 11:19 07.09.2019
2363 Rain 29 1014 78 0 5.08 206.716 11:19 07.09.2019
2364 Rain 29 1014 78 0 5.08 206.716 10:40 07.09.2019
2365 Rain 29 1014 78 0 5.08 206.716 10:40 07.09.2019
2366 Rain 29 1014 78 0 5.08 206.716 10:21 07.09.2019
2367 Rain 28 1014 81 0 5.08 206.716 09:45 07.09.2019
2368 Clouds 28 1015 83 10000 1.5 200 09:27 07.09.2019
2369 Clouds 28 1015 83 10000 1.5 200 08:59 07.09.2019
2370 Clouds 28 1015 83 10000 1.5 200 08:41 07.09.2019
2371 Clouds 28 1015 83 10000 1.5 200 08:41 07.09.2019
2372 Clouds 28 1015 83 10000 1.5 200 08:23 07.09.2019
2373 Clouds 28 1016 83 10000 2.1 200 07:45 07.09.2019
2374 Clouds 28 1016 83 10000 2.1 200 07:26 07.09.2019
2375 Clouds 28 1016 88 10000 3.1 200 06:47 07.09.2019
2376 Clouds 28 1016 83 10000 2.6 190 06:20 07.09.2019
2377 Clouds 29 1016 79 10000 2.6 200 04:48 07.09.2019
2378 Clouds 29 1015 79 10000 1.5 190 04:20 07.09.2019
2379 Clouds 28 1014 80 0 2.96 141.292 02:45 07.09.2019
2380 Clouds 29 1015 70 10000 2.6 190 01:46 07.09.2019
2381 Clouds 30 1015 70 10000 3.1 200 01:18 07.09.2019
2382 Clouds 30 1015 70 10000 3.1 200 00:39 07.09.2019
2383 Thunderstorm 32 1014 62 10000 2.1 210 00:19 07.09.2019
2384 Thunderstorm 32 1014 62 10000 2.1 210 23:40 06.09.2019
2385 Thunderstorm 32 1014 62 10000 2.1 210 23:40 06.09.2019
2386 Clouds 32 1014 66 10000 3.1 210 23:21 06.09.2019
2387 Clouds 32 1014 66 10000 3.1 210 23:21 06.09.2019
2388 Clouds 32 1014 66 10000 3.1 210 22:57 06.09.2019
2389 Clouds 32 1014 66 10000 3.1 210 22:37 06.09.2019
2390 Clouds 32 1014 66 10000 3.1 210 22:37 06.09.2019
2391 Clouds 32 1015 66 10000 4.1 210 22:19 06.09.2019
2392 Clouds 32 1015 66 10000 4.1 210 21:56 06.09.2019
2393 Clouds 32 1015 66 10000 4.1 210 21:38 06.09.2019
2394 Clouds 31 1015 66 10000 4.1 210 21:20 06.09.2019
2395 Clouds 31 1015 66 10000 3.1 220 20:56 06.09.2019
2396 Clouds 31 1015 66 10000 3.1 220 20:37 06.09.2019
2397 Clouds 31 1016 70 10000 3.6 230 20:18 06.09.2019
2398 Clouds 32 1016 70 10000 3.6 230 19:42 06.09.2019
2399 Clouds 32 1016 70 10000 3.6 230 19:24 06.09.2019
2400 Clouds 32 1016 70 10000 3.6 240 18:58 06.09.2019
2401 Clouds 32 1016 70 10000 3.6 240 18:39 06.09.2019
2402 Clouds 30 1017 74 10000 4.1 230 18:21 06.09.2019
2403 Clouds 29 1016 77 0 4.48 200.715 17:40 06.09.2019
2404 Clouds 31 1017 79 10000 3.6 230 17:21 06.09.2019
2405 Clouds 31 1017 79 10000 3.6 230 16:58 06.09.2019
2406 Clouds 31 1017 79 10000 3.6 230 16:38 06.09.2019
2407 Clouds 30 1016 83 10000 3.6 230 16:18 06.09.2019
2408 Clouds 30 1016 83 10000 3.6 230 16:18 06.09.2019
2409 Clouds 30 1016 83 10000 3.6 230 15:41 06.09.2019
2410 Clouds 30 1016 83 10000 3.6 230 15:22 06.09.2019
2411 Clouds 29 1016 88 10000 1.5 260 14:47 06.09.2019
2412 Clouds 27 1016 94 10000 1.5 240 14:19 06.09.2019
2413 Clouds 27 1016 94 10000 1.5 240 13:44 06.09.2019
2414 Clouds 26 1016 94 10000 1.5 240 13:24 06.09.2019
2415 Clouds 26 1015 94 10000 1 0 12:59 06.09.2019
2416 Clouds 26 1015 94 10000 1 0 12:37 06.09.2019
2417 Clouds 26 1015 94 10000 1 0 12:18 06.09.2019
2418 Clouds 26 1015 94 10000 1 0 11:41 06.09.2019
2419 Clouds 26 1015 94 10000 1 0 11:23 06.09.2019
2420 Clouds 27 1015 88 10000 5.28 207.687 10:57 06.09.2019
2421 Clouds 27 1015 88 10000 5.28 207.687 10:39 06.09.2019
2422 Clouds 27 1015 88 10000 1 0 10:18 06.09.2019
2423 Clouds 27 1015 88 10000 1 0 09:40 06.09.2019
2424 Clouds 27 1016 88 10000 2.1 210 09:20 06.09.2019
2425 Clouds 27 1016 88 10000 2.1 210 08:56 06.09.2019
2426 Clouds 27 1016 88 10000 2.1 210 08:37 06.09.2019
2427 Clouds 28 1016 83 10000 2.1 250 08:19 06.09.2019
2428 Clouds 28 1016 83 10000 2.1 250 07:44 06.09.2019
2429 Clouds 28 1016 83 10000 2.1 250 07:25 06.09.2019
2430 Clouds 28 1016 83 10000 2.1 250 07:25 06.09.2019
2431 Clouds 28 1017 83 10000 2.6 220 06:53 06.09.2019
2432 Clouds 28 1017 83 10000 4.1 210 05:58 06.09.2019
2433 Clouds 28 1017 83 10000 2.6 200 04:58 06.09.2019
2434 Clouds 28 1017 83 10000 2.6 200 04:33 06.09.2019
2435 Clouds 29 1017 79 10000 3.1 180 03:29 06.09.2019
2436 Clouds 29 1016 79 10000 4.6 190 01:47 06.09.2019
2437 Clear 31 1015 75 0 6.65 160.502 00:23 06.09.2019
2438 Clear 31 1015 75 0 6.65 160.502 00:23 06.09.2019
2439 Clear 31 1015 75 0 6.65 160.502 00:23 06.09.2019
2440 Clouds 31 1016 79 10000 4.6 190 23:43 05.09.2019
2441 Clouds 31 1016 79 10000 4.6 190 23:23 05.09.2019
2442 Clouds 31 1016 70 10000 7.2 190 22:47 05.09.2019
2443 Clouds 31 1016 70 10000 7.2 190 22:28 05.09.2019
2444 Clouds 30 1016 74 10000 6.65 160.502 21:58 05.09.2019
2445 Clouds 30 1016 74 10000 6.65 160.502 21:40 05.09.2019
2446 Clouds 30 1016 74 10000 5.9 156.943 21:20 05.09.2019
2447 Clouds 31 1017 66 10000 5.1 210 20:58 05.09.2019
2448 Clouds 32 1017 66 10000 5.1 210 20:40 05.09.2019
2449 Clouds 31 1017 74 0 5.7 190 20:21 05.09.2019
2450 Clouds 32 1017 74 0 5.7 190 19:58 05.09.2019
2451 Clouds 32 1017 74 0 5.7 190 19:39 05.09.2019
2452 Clouds 32 1018 70 10000 5.7 220 19:20 05.09.2019
2453 Clouds 32 1018 70 10000 5.7 220 18:45 05.09.2019
2454 Clouds 31 1018 70 10000 5.7 210 18:27 05.09.2019
2455 Clouds 32 1018 70 10000 5.7 210 17:59 05.09.2019
2456 Clouds 32 1018 70 10000 5.7 210 17:40 05.09.2019
2457 Clouds 31 1018 70 10000 5.7 210 17:22 05.09.2019
2458 Clouds 31 1018 79 10000 4.6 220 16:57 05.09.2019
2459 Clouds 31 1018 79 10000 4.6 220 16:57 05.09.2019
2460 Clouds 31 1018 79 10000 4.6 220 16:57 05.09.2019
2461 Clouds 31 1018 79 10000 4.6 220 16:39 05.09.2019
2462 Clouds 31 1018 74 10000 4.1 230 16:18 05.09.2019
2463 Clouds 31 1018 74 10000 4.1 230 15:40 05.09.2019
2464 Clouds 30 1017 79 10000 2.6 220 15:19 05.09.2019
2465 Clouds 30 1017 79 10000 2.6 220 15:19 05.09.2019
2466 Clouds 30 1017 79 10000 2.6 220 14:57 05.09.2019
2467 Clouds 30 1017 79 10000 2.6 220 14:38 05.09.2019
2468 Clouds 29 1017 83 10000 3.6 210 14:18 05.09.2019
2469 Clouds 28 1017 83 10000 3.6 210 13:43 05.09.2019
2470 Clouds 27 1016 83 10000 2.6 200 13:20 05.09.2019
2471 Clouds 27 1016 83 10000 2.6 200 12:45 05.09.2019
2472 Clouds 27 1016 83 10000 2.6 200 12:26 05.09.2019
2473 Clear 28 1016 83 10000 3.6 200 11:57 05.09.2019
2474 Clear 28 1016 83 10000 3.6 200 11:39 05.09.2019
2475 Clear 27 1016 88 10000 3.1 200 11:18 05.09.2019
2476 Clear 27 1016 88 10000 3.1 200 10:41 05.09.2019
2477 Clear 27 1016 88 10000 3.1 200 10:22 05.09.2019
2478 Clear 27 1016 83 10000 4.1 200 09:57 05.09.2019
2479 Clear 27 1016 83 10000 4.1 200 09:38 05.09.2019
2480 Clear 28 1017 83 10000 4.1 200 09:18 05.09.2019
2481 Clear 28 1017 83 10000 4.1 200 08:45 05.09.2019
2482 Clear 28 1017 83 10000 4.1 200 08:26 05.09.2019
2483 Clouds 28 1016 78 10000 6.21 192.389 07:45 05.09.2019
2484 Clouds 28 1016 78 10000 6.21 192.389 07:27 05.09.2019
2485 Clouds 28 1016 83 10000 3.6 200 06:53 05.09.2019
2486 Clouds 28 1016 83 10000 3.6 200 06:29 05.09.2019
2487 Clear 28 1016 80 0 5.69 205.926 05:50 05.09.2019
2488 Clouds 28 1016 83 10000 4.1 220 05:30 05.09.2019
2489 Clouds 28 1016 83 10000 4.1 220 04:48 05.09.2019
2490 Clouds 28 1016 83 10000 4.1 220 04:24 05.09.2019
2491 Clouds 29 1016 79 10000 4.1 220 03:34 05.09.2019
2492 Clear 28 1015 80 0 5.92 216.063 02:44 05.09.2019
2493 Clouds 29 1015 74 10000 4.1 230 02:18 05.09.2019
2494 Clouds 29 1015 74 10000 4.1 230 01:25 05.09.2019
2495 Clouds 31 1014 70 10000 7.2 230 00:42 05.09.2019
2496 Clouds 31 1014 66 10000 7.7 230 00:20 05.09.2019
2497 Clouds 31 1014 66 10000 7.7 230 23:46 04.09.2019
2498 Clouds 31 1014 66 10000 7.7 230 23:46 04.09.2019
2499 Clouds 31 1014 66 10000 7.7 230 23:23 04.09.2019
2500 Clouds 32 1014 59 10000 6.7 240 22:57 04.09.2019
2501 Clouds 32 1014 59 10000 6.7 240 22:38 04.09.2019
2502 Clouds 32 1014 70 10000 7.2 220 22:18 04.09.2019
2503 Clouds 32 1014 70 10000 7.2 220 21:39 04.09.2019
2504 Clouds 32 1014 70 10000 7.2 220 21:20 04.09.2019
2505 Clouds 32 1014 66 10000 7.2 240 20:56 04.09.2019
2506 Clouds 32 1014 66 10000 7.2 240 20:37 04.09.2019
2507 Clouds 32 1015 74 10000 8.7 220 20:18 04.09.2019
2508 Clouds 32 1015 74 10000 8.7 220 19:45 04.09.2019
2509 Clouds 31 1015 74 10000 9.3 220 19:25 04.09.2019
2510 Clouds 31 1015 74 10000 9.3 220 19:25 04.09.2019
2511 Clouds 32 1015 74 10000 9.3 220 18:58 04.09.2019
2512 Clouds 32 1015 74 10000 9.3 220 18:38 04.09.2019
2513 Clouds 32 1015 74 10000 8.2 210 18:19 04.09.2019
2514 Clouds 31 1015 74 10000 8.2 210 17:41 04.09.2019
2515 Clouds 31 1015 74 10000 8.2 210 17:23 04.09.2019
2516 Clouds 31 1015 79 10000 8.2 220 16:57 04.09.2019
2517 Clouds 31 1015 79 10000 8.2 220 16:39 04.09.2019
2518 Clouds 31 1015 79 10000 8.2 220 16:20 04.09.2019
2519 Thunderstorm 30 1014 79 10000 7.7 220 15:43 04.09.2019
2520 Thunderstorm 30 1014 79 10000 7.7 220 15:22 04.09.2019
2521 Clouds 29 1014 83 10000 6.7 210 14:59 04.09.2019
2522 Rain 30 1013 78 0 0.89 208 14:39 04.09.2019
2523 Clouds 29 1013 88 10000 6.7 220 14:21 04.09.2019
2524 Clouds 28 1013 88 10000 6.7 220 14:00 04.09.2019
2525 Clouds 28 1013 88 10000 6.7 220 13:39 04.09.2019
2526 Rain 28 1012 82 0 11.07 186.018 13:21 04.09.2019
2527 Rain 28 1012 77 0 11.07 186.018 12:44 04.09.2019
2528 Thunderstorm 28 1012 78 10000 6.2 220 12:26 04.09.2019
2529 Thunderstorm 28 1012 78 10000 6.2 220 11:58 04.09.2019
2530 Thunderstorm 28 1012 78 10000 6.2 220 11:39 04.09.2019
2531 Thunderstorm 28 1011 83 10000 7.2 210 11:20 04.09.2019
2532 Thunderstorm 28 1011 83 10000 7.2 210 10:56 04.09.2019
2533 Thunderstorm 28 1011 83 10000 7.2 210 10:38 04.09.2019
2534 Thunderstorm 28 1011 83 10000 6.7 230 10:19 04.09.2019
2535 Thunderstorm 28 1011 83 10000 6.7 230 09:44 04.09.2019
2536 Thunderstorm 28 1011 83 10000 6.7 230 09:21 04.09.2019
2537 Rain 28 1010 71 0 11.1 210.837 08:42 04.09.2019
2538 Thunderstorm 28 1011 83 10000 7.7 220 08:24 04.09.2019
2539 Thunderstorm 28 1011 83 10000 7.7 220 07:59 04.09.2019
2540 Thunderstorm 28 1011 83 10000 7.7 220 07:36 04.09.2019
2541 Clouds 28 1011 79 10000 7.7 210 06:53 04.09.2019
2542 Clouds 28 1011 79 10000 7.7 210 06:33 04.09.2019
2543 Clouds 28 1011 83 10000 8.2 220 04:54 04.09.2019
2544 Clouds 28 1011 83 10000 8.2 220 04:22 04.09.2019
2545 Thunderstorm 28 1009 78 10000 9.3 230 02:46 04.09.2019
2546 Clouds 29 1007 79 10000 7.7 280 00:59 04.09.2019
2547 Clouds 29 1007 79 10000 7.7 280 00:39 04.09.2019
2548 Rain 28 1007 83 10000 8.2 240 00:18 04.09.2019
2549 Rain 28 1007 83 10000 8.2 240 23:48 03.09.2019
2550 Rain 28 1007 83 10000 8.2 240 23:26 03.09.2019
2551 Clouds 29 1007 74 10000 7.7 240 22:41 03.09.2019
2552 Clouds 29 1007 74 10000 7.7 240 22:22 03.09.2019
2553 Clouds 29 1007 70 10000 11.8 230 21:57 03.09.2019
2554 Clouds 29 1007 70 10000 11.8 230 21:38 03.09.2019
2555 Clouds 30 1007 74 10000 10.8 230 21:20 03.09.2019
2556 Clouds 29 1007 74 10000 10.8 230 20:55 03.09.2019
2557 Clouds 29 1007 74 10000 10.8 230 20:36 03.09.2019
2558 Clouds 29 1007 74 10000 10.8 230 20:36 03.09.2019
2559 Clouds 29 1007 74 10000 10.8 230 20:36 03.09.2019
2560 Clouds 29 1008 79 10000 11.8 220 20:18 03.09.2019
2561 Clouds 28 1008 79 10000 11.8 220 19:42 03.09.2019
2562 Rain 28 1007 79 10000 10.8 220 19:19 03.09.2019
2563 Clouds 29 1007 79 10000 10.8 220 18:56 03.09.2019
2564 Clouds 29 1007 79 10000 10.8 220 18:38 03.09.2019
2565 Clouds 28 1007 78 10000 11.3 220 18:18 03.09.2019
2566 Rain 28 1007 78 10000 11.3 220 17:43 03.09.2019
2567 Rain 28 1007 78 10000 11.3 220 17:21 03.09.2019
2568 Clouds 28 1007 78 10000 11.8 230 16:59 03.09.2019
2569 Clouds 28 1007 78 10000 11.8 230 16:41 03.09.2019
2570 Clouds 28 1007 78 10000 11.8 230 16:22 03.09.2019
2571 Clouds 28 1005 78 10000 11.8 230 15:42 03.09.2019
2572 Clouds 28 1005 78 10000 11.8 230 15:42 03.09.2019
2573 Clouds 27 1005 78 10000 11.8 230 15:22 03.09.2019
2574 Rain 26 1005 19 0 16.37 217.365 14:59 03.09.2019
2575 Rain 29 1004 77 0 16.37 217.365 14:40 03.09.2019
2576 Thunderstorm 26 1005 94 10000 12.3 210 14:21 03.09.2019
2577 Thunderstorm 26 1005 94 10000 12.3 210 13:58 03.09.2019
2578 Thunderstorm 26 1005 94 10000 12.3 210 13:38 03.09.2019
2579 Thunderstorm 26 1005 94 10000 12.3 210 13:38 03.09.2019
2580 Thunderstorm 26 1005 94 10000 11.8 220 13:19 03.09.2019
2581 Thunderstorm 26 1005 94 10000 11.8 220 12:57 03.09.2019
2582 Thunderstorm 26 1005 94 10000 11.8 220 12:38 03.09.2019
2583 Rain 25 1005 94 10000 10.8 210 12:20 03.09.2019
2584 Rain 25 1005 94 10000 10.8 210 11:42 03.09.2019
2585 Rain 25 1005 94 10000 10.8 210 11:22 03.09.2019
2586 Rain 26 1005 94 10000 9.3 220 10:57 03.09.2019
2587 Rain 26 1005 94 10000 9.3 220 10:39 03.09.2019
2588 Rain 26 1005 94 10000 9.3 220 10:20 03.09.2019
2589 Rain 26 1005 94 10000 11.3 220 09:44 03.09.2019
2590 Rain 26 1005 94 10000 11.3 220 09:25 03.09.2019
2591 Thunderstorm 27 1005 83 10000 10.8 220 08:55 03.09.2019
2592 Thunderstorm 27 1005 83 10000 10.8 220 08:36 03.09.2019
2593 Thunderstorm 26 1006 94 10000 9.8 220 08:18 03.09.2019
2594 Thunderstorm 26 1006 94 10000 9.8 220 07:40 03.09.2019
2595 Thunderstorm 26 1006 94 10000 9.8 220 07:40 03.09.2019
2596 Thunderstorm 26 1006 88 10000 11.3 230 07:22 03.09.2019
2597 Rain 29 1004 77 0 15.89 220.471 06:44 03.09.2019
2598 Thunderstorm 27 1006 88 9000 9.8 210 05:53 03.09.2019
2599 Rain 26 1005 88 10000 8.7 220 03:36 03.09.2019
2600 Rain 28 1006 83 10000 11.3 220 02:44 03.09.2019
2601 Rain 28 1006 83 10000 11.3 220 02:23 03.09.2019
2602 Rain 28 1005 79 0 1.79 208 01:49 03.09.2019
2603 Rain 28 1006 78 10000 10.3 220 01:29 03.09.2019
2604 Rain 28 1006 78 10000 10.3 220 00:40 03.09.2019
2605 Rain 27 1006 78 10000 10.3 220 00:18 03.09.2019
2606 Rain 29 1004 75 0 14.6 217.172 23:40 02.09.2019
2607 Clouds 29 1015 74 10000 11.8 220 23:20 02.09.2019
2608 Clouds 29 1015 74 10000 11.8 220 23:20 02.09.2019
2609 Clouds 29 1015 74 10000 11.8 220 22:56 02.09.2019
2610 Clouds 29 1015 74 10000 11.8 220 22:56 02.09.2019
2611 Clouds 29 1015 74 10000 11.8 220 22:37 02.09.2019
2612 Clouds 29 1006 74 10000 12.3 220 22:19 02.09.2019
2613 Clouds 29 1006 74 10000 12.3 220 21:56 02.09.2019
2614 Rain 28 1006 74 10000 12.3 220 21:38 02.09.2019
2615 Rain 27 1007 83 10000 12.3 220 21:19 02.09.2019
2616 Rain 27 1007 83 10000 12.3 220 20:54 02.09.2019
2617 Rain 27 1007 83 10000 12.3 220 20:36 02.09.2019
2618 Clouds 27 1008 83 10000 11.8 220 20:18 02.09.2019
2619 Rain 27 1008 83 10000 11.8 220 19:54 02.09.2019
2620 -273 0 0 0 0 0 19:36 02.09.2019
2621 Rain 26 1009 88 10000 11.8 220 19:18 02.09.2019
2622 Rain 26 1009 88 10000 11.8 220 18:37 02.09.2019
2623 Clouds 26 1008 88 10000 10.8 220 18:19 02.09.2019
2624 Clouds 26 1008 88 10000 10.8 220 17:55 02.09.2019
2625 Clouds 26 1008 88 10000 10.8 220 17:37 02.09.2019
2626 Rain 25 1009 94 0 8.2 230 17:18 02.09.2019
2627 Rain 26 1009 94 0 8.2 230 16:41 02.09.2019
2628 Rain 27 1007 83 10000 8.7 220 16:20 02.09.2019
2629 Rain 28 1007 74 0 0.89 229 15:52 02.09.2019
2630 Rain 28 1007 74 0 14.59 207.46 15:31 02.09.2019
2631 Rain 28 1007 70 0 15.1 217.729 14:59 02.09.2019
2632 Rain 27 1007 72 0 15.1 217.729 14:41 02.09.2019
2633 Clouds 27 1006 88 10000 9.3 220 14:22 02.09.2019
2634 Clouds 27 1006 88 10000 9.3 220 13:59 02.09.2019
2635 Clouds 27 1006 88 10000 9.3 220 13:41 02.09.2019
2636 Rain 27 1006 83 9000 10.3 230 13:22 02.09.2019
2637 Rain 27 1006 83 9000 10.3 230 12:45 02.09.2019
2638 Rain 27 1006 83 9000 10.3 230 12:45 02.09.2019
2639 Rain 27 1006 83 9000 10.3 230 12:26 02.09.2019
2640 Thunderstorm 26 1006 83 9000 9.3 230 11:59 02.09.2019
2641 Thunderstorm 26 1006 83 9000 9.3 230 11:59 02.09.2019
2642 Thunderstorm 26 1006 83 9000 9.3 230 11:40 02.09.2019
2643 Thunderstorm 26 1006 88 9000 11.3 230 11:21 02.09.2019
2644 Thunderstorm 26 1006 88 9000 11.3 230 10:58 02.09.2019
2645 Thunderstorm 26 1006 88 9000 9.3 230 10:38 02.09.2019
2646 Thunderstorm 26 1006 88 9000 9.3 230 10:20 02.09.2019
2647 Thunderstorm 26 1006 88 9000 9.3 230 09:55 02.09.2019
2648 Thunderstorm 26 1006 88 9000 9.3 230 09:37 02.09.2019
2649 Thunderstorm 26 1007 88 9000 7.7 220 09:18 02.09.2019
2650 Thunderstorm 26 1007 88 9000 7.7 220 08:39 02.09.2019
2651 Thunderstorm 26 1007 88 9000 7.7 220 08:39 02.09.2019
2652 Rain 29 1005 75 0 14.2 222.917 08:18 02.09.2019
2653 Rain 29 1005 75 0 14.2 222.917 07:40 02.09.2019
2654 Rain 29 1005 75 0 14.2 222.917 07:21 02.09.2019
2655 Rain 29 1005 75 0 14.2 222.917 06:45 02.09.2019
2656 Thunderstorm 24 1015 100 9000 7.7 250 06:25 02.09.2019
2657 Thunderstorm 24 1015 100 9000 7.7 250 05:48 02.09.2019
2658 Thunderstorm 24 1008 100 9000 9.3 250 05:18 02.09.2019
2659 Rain 25 1007 100 10000 5.1 240 04:18 02.09.2019
2660 Rain 27 1007 78 10000 7.7 260 01:45 02.09.2019
2661 Thunderstorm 26 1007 83 10000 7.2 260 00:48 02.09.2019
2662 Thunderstorm 26 1007 83 10000 7.2 260 00:30 02.09.2019
2663 Rain 26 1007 83 9000 6.7 260 23:44 01.09.2019
2664 Rain 26 1007 83 9000 6.7 260 23:22 01.09.2019
2665 Rain 25 1008 88 9000 6.2 260 22:58 01.09.2019
2666 Rain 25 1008 88 9000 6.2 260 22:39 01.09.2019
2667 Rain 25 1008 88 9000 8.2 260 22:19 01.09.2019
2668 Rain 25 1008 88 9000 8.2 260 21:57 01.09.2019
2669 Rain 25 1008 88 9000 8.2 260 21:57 01.09.2019
2670 Rain 25 1008 88 9000 8.2 260 21:37 01.09.2019
2671 Rain 25 1009 94 9000 9.3 280 21:19 01.09.2019
2672 Rain 25 1009 94 9000 9.3 280 20:56 01.09.2019
2673 Rain 29 1005 76 0 15.5 255.652 20:36 01.09.2019
2674 Rain 29 1005 76 0 15.5 255.652 20:18 01.09.2019
2675 Rain 29 1005 76 0 15.5 255.652 19:55 01.09.2019
2676 Rain 29 1005 76 0 15.5 255.652 19:55 01.09.2019
2677 Rain 27 1010 88 9000 7.2 280 19:37 01.09.2019
2678 Rain 27 1010 88 9000 7.2 280 19:18 01.09.2019
2679 Rain 27 1010 88 9000 7.2 280 18:41 01.09.2019
2680 Rain 29 1009 74 9000 9.3 270 18:23 01.09.2019
2681 Rain 29 1009 74 9000 9.3 270 18:23 01.09.2019
2682 Rain 29 1009 74 9000 9.3 270 17:55 01.09.2019
2683 Rain 29 1009 74 9000 9.3 270 17:36 01.09.2019
2684 Rain 26 1008 82 0 13.26 261.672 17:18 01.09.2019
2685 Rain 28 1009 74 10000 8.2 270 16:39 01.09.2019
2686 Rain 26 1009 80 0 13.26 261.672 16:39 01.09.2019
2687 Rain 28 1009 74 10000 8.2 270 16:18 01.09.2019
2688 Rain 28 1009 74 10000 8.2 270 15:46 01.09.2019
2689 Clouds 29 1009 74 10000 8.2 270 15:26 01.09.2019
2690 Rain 28 1009 83 10000 6.2 280 14:56 01.09.2019
2691 Rain 27 1009 83 10000 6.2 280 14:37 01.09.2019
2692 Rain 27 1008 82 0 11.31 267.12 14:19 01.09.2019
2693 Rain 29 1006 76 0 11.31 267.12 13:42 01.09.2019
2694 Clouds 27 1009 83 10000 5.7 310 13:23 01.09.2019
2695 Clouds 27 1009 83 10000 5.7 310 12:55 01.09.2019
2696 Clouds 27 1009 83 10000 5.7 310 12:55 01.09.2019
2697 Clouds 27 1009 83 10000 5.7 310 12:36 01.09.2019
2698 Rain 25 1010 94 10000 8.2 320 12:18 01.09.2019
2699 Rain 26 1010 94 10000 8.2 320 11:39 01.09.2019
2700 Clouds 28 1010 70 10000 6.7 310 11:19 01.09.2019
2701 Clouds 28 1010 70 10000 6.7 310 10:45 01.09.2019
2702 Clouds 28 1010 70 10000 6.7 310 10:23 01.09.2019
2703 Clouds 28 1011 74 10000 5.1 320 09:56 01.09.2019
2704 Clouds 28 1011 74 10000 5.1 320 09:38 01.09.2019
2705 Clouds 27 1012 74 10000 4.1 320 09:19 01.09.2019
2706 Clouds 27 1012 74 10000 4.1 320 08:42 01.09.2019
2707 Clouds 28 1012 79 10000 4.1 330 08:21 01.09.2019
2708 Clouds 29 1012 79 10000 4.1 330 07:42 01.09.2019
2709 Rain 28 1010 74 0 6.23 303.412 07:21 01.09.2019
2710 Rain 29 1011 78 0 0.45 328 06:39 01.09.2019
2711 Rain 29 1011 79 0 0.45 332 05:59 01.09.2019
2712 Rain 29 1011 79 0 0.45 332 05:59 01.09.2019
2713 Clouds 29 1013 74 10000 4.6 340 04:53 01.09.2019
2714 Clouds 29 1013 74 10000 4.1 360 03:50 01.09.2019
2715 Clouds 29 1013 74 10000 4.1 360 03:32 01.09.2019
2716 Clouds 29 1012 79 10000 3.6 360 02:40 01.09.2019
2717 Clouds 29 1012 79 10000 4.1 340 02:19 01.09.2019
2718 Clouds 30 1012 74 10000 5.1 350 01:29 01.09.2019
2719 Clouds 30 1012 74 10000 5.1 350 00:57 01.09.2019
2720 Clouds 30 1012 74 10000 5.1 350 00:38 01.09.2019
2721 Clouds 30 1012 74 10000 4.6 360 00:19 01.09.2019
2722 Clouds 30 1012 74 10000 4.6 360 23:41 31.08.2019
2723 Clouds 30 1012 74 10000 4.6 360 23:21 31.08.2019
2724 Clouds 30 1013 70 10000 4.1 350 22:55 31.08.2019
2725 Clouds 30 1013 70 10000 4.1 350 22:55 31.08.2019
2726 Clouds 29 1011 77 0 4.92 352.836 22:37 31.08.2019
2727 Clouds 29 1013 70 10000 3.6 340 22:19 31.08.2019
2728 Clouds 29 1013 70 10000 3.6 340 21:42 31.08.2019
2729 Clouds 29 1013 70 10000 3.6 340 21:21 31.08.2019
2730 Clouds 29 1014 74 10000 3.1 10 20:59 31.08.2019
2731 Clouds 30 1014 74 10000 3.1 10 20:40 31.08.2019
2732 Clouds 30 1014 74 10000 3.1 10 20:22 31.08.2019
2733 Clouds 29 1015 74 10000 2.1 10 19:41 31.08.2019
2734 Clouds 29 1015 74 10000 2.1 10 19:22 31.08.2019
2735 Clouds 29 1015 74 10000 2.1 10 18:55 31.08.2019
2736 Clouds 29 1015 74 10000 2.1 10 18:55 31.08.2019
2737 Clouds 29 1014 74 10000 2.1 30 18:36 31.08.2019
2738 Clouds 29 1015 74 10000 2.6 40 18:18 31.08.2019
2739 Clouds 29 1015 74 10000 2.6 40 18:18 31.08.2019
2740 Clouds 29 1015 74 10000 2.6 40 17:54 31.08.2019
2741 Clouds 29 1015 74 10000 2.6 40 17:36 31.08.2019
2742 Clouds 28 1015 74 10000 2.6 80 17:18 31.08.2019
2743 Clouds 28 1015 74 10000 2.6 80 16:41 31.08.2019
2744 Clouds 28 1015 83 10000 2.6 70 16:23 31.08.2019
2745 Clouds 27 1015 83 10000 2.6 70 15:59 31.08.2019
2746 Clouds 27 1015 83 10000 2.6 70 15:38 31.08.2019
2747 Clouds 27 1015 83 10000 2.6 70 15:38 31.08.2019
2748 Clouds 26 1014 83 10000 1.5 60 15:18 31.08.2019
2749 Clouds 26 1014 83 10000 1.5 60 14:42 31.08.2019
2750 Clouds 26 1014 83 10000 1.5 60 14:24 31.08.2019
2751 Clouds 26 1014 88 10000 2.6 100 13:56 31.08.2019
2752 Clouds 26 1014 88 10000 2.6 100 13:36 31.08.2019
2753 Clouds 26 1014 88 10000 2.6 100 13:18 31.08.2019
2754 Clouds 26 1014 88 10000 2.1 70 12:41 31.08.2019
2755 Clouds 24 1014 100 10000 4.94 126.311 12:21 31.08.2019
2756 Clouds 24 1014 100 10000 4.94 126.311 11:58 31.08.2019
2757 Clouds 24 1014 100 10000 4.94 126.311 11:40 31.08.2019
2758 Rain 24 1014 94 9000 4.94 126.311 11:22 31.08.2019
2759 Rain 24 1014 94 9000 4.94 126.311 10:43 31.08.2019
2760 Thunderstorm 23 1015 100 9000 4.94 126.311 10:20 31.08.2019
2761 Thunderstorm 23 1015 100 9000 4.94 126.311 10:00 31.08.2019
2762 Thunderstorm 23 1015 100 9000 4.63 128.36 09:39 31.08.2019
2763 Thunderstorm 24 1015 100 9000 5.49 123.76 09:21 31.08.2019
2764 Clouds 27 1015 88 10000 1.5 120 08:44 31.08.2019
2765 Clouds 27 1015 88 10000 1.5 120 08:26 31.08.2019
2766 Clouds 28 1015 78 10000 2.6 120 07:42 31.08.2019
2767 Clouds 28 1015 78 10000 2.6 120 07:23 31.08.2019
2768 Clouds 27 1013 88 10000 2.1 120 06:49 31.08.2019
2769 Clouds 28 1015 83 10000 2.6 110 06:21 31.08.2019
2770 Clouds 28 1015 83 10000 2.6 110 05:34 31.08.2019
2771 Clouds 28 1015 74 10000 3.1 130 04:36 31.08.2019
2772 Clouds 28 1015 74 10000 3.6 120 03:50 31.08.2019
2773 Clouds 28 1014 74 10000 4.1 140 02:50 31.08.2019
2774 Rain 28 1013 70 10000 5.1 140 01:56 31.08.2019
2775 Rain 28 1013 70 10000 5.1 140 01:35 31.08.2019
2776 Rain 28 1013 70 10000 5.1 140 01:35 31.08.2019
2777 Clouds 28 1013 70 10000 4.6 120 00:52 31.08.2019
2778 Clouds 28 1013 70 10000 4.6 120 00:52 31.08.2019
2779 Clouds 28 1013 70 10000 4.6 120 00:52 31.08.2019
2780 Clouds 28 1013 70 10000 4.6 120 00:31 31.08.2019
2781 Clouds 29 1013 62 10000 7.2 160 23:59 30.08.2019
2782 Clouds 29 1013 62 10000 7.2 160 23:40 30.08.2019
2783 Rain 31 1013 59 10000 6.7 130 23:18 30.08.2019
2784 Rain 31 1013 59 10000 6.7 130 22:42 30.08.2019
2785 Clouds 31 1013 62 10000 6.2 120 22:24 30.08.2019
2786 Clouds 32 1013 62 10000 6.2 120 21:59 30.08.2019
2787 Clouds 32 1013 62 10000 6.2 120 21:38 30.08.2019
2788 Clouds 31 1014 70 10000 7.2 130 21:20 30.08.2019
2789 Clouds 31 1014 70 10000 7.2 130 21:20 30.08.2019
2790 Clouds 31 1014 70 10000 7.2 130 20:59 30.08.2019
2791 Clouds 31 1014 70 10000 7.2 130 20:40 30.08.2019
2792 Clouds 31 1015 66 10000 6.2 140 20:20 30.08.2019
2793 Clouds 31 1015 66 10000 6.2 140 19:58 30.08.2019
2794 Clouds 31 1015 66 10000 6.2 140 19:39 30.08.2019
2795 Clouds 31 1015 66 10000 6.2 140 19:19 30.08.2019
2796 Clouds 31 1015 66 10000 6.2 140 19:19 30.08.2019
2797 Clouds 30 1015 70 10000 5.7 140 18:55 30.08.2019
2798 Clouds 30 1015 70 10000 5.7 140 18:37 30.08.2019
2799 Clouds 30 1015 66 10000 6.2 140 18:18 30.08.2019
2800 Clouds 31 1015 66 10000 6.2 140 17:55 30.08.2019
2801 Clouds 31 1015 66 10000 6.2 140 17:55 30.08.2019
2802 Clouds 31 1015 66 10000 6.2 140 17:55 30.08.2019
2803 Clouds 31 1015 66 10000 6.2 140 17:37 30.08.2019
2804 Clouds 30 1015 70 10000 5.7 130 17:18 30.08.2019
2805 Clouds 30 1015 70 10000 5.7 130 16:43 30.08.2019
2806 Clouds 30 1015 70 10000 5.7 130 16:22 30.08.2019
2807 Clouds 30 1014 70 10000 6.7 140 15:44 30.08.2019
2808 Clouds 29 1014 70 10000 6.7 140 15:24 30.08.2019
2809 Clouds 29 1014 74 10000 4.1 150 14:55 30.08.2019
2810 Clouds 29 1014 74 10000 4.1 150 14:55 30.08.2019
2811 Clouds 28 1014 74 10000 4.1 150 14:36 30.08.2019
2812 Clouds 27 1013 88 10000 3.6 160 14:18 30.08.2019
2813 Clouds 27 1013 88 10000 3.6 160 13:41 30.08.2019
2814 Clouds 26 1013 88 10000 3.6 160 13:22 30.08.2019
2815 Rain 29 1013 76 0 7.48 121.755 12:55 30.08.2019
2816 Rain 29 1013 76 0 7.48 121.755 12:55 30.08.2019
2817 Rain 29 1013 76 0 7.48 121.755 12:36 30.08.2019
2818 Rain 28 1011 73 0 8.77 132.559 12:18 30.08.2019
2819 Rain 28 1011 73 0 8.77 132.559 12:18 30.08.2019
2820 Rain 27 1012 81 0 8.77 132.559 11:41 30.08.2019
2821 Clouds 26 1013 94 10000 7.7 180 11:23 30.08.2019
2822 Clouds 26 1013 94 10000 7.7 180 10:39 30.08.2019
2823 Clouds 26 1013 94 10000 3.1 180 10:20 30.08.2019
2824 Clouds 26 1013 94 10000 3.1 180 09:57 30.08.2019
2825 Clouds 26 1013 94 10000 3.1 180 09:37 30.08.2019
2826 Rain 26 1014 88 0 6.7 170 09:18 30.08.2019
2827 Rain 26 1014 88 0 6.7 170 08:44 30.08.2019
2828 Rain 26 1014 88 0 6.7 170 08:24 30.08.2019
2829 Clouds 27 1014 88 10000 2.1 180 07:56 30.08.2019
2830 Clouds 27 1014 88 10000 2.1 180 07:37 30.08.2019
2831 Clouds 27 1014 88 10000 2.1 180 07:37 30.08.2019
2832 Clouds 26 1015 94 10000 0.5 0 07:18 30.08.2019
2833 Clouds 26 1015 94 10000 0.5 0 06:40 30.08.2019
2834 Clouds 25 1014 94 10000 2.1 200 06:21 30.08.2019
2835 Clouds 25 1014 94 10000 2.1 200 05:32 30.08.2019
2836 Thunderstorm 27 1013 78 10000 3.1 130 03:57 30.08.2019
2837 Thunderstorm 27 1013 78 10000 3.1 130 03:57 30.08.2019
2838 Rain 27 1013 78 10000 3.1 130 03:37 30.08.2019
2839 Rain 28 1013 88 10000 5.7 160 02:42 30.08.2019
2840 Clouds 29 1012 74 10000 1.5 120 01:51 30.08.2019
2841 Rain 28 1012 83 10000 2.1 290 00:55 30.08.2019
2842 Thunderstorm 26 1012 100 10000 5.1 270 00:20 30.08.2019
2843 Thunderstorm 27 1013 88 3700 4.1 160 23:48 29.08.2019
2844 Thunderstorm 27 1013 88 3700 4.1 160 23:48 29.08.2019
2845 Thunderstorm 29 1013 88 3700 4.1 160 23:23 29.08.2019
2846 Thunderstorm 29 1013 88 3700 4.1 160 23:23 29.08.2019
2847 Tornado 29 1012 79 10000 2.6 210 22:56 29.08.2019
2848 Tornado 29 1012 79 10000 2.6 210 22:37 29.08.2019
2849 Rain 30 1013 70 10000 3.1 90 22:19 29.08.2019
2850 Rain 30 1013 70 10000 3.1 90 21:41 29.08.2019
2851 Clouds 30 1013 70 10000 1.5 360 21:21 29.08.2019
2852 Clouds 30 1013 70 10000 1.5 360 20:59 29.08.2019
2853 Clouds 30 1013 70 10000 1.5 360 20:40 29.08.2019
2854 Clouds 30 1013 70 10000 1.5 360 20:19 29.08.2019
2855 Thunderstorm 29 1014 94 8000 7.2 150 19:47 29.08.2019
2856 Thunderstorm 29 1014 94 8000 7.2 150 19:27 29.08.2019
2857 Rain 29 1014 94 4000 7.2 140 18:59 29.08.2019
2858 Rain 29 1014 94 4000 7.2 140 18:41 29.08.2019
2859 Clouds 31 1014 74 0 1.5 360 18:19 29.08.2019
2860 Clouds 31 1014 62 10000 2.6 20 17:56 29.08.2019
2861 Clouds 31 1014 62 10000 2.6 20 17:36 29.08.2019
2862 Clouds 31 1014 62 10000 2.6 20 17:18 29.08.2019
2863 Clouds 30 1014 70 10000 1.5 80 16:43 29.08.2019
2864 Clouds 30 1013 74 10000 1 0 16:23 29.08.2019
2865 Clouds 30 1013 74 10000 1 0 15:54 29.08.2019
2866 Clouds 30 1013 74 10000 1 0 15:36 29.08.2019
2867 Clouds 30 1013 74 10000 2.37 142.604 15:18 29.08.2019
2868 Clouds 28 1013 74 10000 2.37 142.604 14:42 29.08.2019
2869 Clouds 29 1013 74 10000 2.37 142.604 14:21 29.08.2019
2870 Clouds 27 1012 94 10000 2.37 142.604 13:57 29.08.2019
2871 Clouds 27 1012 94 10000 2.37 142.604 13:39 29.08.2019
2872 Clouds 27 1012 88 10000 1 0 13:19 29.08.2019
2873 Clouds 26 1012 88 10000 1 0 12:57 29.08.2019
2874 Clouds 26 1012 88 10000 1 0 12:38 29.08.2019
2875 Clear 28 1010 74 0 4.09 142.118 12:20 29.08.2019
2876 Clear 28 1010 74 0 4.09 142.118 11:56 29.08.2019
2877 Clouds 26 1012 88 10000 1 0 11:36 29.08.2019
2878 Clouds 26 1012 88 10000 1 0 11:18 29.08.2019
2879 Clouds 26 1012 88 10000 1 0 10:41 29.08.2019
2880 Clouds 26 1012 88 10000 1 0 10:22 29.08.2019
2881 Clouds 26 1012 94 10000 1 0 09:42 29.08.2019
2882 Thunderstorm 26 1013 88 10000 1 0 09:20 29.08.2019
2883 Thunderstorm 26 1013 88 10000 1 0 08:56 29.08.2019
2884 Thunderstorm 26 1013 88 10000 1 0 08:36 29.08.2019
2885 Clouds 27 1014 83 10000 1 0 08:18 29.08.2019
2886 Clouds 27 1014 83 10000 1 0 07:41 29.08.2019
2887 Clouds 26 1014 83 10000 1 0 07:23 29.08.2019
2888 Clear 26 1013 76 0 4.59 122.956 06:41 29.08.2019
2889 Rain 29 1013 72 0 2.52 80.893 05:54 29.08.2019
2890 Thunderstorm 28 1014 83 10000 2.1 260 05:33 29.08.2019
2891 Rain 28 1014 83 10000 2.1 260 04:49 29.08.2019
2892 Thunderstorm 28 1014 83 10000 2.1 260 04:28 29.08.2019
2893 Rain 29 1013 79 10000 3.1 340 02:21 29.08.2019
2894 Rain 29 1012 74 10000 1.5 280 01:40 29.08.2019
2895 Clouds 30 1012 74 0 3.6 360 00:51 29.08.2019
2896 Clouds 31 1012 70 10000 3.6 360 00:24 29.08.2019
2897 Clouds 31 1012 70 10000 3.6 360 23:59 28.08.2019
2898 Clouds 31 1012 70 10000 3.6 360 23:40 28.08.2019
2899 Clouds 31 1012 70 10000 3.6 360 23:22 28.08.2019
2900 Clouds 31 1012 70 10000 3.1 330 22:56 28.08.2019
2901 Clouds 31 1012 70 10000 3.1 330 22:38 28.08.2019
2902 Clouds 31 1013 66 10000 2.6 340 22:18 28.08.2019
2903 Clouds 31 1013 66 10000 2.6 340 21:43 28.08.2019
2904 Clouds 31 1013 66 10000 2.6 340 21:25 28.08.2019
2905 Clouds 31 1013 74 10000 3.6 340 20:59 28.08.2019
2906 Clouds 31 1013 74 10000 3.6 340 20:40 28.08.2019
2907 Clouds 31 1014 74 10000 3.6 330 20:22 28.08.2019
2908 Clouds 31 1014 74 10000 3.6 330 20:22 28.08.2019
2909 Clouds 31 1014 74 10000 3.6 330 19:43 28.08.2019
2910 Clouds 31 1014 74 10000 3.6 330 19:22 28.08.2019
2911 Clouds 30 1015 74 10000 3.1 350 18:59 28.08.2019
2912 Clouds 30 1015 74 10000 3.1 350 18:39 28.08.2019
2913 Clouds 30 1015 79 10000 2.6 320 18:21 28.08.2019
2914 Clouds 30 1015 79 10000 2.6 320 17:39 28.08.2019
2915 Clouds 30 1015 74 10000 2.1 310 17:19 28.08.2019
2916 Clouds 30 1015 74 10000 2.1 310 16:55 28.08.2019
2917 Clouds 30 1015 74 10000 2.1 310 16:37 28.08.2019
2918 Clouds 29 1015 79 10000 1 0 16:18 28.08.2019
2919 Clouds 30 1015 79 10000 1 0 15:38 28.08.2019
2920 Clouds 27 1014 94 10000 1.5 230 15:20 28.08.2019
2921 Clouds 27 1014 94 10000 1.5 230 14:57 28.08.2019
2922 Clouds 27 1014 94 10000 1.5 230 14:39 28.08.2019
2923 Clouds 26 1014 94 10000 0.5 0 14:20 28.08.2019
2924 Clouds 26 1014 94 10000 0.5 0 13:58 28.08.2019
2925 Clouds 26 1014 94 10000 0.5 0 13:38 28.08.2019
2926 Clouds 25 1013 94 10000 1.5 20 13:19 28.08.2019
2927 Clouds 25 1013 94 10000 1.5 20 12:42 28.08.2019
2928 Rain 24 1013 100 10000 2.6 360 12:24 28.08.2019
2929 Rain 24 1013 100 10000 2.6 360 11:57 28.08.2019
2930 Rain 24 1013 100 10000 2.6 360 11:38 28.08.2019
2931 Rain 24 1013 100 10000 2.6 360 11:20 28.08.2019
2932 Thunderstorm 28 1013 78 10000 1 0 10:55 28.08.2019
2933 Thunderstorm 28 1013 78 10000 1 0 10:37 28.08.2019
2934 Clouds 27 1014 88 10000 2.6 90 10:18 28.08.2019
2935 Clouds 27 1014 88 10000 2.6 90 09:41 28.08.2019
2936 Clouds 29 1014 79 10000 1.5 360 09:20 28.08.2019
2937 Clouds 29 1014 79 10000 1.5 360 08:39 28.08.2019
2938 Clouds 29 1014 79 10000 1.5 360 08:21 28.08.2019
2939 Clouds 29 1014 79 10000 1 0 07:45 28.08.2019
2940 Clouds 29 1014 79 10000 1 0 07:26 28.08.2019
2941 Clouds 29 1015 79 10000 1.5 360 06:59 28.08.2019
2942 Clouds 29 1015 79 10000 1.5 360 06:40 28.08.2019
2943 Rain 29 1014 81 0 3.31 352.529 05:44 28.08.2019
2944 Clouds 28 1015 83 10000 2.6 320 03:32 28.08.2019
2945 Clouds 29 1014 74 10000 4.1 330 01:50 28.08.2019
2946 Clouds 29 1014 74 10000 4.1 330 01:29 28.08.2019
2947 Rain 29 1014 79 10000 3.6 290 00:41 28.08.2019
2948 Thunderstorm 29 1014 79 10000 3.6 290 23:59 27.08.2019
2949 Thunderstorm 29 1014 79 10000 3.6 290 23:40 27.08.2019
2950 Thunderstorm 29 1014 79 10000 3.6 290 23:40 27.08.2019
2951 Thunderstorm 29 1014 79 10000 3.6 290 23:21 27.08.2019
2952 Thunderstorm 30 1014 74 10000 3.1 310 22:56 27.08.2019
2953 Thunderstorm 30 1014 74 10000 3.1 310 22:38 27.08.2019
2954 Thunderstorm 29 1015 74 10000 3.1 280 22:19 27.08.2019
2955 Thunderstorm 29 1015 74 10000 3.1 280 21:55 27.08.2019
2956 Thunderstorm 29 1015 74 10000 3.1 280 21:55 27.08.2019
2957 Thunderstorm 29 1015 74 10000 3.1 280 21:36 27.08.2019
2958 Thunderstorm 29 1016 74 10000 4.1 300 21:18 27.08.2019
2959 Thunderstorm 29 1016 74 10000 4.1 300 20:41 27.08.2019
2960 Thunderstorm 29 1016 74 10000 4.1 300 20:21 27.08.2019
2961 Clouds 30 1016 70 10000 5.1 280 19:58 27.08.2019
2962 Clouds 30 1016 70 10000 5.1 280 19:39 27.08.2019
2963 Clouds 31 1016 70 10000 4.1 300 19:21 27.08.2019
2964 Clouds 31 1016 70 10000 4.1 300 18:43 27.08.2019
2965 Clouds 30 1016 79 10000 3.6 280 18:19 27.08.2019
2966 Clouds 31 1016 79 10000 3.6 280 17:59 27.08.2019
2967 Clouds 31 1016 79 10000 3.6 280 17:41 27.08.2019
2968 Clouds 30 1016 79 10000 3.6 280 17:22 27.08.2019
2969 Rain 29 1016 83 10000 3.1 270 16:47 27.08.2019
2970 Rain 29 1016 83 10000 3.1 270 16:28 27.08.2019
2971 Clouds 30 1016 79 10000 2.6 270 15:58 27.08.2019
2972 Clouds 30 1016 79 10000 2.6 270 15:39 27.08.2019
2973 Clouds 30 1016 79 10000 2.6 270 15:20 27.08.2019
2974 Clouds 29 1016 88 10000 1.5 240 14:54 27.08.2019
2975 Clouds 29 1016 88 10000 1.5 240 14:36 27.08.2019
2976 Clouds 28 1015 88 10000 1 0 14:18 27.08.2019
2977 Clouds 27 1015 88 10000 1 0 13:41 27.08.2019
2978 Clouds 27 1014 88 10000 2.1 260 13:20 27.08.2019
2979 Clouds 27 1014 88 10000 2.1 260 12:42 27.08.2019
2980 Rain 29 1014 76 0 2.92 202.516 12:21 27.08.2019
2981 Rain 26 1013 81 0 2.92 202.516 11:57 27.08.2019
2982 Rain 26 1013 81 0 2.92 202.516 11:37 27.08.2019
2983 Clouds 26 1015 94 10000 1.5 240 11:18 27.08.2019
2984 Clouds 26 1015 94 10000 1.5 240 10:41 27.08.2019
2985 Clouds 26 1015 94 10000 1.5 240 10:19 27.08.2019
2986 Clouds 26 1015 94 10000 1.5 240 09:55 27.08.2019
2987 Thunderstorm 26 1015 94 10000 2.1 220 09:37 27.08.2019
2988 Thunderstorm 27 1016 83 10000 2.9 174.634 09:18 27.08.2019
2989 Thunderstorm 27 1016 83 10000 2.9 174.634 08:44 27.08.2019
2990 Thunderstorm 27 1016 83 10000 2.9 174.634 08:24 27.08.2019
2991 Clouds 27 1017 88 10000 2.9 174.634 07:43 27.08.2019
2992 Clouds 27 1017 88 10000 2.9 174.634 07:20 27.08.2019
2993 Clouds 27 1017 88 10000 2.9 174.634 06:59 27.08.2019
2994 Clouds 27 1017 88 10000 2.9 174.634 06:40 27.08.2019
2995 Clouds 27 1017 88 10000 2.65 171.078 06:19 27.08.2019
2996 Clouds 28 1016 83 10000 1.5 220 05:24 27.08.2019
2997 Clouds 28 1015 83 10000 1.5 240 03:43 27.08.2019
2998 Clouds 29 1015 83 10000 2.1 250 02:28 27.08.2019
2999 Clouds 29 1014 74 10000 2.1 290 01:45 27.08.2019
3000 Clouds 30 1015 70 10000 2.6 260 01:24 27.08.2019
3001 Clouds 30 1015 70 10000 2.6 260 00:46 27.08.2019
3002 Clouds 30 1015 70 10000 2.6 260 00:25 27.08.2019
3003 Clouds 30 1015 70 10000 3.6 260 23:40 26.08.2019
3004 Clouds 30 1015 70 10000 3.6 260 23:21 26.08.2019
3005 Clouds 30 1015 70 10000 3.1 260 22:54 26.08.2019
3006 Clouds 30 1015 70 10000 3.1 260 22:36 26.08.2019
3007 Thunderstorm 30 1015 70 10000 1.5 260 22:18 26.08.2019
3008 Rain 29 1015 70 10000 1.5 260 21:39 26.08.2019
3009 Rain 28 1015 70 10000 1.5 260 21:20 26.08.2019
3010 Rain 27 1016 78 9000 7.7 280 20:57 26.08.2019
3011 Rain 27 1015 84 0 2.52 175.193 20:39 26.08.2019
3012 Thunderstorm 29 1016 70 10000 3.1 240 20:19 26.08.2019
3013 Thunderstorm 31 1016 70 10000 3.1 240 19:44 26.08.2019
3014 Thunderstorm 32 1016 70 10000 3.1 240 19:20 26.08.2019
3015 Clouds 32 1016 70 10000 3.6 230 18:59 26.08.2019
3016 Clouds 32 1016 70 10000 3.6 230 18:38 26.08.2019
3017 Clouds 32 1016 70 10000 3.6 230 18:20 26.08.2019
3018 Clouds 31 1017 70 10000 4.6 220 17:55 26.08.2019
3019 Clouds 31 1017 70 10000 4.6 220 17:37 26.08.2019
3020 Clouds 31 1017 70 10000 4.6 220 17:18 26.08.2019
3021 Clouds 32 1016 75 0 4.45 204.308 16:55 26.08.2019
3022 Clouds 32 1016 77 0 4.45 204.308 16:37 26.08.2019
3023 Clouds 30 1016 79 10000 3.6 230 16:18 26.08.2019
3024 Clouds 30 1016 79 10000 3.6 230 15:41 26.08.2019
3025 Clouds 30 1016 79 10000 3.6 230 15:21 26.08.2019
3026 Clouds 30 1016 79 10000 1.5 240 14:45 26.08.2019
3027 Clouds 29 1016 79 10000 1.5 240 14:23 26.08.2019
3028 Clouds 27 1015 88 10000 1.5 250 13:59 26.08.2019
3029 Clouds 27 1015 88 10000 1.5 250 13:38 26.08.2019
3030 Clouds 27 1015 88 10000 1.5 250 13:19 26.08.2019
3031 Clouds 27 1015 88 10000 1.5 250 12:43 26.08.2019
3032 Clouds 27 1015 88 10000 1.5 250 12:23 26.08.2019
3033 Clouds 27 1015 88 10000 1.5 250 12:23 26.08.2019
3034 Thunderstorm 26 1015 88 10000 1.5 250 11:46 26.08.2019
3035 Thunderstorm 26 1015 88 10000 1.5 250 11:27 26.08.2019
3036 Clouds 27 1014 88 10000 1.5 210 10:59 26.08.2019
3037 Clouds 27 1014 88 10000 1.5 210 10:41 26.08.2019
3038 Clouds 27 1014 88 10000 1.5 210 10:20 26.08.2019
3039 Clear 27 1015 94 10000 2.1 230 09:47 26.08.2019
3040 Clear 27 1015 94 10000 2.1 230 09:26 26.08.2019
3041 Clear 27 1015 94 10000 1.5 230 08:59 26.08.2019
3042 Clear 27 1015 94 10000 1.5 230 08:41 26.08.2019
3043 Clear 27 1015 94 10000 1.5 230 08:22 26.08.2019
3044 Clouds 27 1016 94 10000 1.5 250 07:46 26.08.2019
3045 Clouds 27 1016 94 10000 1.5 250 07:25 26.08.2019
3046 Clouds 27 1016 88 10000 1.5 260 06:59 26.08.2019
3047 Clouds 28 1016 88 10000 1.5 260 06:39 26.08.2019
3048 Clouds 28 1016 88 10000 1.5 260 06:20 26.08.2019
3049 Clear 28 1016 88 10000 1.5 210 05:48 26.08.2019
3050 Clouds 28 1015 85 0 4.22 280.168 04:22 26.08.2019
3051 Clouds 28 1015 83 10000 2.1 200 02:42 26.08.2019
3052 Clouds 30 1015 74 10000 4.1 220 01:25 26.08.2019
3053 Clouds 31 1015 74 10000 4.1 220 00:45 26.08.2019
3054 Clouds 31 1015 74 10000 4.1 220 00:27 26.08.2019
3055 Clouds 31 1015 66 10000 3.6 220 23:46 25.08.2019
3056 Clouds 32 1015 66 10000 3.6 220 23:21 25.08.2019
3057 Clouds 32 1015 62 10000 4.6 210 22:59 25.08.2019
3058 Clouds 32 1015 62 10000 4.6 210 22:40 25.08.2019
3059 Clouds 31 1015 79 10000 4.6 210 22:21 25.08.2019
3060 Clouds 31 1015 79 10000 4.6 210 21:58 25.08.2019
3061 Clouds 31 1015 79 10000 4.6 210 21:40 25.08.2019
3062 Clouds 31 1015 79 10000 4.6 210 21:19 25.08.2019
3063 Clouds 32 1016 74 10000 5.1 220 20:56 25.08.2019
3064 Clouds 32 1014 74 0 4.77 155.371 20:38 25.08.2019
3065 Clouds 32 1016 74 10000 5.1 200 20:19 25.08.2019
3066 Clouds 32 1016 74 10000 5.1 200 19:42 25.08.2019
3067 Clouds 32 1016 74 10000 5.1 200 19:23 25.08.2019
3068 Clouds 32 1016 70 10000 5.1 220 18:59 25.08.2019
3069 Clouds 31 1016 70 10000 5.1 220 18:40 25.08.2019
3070 Clouds 31 1016 70 10000 5.1 220 18:22 25.08.2019
3071 Clouds 31 1017 74 10000 4.6 240 17:59 25.08.2019
3072 Clouds 31 1017 74 10000 4.6 240 17:39 25.08.2019
3073 Clouds 31 1017 74 10000 4.6 240 17:20 25.08.2019
3074 Clouds 30 1016 74 10000 3.1 250 16:41 25.08.2019
3075 Clouds 30 1016 74 10000 3.1 250 16:23 25.08.2019
3076 Rain 29 1017 74 10000 2.6 220 15:48 25.08.2019
3077 Rain 29 1017 74 10000 2.6 220 15:27 25.08.2019
3078 Clouds 30 1016 79 10000 2.6 200 14:56 25.08.2019
3079 Clouds 29 1016 79 10000 2.6 200 14:38 25.08.2019
3080 Clouds 29 1016 79 10000 2.6 200 14:19 25.08.2019
3081 Clouds 28 1015 88 10000 3.1 190 13:43 25.08.2019
3082 Clouds 27 1015 88 10000 3.1 190 13:21 25.08.2019
3083 Thunderstorm 28 1015 83 10000 3.1 190 12:56 25.08.2019
3084 Thunderstorm 28 1015 83 10000 3.1 190 12:37 25.08.2019
3085 Thunderstorm 28 1015 83 10000 3.1 190 12:18 25.08.2019
3086 Clouds 28 1014 83 10000 3.1 190 11:54 25.08.2019
3087 Clouds 28 1014 83 10000 3.1 190 11:36 25.08.2019
3088 Clouds 28 1014 83 10000 3.1 190 11:18 25.08.2019
3089 Clouds 28 1015 83 10000 2.6 190 10:40 25.08.2019
3090 Clouds 28 1015 83 10000 2.6 190 10:20 25.08.2019
3091 Clouds 28 1015 88 10000 3.6 190 09:56 25.08.2019
3092 Clouds 28 1015 88 10000 3.6 190 09:37 25.08.2019
3093 Clouds 28 1015 88 10000 3.6 190 09:19 25.08.2019
3094 Clouds 27 1015 94 10000 3.1 190 08:42 25.08.2019
3095 Clouds 27 1015 94 10000 3.1 190 08:21 25.08.2019
3096 Clouds 28 1016 88 10000 2.1 180 07:35 25.08.2019
3097 Clouds 27 1016 83 10000 1.5 210 06:51 25.08.2019
3098 Thunderstorm 27 1016 83 10000 1.5 200 05:47 25.08.2019
3099 Thunderstorm 28 1016 88 10000 2.6 180 04:35 25.08.2019
3100 Clouds 28 1016 88 10000 2.6 180 03:31 25.08.2019
3101 Thunderstorm 28 1015 83 10000 2.1 180 02:39 25.08.2019
3102 Clouds 29 1014 79 10000 3.6 180 01:24 25.08.2019
3103 Clouds 30 1014 74 10000 5.1 200 00:39 25.08.2019
3104 Clouds 30 1014 74 10000 5.1 200 00:20 25.08.2019
3105 Clouds 30 1014 79 10000 6.2 180 23:50 24.08.2019
3106 Clouds 30 1014 79 10000 6.2 180 23:22 24.08.2019
3107 Clouds 32 1015 66 10000 6.7 170 22:55 24.08.2019
3108 Clouds 32 1015 66 10000 6.7 170 22:37 24.08.2019
3109 Clouds 32 1015 66 10000 6.7 170 22:19 24.08.2019
3110 Clouds 32 1015 66 10000 5.7 180 21:55 24.08.2019
3111 Clouds 32 1015 66 10000 5.7 180 21:36 24.08.2019
3112 Clouds 32 1015 66 10000 5.7 180 21:18 24.08.2019
3113 Clouds 31 1015 70 10000 5.7 180 20:41 24.08.2019
3114 Clouds 31 1015 70 10000 5.7 180 20:20 24.08.2019
3115 Clouds 31 1016 74 10000 6.2 200 19:59 24.08.2019
3116 Clouds 31 1016 74 10000 6.2 200 19:40 24.08.2019
3117 Clouds 31 1016 74 10000 6.2 200 19:22 24.08.2019
3118 Clouds 30 1016 74 0 5.7 200 18:57 24.08.2019
3119 Clouds 30 1016 74 0 5.7 200 18:37 24.08.2019
3120 Clouds 30 1016 74 0 5.7 200 18:19 24.08.2019
3121 Clouds 30 1016 79 10000 6.2 180 17:42 24.08.2019
3122 Clouds 30 1016 79 10000 6.2 180 17:23 24.08.2019
3123 Clouds 30 1015 74 10000 5.1 180 16:42 24.08.2019
3124 Clouds 30 1015 74 10000 5.1 180 16:19 24.08.2019
3125 Clouds 30 1016 79 10000 5.1 170 15:55 24.08.2019
3126 Clouds 30 1016 79 10000 5.1 170 15:37 24.08.2019
3127 Clouds 30 1016 79 10000 5.1 170 15:19 24.08.2019
3128 Clouds 28 1014 82 0 7.56 156.37 14:42 24.08.2019
3129 Clouds 26 1015 94 10000 3.1 150 14:20 24.08.2019
3130 Clouds 26 1015 94 10000 3.1 150 13:55 24.08.2019
3131 Clouds 26 1015 94 10000 3.1 150 13:37 24.08.2019
3132 Clouds 26 1015 94 10000 3.1 150 13:18 24.08.2019
3133 Clouds 27 1015 88 10000 3.1 170 12:42 24.08.2019
3134 Clouds 27 1015 88 10000 3.1 170 12:23 24.08.2019
3135 Clouds 27 1014 88 10000 2.6 170 11:55 24.08.2019
3136 Clouds 27 1014 88 10000 2.6 170 11:37 24.08.2019
3137 Clouds 27 1014 88 10000 2.6 170 11:18 24.08.2019
3138 Clouds 27 1014 88 10000 3.1 170 10:41 24.08.2019
3139 Clouds 27 1014 88 10000 3.1 170 10:21 24.08.2019
3140 Clouds 27 1015 88 10000 3.1 180 09:44 24.08.2019
3141 Clouds 27 1015 88 10000 3.1 180 09:19 24.08.2019
3142 Rain 29 1014 82 0 8.81 141.424 08:44 24.08.2019
3143 Clouds 25 1015 94 10000 3.6 150 08:26 24.08.2019
3144 Clouds 25 1015 94 10000 3.6 150 07:53 24.08.2019
3145 Clouds 25 1015 94 10000 3.6 150 07:31 24.08.2019
3146 Rain 29 1014 82 0 8.81 141.424 06:53 24.08.2019
3147 Thunderstorm 24 1016 100 10000 1.5 50 06:23 24.08.2019
3148 Thunderstorm 24 1016 100 10000 1.5 50 05:39 24.08.2019
3149 Rain 24 1016 94 10000 2.6 250 03:50 24.08.2019
3150 Thunderstorm 24 1016 94 3700 4.6 250 03:31 24.08.2019
3151 Rain 27 1014 88 10000 1.5 290 02:19 24.08.2019
3152 Rain 27 1014 88 10000 1.5 290 01:29 24.08.2019
3153 Rain 29 1014 79 0 7.43 135.087 00:48 24.08.2019
3154 Rain 28 1014 88 10000 2.6 190 00:24 24.08.2019
3155 Rain 28 1014 88 10000 2.6 190 23:45 23.08.2019
3156 Rain 28 1014 88 10000 2.6 190 23:21 23.08.2019
3157 Rain 27 1015 88 10000 5.1 170 22:45 23.08.2019
3158 Rain 27 1015 88 10000 5.1 170 22:27 23.08.2019
3159 Rain 29 1015 79 10000 3.1 170 21:56 23.08.2019
3160 Rain 29 1015 79 10000 3.1 170 21:37 23.08.2019
3161 Rain 29 1015 79 10000 3.1 170 21:19 23.08.2019
3162 Clouds 28 1016 83 10000 5.1 160 20:52 23.08.2019
3163 Clouds 28 1016 83 10000 5.1 160 20:33 23.08.2019
3164 Clouds 28 1016 83 10000 4.1 180 19:47 23.08.2019
3165 Clouds 28 1016 83 10000 4.1 180 19:19 23.08.2019
3166 -273 0 0 0 0 0 18:56 23.08.2019
3167 Rain 26 1016 94 10000 4.1 180 18:37 23.08.2019
3168 Rain 26 1016 94 10000 4.1 180 18:19 23.08.2019
3169 Rain 25 1017 94 7000 5.1 180 17:42 23.08.2019
3170 Thunderstorm 25 1017 94 10000 7.7 140 17:24 23.08.2019
3171 Thunderstorm 26 1016 94 10000 3.6 200 16:56 23.08.2019
3172 Thunderstorm 26 1016 94 10000 3.6 200 16:38 23.08.2019
3173 Thunderstorm 26 1016 94 10000 3.6 200 16:20 23.08.2019
3174 Thunderstorm 29 1016 74 10000 7.7 160 15:40 23.08.2019
3175 Thunderstorm 29 1016 74 10000 7.7 160 15:22 23.08.2019
3176 Thunderstorm 28 1015 83 10000 8.2 160 14:56 23.08.2019
3177 Rain 28 1015 83 10000 5.1 160 14:38 23.08.2019
3178 Rain 28 1015 83 10000 5.1 160 14:20 23.08.2019
3179 Rain 28 1015 77 0 8.46 152.741 13:42 23.08.2019
3180 Rain 27 1014 83 10000 5.1 160 13:23 23.08.2019
3181 Rain 27 1014 83 10000 5.1 160 12:59 23.08.2019
3182 Rain 27 1014 83 10000 5.1 160 12:41 23.08.2019
3183 Rain 27 1014 83 10000 5.1 160 12:21 23.08.2019
3184 Rain 26 1014 88 10000 5.1 160 11:57 23.08.2019
3185 Rain 26 1014 88 10000 5.1 160 11:39 23.08.2019
3186 Rain 26 1014 88 10000 5.1 160 11:19 23.08.2019
3187 Rain 26 1015 88 10000 4.1 150 10:55 23.08.2019
3188 Rain 26 1015 88 10000 4.1 150 10:37 23.08.2019
3189 Rain 26 1015 88 10000 4.1 150 10:18 23.08.2019
3190 Rain 26 1015 88 10000 4.6 150 09:43 23.08.2019
3191 Rain 26 1015 88 10000 4.6 150 09:20 23.08.2019
3192 Rain 26 1015 88 10000 2.6 170 08:45 23.08.2019
3193 Rain 26 1015 88 10000 2.6 170 08:21 23.08.2019
3194 Rain 26 1016 94 10000 3.6 170 07:56 23.08.2019
3195 Rain 26 1016 94 10000 3.6 170 07:38 23.08.2019
3196 Rain 26 1016 94 10000 3.6 170 07:20 23.08.2019
3197 Rain 26 1016 94 10000 3.6 130 06:41 23.08.2019
3198 Rain 26 1016 94 10000 3.6 130 06:21 23.08.2019
3199 Clouds 29 1015 77 0 6.96 128.579 05:44 23.08.2019
3200 Clouds 26 1016 88 10000 3.1 160 05:23 23.08.2019
3201 Clouds 27 1016 83 10000 4.6 130 03:42 23.08.2019
3202 Clouds 29 1014 72 0 4.71 126.294 02:37 23.08.2019
3203 Rain 27 1015 83 10000 5.7 120 02:19 23.08.2019
3204 Clouds 28 1015 78 10000 5.1 120 00:47 23.08.2019
3205 Clouds 28 1015 78 10000 5.1 120 00:23 23.08.2019
3206 Clouds 28 1015 74 10000 5.7 130 23:59 22.08.2019
3207 Clouds 28 1015 74 10000 5.7 130 23:40 22.08.2019
3208 Clouds 28 1015 74 10000 5.7 130 23:20 22.08.2019
3209 Clouds 29 1015 70 10000 3.6 130 22:42 22.08.2019
3210 Clouds 29 1015 70 10000 3.6 130 22:23 22.08.2019
3211 Clouds 28 1016 78 10000 4.6 140 21:58 22.08.2019
3212 Clouds 28 1016 78 10000 4.6 140 21:58 22.08.2019
3213 Clouds 28 1016 78 10000 4.6 140 21:40 22.08.2019
3214 Clouds 28 1016 78 10000 4.6 140 21:21 22.08.2019
3215 Clouds 27 1016 83 10000 3.1 160 20:57 22.08.2019
3216 Rain 29 1015 73 0 6.68 112.227 20:39 22.08.2019
3217 Rain 26 1017 88 10000 3.6 150 20:19 22.08.2019
3218 Rain 26 1017 88 10000 3.6 150 19:56 22.08.2019
3219 Rain 26 1017 88 10000 3.6 150 19:37 22.08.2019
3220 Rain 26 1017 88 10000 3.6 150 19:19 22.08.2019
3221 Clouds 25 1017 88 10000 4.6 160 18:56 22.08.2019
3222 Clouds 25 1017 88 10000 4.6 160 18:37 22.08.2019
3223 Clouds 25 1017 88 10000 4.6 160 18:18 22.08.2019
3224 Rain 25 1017 94 10000 4.6 120 17:42 22.08.2019
3225 Rain 25 1017 94 9000 5.1 140 17:23 22.08.2019
3226 Rain 25 1017 94 9000 5.1 140 16:58 22.08.2019
3227 Rain 28 1016 74 0 6.85 98.154 16:40 22.08.2019
3228 Rain 26 1017 88 10000 4.6 140 16:21 22.08.2019
3229 Rain 26 1017 88 10000 4.6 140 15:59 22.08.2019
3230 Rain 28 1016 74 0 6.85 98.154 15:38 22.08.2019
3231 Rain 28 1016 74 0 6.85 98.154 15:38 22.08.2019
3232 Rain 28 1016 74 0 6.85 98.154 15:38 22.08.2019
3233 Rain 28 1016 74 0 6.85 98.154 15:38 22.08.2019
3234 Rain 26 1016 88 10000 4.6 120 15:19 22.08.2019
3235 Rain 26 1016 88 10000 4.6 120 15:19 22.08.2019
3236 Rain 26 1016 88 10000 4.6 120 15:19 22.08.2019
3237 Rain 26 1016 88 10000 4.6 120 14:41 22.08.2019
3238 Rain 26 1016 88 10000 4.6 120 14:22 22.08.2019
3239 Clouds 26 1016 88 10000 3.6 100 13:59 22.08.2019
3240 Clouds 26 1016 88 10000 3.6 100 13:41 22.08.2019
3241 Clouds 26 1016 88 10000 3.6 100 13:41 22.08.2019
3242 Clouds 26 1016 88 10000 3.6 100 13:22 22.08.2019
3243 Clouds 26 1016 88 10000 4.1 100 12:58 22.08.2019
3244 Clouds 26 1016 88 10000 4.1 100 12:38 22.08.2019
3245 Clouds 26 1016 88 10000 4.1 100 12:19 22.08.2019
3246 Clouds 26 1016 88 10000 3.6 80 11:42 22.08.2019
3247 Clouds 26 1016 88 10000 3.6 80 11:21 22.08.2019
3248 Clouds 26 1016 88 10000 3.1 100 10:58 22.08.2019
3249 Clouds 26 1016 88 10000 3.1 100 10:40 22.08.2019
3250 Clouds 26 1016 88 10000 3.1 100 10:22 22.08.2019
3251 Clouds 26 1016 88 10000 3.6 110 09:57 22.08.2019
3252 Clouds 26 1016 88 10000 3.6 110 09:39 22.08.2019
3253 Clouds 26 1016 88 10000 3.6 110 09:20 22.08.2019
3254 Clouds 26 1017 88 10000 1.5 80 08:56 22.08.2019
3255 Clouds 26 1017 88 10000 1.5 80 08:38 22.08.2019
3256 Clouds 26 1017 88 10000 1.5 80 08:20 22.08.2019
3257 Rain 25 1017 88 9000 5.7 140 07:39 22.08.2019
3258 Rain 25 1017 88 9000 5.7 140 07:20 22.08.2019
3259 Clouds 26 1018 83 10000 4.6 120 06:52 22.08.2019
3260 Clouds 26 1018 83 10000 4.6 120 06:24 22.08.2019
3261 Clouds 27 1018 83 10000 3.1 80 05:40 22.08.2019
3262 Clouds 27 1018 78 10000 2.6 110 04:28 22.08.2019
3263 Clouds 27 1018 78 10000 4.1 110 02:47 22.08.2019
3264 Clouds 27 1018 78 10000 4.1 110 02:29 22.08.2019
3265 Clouds 28 1017 74 10000 4.6 110 01:22 22.08.2019
3266 Clouds 28 1017 69 10000 4.1 110 00:44 22.08.2019
3267 Clouds 28 1017 69 10000 4.1 110 00:25 22.08.2019
3268 Rain 29 1017 74 10000 5.1 120 23:50 21.08.2019
3269 Rain 29 1017 74 10000 5.1 120 23:30 21.08.2019
3270 Rain 29 1018 70 10000 6.7 110 22:59 21.08.2019
3271 Rain 29 1018 70 10000 6.7 110 22:41 21.08.2019
3272 Rain 29 1018 70 10000 6.7 110 22:21 21.08.2019
3273 Rain 30 1018 66 10000 5.7 100 21:58 21.08.2019
3274 Rain 30 1018 66 10000 5.7 100 21:38 21.08.2019
3275 Rain 30 1018 66 10000 5.7 100 21:19 21.08.2019
3276 Clouds 29 1019 70 10000 5.1 90 20:57 21.08.2019
3277 Clouds 29 1019 70 10000 5.1 90 20:57 21.08.2019
3278 Clouds 29 1019 70 10000 5.1 90 20:38 21.08.2019
3279 Clouds 29 1019 70 10000 5.1 90 20:20 21.08.2019
3280 Clouds 29 1019 70 10000 5.7 130 19:44 21.08.2019
3281 Clouds 29 1019 70 10000 5.7 130 19:44 21.08.2019
3282 Clouds 29 1019 70 10000 5.7 130 19:25 21.08.2019
3283 Rain 27 1019 83 10000 4.6 130 18:58 21.08.2019
3284 Rain 27 1019 83 10000 4.6 130 18:39 21.08.2019
3285 Rain 27 1019 83 10000 4.6 130 18:20 21.08.2019
3286 Rain 29 1018 67 0 5.33 95.284 17:45 21.08.2019
3287 Rain 25 1019 88 10000 1.5 70 17:23 21.08.2019
3288 Rain 25 1019 88 10000 1.5 70 16:58 21.08.2019
3289 Rain 25 1019 88 10000 1.5 70 16:40 21.08.2019
3290 Rain 25 1019 88 10000 1.5 70 16:20 21.08.2019
3291 Rain 24 1019 94 10000 2.6 50 15:58 21.08.2019
3292 Rain 29 1018 67 0 5.33 95.284 15:38 21.08.2019
3293 Rain 23 1019 94 10000 3.6 150 15:20 21.08.2019
3294 Rain 23 1019 94 10000 3.6 150 14:56 21.08.2019
3295 Rain 23 1019 94 10000 3.6 150 14:38 21.08.2019
3296 Rain 23 1019 94 10000 3.6 150 14:19 21.08.2019
3297 Rain 28 1018 67 0 6.22 95.845 13:43 21.08.2019
3298 Clouds 25 1018 88 10000 0.5 0 13:21 21.08.2019
3299 Clouds 25 1018 88 10000 0.5 0 12:58 21.08.2019
3300 Clouds 25 1018 88 10000 0.5 0 12:40 21.08.2019
3301 Clouds 25 1018 88 10000 0.5 0 12:20 21.08.2019
3302 Clouds 24 1018 100 10000 4.81 86.173 11:54 21.08.2019
3303 Clouds 24 1018 100 10000 4.81 86.173 11:36 21.08.2019
3304 Clouds 24 1018 100 10000 4.81 86.173 11:18 21.08.2019
3305 Rain 28 1016 68 0 4.81 86.173 10:55 21.08.2019
3306 Rain 28 1016 68 0 4.81 86.173 10:37 21.08.2019
3307 Rain 28 1016 68 0 4.81 86.173 10:37 21.08.2019
3308 Rain 28 1016 68 0 4.81 86.173 10:18 21.08.2019
3309 Rain 28 1016 68 0 4.81 86.173 10:18 21.08.2019
3310 Rain 28 1016 68 0 4.81 86.173 09:41 21.08.2019
3311 Thunderstorm 23 1019 94 10000 1.5 210 09:22 21.08.2019
3312 Clear 29 1017 65 0 5.14 95.177 08:55 21.08.2019
3313 Clear 29 1017 65 0 5.14 95.177 08:37 21.08.2019
3314 Clouds 24 1020 88 10000 3.1 150 08:18 21.08.2019
3315 Clouds 24 1020 88 10000 3.1 150 07:38 21.08.2019
3316 Clouds 24 1020 88 10000 3.1 150 07:19 21.08.2019
3317 Rain 24 1021 88 10000 5.14 95.177 06:46 21.08.2019
3318 Rain 24 1021 88 10000 4.63 103.265 06:20 21.08.2019
3319 Rain 24 1020 88 10000 5.7 40 05:30 21.08.2019
3320 Rain 23 1020 94 7000 8.2 200 04:58 21.08.2019
3321 Clouds 28 1019 74 10000 4.1 110 02:45 21.08.2019
3322 Clouds 29 1018 66 10000 4.6 130 01:38 21.08.2019
3323 Clouds 29 1018 66 10000 4.6 110 00:43 21.08.2019
3324 Clouds 29 1018 66 10000 4.6 110 00:43 21.08.2019
3325 Clouds 29 1018 66 10000 4.6 110 00:22 21.08.2019
3326 Clouds 29 1018 66 10000 5.1 140 23:46 20.08.2019
3327 Clouds 29 1018 66 10000 5.1 140 23:21 20.08.2019
3328 Clouds 28 1018 69 10000 4.1 150 22:59 20.08.2019
3329 Clouds 28 1018 69 10000 4.1 150 22:41 20.08.2019
3330 Clouds 28 1018 69 10000 4.1 150 22:22 20.08.2019
3331 Clouds 27 1019 78 10000 4.6 120 21:58 20.08.2019
3332 Clouds 27 1019 78 10000 4.6 120 21:39 20.08.2019
3333 Clouds 27 1019 78 10000 4.6 120 21:20 20.08.2019
3334 Rain 27 1020 78 10000 6.7 150 20:59 20.08.2019
3335 Rain 27 1020 78 10000 6.7 150 20:59 20.08.2019
3336 Clouds 29 1018 76 0 7.35 113.118 20:41 20.08.2019
3337 Clouds 26 1022 83 10000 4.1 140 20:23 20.08.2019
3338 Clouds 26 1022 83 10000 4.1 140 19:40 20.08.2019
3339 Clouds 26 1022 83 10000 4.1 140 19:22 20.08.2019
3340 Clouds 26 1021 83 10000 5.7 160 18:58 20.08.2019
3341 Clouds 29 1018 76 0 7.35 113.118 18:40 20.08.2019
3342 Rain 25 1021 88 10000 4.6 180 18:19 20.08.2019
3343 Rain 25 1021 88 10000 4.6 180 17:57 20.08.2019
3344 Rain 25 1021 88 10000 4.6 180 17:38 20.08.2019
3345 Rain 24 1021 88 10000 4.6 140 17:19 20.08.2019
3346 Rain 24 1021 88 10000 4.6 140 16:44 20.08.2019
3347 Rain 24 1021 88 10000 4.6 140 16:26 20.08.2019
3348 Clouds 29 1019 76 0 7.62 102.295 15:56 20.08.2019
3349 Rain 23 1019 94 7000 5.1 200 15:37 20.08.2019
3350 Rain 23 1019 94 7000 5.1 200 15:18 20.08.2019
3351 Rain 23 1019 94 7000 5.1 200 14:42 20.08.2019
3352 Rain 23 1019 94 7000 5.1 200 14:22 20.08.2019
3353 Thunderstorm 24 1019 83 9000 2.1 0 13:57 20.08.2019
3354 Thunderstorm 24 1019 83 9000 2.1 0 13:38 20.08.2019
3355 Thunderstorm 25 1018 88 10000 2.1 80 13:20 20.08.2019
3356 Thunderstorm 25 1018 88 10000 2.1 80 12:51 20.08.2019
3357 Thunderstorm 25 1018 88 10000 2.1 80 12:28 20.08.2019
3358 Thunderstorm 24 1018 83 10000 1 0 11:58 20.08.2019
3359 Thunderstorm 25 1018 73 10000 2.6 140 11:38 20.08.2019
3360 Thunderstorm 25 1018 73 10000 2.6 140 11:18 20.08.2019
3361 Thunderstorm 25 1018 73 10000 2.6 140 10:57 20.08.2019
3362 Thunderstorm 25 1018 73 10000 2.6 140 10:57 20.08.2019
3363 Rain 29 1016 75 0 8.45 108.139 10:38 20.08.2019
3364 Thunderstorm 27 1018 74 10000 3.1 130 10:19 20.08.2019
3365 Thunderstorm 27 1018 74 10000 3.1 130 09:43 20.08.2019
3366 Thunderstorm 27 1018 74 10000 3.1 130 09:25 20.08.2019
3367 Thunderstorm 28 1019 78 9000 5.1 130 08:57 20.08.2019
3368 Thunderstorm 28 1019 78 9000 5.1 130 08:39 20.08.2019
3369 Thunderstorm 28 1019 78 9000 5.1 130 08:20 20.08.2019
3370 Clouds 28 1018 74 10000 4.6 120 07:41 20.08.2019
3371 Clouds 28 1018 74 10000 4.6 120 07:22 20.08.2019
3372 Clouds 27 1019 78 10000 4.1 100 06:59 20.08.2019
3373 Clouds 27 1019 78 10000 4.1 100 06:25 20.08.2019
3374 Rain 26 1019 78 10000 3.6 100 05:49 20.08.2019
3375 Thunderstorm 28 1019 69 10000 2.6 60 04:57 20.08.2019
3376 Thunderstorm 27 1018 74 10000 3.1 170 03:52 20.08.2019
3377 Rain 27 1018 83 10000 2.1 80 02:36 20.08.2019
3378 Rain 26 1018 69 10000 2.6 90 01:36 20.08.2019
3379 Thunderstorm 28 1018 88 3700 7.39 105.217 00:50 20.08.2019
3380 Thunderstorm 28 1018 88 3700 7.39 105.217 00:31 20.08.2019
3381 Clouds 30 1017 62 10000 5.7 130 23:56 19.08.2019
3382 Clouds 30 1017 62 10000 5.7 130 23:37 19.08.2019
3383 Clouds 31 1017 62 10000 6.2 130 23:18 19.08.2019
3384 Clouds 31 1017 62 10000 6.2 130 22:41 19.08.2019
3385 Clouds 31 1017 62 10000 6.2 130 22:21 19.08.2019
3386 Clouds 31 1018 62 10000 6.2 130 21:58 19.08.2019
3387 Clouds 31 1018 62 10000 6.2 130 21:39 19.08.2019
3388 Clouds 31 1018 66 10000 6.2 130 21:20 19.08.2019
3389 Clouds 31 1018 66 10000 6.2 130 20:58 19.08.2019
3390 Clouds 31 1018 66 10000 6.2 130 20:38 19.08.2019
3391 Clouds 32 1018 55 10000 4.6 110 20:19 19.08.2019
3392 Clouds 32 1018 55 10000 4.6 110 19:55 19.08.2019
3393 Clouds 32 1018 55 10000 4.6 110 19:55 19.08.2019
3394 -273 0 0 0 0 0 19:55 19.08.2019
3395 Clouds 32 1018 55 10000 4.6 110 19:37 19.08.2019
3396 Clouds 32 1018 55 10000 4.6 110 19:18 19.08.2019
3397 Clouds 31 1018 66 10000 5.7 130 18:42 19.08.2019
3398 Clouds 31 1018 66 10000 5.7 130 18:42 19.08.2019
3399 Clouds 30 1018 66 10000 5.7 130 18:24 19.08.2019
3400 Rain 31 1018 62 10000 6.7 120 17:58 19.08.2019
3401 Rain 30 1018 62 10000 6.7 120 17:40 19.08.2019
3402 Clouds 30 1019 62 10000 6.7 110 17:19 19.08.2019
3403 Clouds 30 1019 62 10000 6.7 110 16:56 19.08.2019
3404 Clouds 30 1019 62 10000 6.7 110 16:37 19.08.2019
3405 Clouds 30 1019 62 10000 6.7 110 16:18 19.08.2019
3406 Clouds 30 1018 70 10000 4.6 110 15:45 19.08.2019
3407 Clouds 29 1018 70 10000 4.6 110 15:20 19.08.2019
3408 Thunderstorm 29 1018 70 10000 4.1 90 14:55 19.08.2019
3409 Rain 28 1018 78 0 5.58 93.473 14:36 19.08.2019
3410 Thunderstorm 27 1018 74 10000 0.5 0 14:18 19.08.2019
3411 Thunderstorm 27 1018 74 10000 0.5 0 13:55 19.08.2019
3412 Thunderstorm 27 1018 74 10000 0.5 0 13:36 19.08.2019
3413 Thunderstorm 27 1018 74 10000 0.5 0 13:18 19.08.2019
3414 Thunderstorm 27 1017 83 10000 2.1 80 12:41 19.08.2019
3415 Thunderstorm 27 1017 83 10000 2.1 80 12:22 19.08.2019
3416 Thunderstorm 28 1017 83 10000 2.1 80 11:43 19.08.2019
3417 Thunderstorm 27 1017 83 10000 2.1 90 11:25 19.08.2019
3418 Clouds 27 1017 83 0 6.03 94.273 10:59 19.08.2019
3419 Clouds 28 1017 83 0 6.03 94.273 10:39 19.08.2019
3420 Clouds 28 1017 83 0 6.03 94.273 10:19 19.08.2019
3421 Clouds 27 1017 83 10000 2.6 80 09:54 19.08.2019
3422 Clouds 27 1017 83 10000 2.6 80 09:36 19.08.2019
3423 Clouds 27 1017 83 10000 2.6 80 09:18 19.08.2019
3424 Rain 27 1018 83 10000 1.5 70 08:42 19.08.2019
3425 Rain 27 1018 83 10000 1.5 70 08:21 19.08.2019
3426 Thunderstorm 27 1019 74 0 3.1 100 07:54 19.08.2019
3427 Thunderstorm 27 1019 74 0 3.1 100 07:34 19.08.2019
3428 Rain 27 1019 74 10000 7.2 100 06:59 19.08.2019
3429 Rain 28 1019 74 10000 7.2 100 06:36 19.08.2019
3430 Rain 28 1019 74 10000 7.2 100 06:36 19.08.2019
3431 Thunderstorm 29 1018 74 10000 4.1 100 05:26 19.08.2019
3432 Thunderstorm 29 1018 74 10000 4.1 100 04:33 19.08.2019
3433 Clouds 30 1018 70 10000 4.1 70 03:25 19.08.2019
3434 Clouds 30 1017 70 10000 5.1 80 02:30 19.08.2019
3435 Clouds 30 1018 62 10000 6.2 80 01:36 19.08.2019
3436 Clouds 31 1018 62 10000 6.2 80 00:46 19.08.2019
3437 Clouds 30 1018 62 10000 6.2 80 00:23 19.08.2019
3438 Rain 31 1018 66 10000 6.2 70 23:43 18.08.2019
3439 Rain 31 1018 66 10000 6.2 70 23:22 18.08.2019
3440 Rain 31 1019 62 10000 5.7 70 22:57 18.08.2019
3441 Rain 31 1019 62 10000 5.7 70 22:38 18.08.2019
3442 Rain 31 1019 62 10000 5.7 70 22:20 18.08.2019
3443 Rain 32 1019 59 10000 6.2 70 21:56 18.08.2019
3444 Rain 32 1019 59 10000 6.2 70 21:37 18.08.2019
3445 Rain 32 1019 59 10000 6.2 70 21:19 18.08.2019
3446 Rain 33 1019 63 10000 6.2 80 20:44 18.08.2019
3447 Clouds 32 1019 62 10000 5.7 60 20:25 18.08.2019
3448 Clouds 29 1018 77 0 5.73 54.751 19:56 18.08.2019
3449 Clouds 29 1018 77 0 5.73 54.751 19:56 18.08.2019
3450 Clouds 29 1018 77 0 5.73 54.751 19:56 18.08.2019
3451 Clouds 29 1018 77 0 5.73 54.751 19:38 18.08.2019
3452 Clouds 29 1018 77 0 5.73 54.751 19:19 18.08.2019
3453 Clouds 29 1018 77 0 5.73 54.751 18:41 18.08.2019
3454 Clouds 31 1019 66 10000 4.6 80 18:23 18.08.2019
3455 Clouds 31 1019 66 10000 4.6 80 17:59 18.08.2019
3456 Clouds 31 1019 66 10000 4.6 80 17:41 18.08.2019
3457 Clouds 31 1019 66 10000 4.6 80 17:19 18.08.2019
3458 Clouds 31 1019 70 10000 4.6 100 16:57 18.08.2019
3459 Clouds 31 1019 70 10000 4.6 100 16:38 18.08.2019
3460 Clouds 31 1019 70 10000 4.6 100 16:20 18.08.2019
3461 Clouds 31 1019 70 10000 4.6 100 16:20 18.08.2019
3462 Clouds 30 1019 70 10000 4.1 110 15:56 18.08.2019
3463 Clouds 30 1019 70 10000 4.1 110 15:56 18.08.2019
3464 Clouds 30 1019 70 10000 4.1 110 15:38 18.08.2019
3465 Clouds 30 1019 70 10000 4.1 110 15:20 18.08.2019
3466 Clouds 30 1019 74 10000 1.5 80 14:40 18.08.2019
3467 Clouds 29 1019 74 10000 1.5 80 14:21 18.08.2019
3468 Clouds 28 1019 78 10000 2.6 90 13:59 18.08.2019
3469 Clouds 28 1019 78 10000 2.6 90 13:59 18.08.2019
3470 Clouds 28 1019 78 10000 2.6 90 13:41 18.08.2019
3471 Clouds 28 1019 78 10000 2.6 90 13:22 18.08.2019
3472 Clouds 29 1018 74 0 5.02 88.254 12:57 18.08.2019
3473 Clouds 29 1018 74 0 5.02 88.254 12:38 18.08.2019
3474 Clouds 29 1018 74 0 5.02 88.254 12:38 18.08.2019
3475 Clouds 28 1017 76 0 5.01 90.24 12:20 18.08.2019
3476 Clouds 28 1017 76 0 5.01 90.24 12:20 18.08.2019
3477 Clouds 28 1017 76 0 5.01 90.24 11:42 18.08.2019
3478 Clouds 28 1017 76 0 5.01 90.24 11:23 18.08.2019
3479 Clouds 28 1017 76 0 5.01 90.24 10:56 18.08.2019
3480 Clouds 28 1017 76 0 5.01 90.24 10:38 18.08.2019
3481 Clouds 28 1017 76 0 5.01 90.24 10:18 18.08.2019
3482 Clouds 28 1017 76 0 5.01 90.24 10:18 18.08.2019
3483 Clouds 28 1017 76 0 5.01 90.24 09:42 18.08.2019
3484 Clear 29 1020 74 10000 3.6 120 09:19 18.08.2019
3485 Clear 29 1020 74 10000 3.6 120 08:43 18.08.2019
3486 Clear 29 1020 74 10000 3.6 120 08:25 18.08.2019
3487 Clear 29 1020 74 10000 2.6 110 07:54 18.08.2019
3488 Clear 29 1020 74 10000 2.6 110 07:29 18.08.2019
3489 Clouds 30 1020 66 10000 4.1 110 06:32 18.08.2019
3490 Clear 30 1020 74 10000 3.1 110 05:41 18.08.2019
3491 Clouds 30 1019 70 10000 3.1 110 03:51 18.08.2019
3492 Clouds 30 1019 70 10000 2.6 150 02:52 18.08.2019
3493 Clouds 30 1019 70 10000 2.6 150 02:32 18.08.2019
3494 Clouds 31 1019 66 10000 3.6 150 01:57 18.08.2019
3495 Clouds 31 1019 66 10000 3.6 150 01:26 18.08.2019
3496 Clouds 31 1019 66 10000 3.6 150 01:26 18.08.2019
3497 Clouds 31 1019 66 10000 4.1 150 00:41 18.08.2019
3498 Clouds 31 1019 66 10000 4.1 150 00:19 18.08.2019
3499 Clouds 32 1019 66 10000 4.6 180 23:57 17.08.2019
3500 Clouds 32 1019 66 10000 4.6 180 23:37 17.08.2019
3501 Clouds 32 1019 66 10000 4.6 180 23:19 17.08.2019
3502 Clouds 32 1019 62 10000 4.1 170 22:57 17.08.2019
3503 Clouds 32 1019 62 10000 4.1 170 22:38 17.08.2019
3504 Clouds 32 1019 62 10000 4.1 170 22:20 17.08.2019
3505 Clouds 33 1019 59 10000 4.1 180 21:43 17.08.2019
3506 Clouds 33 1019 59 10000 4.1 180 21:25 17.08.2019
3507 Clouds 32 1020 62 10000 3.6 150 20:58 17.08.2019
3508 Clouds 32 1020 62 10000 4.1 160 20:37 17.08.2019
3509 Clouds 32 1020 62 10000 4.1 160 20:18 17.08.2019
3510 Clouds 32 1020 62 10000 4.1 160 19:43 17.08.2019
3511 Clouds 32 1020 62 10000 4.1 160 19:24 17.08.2019
3512 Clouds 32 1020 55 10000 4.6 170 18:55 17.08.2019
3513 Clouds 32 1020 55 10000 4.6 170 18:37 17.08.2019
3514 Clouds 32 1020 55 10000 4.6 170 18:18 17.08.2019
3515 Clouds 31 1020 66 10000 4.6 170 17:42 17.08.2019
3516 Clouds 31 1020 66 10000 5.1 150 17:22 17.08.2019
3517 Clouds 31 1020 66 10000 5.1 150 16:56 17.08.2019
3518 Clear 31 1019 74 0 4.79 148.149 16:38 17.08.2019
3519 Thunderstorm 30 1020 70 10000 2.6 170 16:19 17.08.2019
3520 Thunderstorm 30 1020 70 10000 2.6 170 15:42 17.08.2019
3521 Thunderstorm 30 1020 70 10000 2.6 170 15:22 17.08.2019
3522 Clouds 28 1020 78 10000 1 0 14:58 17.08.2019
3523 Rain 27 1019 78 10000 1.5 110 14:39 17.08.2019
3524 Rain 27 1019 78 10000 1.5 110 14:21 17.08.2019
3525 Rain 27 1019 78 10000 1.5 110 13:45 17.08.2019
3526 Rain 27 1019 78 10000 1.5 110 13:45 17.08.2019
3527 Rain 27 1019 78 10000 1.5 110 13:20 17.08.2019
3528 Thunderstorm 27 1019 83 10000 3.6 250 12:45 17.08.2019
3529 Thunderstorm 28 1019 83 10000 3.6 250 12:20 17.08.2019
3530 Thunderstorm 28 1019 78 10000 2.6 290 11:58 17.08.2019
3531 Rain 28 1019 78 10000 2.1 260 11:39 17.08.2019
3532 Rain 27 1019 78 10000 2.1 260 11:20 17.08.2019
3533 Thunderstorm 28 1019 83 10000 4.1 170 10:42 17.08.2019
3534 Thunderstorm 28 1019 83 10000 4.1 170 10:21 17.08.2019
3535 Thunderstorm 28 1019 83 10000 2.6 150 09:57 17.08.2019
3536 Thunderstorm 28 1019 83 10000 2.6 150 09:38 17.08.2019
3537 Thunderstorm 28 1019 83 10000 2.6 150 09:20 17.08.2019
3538 Thunderstorm 28 1020 83 10000 1 0 08:50 17.08.2019
3539 Thunderstorm 28 1020 83 10000 1 0 08:21 17.08.2019
3540 Clear 28 1019 80 0 6.53 148.651 07:42 17.08.2019
3541 Thunderstorm 28 1020 83 10000 2.1 180 07:20 17.08.2019
3542 Thunderstorm 29 1020 83 10000 2.1 180 06:25 17.08.2019
3543 Thunderstorm 28 1019 69 10000 2.1 160 04:36 17.08.2019
3544 Thunderstorm 28 1019 69 10000 2.1 160 04:18 17.08.2019
3545 Rain 28 1018 84 0 4.79 132.023 02:38 17.08.2019
3546 Clouds 30 1018 70 10000 4.1 180 01:38 17.08.2019
3547 Clouds 30 1018 70 10000 4.1 180 01:19 17.08.2019
3548 Clouds 30 1018 70 10000 4.1 180 01:19 17.08.2019
3549 Clouds 32 1018 66 10000 5.7 180 00:45 17.08.2019
3550 Clouds 32 1018 66 10000 5.7 180 00:18 17.08.2019
3551 Clouds 31 1018 66 10000 5.7 170 23:39 16.08.2019
3552 Clouds 31 1018 66 10000 5.7 170 23:21 16.08.2019
3553 Clouds 30 1019 70 10000 7.2 160 22:42 16.08.2019
3554 Clouds 31 1019 70 10000 7.2 160 22:19 16.08.2019
3555 Clouds 33 1019 63 10000 7.2 170 21:56 16.08.2019
3556 Clouds 33 1019 63 10000 7.2 170 21:38 16.08.2019
3557 Clouds 33 1019 63 10000 7.2 170 21:18 16.08.2019
3558 Clouds 32 1019 66 10000 7.2 160 20:41 16.08.2019
3559 Clouds 32 1019 66 10000 7.2 160 20:19 16.08.2019
3560 Clouds 32 1020 70 10000 7.2 150 19:55 16.08.2019
3561 Clouds 32 1020 70 10000 7.2 150 19:37 16.08.2019
3562 Clouds 32 1020 70 10000 7.2 150 19:19 16.08.2019
3563 Clouds 31 1020 70 10000 7.7 150 18:41 16.08.2019
3564 Clouds 31 1020 70 10000 7.7 150 18:41 16.08.2019
3565 Clouds 31 1020 70 10000 7.7 150 18:22 16.08.2019
3566 Clouds 31 1020 66 10000 6.7 150 17:45 16.08.2019
3567 Clouds 31 1019 66 10000 3.6 130 17:25 16.08.2019
3568 Clouds 31 1019 66 10000 3.6 130 16:56 16.08.2019
3569 Clouds 30 1019 66 10000 3.6 130 16:38 16.08.2019
3570 Clouds 30 1019 66 10000 3.6 130 16:18 16.08.2019
3571 Clouds 29 1019 74 10000 2.6 80 15:54 16.08.2019
3572 Clouds 29 1019 74 10000 2.6 80 15:36 16.08.2019
3573 Clouds 29 1019 74 10000 2.6 80 15:18 16.08.2019
3574 Clouds 28 1020 78 10000 1 0 14:41 16.08.2019
3575 Clouds 28 1020 78 10000 1 0 14:19 16.08.2019
3576 Thunderstorm 27 1020 88 10000 1.5 260 13:58 16.08.2019
3577 Thunderstorm 26 1020 88 10000 1.5 260 13:38 16.08.2019
3578 Thunderstorm 26 1020 88 10000 1.5 260 13:19 16.08.2019
3579 Thunderstorm 25 1019 88 10000 1.5 200 12:39 16.08.2019
3580 Thunderstorm 26 1019 88 10000 1.5 200 12:20 16.08.2019
3581 Thunderstorm 26 1019 100 10000 1.5 140 11:43 16.08.2019
3582 Clouds 27 1018 83 0 6.01 140.305 11:24 16.08.2019
3583 Clouds 27 1018 83 0 6.01 140.305 11:24 16.08.2019
3584 Clouds 27 1018 83 0 6.01 140.305 10:54 16.08.2019
3585 Clouds 27 1018 84 0 6.01 140.305 10:36 16.08.2019
3586 Clouds 27 1018 84 0 6.01 140.305 10:36 16.08.2019
3587 Clouds 27 1018 84 0 6.01 140.305 10:36 16.08.2019
3588 Clouds 27 1018 84 0 6.01 140.305 10:18 16.08.2019
3589 Clouds 27 1018 85 0 6.01 140.305 09:38 16.08.2019
3590 Thunderstorm 27 1019 94 10000 0.5 0 09:18 16.08.2019
3591 Thunderstorm 27 1019 94 10000 0.5 0 08:56 16.08.2019
3592 Thunderstorm 27 1019 94 10000 0.5 0 08:37 16.08.2019
3593 Thunderstorm 27 1019 94 10000 0.5 0 08:18 16.08.2019
3594 Rain 29 1018 79 0 5.14 147.325 07:42 16.08.2019
3595 Thunderstorm 28 1020 74 10000 2.1 120 07:24 16.08.2019
3596 Thunderstorm 28 1020 88 10000 1 0 06:33 16.08.2019
3597 Thunderstorm 28 1020 88 10000 1 0 05:43 16.08.2019
3598 Thunderstorm 28 1019 79 10000 4.1 160 04:33 16.08.2019
3599 Clouds 29 1018 79 10000 1.5 230 03:18 16.08.2019
3600 Clouds 30 1017 74 10000 3.6 200 01:43 16.08.2019
3601 Clouds 30 1017 74 10000 3.6 200 01:21 16.08.2019
3602 Rain 30 1017 74 10000 4.1 200 00:43 16.08.2019
3603 Rain 31 1017 74 10000 4.1 200 00:21 16.08.2019
3604 Thunderstorm 31 1017 70 10000 5.1 170 23:45 15.08.2019
3605 Thunderstorm 31 1017 70 10000 4.1 180 23:22 15.08.2019
3606 Thunderstorm 31 1017 70 10000 4.1 180 22:58 15.08.2019
3607 Rain 30 1016 78 0 7.7 147.018 22:39 15.08.2019
3608 Thunderstorm 30 1018 70 10000 3.6 170 22:21 15.08.2019
3609 Thunderstorm 30 1018 70 10000 3.6 170 21:55 15.08.2019
3610 Thunderstorm 30 1018 70 10000 3.6 170 21:37 15.08.2019
3611 Thunderstorm 30 1018 70 10000 3.6 170 21:18 15.08.2019
3612 Clouds 30 1018 74 10000 3.1 170 20:43 15.08.2019
3613 Clouds 30 1018 74 10000 3.1 170 20:22 15.08.2019
3614 Rain 30 1019 74 10000 4.1 170 19:57 15.08.2019
3615 Rain 29 1019 74 10000 4.1 170 19:39 15.08.2019
3616 Rain 29 1019 74 10000 4.1 170 19:20 15.08.2019
3617 Rain 28 1019 70 10000 5.1 170 18:47 15.08.2019
3618 Rain 28 1019 70 10000 5.1 170 18:23 15.08.2019
3619 Rain 27 1019 83 10000 4.1 150 17:58 15.08.2019
3620 Clouds 29 1017 72 0 4.18 186.844 17:38 15.08.2019
3621 Clouds 29 1017 72 0 4.18 186.844 17:38 15.08.2019
3622 Thunderstorm 28 1019 78 10000 5.7 110 17:19 15.08.2019
3623 Thunderstorm 28 1019 78 10000 5.7 110 16:56 15.08.2019
3624 Thunderstorm 28 1019 78 10000 5.7 110 16:38 15.08.2019
3625 Thunderstorm 28 1019 78 10000 5.7 110 16:20 15.08.2019
3626 Thunderstorm 27 1019 83 10000 0.5 0 15:38 15.08.2019
3627 Thunderstorm 27 1019 83 10000 0.5 0 15:19 15.08.2019
3628 Thunderstorm 27 1019 83 10000 0.5 0 15:19 15.08.2019
3629 Thunderstorm 27 1018 83 10000 1 0 14:43 15.08.2019
3630 Thunderstorm 27 1018 83 10000 1 0 14:24 15.08.2019
3631 Thunderstorm 27 1017 88 10000 1.5 240 13:59 15.08.2019
3632 Thunderstorm 27 1017 88 10000 1.5 240 13:41 15.08.2019
3633 Thunderstorm 27 1017 88 10000 1.5 240 13:21 15.08.2019
3634 Thunderstorm 27 1017 88 10000 0.5 0 12:59 15.08.2019
3635 Thunderstorm 27 1017 88 10000 0.5 0 12:39 15.08.2019
3636 Thunderstorm 26 1017 88 10000 0.5 0 12:19 15.08.2019
3637 Thunderstorm 26 1017 88 10000 1.5 240 11:57 15.08.2019
3638 Thunderstorm 26 1017 88 10000 1.5 240 11:36 15.08.2019
3639 Thunderstorm 26 1017 88 10000 1.5 240 11:18 15.08.2019
3640 Thunderstorm 26 1017 88 10000 1 200 10:54 15.08.2019
3641 Thunderstorm 26 1017 88 10000 1 200 10:36 15.08.2019
3642 Thunderstorm 27 1017 88 10000 1 200 10:18 15.08.2019
3643 Clouds 28 1017 88 10000 1.5 180 09:41 15.08.2019
3644 Clouds 27 1017 88 10000 1.5 180 09:21 15.08.2019
3645 Clouds 27 1017 88 10000 4.22 171.935 08:38 15.08.2019
3646 Clouds 27 1017 88 10000 4.22 171.935 08:19 15.08.2019
3647 Clouds 27 1017 88 10000 4.22 171.935 07:50 15.08.2019
3648 Clouds 27 1017 88 10000 4.22 171.935 07:50 15.08.2019
3649 Clouds 27 1017 88 10000 4.22 171.935 07:32 15.08.2019
3650 Clouds 28 1017 83 10000 2.1 160 06:57 15.08.2019
3651 Clouds 27 1017 83 10000 2.1 160 06:39 15.08.2019
3652 Clouds 27 1017 83 10000 2.1 160 06:21 15.08.2019
3653 Clouds 28 1018 83 10000 1.5 150 05:29 15.08.2019
3654 Clouds 28 1017 78 10000 1.5 160 04:50 15.08.2019
3655 Clouds 28 1017 78 10000 1.5 160 03:48 15.08.2019
3656 Thunderstorm 29 1017 70 10000 1.5 150 02:47 15.08.2019
3657 Clouds 29 1016 66 10000 1.5 50 01:58 15.08.2019
3658 Clouds 29 1015 78 0 3.97 147.722 01:38 15.08.2019
3659 Clouds 30 1015 70 10000 1.5 30 00:42 15.08.2019
3660 Clouds 30 1015 70 10000 1.5 30 00:22 15.08.2019
3661 Clouds 31 1016 66 10000 2.6 20 23:58 14.08.2019
3662 Clear 31 1015 74 0 3.31 125.92 23:38 14.08.2019
3663 Clear 31 1015 74 0 3.31 125.92 23:38 14.08.2019
3664 Clouds 29 1016 78 10000 2.6 110 23:19 14.08.2019
3665 Clouds 29 1016 78 10000 2.6 110 22:57 14.08.2019
3666 Clouds 29 1016 78 10000 2.6 110 22:39 14.08.2019
3667 Clouds 29 1016 78 10000 2.6 110 22:20 14.08.2019
3668 Clouds 29 1016 88 10000 1 0 21:56 14.08.2019
3669 Thunderstorm 28 1016 88 10000 2.6 50 21:37 14.08.2019
3670 Thunderstorm 28 1016 88 10000 2.6 50 21:18 14.08.2019
3671 Thunderstorm 29 1016 70 10000 3.1 280 20:42 14.08.2019
3672 Thunderstorm 31 1016 70 10000 3.1 280 20:21 14.08.2019
3673 Thunderstorm 31 1016 70 10000 3.1 280 20:21 14.08.2019
3674 Thunderstorm 31 1016 70 10000 3.1 280 20:21 14.08.2019
3675 Thunderstorm 32 1017 66 10000 3.1 320 19:56 14.08.2019
3676 Clouds 30 1017 74 10000 3.6 40 19:38 14.08.2019
3677 Clouds 31 1017 62 10000 2.6 220 19:19 14.08.2019
3678 Clouds 31 1017 62 10000 2.6 220 18:57 14.08.2019
3679 Clouds 31 1017 62 10000 2.6 220 18:38 14.08.2019
3680 Clouds 31 1017 62 10000 2.6 220 18:19 14.08.2019
3681 Clouds 31 1017 66 10000 2.6 210 17:56 14.08.2019
3682 Clouds 31 1017 66 10000 2.6 210 17:36 14.08.2019
3683 Clouds 31 1017 66 10000 2.6 210 17:36 14.08.2019
3684 Clouds 31 1017 66 10000 2.6 210 17:18 14.08.2019
3685 Rain 29 1016 74 0 3.51 181.062 16:41 14.08.2019
3686 Rain 29 1016 74 0 3.51 181.062 16:20 14.08.2019
3687 Rain 29 1016 74 0 3.51 181.062 15:45 14.08.2019
3688 Clear 29 1017 74 10000 3.1 170 15:25 14.08.2019
3689 Clear 29 1017 74 10000 3.1 170 15:00 14.08.2019
3690 Clear 29 1017 74 10000 3.1 170 14:39 14.08.2019
3691 Clear 29 1017 74 10000 3.1 170 14:19 14.08.2019
3692 Clouds 27 1016 83 10000 1 0 13:55 14.08.2019
3693 Clouds 27 1016 83 10000 1 0 13:37 14.08.2019
3694 Clouds 27 1016 83 10000 1 0 13:19 14.08.2019
3695 Clouds 28 1015 78 10000 2.6 180 12:56 14.08.2019
3696 Clouds 28 1015 78 10000 2.6 180 12:37 14.08.2019
3697 Clouds 28 1015 78 10000 2.6 180 12:18 14.08.2019
3698 Thunderstorm 28 1016 78 10000 4.1 160 11:45 14.08.2019
3699 Thunderstorm 28 1016 78 10000 4.1 160 11:23 14.08.2019
3700 Clouds 27 1015 83 10000 3.1 160 10:56 14.08.2019
3701 Clouds 29 1013 75 0 5.79 153.222 10:37 14.08.2019
3702 Clouds 29 1013 75 0 5.79 153.222 10:37 14.08.2019
3703 Clouds 27 1015 83 10000 1.5 180 10:19 14.08.2019
3704 Clouds 27 1015 83 10000 1.5 180 09:42 14.08.2019
3705 Clouds 27 1015 83 10000 1.5 180 09:20 14.08.2019
3706 Clouds 28 1016 78 10000 1.5 220 08:43 14.08.2019
3707 Clouds 28 1016 78 10000 1.5 220 08:43 14.08.2019
3708 Clouds 28 1016 83 10000 1 0 08:25 14.08.2019
3709 Clouds 28 1016 83 10000 1 0 07:56 14.08.2019
3710 Clouds 28 1016 83 10000 1 0 07:35 14.08.2019
3711 Clouds 29 1017 79 10000 1.5 140 06:50 14.08.2019
3712 Clouds 29 1017 79 10000 1.5 140 06:28 14.08.2019
3713 Clouds 28 1016 78 10000 1.5 170 05:32 14.08.2019
3714 Clouds 28 1016 78 10000 1.5 200 03:52 14.08.2019
3715 Clouds 29 1015 74 10000 3.6 150 02:37 14.08.2019
3716 Clouds 30 1015 62 10000 3.6 160 01:59 14.08.2019
3717 Clouds 30 1015 62 10000 3.6 160 01:30 14.08.2019
3718 Clouds 31 1015 66 10000 4.1 180 00:25 14.08.2019
3719 Clouds 32 1015 66 10000 5.1 160 23:43 13.08.2019
3720 Clouds 33 1015 52 10000 4.1 170 23:19 13.08.2019
3721 Clouds 33 1015 52 10000 4.1 170 22:56 13.08.2019
3722 Clouds 33 1015 52 10000 4.1 170 22:56 13.08.2019
3723 Clouds 33 1015 52 10000 4.1 170 22:56 13.08.2019
3724 Clouds 33 1015 52 10000 4.1 170 22:38 13.08.2019
3725 Clouds 33 1015 52 10000 4.1 170 22:19 13.08.2019
3726 Clouds 32 1015 59 10000 4.1 160 21:54 13.08.2019
3727 Clouds 32 1015 59 10000 4.1 160 21:36 13.08.2019
3728 Clouds 32 1015 59 10000 4.1 160 21:18 13.08.2019
3729 Rain 31 1016 79 10000 1.5 240 20:42 13.08.2019
3730 Rain 30 1016 79 10000 1.5 240 20:19 13.08.2019
3731 Clouds 31 1016 74 10000 1 0 19:56 13.08.2019
3732 Clouds 30 1015 70 0 3.87 174.117 19:37 13.08.2019
3733 Clouds 30 1016 70 10000 3.1 230 19:19 13.08.2019
3734 Clouds 31 1016 70 10000 3.1 230 18:41 13.08.2019
3735 Clouds 31 1016 70 10000 3.1 230 18:22 13.08.2019
3736 Thunderstorm 31 1016 66 10000 6.2 200 17:44 13.08.2019
3737 Clouds 30 1016 79 10000 3.1 210 17:25 13.08.2019
3738 Clouds 31 1016 79 10000 3.1 210 16:59 13.08.2019
3739 Clouds 31 1016 79 10000 3.1 210 16:40 13.08.2019
3740 Clouds 30 1016 79 10000 3.1 210 16:21 13.08.2019
3741 Rain 30 1016 74 10000 5.1 170 15:59 13.08.2019
3742 Rain 30 1015 74 10000 3.6 210 15:38 13.08.2019
3743 Rain 30 1015 74 10000 3.6 210 15:19 13.08.2019
3744 Rain 30 1015 74 10000 3.6 210 14:45 13.08.2019
3745 Rain 30 1015 74 10000 3.6 210 14:20 13.08.2019
3746 Rain 28 1015 83 10000 3.1 210 13:58 13.08.2019
3747 Rain 28 1015 83 10000 3.1 210 13:40 13.08.2019
3748 Rain 27 1015 83 10000 3.1 210 13:20 13.08.2019
3749 Clouds 27 1014 88 10000 1.5 170 12:56 13.08.2019
3750 Clouds 27 1014 88 10000 1.5 170 12:38 13.08.2019
3751 Clouds 27 1014 88 10000 1.5 170 12:19 13.08.2019
3752 Clouds 27 1014 88 10000 2.6 160 11:42 13.08.2019
3753 Clouds 27 1014 88 10000 2.6 160 11:22 13.08.2019
3754 Clouds 27 1014 88 10000 2.6 160 10:57 13.08.2019
3755 Clouds 27 1014 88 10000 2.6 160 10:38 13.08.2019
3756 Clouds 27 1014 88 10000 2.6 160 10:19 13.08.2019
3757 Clouds 27 1014 94 10000 0.5 0 09:45 13.08.2019
3758 Clouds 27 1014 94 10000 0.5 0 09:24 13.08.2019
3759 Clouds 27 1015 88 10000 4.95 190.933 08:57 13.08.2019
3760 Clouds 27 1015 88 10000 4.95 190.933 08:39 13.08.2019
3761 Clouds 27 1015 88 10000 4.95 190.933 08:20 13.08.2019
3762 Clouds 27 1016 94 10000 0.5 0 07:42 13.08.2019
3763 Clouds 27 1016 94 10000 0.5 0 07:21 13.08.2019
3764 Clouds 27 1016 88 10000 2.6 150 06:43 13.08.2019
3765 Thunderstorm 28 1016 83 10000 2.1 160 05:47 13.08.2019
3766 Clouds 27 1016 88 10000 1 0 04:24 13.08.2019
3767 Rain 28 1015 83 10000 0.5 0 02:22 13.08.2019
3768 Rain 28 1015 83 10000 0.5 0 01:26 13.08.2019
3769 Rain 28 1015 83 10000 1 0 00:47 13.08.2019
3770 Rain 29 1015 79 10000 2.6 40 00:19 13.08.2019
3771 Thunderstorm 31 1015 70 10000 3.6 210 23:43 12.08.2019
3772 Thunderstorm 31 1015 70 10000 3.6 210 23:21 12.08.2019
3773 Clouds 32 1014 74 0 5 150.967 22:40 12.08.2019
3774 Clouds 32 1015 66 10000 2.6 110 22:20 12.08.2019
3775 Clouds 31 1015 66 10000 2.6 110 21:57 12.08.2019
3776 Clouds 31 1015 66 10000 2.6 110 21:38 12.08.2019
3777 Clouds 32 1015 66 10000 2.6 110 21:19 12.08.2019
3778 Thunderstorm 31 1019 70 10000 2.6 190 20:58 12.08.2019
3779 Thunderstorm 31 1019 70 10000 2.6 190 20:58 12.08.2019
3780 Clouds 32 1015 76 0 4.02 153.448 20:39 12.08.2019
3781 Thunderstorm 32 1016 66 10000 4.1 170 20:20 12.08.2019
3782 Thunderstorm 32 1016 66 10000 4.1 170 19:57 12.08.2019
3783 Clouds 30 1015 80 0 4.02 153.448 19:38 12.08.2019
3784 Clouds 31 1016 62 10000 3.6 160 19:20 12.08.2019
3785 Clouds 31 1016 62 10000 3.6 160 18:56 12.08.2019
3786 Clouds 31 1016 62 10000 3.6 160 18:37 12.08.2019
3787 Clouds 31 1016 62 10000 3.6 160 18:19 12.08.2019
3788 Clouds 32 1016 62 10000 3.1 180 17:47 12.08.2019
3789 Clouds 32 1016 66 10000 3.1 210 17:28 12.08.2019
3790 Clouds 31 1016 66 10000 3.1 210 16:58 12.08.2019
3791 Clouds 32 1015 70 0 2.38 170.925 16:39 12.08.2019
3792 Clouds 32 1015 70 0 2.38 170.925 16:39 12.08.2019
3793 -273 0 0 0 0 0 16:20 12.08.2019
3794 Clouds 31 1016 70 10000 3.1 180 15:59 12.08.2019
3795 Clouds 31 1016 70 10000 3.1 180 15:41 12.08.2019
3796 Clouds 32 1015 69 0 2.38 170.925 15:39 12.08.2019
3797 Thunderstorm 29 1015 79 10000 1.5 180 15:20 12.08.2019
3798 -273 0 0 0 0 0 14:55 12.08.2019
3799 Clouds 31 1015 75 0 3.88 168.942 14:37 12.08.2019
3800 Clouds 29 1015 88 10000 3.88 168.942 14:18 12.08.2019
3801 Clouds 28 1015 88 10000 3.88 168.942 13:42 12.08.2019
3802 Clouds 27 1015 88 10000 3.86 169.726 13:23 12.08.2019
3803 Clouds 29 1015 70 0 3.86 169.726 12:44 12.08.2019
3804 Clouds 27 1015 88 10000 0.5 0 12:22 12.08.2019
3805 Clouds 27 1015 88 10000 0.5 0 11:56 12.08.2019
3806 Clouds 27 1015 88 10000 0.5 0 11:38 12.08.2019
3807 Clouds 27 1015 88 10000 0.5 0 11:19 12.08.2019
3808 Clouds 27 1015 88 10000 0.5 0 10:41 12.08.2019
3809 Clouds 27 1015 88 10000 0.5 0 10:23 12.08.2019
3810 Clouds 27 1015 83 10000 1 0 09:56 12.08.2019
3811 Clouds 27 1015 83 10000 1 0 09:37 12.08.2019
3812 Clouds 27 1015 83 10000 1 0 09:18 12.08.2019
3813 Thunderstorm 28 1016 83 10000 1 0 08:42 12.08.2019
3814 Thunderstorm 28 1016 83 10000 1 0 08:24 12.08.2019
3815 Clouds 27 1015 85 0 3.52 160.555 07:57 12.08.2019
3816 Clouds 27 1015 85 0 3.52 160.555 07:39 12.08.2019
3817 Clouds 28 1017 83 10000 1.5 170 07:19 12.08.2019
3818 Clouds 28 1017 83 10000 1.5 170 06:42 12.08.2019
3819 Thunderstorm 28 1017 83 10000 1.5 210 04:40 12.08.2019
3820 Clouds 29 1016 79 10000 1 0 02:43 12.08.2019
3821 Clouds 30 1016 74 10000 1.5 300 01:49 12.08.2019
3822 Clouds 30 1016 74 10000 1.5 300 01:19 12.08.2019
3823 Clouds 30 1016 74 10000 2.6 330 00:56 12.08.2019
3824 Clouds 30 1016 74 10000 2.6 330 00:37 12.08.2019
3825 Clouds 30 1016 74 10000 2.6 330 00:18 12.08.2019
3826 Clouds 32 1016 59 10000 2.6 220 23:41 11.08.2019
3827 Clouds 33 1016 59 10000 2.6 220 23:20 11.08.2019
3828 Clouds 33 1016 55 10000 2.1 200 22:57 11.08.2019
3829 Clouds 32 1016 55 10000 2.1 200 22:38 11.08.2019
3830 Clouds 32 1016 55 10000 2.1 200 22:18 11.08.2019
3831 Clouds 32 1017 52 10000 2.1 220 21:56 11.08.2019
3832 Clouds 33 1017 52 10000 2.1 220 21:38 11.08.2019
3833 Clouds 33 1017 52 10000 2.1 220 21:19 11.08.2019
3834 Thunderstorm 32 1017 62 10000 4.1 190 20:44 11.08.2019
3835 Thunderstorm 32 1017 62 10000 4.1 190 20:23 11.08.2019
3836 Thunderstorm 31 1018 70 10000 4.1 200 19:56 11.08.2019
3837 Clouds 31 1018 62 10000 4.1 200 19:37 11.08.2019
3838 Clouds 31 1018 62 10000 4.1 200 19:18 11.08.2019
3839 Clouds 31 1018 62 10000 4.1 200 18:40 11.08.2019
3840 Clouds 31 1018 62 10000 4.1 200 18:20 11.08.2019
3841 Clouds 32 1018 62 10000 3.1 200 17:54 11.08.2019
3842 Clouds 32 1018 62 10000 3.1 200 17:36 11.08.2019
3843 Clouds 32 1018 62 10000 3.1 200 17:18 11.08.2019
3844 Clouds 30 1018 70 10000 4.1 200 16:40 11.08.2019
3845 Clouds 30 1018 70 10000 4.1 200 16:22 11.08.2019
3846 Clouds 31 1017 74 10000 4.1 190 15:57 11.08.2019
3847 Clouds 30 1017 74 10000 4.1 190 15:39 11.08.2019
3848 Clouds 30 1017 74 10000 4.1 190 15:21 11.08.2019
3849 Clouds 28 1017 83 10000 1.5 190 14:54 11.08.2019
3850 Clouds 28 1017 83 10000 1.5 190 14:36 11.08.2019
3851 Clouds 28 1017 83 10000 1.5 190 14:18 11.08.2019
3852 Clouds 27 1016 94 10000 1.5 190 13:41 11.08.2019
3853 Clouds 26 1016 94 10000 1.5 190 13:22 11.08.2019
3854 Clouds 26 1016 94 10000 5.11 178.487 12:41 11.08.2019
3855 Clouds 26 1016 94 10000 5.42 173.273 12:22 11.08.2019
3856 Clouds 27 1016 94 10000 1 0 11:41 11.08.2019
3857 Clouds 27 1016 94 10000 1 0 11:22 11.08.2019
3858 Clouds 27 1016 88 10000 0.5 0 10:56 11.08.2019
3859 Clouds 27 1016 88 10000 0.5 0 10:38 11.08.2019
3860 Clouds 27 1016 88 10000 0.5 0 10:19 11.08.2019
3861 Clouds 27 1016 88 10000 0.5 0 09:54 11.08.2019
3862 Clouds 27 1016 88 10000 0.5 0 09:36 11.08.2019
3863 Clouds 27 1016 88 10000 0.5 0 09:36 11.08.2019
3864 Clouds 27 1016 88 10000 0.5 0 09:18 11.08.2019
3865 Clouds 27 1016 88 10000 1 0 08:40 11.08.2019
3866 Clouds 27 1016 88 10000 1 0 08:21 11.08.2019
3867 Clouds 27 1017 88 10000 1.5 220 07:43 11.08.2019
3868 Clouds 27 1017 88 10000 1.5 220 07:18 11.08.2019
3869 Clouds 27 1017 88 10000 1.5 210 06:37 11.08.2019
3870 Clouds 27 1017 88 10000 2.6 170 05:19 11.08.2019
3871 Rain 27 1016 94 10000 2.1 230 02:54 11.08.2019
3872 Rain 28 1016 88 10000 1 0 02:25 11.08.2019
3873 Rain 29 1016 88 10000 1 0 01:32 11.08.2019
3874 Rain 29 1016 88 10000 2.1 150 00:56 11.08.2019
3875 Rain 29 1016 88 10000 2.1 150 00:36 11.08.2019
3876 Rain 30 1016 79 10000 1.65 172.346 23:57 10.08.2019
3877 Rain 31 1015 72 0 1.65 172.346 23:37 10.08.2019
3878 Rain 31 1015 73 0 1.65 172.346 23:18 10.08.2019
3879 Clouds 31 1015 70 10000 4.6 110 22:38 10.08.2019
3880 Clouds 31 1015 70 10000 4.6 110 22:20 10.08.2019
3881 Clouds 30 1016 66 10000 4.6 120 21:41 10.08.2019
3882 Rain 30 1016 66 10000 4.6 120 21:22 10.08.2019
3883 Rain 30 1016 66 10000 4.6 120 21:22 10.08.2019
3884 Rain 29 1016 59 10000 2.6 290 20:59 10.08.2019
3885 Rain 29 1016 59 10000 2.6 290 20:59 10.08.2019
3886 Clouds 30 1016 70 0 3.23 148.869 20:40 10.08.2019
3887 Clouds 30 1017 66 10000 2.6 260 20:20 10.08.2019
3888 Clouds 30 1017 66 10000 2.6 260 19:54 10.08.2019
3889 Clouds 30 1017 66 10000 2.6 260 19:36 10.08.2019
3890 Clouds 31 1017 66 10000 2.6 260 19:18 10.08.2019
3891 Clouds 32 1017 62 10000 2.6 240 18:38 10.08.2019
3892 Clouds 32 1017 62 10000 2.6 240 18:20 10.08.2019
3893 Clouds 31 1017 70 10000 3.6 230 17:40 10.08.2019
3894 Clouds 31 1017 70 10000 3.6 230 17:21 10.08.2019
3895 Clouds 31 1017 66 10000 2.6 200 16:43 10.08.2019
3896 Clouds 31 1017 66 10000 2.6 200 16:25 10.08.2019
3897 Clouds 31 1016 74 10000 3.1 210 15:51 10.08.2019
3898 Clouds 31 1016 74 10000 3.1 210 15:22 10.08.2019
3899 Clouds 31 1015 75 0 3.98 180.144 14:44 10.08.2019
3900 Clouds 28 1016 88 10000 1.5 200 14:21 10.08.2019
3901 Clouds 27 1016 88 10000 1.5 200 13:41 10.08.2019
3902 Clouds 26 1016 88 10000 1.5 200 13:20 10.08.2019
3903 Clouds 29 1015 74 0 4.6 190.304 12:55 10.08.2019
3904 Clouds 29 1015 74 0 4.6 190.304 12:37 10.08.2019
3905 Clouds 26 1016 88 10000 1 0 12:19 10.08.2019
3906 Clouds 26 1016 88 10000 1 0 11:42 10.08.2019
3907 Clouds 26 1016 88 10000 1 0 11:22 10.08.2019
3908 Clouds 26 1015 86 0 1.8 180.479 10:56 10.08.2019
3909 Clouds 26 1015 86 0 1.8 180.479 10:37 10.08.2019
3910 Clouds 27 1015 86 0 1.8 180.479 10:19 10.08.2019
3911 Clouds 27 1015 85 0 1.8 180.479 09:42 10.08.2019
3912 Clouds 27 1016 83 10000 1.5 160 09:23 10.08.2019
3913 Clouds 27 1016 83 10000 1.5 160 08:42 10.08.2019
3914 Clouds 27 1017 88 10000 1 0 08:22 10.08.2019
3915 Clouds 27 1017 88 10000 1 0 07:54 10.08.2019
3916 Clouds 27 1017 88 10000 1 0 07:29 10.08.2019
3917 Clouds 27 1017 88 10000 1 0 07:29 10.08.2019
3918 Clouds 27 1017 88 10000 1 0 06:49 10.08.2019
3919 Clouds 27 1016 86 0 2.27 165.332 06:30 10.08.2019
3920 Clouds 28 1017 83 10000 1.5 190 05:28 10.08.2019
3921 Clouds 28 1017 83 10000 1.5 190 04:53 10.08.2019
3922 Clouds 29 1017 70 10000 1 0 03:26 10.08.2019
3923 Clouds 29 1016 70 10000 1.5 30 02:28 10.08.2019
3924 Clouds 30 1016 70 10000 2.1 10 01:43 10.08.2019
3925 Clouds 30 1016 70 10000 2.1 10 01:23 10.08.2019
3926 Clouds 31 1016 66 10000 2.6 360 00:49 10.08.2019
3927 Clouds 31 1016 66 10000 2.6 360 00:25 10.08.2019
3928 Clouds 31 1015 66 10000 3.1 350 23:57 09.08.2019
3929 Clouds 31 1015 66 10000 3.1 350 23:36 09.08.2019
3930 Clouds 31 1015 66 10000 3.1 350 23:18 09.08.2019
3931 Clouds 31 1016 66 10000 4.1 330 22:40 09.08.2019
3932 Clouds 31 1016 66 10000 4.1 330 22:40 09.08.2019
3933 Clouds 31 1016 66 10000 4.1 330 22:22 09.08.2019
3934 Thunderstorm 31 1016 66 10000 4.1 300 21:57 09.08.2019
3935 Thunderstorm 31 1016 66 10000 4.1 300 21:39 09.08.2019
3936 Thunderstorm 31 1016 66 10000 4.1 300 21:20 09.08.2019
3937 Clouds 32 1017 62 10000 3.1 300 20:56 09.08.2019
3938 Clouds 32 1016 69 0 1.34 186.44 20:37 09.08.2019
3939 Clouds 31 1017 79 10000 3.6 300 20:18 09.08.2019
3940 Clouds 31 1017 79 10000 3.6 300 19:41 09.08.2019
3941 Clouds 30 1017 79 10000 3.6 300 19:22 09.08.2019
3942 Clouds 29 1018 83 10000 1.5 270 18:42 09.08.2019
3943 Clouds 29 1018 83 10000 1.5 270 18:23 09.08.2019
3944 Clouds 28 1017 88 10000 1.5 210 17:59 09.08.2019
3945 Clouds 28 1017 88 10000 1.5 210 17:41 09.08.2019
3946 Rain 28 1016 86 0 4.67 218.972 17:22 09.08.2019
3947 Clouds 28 1017 79 10000 3.1 260 16:42 09.08.2019
3948 Clouds 28 1017 79 10000 3.1 260 16:24 09.08.2019
3949 Clouds 28 1016 83 10000 2.6 240 15:58 09.08.2019
3950 Clouds 28 1016 83 10000 2.6 240 15:39 09.08.2019
3951 Clouds 28 1016 83 10000 2.6 240 15:20 09.08.2019
3952 Clouds 28 1016 88 10000 1.5 210 14:56 09.08.2019
3953 Clouds 28 1016 88 10000 1.5 210 14:37 09.08.2019
3954 Clouds 28 1016 88 10000 1.5 210 14:19 09.08.2019
3955 Thunderstorm 27 1015 88 10000 1.5 220 13:44 09.08.2019
3956 Clouds 27 1015 88 10000 1 0 13:20 09.08.2019
3957 Clouds 27 1015 88 10000 1 0 12:47 09.08.2019
3958 Clouds 27 1015 88 10000 1 0 12:24 09.08.2019
3959 Clouds 27 1015 88 10000 0.5 0 11:59 09.08.2019
3960 Clouds 27 1015 88 10000 0.5 0 11:38 09.08.2019
3961 Clouds 27 1015 88 10000 0.5 0 11:19 09.08.2019
3962 Clouds 27 1015 83 10000 2.6 130 10:41 09.08.2019
3963 Clouds 27 1015 83 10000 2.6 130 10:22 09.08.2019
3964 Clouds 27 1016 83 10000 3.1 130 09:46 09.08.2019
3965 Clouds 27 1016 83 10000 3.1 130 09:20 09.08.2019
3966 Clouds 27 1017 83 10000 2.6 160 08:59 09.08.2019
3967 Clouds 27 1017 83 10000 2.6 160 08:40 09.08.2019
3968 Clouds 27 1017 83 10000 2.6 160 08:21 09.08.2019
3969 Clouds 27 1017 83 10000 2.6 150 07:53 09.08.2019
3970 Clouds 27 1017 83 10000 2.6 150 07:24 09.08.2019
3971 Thunderstorm 27 1018 88 10000 3.6 110 06:56 09.08.2019
3972 Thunderstorm 27 1018 88 10000 3.6 110 06:33 09.08.2019
3973 Thunderstorm 28 1018 78 10000 3.6 90 05:58 09.08.2019
3974 Rain 29 1018 79 10000 2.6 110 04:22 09.08.2019
3975 Clouds 30 1016 79 10000 2.6 10 02:18 09.08.2019
3976 Rain 31 1016 74 10000 3.1 40 00:49 09.08.2019
3977 Rain 31 1016 74 10000 3.1 40 00:26 09.08.2019
3978 Clouds 32 1016 70 10000 2.6 70 23:59 08.08.2019
3979 Clouds 32 1016 70 10000 2.6 70 23:38 08.08.2019
3980 Clouds 31 1016 70 10000 2.6 70 23:19 08.08.2019
3981 Clouds 33 1016 59 10000 3.06 145.349 22:58 08.08.2019
3982 Clouds 33 1016 59 10000 3.06 145.349 22:37 08.08.2019
3983 Clouds 33 1016 59 10000 3.06 145.349 22:37 08.08.2019
3984 Clouds 32 1016 59 10000 3.06 145.349 22:18 08.08.2019
3985 Clouds 32 1017 59 10000 3.1 210 21:57 08.08.2019
3986 Clouds 33 1017 59 10000 3.1 210 21:39 08.08.2019
3987 Clouds 33 1017 59 10000 3.1 210 21:20 08.08.2019
3988 Clouds 33 1017 59 10000 1.59 134.77 20:42 08.08.2019
3989 Clouds 33 1017 59 10000 1.59 134.77 20:22 08.08.2019
3990 Clouds 32 1018 66 10000 4.1 200 19:59 08.08.2019
3991 Clouds 32 1018 66 10000 4.1 200 19:40 08.08.2019
3992 Clouds 32 1018 66 10000 4.1 200 19:20 08.08.2019
3993 Clouds 32 1018 66 10000 3.6 210 18:41 08.08.2019
3994 Clouds 32 1018 66 10000 3.6 210 18:22 08.08.2019
3995 Clouds 31 1018 66 10000 3.6 210 17:55 08.08.2019
3996 Clouds 31 1018 66 10000 3.6 210 17:36 08.08.2019
3997 Clouds 32 1018 66 10000 3.6 210 17:18 08.08.2019
3998 Clouds 31 1018 70 10000 3.6 220 16:42 08.08.2019
3999 Clouds 31 1018 70 10000 3.6 220 16:42 08.08.2019
4000 Clouds 31 1018 70 10000 3.6 220 16:24 08.08.2019
4001 Clouds 30 1017 79 10000 3.1 230 15:58 08.08.2019
4002 Clouds 30 1017 79 10000 3.1 230 15:39 08.08.2019
4003 Clouds 29 1017 79 10000 3.1 230 15:20 08.08.2019
4004 Clouds 29 1017 83 10000 3.1 210 14:41 08.08.2019
4005 Clouds 29 1017 83 10000 3.1 210 14:22 08.08.2019
4006 Clouds 28 1016 83 10000 2.6 200 13:57 08.08.2019
4007 Clouds 28 1016 83 10000 2.6 200 13:37 08.08.2019
4008 Clouds 28 1016 83 10000 2.6 200 13:18 08.08.2019
4009 Clouds 28 1016 83 10000 2.1 190 12:39 08.08.2019
4010 Clouds 28 1016 83 10000 2.1 190 12:19 08.08.2019
4011 Clouds 28 1016 83 10000 2.1 190 12:19 08.08.2019
4012 Clouds 28 1016 88 10000 2.1 180 11:47 08.08.2019
4013 Clouds 28 1016 88 10000 2.1 180 11:26 08.08.2019
4014 Clouds 28 1016 83 10000 1.5 110 10:57 08.08.2019
4015 Clouds 28 1016 83 10000 1.5 110 10:57 08.08.2019
4016 Clouds 28 1016 83 10000 1.5 110 10:57 08.08.2019
4017 Clouds 28 1016 83 10000 1.5 110 10:39 08.08.2019
4018 Clouds 28 1016 83 10000 1.5 110 10:20 08.08.2019
4019 Clouds 28 1016 83 10000 2.1 140 09:43 08.08.2019
4020 Clouds 28 1016 83 10000 2.1 140 09:23 08.08.2019
4021 Clouds 28 1016 83 10000 1.5 160 08:54 08.08.2019
4022 Clouds 28 1017 83 10000 1.5 170 08:36 08.08.2019
4023 Clouds 28 1017 83 10000 1.5 170 08:18 08.08.2019
4024 Clouds 27 1017 83 10000 1.5 170 07:39 08.08.2019
4025 Clouds 27 1017 83 10000 1.5 170 07:19 08.08.2019
4026 Clouds 28 1018 78 10000 2.1 150 06:46 08.08.2019
4027 Clouds 28 1018 78 10000 2.1 150 06:18 08.08.2019
4028 Rain 28 1017 80 0 5.38 139.674 05:42 08.08.2019
4029 Clouds 29 1018 74 10000 4.1 140 04:39 08.08.2019
4030 Rain 28 1017 78 0 5.38 139.674 03:48 08.08.2019
4031 Clouds 29 1016 70 10000 3.1 150 01:59 08.08.2019
4032 Clouds 30 1016 70 10000 3.1 150 01:20 08.08.2019
4033 Clouds 30 1016 70 10000 3.1 160 00:25 08.08.2019
4034 Rain 32 1015 74 0 5.25 122.157 23:41 07.08.2019
4035 Thunderstorm 31 1016 70 10000 3.6 140 23:19 07.08.2019
4036 Thunderstorm 31 1016 70 10000 3.6 140 22:42 07.08.2019
4037 Thunderstorm 31 1016 70 10000 3.6 140 22:21 07.08.2019
4038 Clouds 32 1017 55 10000 3.6 140 21:59 07.08.2019
4039 Clouds 32 1017 55 10000 3.6 140 21:40 07.08.2019
4040 Clouds 32 1017 55 10000 3.6 140 21:40 07.08.2019
4041 Clouds 32 1017 55 10000 3.6 140 21:21 07.08.2019
4042 Thunderstorm 32 1018 66 10000 4.6 180 20:59 07.08.2019
4043 Thunderstorm 32 1018 66 10000 4.6 180 20:41 07.08.2019
4044 Thunderstorm 32 1018 66 10000 4.6 180 20:22 07.08.2019
4045 Rain 29 1017 74 0 3.76 142.889 19:56 07.08.2019
4046 Clouds 31 1018 74 10000 4.1 210 19:37 07.08.2019
4047 Rain 33 1017 69 0 3.76 142.889 19:37 07.08.2019
4048 Clouds 30 1018 74 10000 4.1 210 19:18 07.08.2019
4049 Clouds 30 1018 74 10000 4.1 210 18:40 07.08.2019
4050 Clouds 30 1018 74 10000 4.1 210 18:20 07.08.2019
4051 Rain 30 1018 74 10000 6.2 190 17:56 07.08.2019
4052 Rain 30 1018 74 10000 6.2 190 17:56 07.08.2019
4053 Rain 31 1018 74 10000 6.2 190 17:38 07.08.2019
4054 Rain 31 1018 74 10000 6.2 190 17:19 07.08.2019
4055 Rain 32 1018 66 10000 6.2 160 16:56 07.08.2019
4056 Rain 32 1018 66 10000 6.2 160 16:56 07.08.2019
4057 Rain 32 1018 66 10000 6.2 160 16:56 07.08.2019
4058 Rain 32 1018 66 10000 6.2 160 16:56 07.08.2019
4059 Rain 32 1018 66 10000 6.2 160 16:37 07.08.2019
4060 Rain 32 1018 66 10000 6.2 160 16:19 07.08.2019
4061 Rain 31 1018 70 10000 6.2 150 15:42 07.08.2019
4062 Rain 31 1018 70 10000 6.2 150 15:20 07.08.2019
4063 Thunderstorm 30 1017 79 10000 4.1 150 14:49 07.08.2019
4064 Thunderstorm 30 1017 79 10000 4.1 150 14:30 07.08.2019
4065 Rain 28 1017 83 10000 3.6 150 13:58 07.08.2019
4066 Rain 28 1017 83 10000 3.6 150 13:39 07.08.2019
4067 Rain 28 1017 83 10000 3.6 150 13:19 07.08.2019
4068 Rain 28 1016 83 10000 4.1 150 12:57 07.08.2019
4069 Rain 28 1016 83 10000 4.1 150 12:38 07.08.2019
4070 Rain 28 1016 83 10000 4.1 150 12:19 07.08.2019
4071 Thunderstorm 28 1016 83 10000 4.1 150 11:55 07.08.2019
4072 Thunderstorm 28 1016 83 10000 4.1 150 11:36 07.08.2019
4073 Thunderstorm 28 1016 83 10000 4.1 150 11:18 07.08.2019
4074 Clouds 29 1016 79 10000 3.6 150 10:40 07.08.2019
4075 Clouds 29 1016 79 10000 3.6 150 10:19 07.08.2019
4076 Clouds 28 1016 83 10000 4.6 150 09:46 07.08.2019
4077 Clouds 28 1016 83 10000 4.6 150 09:46 07.08.2019
4078 Clouds 28 1016 83 10000 4.6 150 09:23 07.08.2019
4079 Clouds 29 1016 74 10000 4.1 160 08:59 07.08.2019
4080 Clouds 29 1016 74 10000 4.1 160 08:41 07.08.2019
4081 Clouds 29 1016 74 10000 4.1 160 08:23 07.08.2019
4082 Clouds 29 1016 74 10000 5.7 150 07:43 07.08.2019
4083 Clouds 29 1016 74 10000 5.7 150 07:21 07.08.2019
4084 Clouds 29 1017 74 10000 5.1 140 06:40 07.08.2019
4085 Clouds 29 1017 74 10000 4.1 140 05:59 07.08.2019
4086 Clouds 29 1018 74 10000 2.1 120 04:58 07.08.2019
4087 Clouds 29 1018 74 10000 1 0 03:21 07.08.2019
4088 Thunderstorm 29 1017 70 10000 2.6 120 02:50 07.08.2019
4089 Thunderstorm 29 1017 70 10000 2.6 120 02:22 07.08.2019
4090 Clouds 30 1017 70 10000 5.1 120 01:42 07.08.2019
4091 Clouds 30 1017 66 10000 5.1 120 00:51 07.08.2019
4092 Clouds 30 1017 66 10000 5.1 120 00:22 07.08.2019
4093 Clouds 31 1017 70 10000 4.6 150 23:44 06.08.2019
4094 Clouds 31 1017 70 10000 4.6 150 23:22 06.08.2019
4095 Thunderstorm 31 1017 66 10000 4.1 170 22:58 06.08.2019
4096 Clouds 31 1016 70 0 3.55 126.039 22:38 06.08.2019
4097 Thunderstorm 32 1017 70 10000 5.1 170 22:20 06.08.2019
4098 Thunderstorm 31 1017 70 10000 5.1 170 21:43 06.08.2019
4099 Clouds 32 1016 72 0 4.96 148.52 21:25 06.08.2019
4100 Clouds 32 1016 71 0 4.96 148.52 20:58 06.08.2019
4101 Clouds 32 1016 71 0 3.83 162.411 20:40 06.08.2019
4102 Clouds 31 1017 66 10000 5.7 180 20:21 06.08.2019
4103 Clouds 32 1017 66 10000 5.7 180 19:43 06.08.2019
4104 Clouds 31 1017 66 10000 6.7 170 19:25 06.08.2019
4105 Clouds 32 1017 66 10000 6.7 170 18:48 06.08.2019
4106 Clouds 31 1017 66 10000 6.7 170 18:29 06.08.2019
4107 Thunderstorm 30 1017 70 10000 7.2 180 17:59 06.08.2019
4108 Thunderstorm 30 1017 70 10000 7.2 180 17:40 06.08.2019
4109 Thunderstorm 31 1017 70 10000 7.2 180 17:21 06.08.2019
4110 Clouds 31 1017 70 10000 6.7 170 16:59 06.08.2019
4111 Clouds 31 1017 70 10000 6.7 170 16:39 06.08.2019
4112 Clouds 31 1017 70 10000 6.7 170 16:20 06.08.2019
4113 Clouds 31 1017 70 10000 7.7 160 15:57 06.08.2019
4114 Clouds 31 1017 70 10000 7.7 160 15:57 06.08.2019
4115 Clouds 31 1017 70 10000 7.7 160 15:38 06.08.2019
4116 Clouds 30 1017 70 10000 7.7 160 15:19 06.08.2019
4117 Clouds 30 1017 74 10000 4.6 170 14:44 06.08.2019
4118 Clouds 29 1017 74 10000 4.6 170 14:25 06.08.2019
4119 Clouds 28 1016 78 10000 5.7 160 13:58 06.08.2019
4120 Clouds 28 1016 78 10000 5.7 160 13:38 06.08.2019
4121 Clouds 28 1016 78 10000 5.7 160 13:20 06.08.2019
4122 Clouds 28 1016 83 10000 4.6 170 12:56 06.08.2019
4123 Clouds 28 1016 83 10000 4.6 170 12:56 06.08.2019
4124 Clouds 28 1016 83 10000 4.6 170 12:56 06.08.2019
4125 Clouds 28 1016 83 10000 4.6 170 12:38 06.08.2019
4126 Clouds 28 1016 83 10000 4.6 170 12:19 06.08.2019
4127 Clouds 28 1016 88 10000 2.6 170 11:41 06.08.2019
4128 -273 0 0 0 0 0 11:18 06.08.2019
4129 Clouds 28 1016 88 10000 2.6 170 11:18 06.08.2019
4130 Clouds 28 1017 88 10000 1 0 10:41 06.08.2019
4131 Clouds 28 1017 88 10000 1 0 10:22 06.08.2019
4132 Clouds 28 1018 83 10000 2.6 160 09:49 06.08.2019
4133 Clouds 28 1018 83 10000 2.6 160 09:24 06.08.2019
4134 Clouds 28 1018 88 10000 3.1 150 08:57 06.08.2019
4135 Clouds 28 1018 88 10000 3.1 150 08:38 06.08.2019
4136 Clouds 28 1018 88 10000 3.1 150 08:38 06.08.2019
4137 Clouds 28 1018 88 10000 3.1 150 08:20 06.08.2019
4138 Clouds 28 1018 88 10000 2.6 160 07:36 06.08.2019
4139 Clouds 28 1018 88 10000 1.5 130 06:51 06.08.2019
4140 Clouds 28 1018 88 10000 1.5 130 06:29 06.08.2019
4141 Rain 28 1017 81 0 6.06 130.84 05:47 06.08.2019
4142 Rain 28 1017 78 10000 2.6 120 02:59 06.08.2019
4143 Rain 28 1017 83 10000 1.5 250 01:46 06.08.2019
4144 Rain 29 1017 83 10000 1.5 250 01:22 06.08.2019
4145 Clouds 30 1017 66 10000 3.1 50 00:29 06.08.2019
4146 Rain 31 1017 74 10000 3.6 30 23:40 05.08.2019
4147 Rain 31 1017 74 10000 3.6 30 23:18 05.08.2019
4148 Rain 32 1017 66 10000 2.6 180 22:40 05.08.2019
4149 Rain 31 1017 66 10000 2.6 180 22:22 05.08.2019
4150 Rain 31 1017 66 10000 2.6 180 22:22 05.08.2019
4151 Rain 32 1017 55 10000 2.6 160 21:43 05.08.2019
4152 Rain 31 1017 55 10000 2.6 160 21:21 05.08.2019
4153 Clouds 31 1018 70 10000 2.6 220 20:59 05.08.2019
4154 Rain 33 1016 67 0 5.07 151.098 20:40 05.08.2019
4155 Clouds 32 1018 70 10000 4.1 200 20:22 05.08.2019
4156 Clouds 32 1018 70 10000 4.1 200 19:59 05.08.2019
4157 Clouds 31 1018 70 10000 4.1 200 19:38 05.08.2019
4158 Clouds 31 1018 70 10000 4.1 200 19:20 05.08.2019
4159 Rain 31 1018 74 10000 4.1 190 18:42 05.08.2019
4160 Rain 30 1018 74 10000 4.1 190 18:21 05.08.2019
4161 Clouds 30 1018 83 10000 1 0 17:56 05.08.2019
4162 Clouds 30 1018 83 10000 1 0 17:38 05.08.2019
4163 Clouds 30 1018 83 10000 1 0 17:20 05.08.2019
4164 Rain 28 1018 83 10000 3.6 90 16:42 05.08.2019
4165 Rain 27 1017 88 10000 5.1 100 16:23 05.08.2019
4166 Rain 27 1017 88 10000 5.1 100 15:43 05.08.2019
4167 Rain 28 1017 88 10000 5.1 100 15:20 05.08.2019
4168 Rain 27 1017 83 10000 3.1 190 14:42 05.08.2019
4169 Rain 27 1017 83 10000 3.1 190 14:42 05.08.2019
4170 Rain 27 1017 83 10000 3.1 190 14:42 05.08.2019
4171 Rain 27 1016 83 10000 3.6 180 14:23 05.08.2019
4172 Clouds 28 1016 83 10000 3.6 180 13:50 05.08.2019
4173 Clouds 28 1016 83 10000 3.6 180 13:50 05.08.2019
4174 Clouds 28 1016 83 10000 3.6 180 13:24 05.08.2019
4175 Clouds 28 1016 83 10000 3.6 160 12:59 05.08.2019
4176 Clouds 28 1016 83 10000 3.6 160 12:41 05.08.2019
4177 Clouds 28 1016 83 10000 3.6 160 12:18 05.08.2019
4178 Clouds 28 1016 83 10000 4.1 160 11:43 05.08.2019
4179 Clouds 28 1016 83 10000 4.1 160 11:25 05.08.2019
4180 Clouds 28 1016 83 10000 3.6 150 10:47 05.08.2019
4181 Clouds 28 1016 83 10000 3.6 150 10:28 05.08.2019
4182 Rain 28 1017 78 10000 2.6 130 09:56 05.08.2019
4183 Rain 28 1017 78 10000 2.6 130 09:56 05.08.2019
4184 Rain 28 1017 78 10000 2.6 130 09:56 05.08.2019
4185 Rain 28 1017 78 10000 2.6 130 09:37 05.08.2019
4186 Rain 28 1017 78 10000 2.6 130 09:19 05.08.2019
4187 Rain 28 1017 78 10000 4.1 140 08:43 05.08.2019
4188 Rain 28 1017 78 10000 4.1 140 08:23 05.08.2019
4189 Rain 28 1018 78 10000 3.1 140 07:47 05.08.2019
4190 Rain 28 1018 78 10000 3.1 140 07:27 05.08.2019
4191 Rain 28 1019 79 10000 2.6 120 06:51 05.08.2019
4192 Rain 29 1019 79 10000 2.6 130 05:53 05.08.2019
4193 Rain 29 1019 79 10000 2.6 130 05:22 05.08.2019
4194 Clouds 29 1018 79 10000 3.1 110 04:35 05.08.2019
4195 Clear 29 1017 80 0 4.23 127.648 03:47 05.08.2019
4196 Rain 29 1016 80 0 3.44 112.042 02:37 05.08.2019
4197 Clouds 30 1017 74 10000 2.6 30 01:40 05.08.2019
4198 Clouds 30 1017 74 10000 2.6 30 01:40 05.08.2019
4199 Clouds 30 1017 74 10000 2.6 30 01:40 05.08.2019
4200 Clouds 31 1017 70 10000 1.5 320 00:54 05.08.2019
4201 Clouds 31 1017 70 10000 1.5 320 00:36 05.08.2019
4202 Clouds 31 1017 70 10000 1.5 320 00:18 05.08.2019
4203 Clouds 31 1016 72 0 4.92 109.205 23:41 04.08.2019
4204 Clouds 31 1017 66 10000 2.6 160 23:20 04.08.2019
4205 Clouds 32 1017 66 10000 2.6 160 22:56 04.08.2019
4206 Clouds 32 1017 66 10000 2.6 160 22:37 04.08.2019
4207 Clouds 31 1017 66 10000 2.6 160 22:19 04.08.2019
4208 Clouds 32 1017 62 10000 3.1 190 21:44 04.08.2019
4209 Clouds 32 1017 62 10000 3.1 190 21:22 04.08.2019
4210 Clouds 32 1017 66 10000 3.1 200 20:56 04.08.2019
4211 Clouds 32 1017 66 10000 3.1 200 20:37 04.08.2019
4212 Clouds 32 1017 66 10000 3.1 200 20:37 04.08.2019
4213 Clouds 32 1017 66 10000 3.1 200 20:18 04.08.2019
4214 Clouds 32 1018 70 10000 4.1 220 19:42 04.08.2019
4215 Clouds 32 1018 70 10000 4.1 220 19:24 04.08.2019
4216 Clouds 31 1018 74 10000 4.6 220 18:42 04.08.2019
4217 Clouds 31 1018 74 10000 4.6 220 18:21 04.08.2019
4218 Clouds 31 1018 74 10000 4.6 200 17:54 04.08.2019
4219 Clouds 31 1018 74 10000 4.6 200 17:36 04.08.2019
4220 Clouds 31 1018 74 10000 4.6 200 17:18 04.08.2019
4221 Rain 29 1018 83 10000 3.1 120 16:41 04.08.2019
4222 Rain 29 1018 83 10000 3.1 120 16:41 04.08.2019
4223 Rain 29 1018 83 10000 3.1 120 16:22 04.08.2019
4224 Clouds 30 1018 74 10000 2.6 170 15:45 04.08.2019
4225 Clouds 30 1018 74 10000 2.6 170 15:23 04.08.2019
4226 Clouds 29 1017 83 10000 3.1 170 14:46 04.08.2019
4227 Clouds 28 1017 83 10000 3.1 170 14:27 04.08.2019
4228 Clouds 28 1017 83 10000 2.6 180 13:59 04.08.2019
4229 Clouds 28 1017 83 10000 2.6 180 13:41 04.08.2019
4230 Clouds 27 1017 83 10000 2.6 180 13:22 04.08.2019
4231 Clouds 27 1016 83 10000 2.6 190 12:44 04.08.2019
4232 Clouds 27 1016 83 10000 2.6 190 12:25 04.08.2019
4233 Clouds 28 1016 83 10000 2.6 160 11:56 04.08.2019
4234 Clouds 28 1016 83 10000 2.6 160 11:37 04.08.2019
4235 Clouds 28 1016 83 10000 2.6 160 11:19 04.08.2019
4236 Clouds 28 1015 83 0 5.68 156.136 10:40 04.08.2019
4237 Clouds 27 1015 84 0 5.68 156.136 10:20 04.08.2019
4238 Clouds 27 1015 84 0 5.68 156.136 09:44 04.08.2019
4239 Clouds 28 1017 78 10000 1.5 160 09:22 04.08.2019
4240 Clouds 28 1017 78 10000 1.5 160 08:45 04.08.2019
4241 Clouds 28 1017 78 10000 1.5 160 08:26 04.08.2019
4242 Clouds 28 1018 83 10000 2.1 110 07:52 04.08.2019
4243 Clouds 27 1018 83 10000 0.5 0 06:56 04.08.2019
4244 Clouds 27 1018 83 10000 0.5 0 06:28 04.08.2019
4245 Thunderstorm 29 1017 74 10000 2.1 180 03:46 04.08.2019
4246 Clouds 29 1016 74 10000 4.1 180 02:24 04.08.2019
4247 Clouds 30 1016 74 10000 4.1 180 01:34 04.08.2019
4248 Clouds 30 1016 74 10000 4.1 180 01:34 04.08.2019
4249 Clouds 30 1016 74 10000 4.1 180 01:34 04.08.2019
4250 Clouds 30 1016 74 10000 4.1 180 00:59 04.08.2019
4251 Clouds 30 1016 74 10000 4.1 180 00:40 04.08.2019
4252 Clouds 31 1016 74 10000 4.1 180 00:18 04.08.2019
4253 Rain 31 1016 74 10000 6.2 180 23:39 03.08.2019
4254 Rain 30 1016 74 10000 6.2 180 23:18 03.08.2019
4255 Rain 32 1016 66 10000 5.7 190 22:44 03.08.2019
4256 Rain 32 1016 66 10000 5.7 190 22:20 03.08.2019
4257 Rain 31 1016 70 10000 5.7 190 21:41 03.08.2019
4258 Rain 31 1016 70 10000 5.7 190 21:22 03.08.2019
4259 Clouds 31 1017 66 10000 6.7 200 20:58 03.08.2019
4260 Clouds 32 1017 66 10000 6.7 200 20:40 03.08.2019
4261 Clouds 31 1017 66 10000 6.7 200 20:20 03.08.2019
4262 Rain 31 1017 74 10000 7.2 200 19:41 03.08.2019
4263 Rain 30 1017 74 10000 7.2 200 19:23 03.08.2019
4264 Rain 32 1016 74 0 0.45 217 18:49 03.08.2019
4265 Rain 30 1017 74 10000 6.2 190 18:26 03.08.2019
4266 Rain 30 1017 74 10000 6.2 190 17:47 03.08.2019
4267 Rain 28 1017 74 10000 6.2 190 17:21 03.08.2019
4268 Rain 29 1016 79 10000 7.7 190 16:55 03.08.2019
4269 Rain 29 1016 79 10000 7.7 190 16:37 03.08.2019
4270 Rain 29 1016 79 10000 7.7 190 16:18 03.08.2019
4271 Rain 28 1016 79 10000 5.1 190 15:42 03.08.2019
4272 Rain 28 1016 79 10000 5.1 190 15:20 03.08.2019
4273 Clouds 27 1016 83 10000 5.7 200 14:38 03.08.2019
4274 Clouds 28 1016 83 10000 5.7 200 14:19 03.08.2019
4275 Rain 27 1016 88 10000 5.1 210 13:49 03.08.2019
4276 Rain 27 1016 88 10000 5.1 210 13:23 03.08.2019
4277 Rain 27 1015 88 10000 6.7 210 12:56 03.08.2019
4278 Rain 27 1015 88 10000 6.7 210 12:37 03.08.2019
4279 Rain 27 1015 88 10000 6.7 210 12:19 03.08.2019
4280 Thunderstorm 28 1015 83 10000 4.6 190 11:45 03.08.2019
4281 Thunderstorm 28 1015 83 10000 4.6 190 11:25 03.08.2019
4282 Clouds 26 1014 88 0 8.67 161.007 10:39 03.08.2019
4283 Thunderstorm 26 1015 83 10000 4.1 180 10:21 03.08.2019
4284 Thunderstorm 27 1015 83 10000 4.1 180 09:38 03.08.2019
4285 Thunderstorm 26 1015 83 10000 4.1 180 09:18 03.08.2019
4286 Rain 29 1014 75 0 8.12 155.108 08:44 03.08.2019
4287 Rain 29 1014 75 0 8.12 155.108 07:41 03.08.2019
4288 Rain 29 1014 75 0 8.12 155.108 06:58 03.08.2019
4289 Thunderstorm 27 1016 83 10000 3.6 160 06:21 03.08.2019
4290 Clouds 28 1015 83 10000 2.1 180 03:36 03.08.2019
4291 Thunderstorm 29 1014 74 10000 4.1 170 02:27 03.08.2019
4292 Clouds 30 1014 74 10000 4.1 160 00:59 03.08.2019
4293 Clouds 31 1014 62 10000 3.1 170 00:32 03.08.2019
4294 Clouds 31 1014 62 10000 3.1 170 00:32 03.08.2019
4295 Rain 31 1013 74 0 7.14 133.639 23:43 02.08.2019
4296 Clouds 31 1014 70 10000 5.1 170 23:20 02.08.2019
4297 Clouds 31 1014 70 10000 5.1 170 22:59 02.08.2019
4298 Clouds 31 1014 70 10000 5.1 170 22:40 02.08.2019
4299 Clouds 31 1014 70 10000 5.1 170 22:22 02.08.2019
4300 Clouds 31 1014 74 10000 5.1 200 21:56 02.08.2019
4301 Clouds 31 1014 74 10000 5.1 200 21:37 02.08.2019
4302 Clouds 31 1014 74 10000 5.1 200 21:19 02.08.2019
4303 Thunderstorm 31 1015 74 10000 4.6 180 20:43 02.08.2019
4304 Thunderstorm 31 1015 74 10000 4.6 180 20:22 02.08.2019
4305 Clouds 29 1015 70 10000 6.2 180 19:53 02.08.2019
4306 Rain 30 1015 70 10000 6.2 180 19:32 02.08.2019
4307 Rain 29 1015 74 10000 5.7 180 18:50 02.08.2019
4308 Rain 29 1015 74 10000 5.7 180 18:50 02.08.2019
4309 Rain 29 1015 74 10000 5.7 180 18:32 02.08.2019
4310 Rain 28 1016 79 10000 4.1 180 17:56 02.08.2019
4311 Clouds 29 1016 79 10000 4.1 180 17:38 02.08.2019
4312 Clouds 29 1016 79 10000 4.1 180 17:19 02.08.2019
4313 Rain 28 1015 78 10000 4.1 170 16:39 02.08.2019
4314 Rain 28 1015 78 10000 4.1 170 16:20 02.08.2019
4315 Rain 27 1016 88 10000 1.5 140 15:47 02.08.2019
4316 Rain 27 1016 88 10000 1.5 140 15:47 02.08.2019
4317 Rain 27 1016 88 10000 1.5 140 15:21 02.08.2019
4318 -273 0 0 0 0 0 15:21 02.08.2019
4319 Rain 26 1015 94 10000 2.6 120 14:59 02.08.2019
4320 Rain 26 1015 94 10000 2.6 120 14:40 02.08.2019
4321 Rain 26 1015 94 10000 2.6 120 14:18 02.08.2019
4322 Thunderstorm 25 1015 94 10000 8.05 143.137 13:45 02.08.2019
4323 Thunderstorm 25 1015 94 10000 7.65 140.179 13:20 02.08.2019
4324 Thunderstorm 25 1015 94 10000 2.6 120 12:43 02.08.2019
4325 Thunderstorm 25 1015 94 10000 2.6 120 12:19 02.08.2019
4326 Rain 25 1014 100 10000 1.5 170 11:41 02.08.2019
4327 Rain 25 1014 100 10000 1.5 170 11:22 02.08.2019
4328 Rain 26 1014 88 10000 1.5 160 10:45 02.08.2019
4329 Rain 26 1014 88 10000 1.5 160 10:24 02.08.2019
4330 Rain 27 1014 88 10000 2.6 100 09:55 02.08.2019
4331 Clouds 27 1014 88 10000 2.6 100 09:37 02.08.2019
4332 Rain 27 1014 88 10000 2.6 100 09:18 02.08.2019
4333 Thunderstorm 27 1015 88 10000 2.1 110 08:40 02.08.2019
4334 Thunderstorm 27 1015 88 10000 2.1 110 08:18 02.08.2019
4335 Thunderstorm 27 1016 94 10000 1.5 100 07:40 02.08.2019
4336 Thunderstorm 27 1016 94 10000 1.5 100 07:21 02.08.2019
4337 Rain 27 1016 88 10000 1.5 100 06:31 02.08.2019
4338 Rain 27 1016 83 10000 2.6 100 05:42 02.08.2019
4339 Clouds 28 1016 83 10000 2.1 100 03:33 02.08.2019
4340 Clouds 28 1015 83 10000 2.6 80 02:37 02.08.2019
4341 Clouds 28 1015 83 10000 3.6 70 01:34 02.08.2019
4342 Clouds 28 1015 78 10000 3.1 100 00:31 02.08.2019
4343 Clouds 28 1015 78 10000 3.1 90 23:44 01.08.2019
4344 Clouds 27 1016 83 10000 2.1 110 23:24 01.08.2019
4345 Clouds 27 1016 83 10000 2.1 110 22:42 01.08.2019
4346 Clouds 27 1016 83 10000 2.1 110 22:42 01.08.2019
4347 Clouds 27 1016 83 10000 2.1 110 22:22 01.08.2019
4348 Rain 27 1017 88 10000 2.1 100 21:55 01.08.2019
4349 Rain 27 1017 88 10000 2.1 100 21:37 01.08.2019
4350 Rain 26 1017 88 10000 2.1 100 21:18 01.08.2019
4351 Rain 25 1017 88 10000 2.6 170 20:43 01.08.2019
4352 Rain 26 1018 88 0 3.6 180 20:22 01.08.2019
4353 Rain 25 1018 88 0 3.6 180 19:45 01.08.2019
4354 Rain 26 1018 88 0 3.6 180 19:23 01.08.2019
4355 Rain 26 1018 88 0 3.6 180 19:23 01.08.2019
4356 Thunderstorm 26 1018 88 10000 4.1 190 18:55 01.08.2019
4357 Thunderstorm 27 1018 88 10000 4.1 190 18:36 01.08.2019
4358 Thunderstorm 27 1018 88 10000 4.1 190 18:18 01.08.2019
4359 Thunderstorm 26 1018 88 4800 2.1 280 17:44 01.08.2019
4360 Thunderstorm 26 1018 88 4800 2.1 280 17:44 01.08.2019
4361 Rain 26 1018 88 4800 2.1 280 17:26 01.08.2019
4362 Rain 26 1018 88 1600 5.1 130 16:44 01.08.2019
4363 Rain 28 1017 83 10000 1.5 50 16:22 01.08.2019
4364 Rain 27 1016 88 10000 3.6 130 15:45 01.08.2019
4365 Rain 27 1016 88 10000 3.6 130 15:20 01.08.2019
4366 Thunderstorm 26 1016 88 10000 4.6 130 14:44 01.08.2019
4367 Rain 26 1016 88 10000 1.5 60 14:22 01.08.2019
4368 Rain 26 1016 88 10000 1.5 60 13:59 01.08.2019
4369 Rain 26 1016 88 10000 1.5 60 13:41 01.08.2019
4370 Thunderstorm 26 1016 88 10000 1.5 60 13:21 01.08.2019
4371 Thunderstorm 26 1016 83 10000 4.1 70 12:52 01.08.2019
4372 Thunderstorm 27 1015 83 10000 2.1 110 12:33 01.08.2019
4373 Thunderstorm 27 1015 78 10000 2.6 100 11:58 01.08.2019
4374 Thunderstorm 27 1015 78 10000 2.6 100 11:40 01.08.2019
4375 -273 0 0 0 0 0 11:22 01.08.2019
4376 Thunderstorm 26 1015 83 10000 4.1 140 10:43 01.08.2019
4377 Thunderstorm 26 1015 83 10000 4.1 140 10:25 01.08.2019
4378 Thunderstorm 27 1015 78 10000 3.6 120 09:53 01.08.2019
4379 Thunderstorm 28 1016 88 10000 2.6 120 09:24 01.08.2019
4380 Thunderstorm 28 1016 88 10000 2.6 120 08:58 01.08.2019
4381 Thunderstorm 28 1016 88 10000 2.6 120 08:39 01.08.2019
4382 Thunderstorm 28 1016 88 10000 2.6 120 08:18 01.08.2019
4383 Thunderstorm 28 1017 83 9000 5.7 110 07:45 01.08.2019
4384 Thunderstorm 28 1017 83 9000 5.7 110 07:20 01.08.2019
4385 Thunderstorm 28 1017 74 10000 3.1 100 06:39 01.08.2019
4386 Thunderstorm 28 1017 74 10000 4.6 120 05:32 01.08.2019
4387 Clouds 30 1015 70 10000 5.7 110 02:36 01.08.2019
4388 Clouds 30 1015 70 10000 5.7 110 01:41 01.08.2019
4389 Clouds 30 1015 70 10000 5.7 100 00:27 01.08.2019
4390 Clouds 30 1016 66 10000 6.2 110 23:59 31.07.2019
4391 Clear 31 1014 74 0 6.34 85.939 23:41 31.07.2019
4392 Clouds 30 1016 62 10000 5.1 80 23:20 31.07.2019
4393 Clouds 30 1016 62 10000 5.1 80 22:45 31.07.2019
4394 Clouds 30 1016 62 10000 5.1 80 22:27 31.07.2019
4395 Clouds 30 1016 62 10000 5.1 80 22:27 31.07.2019
4396 Thunderstorm 31 1017 58 10000 5.1 120 21:45 31.07.2019
4397 Thunderstorm 30 1017 58 10000 5.1 120 21:23 31.07.2019
4398 Rain 30 1018 66 10000 5.7 120 20:51 31.07.2019
4399 Rain 30 1018 66 10000 5.7 120 20:25 31.07.2019
4400 Rain 30 1018 66 10000 5.7 100 19:58 31.07.2019
4401 Rain 31 1018 66 10000 5.7 100 19:37 31.07.2019
4402 Rain 30 1018 66 10000 5.7 100 19:19 31.07.2019
4403 Rain 31 1017 72 0 6.17 85.222 18:39 31.07.2019
4404 Clouds 30 1018 70 10000 5.1 80 18:19 31.07.2019
4405 Clouds 31 1018 70 10000 5.1 80 17:45 31.07.2019
4406 Clouds 30 1018 66 10000 4.1 100 17:20 31.07.2019
4407 Clouds 30 1018 66 10000 4.1 100 16:54 31.07.2019
4408 Clouds 30 1018 66 10000 4.1 100 16:34 31.07.2019
4409 Clouds 30 1018 66 10000 4.1 100 16:00 31.07.2019
4410 Clouds 30 1018 66 10000 4.1 100 15:40 31.07.2019
4411 Clouds 30 1018 66 10000 4.1 100 15:21 31.07.2019
4412 Clouds 29 1017 74 10000 2.6 90 14:42 31.07.2019
4413 Clouds 29 1017 74 10000 2.6 90 14:20 31.07.2019
4414 Clouds 28 1017 74 10000 3.6 110 13:55 31.07.2019
4415 Clouds 28 1017 74 10000 3.6 110 13:37 31.07.2019
4416 Clouds 28 1017 74 10000 3.6 110 13:19 31.07.2019
4417 Clouds 28 1016 75 0 5.71 96.736 12:41 31.07.2019
4418 Clouds 27 1016 74 10000 2.6 130 12:23 31.07.2019
4419 Clouds 28 1016 74 10000 2.6 130 11:40 31.07.2019
4420 Clouds 28 1016 74 10000 2.6 130 11:21 31.07.2019
4421 Clouds 28 1016 74 10000 3.6 130 10:55 31.07.2019
4422 Clouds 28 1016 74 10000 3.6 130 10:37 31.07.2019
4423 Clouds 28 1016 74 10000 3.6 130 10:18 31.07.2019
4424 Clear 28 1015 79 0 5.99 108.62 09:42 31.07.2019
4425 Clear 28 1015 80 0 6.79 109.251 09:23 31.07.2019
4426 Clouds 28 1017 78 10000 2.6 100 08:43 31.07.2019
4427 Clouds 28 1017 78 10000 2.6 100 08:23 31.07.2019
4428 Clouds 27 1017 78 10000 2.1 100 07:42 31.07.2019
4429 Clouds 27 1017 78 10000 2.1 100 07:22 31.07.2019
4430 Clouds 29 1018 74 10000 2.1 90 04:56 31.07.2019
4431 Clouds 29 1017 79 10000 2.1 90 03:55 31.07.2019
4432 Clouds 31 1016 66 10000 4.1 130 00:37 31.07.2019
4433 Clouds 31 1016 62 10000 4.1 140 23:47 30.07.2019
4434 Clouds 31 1016 62 10000 4.1 140 23:47 30.07.2019
4435 Clouds 31 1016 62 10000 4.1 140 23:25 30.07.2019
4436 Rain 31 1016 66 10000 3.6 110 22:48 30.07.2019
4437 Rain 31 1016 66 10000 3.6 110 22:25 30.07.2019
4438 Rain 31 1017 74 10000 3.1 30 21:57 30.07.2019
4439 Rain 31 1017 74 10000 3.1 30 21:37 30.07.2019
4440 Rain 31 1017 74 10000 3.1 30 21:18 30.07.2019
4441 Clouds 30 1017 70 10000 2.6 360 20:43 30.07.2019
4442 Thunderstorm 30 1017 78 10000 3.1 20 20:24 30.07.2019
4443 Thunderstorm 30 1018 78 10000 4.6 360 19:59 30.07.2019
4444 Rain 30 1018 74 10000 5.1 360 19:40 30.07.2019
4445 Rain 30 1018 74 10000 5.1 360 19:18 30.07.2019
4446 Rain 29 1018 88 10000 2.6 240 18:43 30.07.2019
4447 Clouds 31 1018 66 10000 2.6 190 18:19 30.07.2019
4448 Rain 31 1018 66 10000 2.6 190 17:42 30.07.2019
4449 Rain 30 1018 66 10000 2.6 190 17:19 30.07.2019
4450 Clouds 31 1017 70 10000 4.6 120 16:53 30.07.2019
4451 Clouds 31 1017 70 10000 4.6 120 16:22 30.07.2019
4452 Clouds 31 1017 74 10000 4.1 100 15:58 30.07.2019
4453 Clouds 30 1017 74 10000 4.1 100 15:38 30.07.2019
4454 Clouds 30 1017 74 10000 4.1 100 15:19 30.07.2019
4455 Clear 31 1016 74 0 4.9 125.986 14:42 30.07.2019
4456 Clear 30 1016 75 0 4.9 125.986 14:21 30.07.2019
4457 Clear 30 1016 75 0 4.9 125.986 14:21 30.07.2019
4458 Clear 29 1015 76 0 4.9 125.986 13:47 30.07.2019
4459 Clouds 28 1015 80 0 5.23 123.264 13:29 30.07.2019
4460 Clouds 26 1016 94 10000 0.5 0 12:59 30.07.2019
4461 Clouds 26 1016 94 10000 0.5 0 12:59 30.07.2019
4462 Clouds 25 1016 94 10000 0.5 0 12:40 30.07.2019
4463 Clouds 25 1016 94 10000 0.5 0 12:22 30.07.2019
4464 Clouds 27 1016 94 10000 2.1 120 11:42 30.07.2019
4465 Clouds 27 1016 94 10000 2.1 120 11:20 30.07.2019
4466 Clouds 28 1016 78 10000 2.6 120 10:49 30.07.2019
4467 Clouds 28 1016 78 10000 2.6 120 10:29 30.07.2019
4468 Clouds 27 1016 94 10000 0.5 0 09:55 30.07.2019
4469 Rain 27 1015 83 0 5.91 114.396 09:37 30.07.2019
4470 Rain 27 1015 83 0 5.29 110.237 09:19 30.07.2019
4471 Rain 26 1017 88 10000 0.5 0 08:32 30.07.2019
4472 Rain 27 1017 88 10000 0.5 0 07:50 30.07.2019
4473 Rain 27 1017 88 10000 0.5 0 07:31 30.07.2019
4474 Rain 27 1017 83 10000 1.5 140 06:48 30.07.2019
4475 Rain 27 1017 83 10000 1.5 140 06:28 30.07.2019
4476 Rain 27 1017 83 10000 3.1 130 05:34 30.07.2019
4477 Clouds 29 1016 74 10000 2.6 110 03:28 30.07.2019
4478 Clouds 30 1015 74 10000 2.6 50 01:21 30.07.2019
4479 Clouds 30 1015 74 10000 2.1 80 00:22 30.07.2019
4480 Clouds 28 1016 94 10000 2.1 190 23:47 29.07.2019
4481 Clouds 28 1016 94 10000 2.1 190 23:28 29.07.2019
4482 Thunderstorm 28 1017 88 10000 8.2 150 22:58 29.07.2019
4483 Thunderstorm 28 1017 88 10000 8.2 150 22:39 29.07.2019
4484 Thunderstorm 28 1017 88 10000 8.2 150 22:20 29.07.2019
4485 Thunderstorm 30 1016 74 10000 2.6 20 21:59 29.07.2019
4486 Thunderstorm 31 1016 74 10000 2.6 20 21:40 29.07.2019
4487 Clouds 31 1016 70 10000 3.6 360 21:21 29.07.2019
4488 Rain 30 1017 79 10000 3.1 20 20:49 29.07.2019
4489 Rain 30 1017 79 10000 3.1 20 20:26 29.07.2019
4490 Clouds 31 1017 70 0 3.1 330 19:59 29.07.2019
4491 Clouds 31 1017 70 0 3.1 330 19:41 29.07.2019
4492 Clouds 31 1017 70 0 3.1 330 19:20 29.07.2019
4493 Rain 32 1017 62 10000 3.1 270 18:43 29.07.2019
4494 Rain 32 1017 62 10000 3.1 270 18:22 29.07.2019
4495 Clouds 30 1017 70 10000 3.1 130 17:53 29.07.2019
4496 Clouds 31 1017 70 10000 3.1 130 17:35 29.07.2019
4497 Clouds 31 1017 66 10000 2.1 160 16:59 29.07.2019
4498 Clouds 31 1017 66 10000 2.1 160 16:40 29.07.2019
4499 Clouds 31 1017 66 10000 2.1 160 16:22 29.07.2019
4500 Clouds 31 1017 70 0 3.1 140 15:52 29.07.2019
4501 Clouds 31 1017 70 0 3.1 140 15:52 29.07.2019
4502 Clouds 32 1017 70 0 3.1 140 15:32 29.07.2019
4503 Clouds 30 1017 79 10000 2.6 130 14:56 29.07.2019
4504 Clouds 30 1017 79 10000 2.6 130 14:56 29.07.2019
4505 Clouds 30 1017 79 10000 2.6 130 14:37 29.07.2019
4506 Clouds 30 1017 79 10000 2.6 130 14:18 29.07.2019
4507 Clouds 27 1017 94 10000 3.55 122.853 13:41 29.07.2019
4508 Clouds 27 1017 94 10000 3.87 125.176 13:23 29.07.2019
4509 Clouds 27 1016 88 10000 1.5 120 12:42 29.07.2019
4510 Clouds 27 1016 88 10000 1.5 120 12:22 29.07.2019
4511 Clear 27 1015 84 0 4.29 105.362 11:43 29.07.2019
4512 Clear 27 1015 84 0 4.29 105.362 11:22 29.07.2019
4513 Clear 27 1015 84 0 4.29 105.362 10:45 29.07.2019
4514 Rain 27 1017 88 10000 2.1 120 10:24 29.07.2019
4515 Rain 27 1017 88 10000 2.1 120 09:46 29.07.2019
4516 Thunderstorm 27 1018 94 3600 2.1 130 09:25 29.07.2019
4517 Thunderstorm 27 1018 94 3600 2.1 130 08:57 29.07.2019
4518 Thunderstorm 27 1018 94 3600 2.1 130 08:28 29.07.2019
4519 Thunderstorm 28 1018 83 10000 3.1 70 07:56 29.07.2019
4520 Thunderstorm 28 1018 83 10000 3.1 70 07:32 29.07.2019
4521 Clouds 28 1018 83 10000 2.1 70 06:44 29.07.2019
4522 Clouds 29 1018 79 10000 2.1 80 05:39 29.07.2019
4523 Clouds 29 1018 79 10000 1.5 70 04:35 29.07.2019
4524 Clouds 29 1017 81 0 3.68 48.378 01:55 29.07.2019
4525 Clouds 28 1016 81 0 3.68 48.378 01:37 29.07.2019
4526 Rain 30 1018 74 10000 3.1 30 00:59 29.07.2019
4527 Rain 30 1018 74 10000 3.1 30 00:32 29.07.2019
4528 Clouds 31 1018 66 10000 2.6 30 23:51 28.07.2019
4529 Clouds 31 1018 66 10000 2.6 30 23:33 28.07.2019
4530 Clouds 29 1018 74 10000 1 0 22:57 28.07.2019
4531 Clouds 30 1018 74 10000 1 0 22:36 28.07.2019
4532 Clouds 30 1018 74 10000 1 0 22:18 28.07.2019
4533 Thunderstorm 30 1019 70 10000 2.1 40 21:42 28.07.2019
4534 Thunderstorm 30 1019 70 10000 2.1 40 21:18 28.07.2019
4535 Clouds 30 1019 70 10000 2.6 320 20:43 28.07.2019
4536 Thunderstorm 31 1019 66 10000 3.1 350 20:43 28.07.2019
4537 Clouds 31 1019 70 10000 2.6 320 20:24 28.07.2019
4538 Thunderstorm 30 1020 74 10000 2.6 360 19:42 28.07.2019
4539 Thunderstorm 30 1020 74 10000 2.6 360 19:21 28.07.2019
4540 Thunderstorm 30 1020 74 10000 3.6 130 18:46 28.07.2019
4541 Clouds 32 1020 62 10000 3.6 140 18:28 28.07.2019
4542 Clouds 32 1020 62 10000 2.6 220 17:57 28.07.2019
4543 Clouds 32 1020 62 10000 2.6 220 17:38 28.07.2019
4544 Clouds 32 1020 62 10000 2.6 220 17:19 28.07.2019
4545 Clouds 32 1020 66 10000 3.6 140 16:42 28.07.2019
4546 Clouds 32 1020 66 10000 3.6 140 16:24 28.07.2019
4547 Clouds 31 1020 70 10000 3.1 120 15:48 28.07.2019
4548 Clouds 30 1020 70 10000 3.1 120 15:27 28.07.2019
4549 Clouds 28 1019 83 10000 1.5 120 14:41 28.07.2019
4550 Clouds 28 1019 83 10000 1.5 120 14:21 28.07.2019
4551 Clouds 27 1019 88 10000 2.6 150 14:00 28.07.2019
4552 Clouds 27 1019 88 10000 2.6 150 13:39 28.07.2019
4553 Clouds 27 1019 88 10000 2.6 150 13:19 28.07.2019
4554 Thunderstorm 28 1019 83 10000 2.1 160 12:43 28.07.2019
4555 Thunderstorm 28 1019 83 10000 2.1 160 12:43 28.07.2019
4556 Thunderstorm 28 1019 83 10000 2.1 160 12:25 28.07.2019
4557 Clouds 28 1018 83 10000 2.6 120 11:50 28.07.2019
4558 Clouds 28 1018 83 10000 2.6 120 11:29 28.07.2019
4559 Clouds 28 1019 83 10000 2.6 110 10:58 28.07.2019
4560 Clouds 28 1019 83 10000 2.6 110 10:38 28.07.2019
4561 Clouds 28 1019 83 10000 2.6 110 10:18 28.07.2019
4562 Clouds 28 1019 83 10000 3.1 110 09:40 28.07.2019
4563 Clouds 28 1019 83 10000 3.1 110 09:21 28.07.2019
4564 Clouds 28 1020 83 10000 2.6 110 08:42 28.07.2019
4565 Clouds 28 1020 83 10000 2.6 110 08:21 28.07.2019
4566 Clouds 28 1021 83 10000 1 0 07:40 28.07.2019
4567 Clouds 28 1021 83 10000 1 0 07:22 28.07.2019
4568 Clouds 29 1021 79 10000 2.6 110 06:33 28.07.2019
4569 Clouds 29 1021 79 10000 2.6 100 05:19 28.07.2019
4570 Rain 28 1019 82 0 4.17 98.614 02:37 28.07.2019
4571 Clouds 29 1019 70 10000 1.5 160 01:40 28.07.2019
4572 Clouds 29 1020 66 10000 2.6 100 00:54 28.07.2019
4573 Clouds 30 1020 66 10000 2.6 100 00:30 28.07.2019
4574 Clouds 30 1020 74 10000 3.6 190 23:53 27.07.2019
4575 Rain 30 1020 66 10000 3.1 160 23:27 27.07.2019
4576 Rain 31 1020 66 10000 3.1 160 22:44 27.07.2019
4577 Thunderstorm 31 1020 66 10000 3.6 160 22:26 27.07.2019
4578 Thunderstorm 31 1020 66 10000 3.6 160 21:47 27.07.2019
4579 Thunderstorm 31 1020 66 10000 3.6 160 21:24 27.07.2019
4580 Clouds 32 1021 66 10000 4.6 140 20:56 27.07.2019
4581 Clouds 32 1021 66 10000 4.6 140 20:37 27.07.2019
4582 Clouds 31 1021 66 10000 4.6 140 20:19 27.07.2019
4583 Clouds 31 1021 66 10000 4.1 140 19:39 27.07.2019
4584 Clouds 31 1021 66 10000 4.1 140 19:21 27.07.2019
4585 Clouds 31 1022 70 10000 4.6 150 18:47 27.07.2019
4586 Clouds 32 1022 70 10000 4.6 150 18:28 27.07.2019
4587 Rain 31 1022 74 10000 3.1 130 17:50 27.07.2019
4588 Rain 31 1022 74 10000 3.1 130 17:50 27.07.2019
4589 Rain 31 1022 74 10000 3.1 130 17:32 27.07.2019
4590 Clouds 30 1022 74 10000 4.1 150 16:55 27.07.2019
4591 Clouds 30 1022 74 10000 4.1 150 16:37 27.07.2019
4592 Rain 30 1021 78 10000 6.7 140 15:56 27.07.2019
4593 Rain 30 1021 78 10000 6.7 140 15:36 27.07.2019
4594 Rain 30 1021 78 10000 6.7 140 15:18 27.07.2019
4595 Clouds 30 1021 74 10000 4.1 120 14:41 27.07.2019
4596 Clouds 30 1021 74 10000 4.1 120 14:23 27.07.2019
4597 Clouds 28 1020 83 10000 2.6 120 13:46 27.07.2019
4598 Clouds 28 1020 83 10000 2.6 120 13:22 27.07.2019
4599 Clouds 28 1020 78 0 5.18 112.586 12:50 27.07.2019
4600 Clouds 27 1020 78 10000 3.6 140 12:27 27.07.2019
4601 Clouds 28 1020 78 10000 3.6 140 11:54 27.07.2019
4602 Clouds 27 1019 80 0 5.96 111.321 11:36 27.07.2019
4603 Clouds 28 1019 74 10000 4.1 120 11:18 27.07.2019
4604 Clouds 28 1019 74 10000 4.1 120 10:40 27.07.2019
4605 Clouds 28 1019 74 10000 4.1 120 10:20 27.07.2019
4606 Clouds 28 1020 74 10000 3.6 120 09:40 27.07.2019
4607 Clouds 28 1020 74 10000 3.6 120 09:22 27.07.2019
4608 Thunderstorm 28 1021 79 10000 2.1 90 08:48 27.07.2019
4609 Thunderstorm 28 1021 79 10000 2.1 90 08:29 27.07.2019
4610 Clouds 29 1021 79 10000 3.1 90 07:50 27.07.2019
4611 Clouds 29 1021 79 10000 3.1 90 07:27 27.07.2019
4612 Clouds 29 1022 79 10000 1.5 80 06:56 27.07.2019
4613 Clouds 29 1022 79 10000 1.5 80 06:30 27.07.2019
4614 Clouds 29 1022 74 10000 1 0 05:49 27.07.2019
4615 Clouds 29 1021 70 10000 2.1 60 04:59 27.07.2019
4616 Clouds 29 1021 70 10000 2.1 60 04:25 27.07.2019
4617 Clouds 29 1020 66 10000 5.1 130 02:44 27.07.2019
4618 Clouds 30 1020 66 10000 4.1 160 02:26 27.07.2019
4619 Clouds 30 1020 66 10000 4.1 160 01:43 27.07.2019
4620 Clouds 31 1020 66 10000 4.1 160 00:57 27.07.2019
4621 Clouds 30 1020 66 10000 4.1 160 00:32 27.07.2019
4622 Clouds 31 1018 75 0 3.78 120.68 23:51 26.07.2019
4623 Clouds 32 1020 59 10000 4.1 150 23:32 26.07.2019
4624 Clouds 32 1020 59 10000 4.1 150 22:46 26.07.2019
4625 Clouds 32 1020 59 10000 4.1 130 22:27 26.07.2019
4626 Clouds 32 1020 59 10000 4.1 130 21:59 26.07.2019
4627 Clouds 32 1020 59 10000 4.1 130 21:37 26.07.2019
4628 Clouds 31 1020 59 10000 4.1 130 21:18 26.07.2019
4629 Clouds 31 1021 66 10000 4.1 140 20:41 26.07.2019
4630 Clouds 31 1021 66 10000 4.1 140 20:21 26.07.2019
4631 Clouds 32 1021 62 10000 4.1 160 19:42 26.07.2019
4632 Clouds 32 1021 62 10000 4.1 160 19:23 26.07.2019
4633 Clouds 31 1021 62 10000 4.1 130 18:47 26.07.2019
4634 Clouds 31 1021 62 10000 4.1 130 18:23 26.07.2019
4635 Clouds 31 1021 66 10000 4.6 150 17:58 26.07.2019
4636 Clouds 31 1021 66 10000 4.6 150 17:40 26.07.2019
4637 Clouds 31 1021 66 10000 4.6 150 17:18 26.07.2019
4638 Clouds 32 1021 66 10000 4.6 150 16:55 26.07.2019
4639 Clouds 32 1021 66 10000 4.6 150 16:37 26.07.2019
4640 Clouds 31 1021 66 10000 4.6 150 16:18 26.07.2019
4641 Clouds 31 1020 66 10000 4.1 150 15:45 26.07.2019
4642 Clouds 31 1020 66 10000 4.1 150 15:22 26.07.2019
4643 Clouds 30 1020 74 10000 2.6 150 14:54 26.07.2019
4644 Clouds 30 1020 74 10000 2.6 150 14:36 26.07.2019
4645 Clouds 30 1020 74 10000 2.6 150 14:18 26.07.2019
4646 Clouds 27 1020 83 10000 1.5 140 13:37 26.07.2019
4647 Clouds 27 1020 83 10000 1.5 140 13:19 26.07.2019
4648 Clouds 26 1019 88 10000 2.1 150 12:42 26.07.2019
4649 Clouds 26 1019 88 10000 2.1 150 12:19 26.07.2019
4650 Clouds 26 1019 88 10000 0.5 0 11:39 26.07.2019
4651 Clouds 26 1019 88 10000 0.5 0 11:19 26.07.2019
4652 Clouds 27 1019 83 10000 0.5 0 10:49 26.07.2019
4653 Clouds 27 1019 83 10000 0.5 0 10:31 26.07.2019
4654 Clouds 27 1019 88 10000 0.5 0 09:54 26.07.2019
4655 Clouds 27 1019 88 10000 0.5 0 09:34 26.07.2019
4656 Clear 27 1020 83 10000 1 0 08:43 26.07.2019
4657 Clear 27 1020 83 10000 1 0 08:22 26.07.2019
4658 Clear 27 1020 83 10000 1.5 180 07:57 26.07.2019
4659 Clear 27 1020 83 10000 1.5 180 07:27 26.07.2019
4660 Clouds 28 1020 74 10000 2.1 120 06:41 26.07.2019
4661 Clouds 28 1020 78 10000 2.6 130 05:19 26.07.2019
4662 Clouds 28 1020 74 10000 2.1 90 04:21 26.07.2019
4663 Rain 28 1019 79 0 2.07 159.712 02:40 26.07.2019
4664 Clouds 29 1019 70 10000 2.1 70 01:42 26.07.2019
4665 Clouds 30 1018 66 10000 2.6 10 00:43 26.07.2019
4666 Clouds 31 1018 66 10000 3.6 150 23:56 25.07.2019
4667 Clouds 31 1018 66 10000 3.6 150 23:23 25.07.2019
4668 Clouds 31 1018 66 10000 2.6 210 22:55 25.07.2019
4669 Clouds 31 1018 66 10000 2.6 210 22:36 25.07.2019
4670 Clouds 31 1018 66 10000 2.6 210 22:18 25.07.2019
4671 Clouds 31 1019 66 10000 3.1 200 21:42 25.07.2019
4672 Clouds 31 1019 66 10000 3.1 200 21:21 25.07.2019
4673 Clouds 31 1020 62 10000 3.1 200 20:47 25.07.2019
4674 Clouds 31 1020 62 10000 3.1 200 20:22 25.07.2019
4675 Clouds 31 1020 62 10000 3.1 200 20:22 25.07.2019
4676 Clouds 31 1019 71 0 5.58 156.185 19:42 25.07.2019
4677 Clouds 30 1019 70 10000 3.1 220 19:24 25.07.2019
4678 Clouds 30 1019 70 10000 3.1 220 18:46 25.07.2019
4679 Clouds 30 1019 70 10000 3.1 220 18:27 25.07.2019
4680 Clouds 30 1018 70 10000 2.1 170 17:57 25.07.2019
4681 Clouds 29 1018 70 10000 2.1 170 17:38 25.07.2019
4682 Clouds 29 1018 70 10000 2.1 170 17:38 25.07.2019
4683 Clouds 29 1018 70 10000 2.1 170 17:20 25.07.2019
4684 Clouds 28 1018 74 10000 3.6 180 16:42 25.07.2019
4685 Clouds 28 1018 74 10000 3.6 180 16:22 25.07.2019
4686 Clouds 28 1018 78 10000 1.5 200 15:51 25.07.2019
4687 Clouds 28 1018 78 10000 1.5 200 15:21 25.07.2019
4688 Clouds 26 1018 88 10000 0.5 0 14:44 25.07.2019
4689 Clouds 26 1018 88 10000 0.5 0 14:25 25.07.2019
4690 Clouds 26 1018 94 10000 2.6 120 13:59 25.07.2019
4691 Clouds 25 1018 94 10000 2.6 120 13:40 25.07.2019
4692 Clouds 25 1018 94 10000 2.6 120 13:22 25.07.2019
4693 Clouds 25 1017 94 10000 2.6 160 12:35 25.07.2019
4694 Thunderstorm 26 1018 83 10000 1.5 70 11:59 25.07.2019
4695 Thunderstorm 26 1018 83 10000 1.5 70 11:40 25.07.2019
4696 Thunderstorm 26 1018 83 10000 1.5 70 11:40 25.07.2019
4697 Thunderstorm 26 1018 83 10000 1.5 70 11:22 25.07.2019
4698 Clouds 26 1017 87 0 4.41 201.118 10:45 25.07.2019
4699 Thunderstorm 26 1019 78 10000 3.6 280 10:24 25.07.2019
4700 Thunderstorm 26 1019 78 10000 3.6 280 09:46 25.07.2019
4701 Thunderstorm 26 1019 78 10000 3.6 280 09:27 25.07.2019
4702 Thunderstorm 27 1018 88 10000 2.1 280 08:49 25.07.2019
4703 Thunderstorm 27 1018 88 10000 2.1 280 08:29 25.07.2019
4704 Clouds 27 1018 83 10000 1 0 07:40 25.07.2019
4705 Thunderstorm 27 1018 94 10000 0.5 0 06:45 25.07.2019
4706 Thunderstorm 27 1018 94 10000 0.5 0 06:19 25.07.2019
4707 Thunderstorm 27 1019 88 10000 2.6 120 05:32 25.07.2019
4708 Thunderstorm 27 1018 88 10000 2.1 110 04:44 25.07.2019
4709 Thunderstorm 26 1018 94 6000 4.1 340 02:24 25.07.2019
4710 Thunderstorm 28 1016 74 10000 4.1 190 01:21 25.07.2019
4711 Thunderstorm 28 1016 74 10000 4.1 190 00:23 25.07.2019
4712 Thunderstorm 31 1016 66 10000 4.6 200 23:53 24.07.2019
4713 Thunderstorm 31 1016 66 10000 4.6 200 23:32 24.07.2019
4714 Thunderstorm 31 1016 66 10000 4.6 200 23:32 24.07.2019
4715 Clouds 32 1016 70 10000 4.1 190 22:58 24.07.2019
4716 Clouds 32 1016 70 10000 4.1 190 22:40 24.07.2019
4717 Clouds 32 1016 70 10000 4.1 190 22:21 24.07.2019
4718 Clouds 31 1016 70 10000 4.1 220 21:44 24.07.2019
4719 Clouds 31 1016 70 10000 4.1 220 21:23 24.07.2019
4720 Clouds 31 1017 66 10000 4.1 240 20:59 24.07.2019
4721 Clouds 31 1017 66 10000 4.1 240 20:39 24.07.2019
4722 Clouds 31 1017 66 10000 4.1 240 20:20 24.07.2019
4723 Clouds 32 1017 62 10000 4.6 250 19:55 24.07.2019
4724 Clouds 32 1017 62 10000 4.6 250 19:36 24.07.2019
4725 Clouds 32 1017 62 10000 4.6 250 19:18 24.07.2019
4726 Clouds 32 1018 66 0 4.1 250 18:41 24.07.2019
4727 Clouds 31 1018 66 0 4.1 250 18:23 24.07.2019
4728 Clouds 31 1018 70 10000 5.1 250 17:43 24.07.2019
4729 Clouds 31 1018 70 10000 5.1 250 17:20 24.07.2019
4730 Clouds 31 1018 74 10000 4.6 230 16:42 24.07.2019
4731 Clouds 31 1018 74 10000 4.6 230 16:22 24.07.2019
4732 Clouds 30 1017 79 10000 4.1 230 15:42 24.07.2019
4733 Clouds 30 1017 79 10000 4.1 230 15:24 24.07.2019
4734 Clouds 29 1017 83 10000 2.6 240 14:57 24.07.2019
4735 Clouds 29 1017 83 10000 2.6 240 14:38 24.07.2019
4736 Clouds 29 1017 83 10000 2.6 240 14:38 24.07.2019
4737 Clouds 29 1017 83 10000 2.6 240 14:38 24.07.2019
4738 Clouds 28 1017 83 10000 2.6 240 14:19 24.07.2019
4739 Clouds 28 1016 81 0 6.1 186.641 13:37 24.07.2019
4740 Clouds 27 1016 83 10000 3.1 220 13:19 24.07.2019
4741 Clouds 27 1016 83 10000 3.1 220 12:51 24.07.2019
4742 Clouds 27 1016 83 10000 3.1 220 12:32 24.07.2019
4743 Clouds 27 1016 78 10000 4.6 200 11:40 24.07.2019
4744 Clouds 27 1016 78 10000 4.6 200 11:20 24.07.2019
4745 Clouds 27 1015 83 0 7.49 183.092 10:45 24.07.2019
4746 Clouds 27 1015 82 0 7.49 183.092 10:25 24.07.2019
4747 Clouds 27 1015 83 0 7.49 183.092 09:49 24.07.2019
4748 Clouds 27 1015 85 0 7.1 167.441 09:25 24.07.2019
4749 Clouds 27 1015 84 0 7.1 167.441 08:58 24.07.2019
4750 Clouds 28 1016 81 0 7.09 170.681 08:32 24.07.2019
4751 Clouds 28 1016 81 0 7.09 170.681 07:52 24.07.2019
4752 Clouds 28 1016 81 0 7.09 170.681 07:24 24.07.2019
4753 Clouds 28 1017 78 10000 3.1 170 06:33 24.07.2019
4754 Clouds 28 1017 78 10000 3.1 170 05:54 24.07.2019
4755 Clouds 29 1016 74 10000 3.6 180 02:52 24.07.2019
4756 Clouds 30 1016 74 10000 4.1 180 01:30 24.07.2019
4757 Clouds 31 1015 70 10000 5.7 170 00:57 24.07.2019
4758 Clouds 31 1015 70 10000 5.7 170 00:23 24.07.2019
4759 Clouds 31 1016 70 10000 5.1 180 23:43 23.07.2019
4760 Clouds 31 1016 70 10000 5.1 180 23:25 23.07.2019
4761 Clouds 31 1016 74 10000 6.2 170 22:41 23.07.2019
4762 Clouds 31 1016 74 10000 6.2 170 22:20 23.07.2019
4763 Clouds 32 1016 70 10000 6.2 180 21:59 23.07.2019
4764 Clouds 32 1016 70 10000 6.2 180 21:41 23.07.2019
4765 Clouds 32 1016 70 10000 6.2 180 21:23 23.07.2019
4766 Clouds 32 1017 66 10000 5.7 190 20:48 23.07.2019
4767 Clouds 32 1017 66 10000 5.7 190 20:25 23.07.2019
4768 Clouds 32 1017 66 10000 5.7 180 19:43 23.07.2019
4769 Clouds 32 1017 66 10000 5.7 180 19:23 23.07.2019
4770 Clouds 31 1018 70 10000 6.2 180 18:52 23.07.2019
4771 Clouds 31 1018 70 10000 6.2 180 18:25 23.07.2019
4772 Clouds 31 1018 70 10000 5.7 180 17:56 23.07.2019
4773 Clouds 31 1018 70 10000 5.7 180 17:38 23.07.2019
4774 Clouds 31 1018 70 10000 5.7 180 17:19 23.07.2019
4775 Clouds 31 1017 74 10000 5.1 180 16:41 23.07.2019
4776 Clouds 31 1017 74 10000 5.1 180 16:21 23.07.2019
4777 Clouds 30 1017 74 10000 5.7 170 15:46 23.07.2019
4778 Clouds 30 1017 74 10000 5.7 170 15:24 23.07.2019
4779 Clouds 27 1017 83 10000 4.1 170 14:40 23.07.2019
4780 Clouds 27 1017 83 10000 4.1 170 14:22 23.07.2019
4781 Clouds 27 1016 88 10000 3.6 160 13:59 23.07.2019
4782 Clouds 26 1016 88 10000 3.6 160 13:40 23.07.2019
4783 Clouds 26 1016 88 10000 3.6 160 13:21 23.07.2019
4784 Rain 25 1017 88 10000 6.2 140 12:48 23.07.2019
4785 Rain 25 1017 88 10000 6.2 140 12:26 23.07.2019
4786 Thunderstorm 26 1017 88 10000 3.6 230 11:50 23.07.2019
4787 Thunderstorm 26 1017 88 10000 3.6 230 11:32 23.07.2019
4788 Rain 27 1016 88 10000 2.6 170 10:59 23.07.2019
4789 Rain 28 1015 82 0 8.44 148.629 10:40 23.07.2019
4790 Clouds 28 1016 78 10000 4.6 150 10:20 23.07.2019
4791 Clouds 28 1016 78 10000 4.6 150 09:41 23.07.2019
4792 Clouds 28 1016 78 10000 4.6 150 09:19 23.07.2019
4793 Clouds 28 1016 83 10000 4.1 160 08:43 23.07.2019
4794 Clouds 28 1017 78 10000 4.6 160 08:19 23.07.2019
4795 Clouds 28 1017 78 10000 4.6 160 07:55 23.07.2019
4796 Clouds 28 1017 78 10000 4.6 160 07:34 23.07.2019
4797 Thunderstorm 28 1017 83 10000 6.2 190 06:44 23.07.2019
4798 Thunderstorm 28 1017 83 10000 6.2 190 06:26 23.07.2019
4799 Clouds 27 1016 88 10000 4.6 160 02:44 23.07.2019
4800 Clouds 27 1015 83 10000 5.1 150 01:31 23.07.2019
4801 Clouds 27 1015 88 10000 2.6 170 00:30 23.07.2019
4802 Rain 29 1014 76 0 8.14 145.168 23:43 22.07.2019
4803 Rain 26 1016 88 10000 4.1 140 23:22 22.07.2019
4804 Rain 26 1016 88 10000 4.1 140 22:59 22.07.2019
4805 Rain 26 1016 88 10000 4.1 140 22:41 22.07.2019
4806 Rain 26 1016 88 10000 4.1 140 22:20 22.07.2019
4807 Thunderstorm 25 1017 94 4800 4.1 170 21:42 22.07.2019
4808 Thunderstorm 25 1017 94 4800 4.1 170 21:21 22.07.2019
4809 Thunderstorm 26 1017 88 7000 8.2 160 20:48 22.07.2019
4810 Thunderstorm 26 1017 88 7000 8.2 160 20:29 22.07.2019
4811 Thunderstorm 25 1017 88 7000 7.7 140 19:55 22.07.2019
4812 Thunderstorm 25 1017 88 7000 7.7 140 19:36 22.07.2019
4813 Thunderstorm 25 1017 88 7000 7.7 140 19:18 22.07.2019
4814 Thunderstorm 26 1016 94 500 9.3 140 18:41 22.07.2019
4815 Thunderstorm 26 1016 94 500 9.3 140 18:22 22.07.2019
4816 Thunderstorm 25 1016 94 6000 5.7 200 17:42 22.07.2019
4817 Rain 25 1016 94 6000 5.7 200 17:24 22.07.2019
4818 Thunderstorm 27 1016 88 8000 5.1 110 16:42 22.07.2019
4819 Thunderstorm 27 1016 88 8000 5.1 110 16:21 22.07.2019
4820 Thunderstorm 27 1016 88 9000 4.1 100 15:59 22.07.2019
4821 Thunderstorm 27 1016 88 9000 4.1 100 15:37 22.07.2019
4822 Rain 26 1016 88 9000 4.1 100 15:18 22.07.2019
4823 Thunderstorm 27 1016 88 9000 3.6 90 14:43 22.07.2019
4824 Thunderstorm 27 1016 88 9000 3.6 90 14:20 22.07.2019
4825 Rain 26 1016 88 10000 5.1 100 13:46 22.07.2019
4826 Rain 26 1016 88 10000 5.1 100 13:28 22.07.2019
4827 Thunderstorm 27 1015 88 10000 4.6 90 12:45 22.07.2019
4828 Thunderstorm 27 1015 88 10000 4.6 90 12:25 22.07.2019
4829 Thunderstorm 28 1015 78 10000 4.6 80 11:45 22.07.2019
4830 Thunderstorm 28 1015 78 10000 4.6 80 11:24 22.07.2019
4831 Clouds 28 1015 74 10000 3.6 80 10:48 22.07.2019
4832 Clear 27 1014 84 0 2.68 60 10:29 22.07.2019
4833 Clear 27 1014 85 0 1.34 51 09:44 22.07.2019
4834 Clouds 28 1016 78 10000 2.6 70 09:25 22.07.2019
4835 Clouds 28 1016 78 10000 2.6 70 08:45 22.07.2019
4836 Clouds 28 1016 78 10000 2.6 70 08:25 22.07.2019
4837 Clouds 29 1017 74 10000 4.1 80 07:55 22.07.2019
4838 Clouds 29 1017 74 10000 4.1 80 07:33 22.07.2019
4839 Rain 28 1018 79 10000 3.1 60 06:51 22.07.2019
4840 Clouds 29 1018 70 10000 2.6 80 03:57 22.07.2019
4841 Rain 29 1017 66 10000 4.1 70 02:24 22.07.2019
4842 Clouds 31 1017 62 10000 5.7 60 00:56 22.07.2019
4843 Clouds 31 1017 62 10000 5.7 60 00:25 22.07.2019
4844 Clouds 31 1017 58 10000 5.1 70 23:55 21.07.2019
4845 Clouds 31 1017 58 10000 5.1 70 23:55 21.07.2019
4846 Clouds 31 1017 58 10000 5.1 70 23:28 21.07.2019
4847 Rain 31 1017 62 10000 6.7 60 22:42 21.07.2019
4848 Rain 31 1017 62 10000 6.7 60 22:22 21.07.2019
4849 Clouds 31 1018 62 10000 5.1 60 21:57 21.07.2019
4850 Clear 31 1017 71 0 4.68 74.236 21:37 21.07.2019
4851 Clouds 31 1018 62 10000 4.6 110 21:19 21.07.2019
4852 Clouds 31 1018 62 10000 4.6 110 20:44 21.07.2019
4853 Clouds 31 1018 62 10000 4.6 110 20:25 21.07.2019
4854 Clouds 31 1018 62 10000 4.6 110 20:25 21.07.2019
4855 Clouds 32 1018 62 10000 5.7 110 19:55 21.07.2019
4856 Clouds 32 1018 62 10000 5.7 110 19:36 21.07.2019
4857 Clouds 32 1018 62 10000 5.7 110 19:18 21.07.2019
4858 Clouds 31 1019 62 10000 4.6 130 18:44 21.07.2019
4859 Clouds 31 1019 62 10000 4.6 130 18:24 21.07.2019
4860 Clouds 31 1019 62 10000 4.6 120 17:42 21.07.2019
4861 Clouds 31 1019 62 10000 4.6 120 17:20 21.07.2019
4862 Clouds 31 1019 62 10000 4.6 120 17:20 21.07.2019
4863 Clouds 31 1019 66 10000 4.1 120 16:45 21.07.2019
4864 Clouds 30 1019 66 10000 4.1 120 16:25 21.07.2019
4865 Clouds 29 1019 70 10000 4.1 110 15:54 21.07.2019
4866 Clouds 30 1019 70 10000 4.1 110 15:36 21.07.2019
4867 Clouds 30 1019 70 10000 4.1 110 15:18 21.07.2019
4868 Clouds 29 1018 78 10000 2.1 100 14:41 21.07.2019
4869 Clouds 29 1018 78 10000 2.1 100 14:21 21.07.2019
4870 Clouds 28 1018 83 10000 2.1 90 13:44 21.07.2019
4871 Clouds 28 1018 83 10000 2.1 90 13:44 21.07.2019
4872 Clouds 28 1018 83 10000 2.1 90 13:25 21.07.2019
4873 Clouds 27 1018 83 10000 2.1 80 12:42 21.07.2019
4874 Clouds 28 1018 83 10000 2.1 80 12:24 21.07.2019
4875 Clouds 27 1017 88 10000 5.81 108.273 11:47 21.07.2019
4876 Clouds 27 1017 88 10000 5.81 108.273 11:28 21.07.2019
4877 Clouds 27 1017 88 10000 1 0 10:55 21.07.2019
4878 Clouds 27 1017 88 10000 1 0 10:37 21.07.2019
4879 Clouds 27 1017 88 10000 1 0 10:18 21.07.2019
4880 Clouds 26 1017 78 10000 2.1 230 09:36 21.07.2019
4881 Clouds 27 1018 88 10000 1.5 160 08:52 21.07.2019
4882 Clouds 27 1018 88 10000 1.5 160 08:34 21.07.2019
4883 Clouds 28 1018 83 10000 2.6 110 07:59 21.07.2019
4884 Clouds 28 1018 83 10000 2.6 110 07:32 21.07.2019
4885 Clear 28 1018 78 0 6.12 104.411 06:38 21.07.2019
4886 Clouds 29 1018 66 10000 3.1 110 04:21 21.07.2019
4887 Clouds 29 1017 66 10000 5.7 140 01:57 21.07.2019
4888 Clouds 30 1017 62 10000 6.7 140 00:48 21.07.2019
4889 Clouds 31 1017 62 10000 6.7 140 00:22 21.07.2019
4890 Clouds 31 1017 59 10000 6.2 150 23:48 20.07.2019
4891 Clouds 31 1017 59 10000 6.2 150 23:27 20.07.2019
4892 Clouds 32 1018 59 10000 5.7 140 22:58 20.07.2019
4893 Clouds 32 1018 59 10000 5.7 140 22:40 20.07.2019
4894 Clouds 32 1018 59 10000 5.7 140 22:19 20.07.2019
4895 Clouds 32 1018 59 10000 5.7 140 21:43 20.07.2019
4896 Clouds 32 1018 59 10000 5.7 140 21:24 20.07.2019
4897 Clouds 31 1018 62 10000 6.2 120 20:43 20.07.2019
4898 Clouds 31 1018 62 10000 6.2 120 20:23 20.07.2019
4899 Clouds 31 1019 62 10000 5.7 130 19:51 20.07.2019
4900 Clouds 31 1019 62 10000 5.7 130 19:29 20.07.2019
4901 Clouds 31 1019 66 10000 4.6 110 18:56 20.07.2019
4902 Clouds 31 1019 66 10000 4.6 110 18:37 20.07.2019
4903 Clouds 30 1019 66 10000 4.6 110 18:18 20.07.2019
4904 Rain 27 1019 82 0 7.04 124.009 17:43 20.07.2019
4905 Clouds 29 1019 66 10000 6.2 130 17:19 20.07.2019
4906 Clouds 30 1019 66 10000 6.2 130 16:40 20.07.2019
4907 Clouds 30 1019 66 10000 6.2 130 16:22 20.07.2019
4908 Rain 31 1019 69 0 7.04 124.009 15:42 20.07.2019
4909 Rain 31 1019 69 0 7.04 124.009 15:42 20.07.2019
4910 Rain 31 1019 71 0 7.44 117.041 15:21 20.07.2019
4911 Rain 31 1018 73 0 7.44 117.041 14:49 20.07.2019
4912 Rain 30 1018 74 0 7.44 117.041 14:30 20.07.2019
4913 Rain 29 1018 76 0 7.44 117.041 13:58 20.07.2019
4914 Rain 28 1018 77 0 7.44 117.041 13:38 20.07.2019
4915 Rain 28 1017 77 0 6.58 113.719 13:19 20.07.2019
4916 Rain 29 1017 73 0 6.58 113.719 12:49 20.07.2019
4917 Rain 27 1017 75 0 6.92 113.35 12:19 20.07.2019
4918 Rain 27 1017 75 0 6.92 113.35 11:46 20.07.2019
4919 Rain 27 1017 75 0 6.92 113.35 11:21 20.07.2019
4920 Rain 27 1017 75 0 6.92 113.35 10:42 20.07.2019
4921 Rain 27 1017 75 0 6.92 113.35 10:23 20.07.2019
4922 Rain 28 1016 81 0 6.92 113.35 09:51 20.07.2019
4923 Rain 28 1017 80 0 7.38 106.791 09:25 20.07.2019
4924 Rain 28 1017 82 0 7.08 108.228 08:51 20.07.2019
4925 Rain 26 1017 86 0 7.08 108.228 08:23 20.07.2019
4926 Rain 27 1018 80 0 7.08 108.228 07:39 20.07.2019
4927 Rain 28 1018 76 0 7.08 108.228 06:46 20.07.2019
4928 Clouds 29 1019 74 10000 3.1 100 05:25 20.07.2019
4929 Clouds 29 1019 74 10000 3.1 100 04:31 20.07.2019
4930 Clouds 30 1018 66 10000 5.7 130 01:55 20.07.2019
4931 Clouds 30 1018 58 10000 5.7 140 00:52 20.07.2019
4932 Clouds 30 1018 58 10000 5.7 140 00:33 20.07.2019
4933 Clouds 31 1018 62 10000 5.7 140 23:57 19.07.2019
4934 Clouds 31 1018 62 10000 5.7 140 23:39 19.07.2019
4935 Clouds 31 1018 62 10000 5.7 140 23:20 19.07.2019
4936 Clouds 32 1018 59 10000 3.6 130 22:41 19.07.2019
4937 Clouds 32 1018 59 10000 3.6 130 22:20 19.07.2019
4938 Clouds 32 1018 59 10000 3.6 130 22:20 19.07.2019
4939 Clouds 32 1019 62 10000 5.7 150 21:43 19.07.2019
4940 Clouds 32 1019 62 10000 5.7 150 21:25 19.07.2019
4941 Clouds 32 1020 66 10000 6.2 140 20:44 19.07.2019
4942 Clouds 32 1020 66 10000 6.2 140 20:25 19.07.2019
4943 Clouds 31 1020 62 10000 6.7 150 19:40 19.07.2019
4944 Clouds 32 1020 62 10000 6.7 150 19:19 19.07.2019
4945 Clouds 32 1020 62 10000 7.2 140 18:41 19.07.2019
4946 Clouds 32 1020 62 10000 7.2 140 18:19 19.07.2019
4947 Clouds 32 1020 62 10000 7.2 140 18:19 19.07.2019
4948 Clouds 31 1020 62 10000 7.7 150 17:46 19.07.2019
4949 Clouds 31 1020 62 10000 7.7 150 17:25 19.07.2019
4950 Clouds 31 1019 62 10000 6.2 140 16:48 19.07.2019
4951 Clouds 31 1019 62 10000 6.2 140 16:25 19.07.2019
4952 Clouds 30 1019 70 10000 5.7 130 15:48 19.07.2019
4953 Clouds 30 1019 70 10000 5.7 130 15:29 19.07.2019
4954 Clouds 30 1019 70 10000 3.1 120 14:56 19.07.2019
4955 Clouds 30 1019 70 10000 3.1 120 14:38 19.07.2019
4956 Clouds 29 1019 70 10000 3.1 120 14:19 19.07.2019
4957 Clouds 28 1019 78 10000 3.1 110 13:43 19.07.2019
4958 Clouds 28 1019 78 10000 3.1 110 13:22 19.07.2019
4959 Clouds 28 1018 74 10000 3.1 130 12:49 19.07.2019
4960 Clouds 27 1018 74 10000 3.1 130 12:30 19.07.2019
4961 Clouds 28 1018 78 10000 2.6 120 11:47 19.07.2019
4962 Clouds 28 1018 78 10000 2.6 120 11:20 19.07.2019
4963 Rain 28 1017 79 0 5.4 112.223 10:58 19.07.2019
4964 Rain 28 1017 79 0 5.4 112.223 10:39 19.07.2019
4965 Rain 28 1017 78 0 5.4 112.223 10:20 19.07.2019
4966 Rain 28 1017 78 0 5.4 112.223 09:44 19.07.2019
4967 Clouds 28 1019 83 10000 3.1 130 09:22 19.07.2019
4968 Clouds 28 1019 83 10000 3.1 130 09:22 19.07.2019
4969 Clouds 28 1019 83 10000 3.1 130 08:50 19.07.2019
4970 Clouds 27 1019 88 10000 1.5 80 08:32 19.07.2019
4971 Rain 28 1020 78 10000 2.6 60 07:34 19.07.2019
4972 Clouds 28 1019 82 0 6.4 98.314 06:47 19.07.2019
4973 Clouds 28 1019 83 0 6.14 92.95 05:39 19.07.2019
4974 Rain 29 1018 66 10000 3.6 110 01:45 19.07.2019
4975 Rain 27 1017 83 0 5.05 95.072 00:58 19.07.2019
4976 Rain 30 1018 66 10000 4.6 140 00:21 19.07.2019
4977 Clouds 31 1017 69 0 4.67 98.604 23:41 18.07.2019
4978 Rain 31 1019 62 10000 7.2 120 23:23 18.07.2019
4979 Rain 31 1019 62 10000 7.2 120 22:44 18.07.2019
4980 Rain 31 1019 62 10000 7.2 120 22:20 18.07.2019
4981 Clouds 32 1019 55 10000 5.7 130 21:57 18.07.2019
4982 Clouds 32 1019 55 10000 5.7 130 21:38 18.07.2019
4983 Clouds 32 1019 55 10000 5.7 130 21:18 18.07.2019
4984 Clouds 32 1019 59 10000 5.7 130 20:45 18.07.2019
4985 Clouds 32 1019 59 10000 5.7 130 20:23 18.07.2019
4986 Clouds 32 1020 62 10000 5.7 140 19:49 18.07.2019
4987 Clouds 32 1020 62 10000 5.7 140 19:27 18.07.2019
4988 Clouds 32 1019 55 10000 6.7 130 18:51 18.07.2019
4989 Clouds 32 1019 55 10000 6.7 130 18:23 18.07.2019
4990 Clouds 31 1020 66 10000 7.2 130 17:57 18.07.2019
4991 Clouds 31 1020 66 10000 7.2 130 17:37 18.07.2019
4992 Clouds 31 1020 66 10000 7.2 130 17:19 18.07.2019
4993 Clouds 31 1019 66 10000 5.7 130 16:49 18.07.2019
4994 Clouds 31 1019 66 10000 5.7 130 16:49 18.07.2019
4995 Clouds 31 1019 66 10000 5.7 130 16:25 18.07.2019
4996 Clouds 30 1020 70 10000 5.1 120 15:56 18.07.2019
4997 Clouds 30 1020 70 10000 5.1 120 15:36 18.07.2019
4998 Clouds 29 1019 78 10000 6.09 112.883 14:56 18.07.2019
4999 Clouds 29 1019 78 10000 6.09 112.883 14:37 18.07.2019
5000 Clouds 29 1019 78 10000 6.09 112.883 14:37 18.07.2019
5001 Clouds 29 1019 74 10000 3.1 120 13:59 18.07.2019
5002 Clouds 29 1019 74 10000 3.1 120 13:37 18.07.2019
5003 Clouds 28 1019 83 10000 4.1 110 13:18 18.07.2019
5004 Clouds 27 1019 83 10000 4.1 110 12:44 18.07.2019
5005 Clouds 27 1018 83 10000 3.6 110 12:18 18.07.2019
5006 Clouds 27 1018 83 10000 3.6 110 11:50 18.07.2019
5007 Clouds 27 1019 83 10000 3.1 140 11:27 18.07.2019
5008 Clouds 27 1019 83 10000 3.1 140 11:27 18.07.2019
5009 Clouds 27 1019 83 10000 3.1 140 10:52 18.07.2019
5010 Clouds 27 1019 83 10000 3.1 140 10:18 18.07.2019
5011 Rain 27 1019 83 10000 5.7 130 09:44 18.07.2019
5012 Rain 27 1019 83 10000 5.7 130 09:21 18.07.2019
5013 Clouds 28 1019 74 10000 3.6 90 08:41 18.07.2019
5014 Clouds 28 1020 69 10000 2.6 70 08:18 18.07.2019
5015 Clouds 28 1020 69 10000 2.6 70 07:37 18.07.2019
5016 Clouds 28 1020 74 0 5.1 110 06:58 18.07.2019
5017 Clear 28 1019 82 0 5.6 104.108 06:33 18.07.2019
5018 Clouds 29 1020 66 10000 2.6 110 03:56 18.07.2019
5019 Clouds 29 1019 62 10000 4.1 130 02:51 18.07.2019
5020 Clouds 30 1019 66 10000 4.1 120 01:36 18.07.2019
5021 Clouds 30 1019 62 10000 4.1 150 00:23 18.07.2019
5022 Thunderstorm 31 1019 70 10000 5.1 160 23:40 17.07.2019
5023 Thunderstorm 31 1019 70 10000 5.1 160 23:18 17.07.2019
5024 Rain 32 1019 66 10000 5.1 140 22:41 17.07.2019
5025 Rain 31 1019 66 10000 5.1 140 22:22 17.07.2019
5026 Rain 32 1020 62 10000 5.7 140 21:58 17.07.2019
5027 Rain 32 1020 62 10000 5.7 140 21:38 17.07.2019
5028 Rain 32 1020 62 10000 5.7 140 21:19 17.07.2019
5029 Clouds 32 1020 55 10000 6.2 140 20:55 17.07.2019
5030 Clouds 32 1020 55 10000 6.2 140 20:37 17.07.2019
5031 Clouds 32 1021 62 10000 5.7 130 20:18 17.07.2019
5032 Clouds 32 1021 62 10000 5.7 130 20:18 17.07.2019
5033 Clouds 32 1021 62 10000 5.7 130 19:40 17.07.2019
5034 Clouds 32 1021 62 10000 5.7 130 19:20 17.07.2019
5035 Clouds 32 1021 59 10000 5.1 130 18:44 17.07.2019
5036 Rain 31 1021 70 10000 5.1 130 18:21 17.07.2019
5037 Rain 31 1021 70 10000 5.1 130 18:21 17.07.2019
5038 Rain 31 1021 70 10000 5.1 130 17:56 17.07.2019
5039 Rain 31 1021 70 10000 5.1 130 17:56 17.07.2019
5040 Rain 31 1021 70 10000 5.1 130 17:38 17.07.2019
5041 Clouds 30 1021 70 10000 5.1 130 17:19 17.07.2019
5042 Clouds 31 1021 70 10000 5.1 130 16:40 17.07.2019
5043 Clouds 30 1021 70 10000 5.1 130 16:19 17.07.2019
5044 Clouds 30 1020 74 10000 4.6 130 15:51 17.07.2019
5045 Clouds 30 1020 74 10000 4.6 130 15:29 17.07.2019
5046 Rain 30 1020 74 10000 3.6 120 14:55 17.07.2019
5047 Rain 30 1020 74 10000 3.6 120 14:37 17.07.2019
5048 Rain 29 1020 78 10000 2.6 90 14:19 17.07.2019
5049 Rain 29 1020 78 10000 2.6 90 13:45 17.07.2019
5050 Rain 28 1020 78 10000 2.6 90 13:25 17.07.2019
5051 Clouds 27 1020 83 10000 2.1 80 12:43 17.07.2019
5052 Clouds 28 1020 83 10000 2.1 80 12:21 17.07.2019
5053 Clouds 28 1019 78 10000 2.1 110 11:56 17.07.2019
5054 Clouds 28 1019 78 10000 2.1 110 11:56 17.07.2019
5055 Clouds 28 1019 78 10000 2.1 110 11:37 17.07.2019
5056 Clouds 28 1019 78 10000 2.6 100 11:18 17.07.2019
5057 Clouds 28 1019 78 10000 2.6 100 10:42 17.07.2019
5058 Clouds 28 1019 78 10000 3.6 100 10:18 17.07.2019
5059 Clouds 28 1019 78 10000 3.6 100 09:44 17.07.2019
5060 Clouds 28 1019 78 10000 3.6 100 09:44 17.07.2019
5061 Clouds 28 1019 78 10000 3.6 100 09:44 17.07.2019
5062 Clouds 28 1019 78 10000 3.6 100 09:25 17.07.2019
5063 Clouds 28 1020 78 10000 3.6 110 08:44 17.07.2019
5064 Clouds 28 1020 78 10000 3.6 110 08:22 17.07.2019
5065 Clouds 28 1020 78 10000 2.6 100 07:51 17.07.2019
5066 Clouds 28 1020 78 10000 2.6 100 07:25 17.07.2019
5067 Clouds 28 1021 78 10000 2.6 110 06:58 17.07.2019
5068 Clouds 28 1021 78 10000 2.6 110 06:30 17.07.2019
5069 Clouds 28 1021 78 10000 2.6 100 05:50 17.07.2019
5070 Clouds 28 1021 78 10000 2.6 100 05:30 17.07.2019
5071 Clouds 29 1020 74 10000 3.1 100 04:46 17.07.2019
5072 Rain 28 1020 78 10000 3.1 130 03:32 17.07.2019
5073 Clouds 29 1019 70 10000 4.1 150 02:21 17.07.2019
5074 Clouds 30 1019 66 10000 5.1 140 01:27 17.07.2019
5075 Clouds 30 1019 66 10000 3.6 110 00:59 17.07.2019
5076 Clouds 30 1019 66 10000 3.6 110 00:37 17.07.2019
5077 Clouds 30 1018 75 0 4.15 105.606 00:19 17.07.2019
5078 Rain 30 1020 62 10000 4.6 150 23:38 16.07.2019
5079 Rain 30 1020 62 10000 4.6 150 23:18 16.07.2019
5080 Rain 29 1020 62 10000 4.6 150 22:42 16.07.2019
5081 Clouds 31 1020 62 10000 4.6 150 22:24 16.07.2019
5082 Clouds 32 1020 55 10000 5.1 140 21:46 16.07.2019
5083 Clouds 32 1020 55 10000 5.1 140 21:22 16.07.2019
5084 Clouds 32 1020 55 10000 5.1 130 20:58 16.07.2019
5085 Clouds 32 1020 55 10000 5.1 130 20:39 16.07.2019
5086 Clouds 32 1020 55 10000 5.1 130 20:21 16.07.2019
5087 Clouds 32 1021 49 10000 6.2 140 19:51 16.07.2019
5088 Clouds 32 1021 49 10000 6.2 140 19:28 16.07.2019
5089 Clouds 32 1021 55 10000 5.1 120 18:57 16.07.2019
5090 Clouds 32 1021 55 10000 5.1 120 18:38 16.07.2019
5091 Clouds 31 1021 62 10000 6.2 140 18:19 16.07.2019
5092 Clouds 31 1021 62 10000 6.2 140 17:40 16.07.2019
5093 Clouds 31 1021 62 10000 6.2 140 17:21 16.07.2019
5094 Clouds 30 1020 66 10000 5.1 130 16:44 16.07.2019
5095 Clouds 30 1020 70 10000 3.6 120 16:21 16.07.2019
5096 Clouds 30 1020 70 10000 3.6 120 15:42 16.07.2019
5097 Clouds 30 1020 70 10000 3.1 120 15:21 16.07.2019
5098 Clouds 30 1020 70 10000 3.1 120 14:59 16.07.2019
5099 Clouds 30 1020 70 10000 3.1 120 14:41 16.07.2019
5100 Clouds 30 1020 70 10000 3.1 120 14:23 16.07.2019
5101 Clouds 29 1020 74 10000 3.1 120 13:45 16.07.2019
5102 Clouds 28 1020 74 10000 3.1 120 13:26 16.07.2019
5103 Clouds 28 1019 75 0 5.43 101.602 12:55 16.07.2019
5104 Clouds 28 1019 75 0 5.43 101.602 12:37 16.07.2019
5105 Clouds 25 1019 94 10000 4.87 123.416 12:19 16.07.2019
5106 Clouds 27 1019 94 10000 4.87 123.416 11:43 16.07.2019
5107 Clouds 27 1019 94 10000 4.87 123.416 11:23 16.07.2019
5108 Clouds 28 1019 83 10000 2.6 120 10:55 16.07.2019
5109 Clouds 28 1019 83 10000 2.6 120 10:37 16.07.2019
5110 Clouds 28 1019 83 10000 1.5 90 10:18 16.07.2019
5111 Clouds 28 1019 83 10000 1.5 90 09:42 16.07.2019
5112 Clouds 28 1019 83 10000 1.5 90 09:19 16.07.2019
5113 Clouds 28 1019 83 10000 1.5 120 08:42 16.07.2019
5114 Clouds 29 1020 74 10000 3.1 120 08:20 16.07.2019
5115 Clouds 29 1020 74 10000 3.1 120 07:42 16.07.2019
5116 Clouds 29 1020 74 10000 3.1 120 07:24 16.07.2019
5117 Clouds 29 1020 74 10000 3.1 120 06:48 16.07.2019
5118 Clouds 29 1020 74 10000 3.1 120 06:27 16.07.2019
5119 Clouds 29 1020 74 10000 3.1 120 05:37 16.07.2019
5120 Clouds 29 1019 66 10000 3.6 120 05:18 16.07.2019
5121 Clouds 29 1019 70 10000 3.1 110 03:57 16.07.2019
5122 Clouds 30 1019 66 10000 4.1 120 03:20 16.07.2019
5123 Clouds 29 1019 66 10000 4.1 120 02:31 16.07.2019
5124 Clouds 30 1018 62 10000 5.1 130 01:44 16.07.2019
5125 Clouds 31 1018 55 10000 5.1 140 00:47 16.07.2019
5126 Clouds 31 1018 62 10000 4.6 150 00:20 16.07.2019
5127 Clouds 31 1018 62 10000 4.6 150 23:47 15.07.2019
5128 Clouds 31 1018 62 10000 4.6 150 23:29 15.07.2019
5129 Rain 31 1018 66 10000 5.1 130 22:48 15.07.2019
5130 Rain 31 1018 66 10000 5.1 130 22:22 15.07.2019
5131 Rain 31 1018 66 10000 4.1 110 21:59 15.07.2019
5132 Rain 31 1018 66 10000 4.1 110 21:40 15.07.2019
5133 Clouds 31 1019 70 10000 4.6 210 21:20 15.07.2019
5134 Clouds 31 1019 70 10000 4.6 210 20:55 15.07.2019
5135 Clouds 31 1019 70 10000 4.6 210 20:36 15.07.2019
5136 Clouds 31 1019 66 10000 5.1 150 20:18 15.07.2019
5137 Clouds 32 1019 66 10000 5.1 150 19:39 15.07.2019
5138 Clouds 32 1019 66 10000 6.2 140 19:19 15.07.2019
5139 Clouds 31 1019 66 10000 6.2 140 18:50 15.07.2019
5140 Clouds 31 1019 66 10000 6.2 140 18:23 15.07.2019
5141 Clouds 31 1019 66 10000 7.2 130 17:59 15.07.2019
5142 Clouds 31 1019 66 10000 7.2 130 17:41 15.07.2019
5143 Clouds 31 1019 70 10000 6.2 120 17:22 15.07.2019
5144 Clouds 31 1019 70 10000 6.2 120 16:58 15.07.2019
5145 Clouds 31 1019 70 10000 6.2 120 16:38 15.07.2019
5146 Clouds 30 1019 74 10000 5.1 120 16:19 15.07.2019
5147 Clouds 30 1019 74 10000 5.1 120 15:43 15.07.2019
5148 Clouds 30 1019 74 10000 5.1 120 15:25 15.07.2019
5149 Clouds 27 1019 83 10000 4.1 120 14:59 15.07.2019
5150 Clouds 27 1019 83 10000 4.1 120 14:38 15.07.2019
5151 Clouds 27 1019 83 10000 2.6 100 14:19 15.07.2019
5152 Clouds 27 1019 83 10000 2.6 100 13:48 15.07.2019
5153 Clouds 27 1018 88 10000 2.6 100 13:20 15.07.2019
5154 Clouds 28 1018 88 10000 2.6 100 12:48 15.07.2019
5155 Clouds 28 1018 88 10000 2.6 100 12:27 15.07.2019
5156 Clouds 28 1018 78 10000 4.1 70 11:58 15.07.2019
5157 Clouds 28 1018 78 10000 4.1 70 11:40 15.07.2019
5158 Clouds 28 1018 83 10000 2.1 90 11:19 15.07.2019
5159 Clouds 28 1018 83 10000 2.1 90 10:42 15.07.2019
5160 Clouds 27 1018 83 10000 2.1 90 10:24 15.07.2019
5161 Clouds 27 1018 88 10000 2.1 80 09:43 15.07.2019
5162 Clouds 27 1018 88 10000 2.1 80 09:22 15.07.2019
5163 Clouds 27 1019 83 10000 1.5 90 08:46 15.07.2019
5164 Clouds 27 1019 83 10000 1.5 90 08:25 15.07.2019
5165 Rain 27 1020 83 10000 2.6 120 07:52 15.07.2019
5166 Rain 27 1020 83 10000 2.6 120 07:30 15.07.2019
5167 Rain 27 1020 83 10000 2.1 100 06:41 15.07.2019
5168 Clouds 28 1020 83 10000 3.1 90 06:20 15.07.2019
5169 Clouds 28 1020 83 10000 3.1 90 05:42 15.07.2019
5170 Clouds 28 1019 78 10000 2.1 90 04:45 15.07.2019
5171 Clouds 28 1019 78 10000 2.1 90 04:23 15.07.2019
5172 Clouds 29 1019 74 10000 3.1 80 03:23 15.07.2019
5173 Clouds 30 1018 70 10000 5.1 80 02:18 15.07.2019
5174 Clouds 30 1018 70 10000 5.1 80 01:34 15.07.2019
5175 Clouds 30 1018 66 10000 5.7 90 00:53 15.07.2019
5176 Clouds 30 1018 66 10000 5.7 90 00:28 15.07.2019
5177 Clouds 30 1018 66 10000 5.7 80 23:58 14.07.2019
5178 Clouds 30 1018 66 10000 5.7 80 23:40 14.07.2019
5179 Clouds 31 1019 66 10000 4.6 60 23:19 14.07.2019
5180 Clouds 31 1019 66 10000 4.6 60 22:57 14.07.2019
5181 Clouds 30 1019 66 10000 4.6 60 22:38 14.07.2019
5182 Clouds 30 1019 66 10000 4.6 60 22:19 14.07.2019
5183 Clouds 29 1019 78 10000 2.6 40 21:42 14.07.2019
5184 Rain 29 1020 66 10000 2.6 80 21:19 14.07.2019
5185 Rain 29 1020 66 10000 2.6 80 20:57 14.07.2019
5186 Thunderstorm 27 1020 88 7000 9.3 110 20:38 14.07.2019
5187 Rain 29 1020 62 10000 5.1 100 20:19 14.07.2019
5188 Clouds 31 1020 62 10000 5.1 100 19:45 14.07.2019
5189 Clouds 31 1020 62 10000 5.1 100 19:26 14.07.2019
5190 Clouds 31 1020 66 10000 5.1 130 18:58 14.07.2019
5191 Clouds 31 1020 66 10000 5.1 130 18:39 14.07.2019
5192 Clouds 31 1020 62 10000 5.1 130 18:21 14.07.2019
5193 Clouds 31 1020 62 10000 5.1 130 17:49 14.07.2019
5194 Clouds 31 1020 62 10000 5.1 130 17:21 14.07.2019
5195 Clouds 30 1020 66 10000 5.1 110 16:47 14.07.2019
5196 Clouds 30 1020 66 10000 5.1 110 16:24 14.07.2019
5197 Clouds 30 1020 74 10000 4.6 110 15:56 14.07.2019
5198 Clouds 30 1020 74 10000 4.6 110 15:34 14.07.2019
5199 Clouds 29 1020 78 10000 3.6 100 14:51 14.07.2019
5200 Clouds 28 1020 78 10000 3.6 100 14:22 14.07.2019
5201 Clouds 28 1020 74 10000 3.1 90 13:58 14.07.2019
5202 Clouds 28 1020 74 10000 3.1 90 13:38 14.07.2019
5203 Clouds 28 1019 83 10000 1.5 70 13:20 14.07.2019
5204 Clouds 27 1019 83 10000 1.5 70 12:43 14.07.2019
5205 Clouds 28 1019 78 10000 2.1 90 12:22 14.07.2019
5206 Clouds 28 1019 78 10000 2.1 90 11:53 14.07.2019
5207 Clouds 27 1019 78 10000 2.1 90 11:28 14.07.2019
5208 Clouds 27 1019 78 10000 2.1 90 10:58 14.07.2019
5209 Clear 28 1018 77 0 6.77 84.067 10:40 14.07.2019
5210 Clear 28 1018 76 0 6.77 84.067 10:19 14.07.2019
5211 Clear 28 1018 77 0 6.77 84.067 09:42 14.07.2019
5212 Clouds 28 1020 78 10000 2.1 100 09:23 14.07.2019
5213 Clouds 28 1020 78 10000 2.1 100 08:41 14.07.2019
5214 Clouds 28 1020 83 10000 1.5 70 07:57 14.07.2019
5215 Clouds 28 1020 83 10000 1.5 70 07:35 14.07.2019
5216 Clouds 28 1021 78 10000 2.6 80 06:40 14.07.2019
5217 Clouds 29 1021 74 10000 2.6 110 05:44 14.07.2019
5218 Clouds 29 1019 66 10000 4.6 100 03:46 14.07.2019
5219 Clouds 29 1019 66 10000 4.6 100 03:28 14.07.2019
5220 Clouds 30 1019 70 10000 5.1 110 02:39 14.07.2019
5221 Clouds 30 1018 66 10000 5.7 110 02:20 14.07.2019
5222 Clouds 30 1018 66 10000 5.7 110 01:31 14.07.2019
5223 Clouds 31 1018 66 10000 5.1 130 00:55 14.07.2019
5224 Clouds 31 1018 66 10000 5.1 130 00:37 14.07.2019
5225 Clouds 31 1019 62 10000 5.7 130 00:19 14.07.2019
5226 Clouds 31 1019 62 10000 5.7 130 23:43 13.07.2019
5227 Clouds 32 1019 59 10000 6.2 140 23:23 13.07.2019
5228 Clouds 32 1019 59 10000 6.2 140 22:43 13.07.2019
5229 Clouds 32 1019 62 10000 5.7 130 22:22 13.07.2019
5230 Clouds 32 1019 62 10000 5.7 130 21:54 13.07.2019
5231 Clouds 32 1019 62 10000 5.7 130 21:23 13.07.2019
5232 Clouds 32 1019 62 10000 5.7 130 21:23 13.07.2019
5233 Clouds 31 1020 62 10000 6.2 140 20:59 13.07.2019
5234 Clouds 31 1020 62 10000 6.2 140 20:39 13.07.2019
5235 Clouds 31 1020 62 10000 6.2 140 20:21 13.07.2019
5236 Clouds 31 1020 62 10000 6.2 140 19:41 13.07.2019
5237 Clouds 31 1020 66 10000 6.2 140 19:23 13.07.2019
5238 Clouds 31 1020 66 10000 6.2 140 18:40 13.07.2019
5239 Clouds 31 1020 74 10000 6.2 140 18:19 13.07.2019
5240 Clouds 31 1020 74 10000 6.2 140 17:38 13.07.2019
5241 Clouds 31 1020 74 10000 6.7 130 17:19 13.07.2019
5242 Clouds 31 1020 74 10000 6.7 130 16:45 13.07.2019
5243 Clouds 31 1020 74 10000 6.7 130 16:26 13.07.2019
5244 Rain 31 1019 75 0 0.89 100 15:48 13.07.2019
5245 Clouds 30 1018 74 10000 4.6 130 15:25 13.07.2019
5246 Clouds 30 1018 74 10000 4.6 130 14:57 13.07.2019
5247 Clouds 29 1018 74 10000 4.6 130 14:39 13.07.2019
5248 Clouds 29 1018 74 10000 4.6 130 14:20 13.07.2019
5249 Clouds 28 1018 78 10000 4.1 120 13:43 13.07.2019
5250 Clouds 28 1018 78 10000 4.1 120 13:19 13.07.2019
5251 Clouds 28 1017 78 10000 6.51 114.212 12:41 13.07.2019
5252 Clouds 27 1017 78 10000 4.6 140 12:23 13.07.2019
5253 Clouds 28 1017 78 10000 4.6 140 11:57 13.07.2019
5254 Clouds 28 1017 78 10000 4.6 140 11:36 13.07.2019
5255 Clouds 28 1017 78 10000 4.1 140 11:18 13.07.2019
5256 Clouds 28 1017 78 10000 4.1 140 10:39 13.07.2019
5257 Clouds 28 1018 83 10000 4.1 140 10:21 13.07.2019
5258 Clouds 28 1018 83 10000 4.1 140 09:42 13.07.2019
5259 Clouds 28 1018 83 10000 4.1 140 09:24 13.07.2019
5260 Clouds 28 1017 82 0 6.6 112.647 08:48 13.07.2019
5261 Clouds 28 1017 82 0 6.6 112.647 08:27 13.07.2019
5262 Clouds 28 1018 82 0 6.6 112.647 07:42 13.07.2019
5263 Clouds 28 1019 78 10000 2.6 130 07:20 13.07.2019
5264 Clouds 28 1019 78 10000 2.6 130 06:29 13.07.2019
5265 Clouds 28 1019 78 10000 2.1 120 05:43 13.07.2019
5266 Clouds 29 1018 74 10000 3.1 120 04:39 13.07.2019
5267 Clouds 28 1018 78 10000 3.6 140 04:18 13.07.2019
5268 Clouds 28 1018 78 10000 3.6 140 03:40 13.07.2019
5269 Rain 29 1017 74 10000 3.6 150 02:41 13.07.2019
5270 Rain 29 1017 79 10000 3.1 70 01:46 13.07.2019
5271 Clouds 29 1017 79 10000 2.1 40 01:20 13.07.2019
5272 Clouds 29 1017 79 10000 2.1 40 00:57 13.07.2019
5273 Clouds 29 1017 79 10000 3.1 40 00:20 13.07.2019
5274 Clouds 29 1017 79 10000 3.1 40 23:49 12.07.2019
5275 Clouds 29 1017 79 10000 3.1 40 23:30 12.07.2019
5276 Clouds 29 1017 74 10000 2.6 10 22:56 12.07.2019
5277 Clouds 29 1017 74 10000 2.6 10 22:38 12.07.2019
5278 Clouds 29 1018 78 10000 2.6 30 22:18 12.07.2019
5279 Clouds 29 1018 78 10000 2.6 30 21:41 12.07.2019
5280 Clouds 29 1018 74 10000 1 0 21:19 12.07.2019
5281 Clouds 28 1018 74 10000 1 0 20:43 12.07.2019
5282 Rain 28 1017 84 0 5.86 127.792 20:21 12.07.2019
5283 Rain 28 1018 85 0 5.86 127.792 19:42 12.07.2019
5284 Thunderstorm 26 1019 88 10000 1.5 300 19:24 12.07.2019
5285 Rain 26 1019 88 10000 1.5 300 18:46 12.07.2019
5286 Rain 25 1019 88 10000 1.5 300 18:22 12.07.2019
5287 Rain 26 1019 88 10000 4.1 350 17:55 12.07.2019
5288 Rain 26 1019 88 10000 4.1 350 17:30 12.07.2019
5289 Thunderstorm 29 1018 88 10000 4.6 290 16:59 12.07.2019
5290 Thunderstorm 29 1018 88 10000 4.6 290 16:27 12.07.2019
5291 Rain 29 1018 74 0 2.6 290 15:57 12.07.2019
5292 Thunderstorm 31 1018 74 10000 2.6 160 15:37 12.07.2019
5293 Clouds 30 1017 74 10000 2.6 140 15:18 12.07.2019
5294 Clouds 30 1017 74 10000 2.6 140 14:44 12.07.2019
5295 Clouds 29 1017 74 10000 2.6 140 14:21 12.07.2019
5296 Clouds 27 1017 94 10000 4.88 123.032 13:46 12.07.2019
5297 Clouds 27 1017 94 10000 5.08 121.564 13:23 12.07.2019
5298 Thunderstorm 27 1017 88 10000 3.1 220 12:42 12.07.2019
5299 Thunderstorm 28 1017 88 10000 3.1 220 12:23 12.07.2019
5300 Clouds 27 1016 83 10000 3.1 170 11:47 12.07.2019
5301 Clouds 27 1016 83 10000 3.1 170 11:24 12.07.2019
5302 Clouds 28 1016 83 10000 3.1 120 10:58 12.07.2019
5303 Clouds 28 1016 83 10000 3.1 120 10:40 12.07.2019
5304 Clouds 28 1016 83 10000 3.1 120 10:22 12.07.2019
5305 Clouds 28 1017 83 10000 2.6 140 09:51 12.07.2019
5306 Clouds 28 1017 83 10000 2.6 140 09:25 12.07.2019
5307 Clouds 28 1017 83 10000 2.6 150 08:45 12.07.2019
5308 Clouds 28 1018 83 10000 1.5 160 08:22 12.07.2019
5309 Clouds 28 1018 83 10000 1.5 160 07:47 12.07.2019
5310 Clouds 28 1018 83 10000 1.5 160 07:29 12.07.2019
5311 Clouds 28 1018 83 10000 2.6 140 06:29 12.07.2019
5312 Clouds 28 1018 83 10000 3.6 150 05:50 12.07.2019
5313 Clouds 29 1017 79 10000 4.1 140 03:46 12.07.2019
5314 Clouds 29 1016 74 10000 5.1 140 01:50 12.07.2019
5315 Clouds 30 1016 74 10000 5.1 140 01:32 12.07.2019
5316 Clouds 30 1016 70 10000 6.2 140 00:35 12.07.2019
5317 Clouds 31 1016 66 10000 5.7 130 23:56 11.07.2019
5318 Clouds 32 1016 66 10000 5.7 130 23:37 11.07.2019
5319 Clouds 32 1016 66 10000 5.7 130 23:37 11.07.2019
5320 Clouds 31 1017 70 10000 6.2 140 23:18 11.07.2019
5321 Clouds 31 1017 70 10000 6.2 140 22:42 11.07.2019
5322 Clouds 31 1017 70 10000 6.2 140 22:23 11.07.2019
5323 Clouds 31 1017 70 10000 3.1 130 21:43 11.07.2019
5324 Clouds 30 1018 74 10000 2.1 100 21:20 11.07.2019
5325 Clouds 30 1018 74 10000 2.1 100 21:20 11.07.2019
5326 Clouds 30 1018 74 10000 2.1 100 21:20 11.07.2019
5327 Clouds 30 1018 74 10000 2.1 100 20:56 11.07.2019
5328 Clouds 29 1018 74 10000 2.1 100 20:38 11.07.2019
5329 Clouds 29 1018 74 10000 2.1 100 20:38 11.07.2019
5330 Clouds 29 1017 84 0 5.08 139.992 20:19 11.07.2019
5331 Clouds 28 1017 87 0 5.08 139.992 19:47 11.07.2019
5332 Rain 26 1019 83 10000 1 0 19:25 11.07.2019
5333 Rain 26 1019 83 10000 1 0 18:54 11.07.2019
5334 Rain 26 1019 83 10000 1 0 18:36 11.07.2019
5335 Rain 24 1018 88 10000 1 0 18:18 11.07.2019
5336 Rain 25 1018 88 10000 1 0 17:42 11.07.2019
5337 Rain 25 1018 88 10000 1 0 17:23 11.07.2019
5338 Thunderstorm 26 1020 78 8000 4.1 150 16:51 11.07.2019
5339 Thunderstorm 27 1020 78 8000 4.1 150 16:23 11.07.2019
5340 Thunderstorm 30 1019 74 10000 3.6 140 15:54 11.07.2019
5341 Thunderstorm 30 1019 74 10000 3.6 140 15:54 11.07.2019
5342 Thunderstorm 30 1019 74 10000 3.6 140 15:54 11.07.2019
5343 Thunderstorm 30 1019 74 10000 3.6 140 15:36 11.07.2019
5344 Clouds 30 1018 79 10000 3.1 140 15:18 11.07.2019
5345 Clouds 30 1018 79 10000 3.1 140 14:43 11.07.2019
5346 Clouds 30 1018 79 10000 3.1 140 14:21 11.07.2019
5347 Clouds 28 1018 88 10000 2.6 150 13:46 11.07.2019
5348 Clouds 28 1018 88 10000 2.6 150 13:26 11.07.2019
5349 Clouds 27 1017 88 10000 0.5 0 12:45 11.07.2019
5350 Clouds 26 1017 88 10000 0.5 0 12:26 11.07.2019
5351 Clouds 26 1017 88 10000 2.1 150 11:53 11.07.2019
5352 Clouds 26 1017 88 10000 2.1 150 11:31 11.07.2019
5353 Clouds 27 1017 88 10000 1 0 10:59 11.07.2019
5354 Clouds 27 1017 88 10000 1 0 10:41 11.07.2019
5355 Clouds 27 1017 88 10000 1 0 10:18 11.07.2019
5356 Clouds 27 1017 88 10000 1 0 09:41 11.07.2019
5357 Clouds 27 1017 88 10000 1 0 09:23 11.07.2019
5358 Thunderstorm 27 1018 88 10000 1.5 180 08:50 11.07.2019
5359 Thunderstorm 27 1018 88 10000 1.5 180 08:24 11.07.2019
5360 Clouds 28 1018 83 10000 2.1 160 07:48 11.07.2019
5361 Clouds 28 1018 83 10000 2.1 160 07:29 11.07.2019
5362 Clouds 28 1019 83 10000 1.5 180 06:27 11.07.2019
5363 Clouds 28 1019 83 10000 1.5 180 05:45 11.07.2019
5364 Clouds 28 1019 83 10000 1.5 180 05:26 11.07.2019
5365 Clouds 29 1018 79 10000 4.1 180 03:59 11.07.2019
5366 Clouds 29 1018 79 10000 3.6 190 02:37 11.07.2019
5367 Clouds 31 1017 70 10000 5.1 170 00:49 11.07.2019
5368 Clouds 32 1017 66 10000 5.1 170 23:53 10.07.2019
5369 Clouds 32 1017 66 10000 5.1 170 23:31 10.07.2019
5370 Clouds 32 1017 59 10000 3.6 150 22:58 10.07.2019
5371 Clouds 32 1017 59 10000 3.6 150 22:37 10.07.2019
5372 Clouds 32 1018 66 10000 4.1 170 22:18 10.07.2019
5373 Clouds 32 1018 66 10000 4.1 170 21:43 10.07.2019
5374 Clouds 32 1018 66 10000 4.1 170 21:25 10.07.2019
5375 Clouds 32 1018 66 10000 5.1 160 20:48 10.07.2019
5376 Clouds 32 1018 66 10000 5.1 160 20:28 10.07.2019
5377 Clouds 32 1019 62 10000 5.1 190 20:00 10.07.2019
5378 Clouds 32 1019 62 10000 5.1 190 19:41 10.07.2019
5379 Clouds 32 1019 62 10000 4.1 190 19:21 10.07.2019
5380 Clouds 32 1019 62 10000 4.1 190 18:47 10.07.2019
5381 Clouds 31 1019 62 10000 4.1 190 18:24 10.07.2019
5382 Clouds 31 1019 70 10000 3.6 180 17:50 10.07.2019
5383 Clouds 31 1019 70 10000 3.6 180 17:30 10.07.2019
5384 Clouds 31 1019 70 10000 4.6 200 16:58 10.07.2019
5385 Clouds 31 1019 70 10000 4.6 200 16:22 10.07.2019
5386 Clouds 31 1018 70 10000 4.1 210 15:47 10.07.2019
5387 Clouds 31 1018 70 10000 4.1 210 15:26 10.07.2019
5388 Rain 30 1018 79 10000 2.6 180 14:59 10.07.2019
5389 Rain 30 1018 79 10000 2.6 180 14:37 10.07.2019
5390 Clouds 29 1016 78 10000 2.6 180 14:19 10.07.2019
5391 Clouds 28 1016 78 10000 2.6 180 13:38 10.07.2019
5392 Rain 27 1017 85 0 5.7 169.218 13:18 10.07.2019
5393 Rain 27 1015 87 0 5.7 169.218 12:41 10.07.2019
5394 Clouds 27 1016 83 10000 1.5 180 12:21 10.07.2019
5395 Clouds 27 1016 83 10000 1.5 180 11:49 10.07.2019
5396 Clouds 27 1016 83 10000 1.5 180 11:22 10.07.2019
5397 Clouds 27 1016 83 10000 2.1 180 10:58 10.07.2019
5398 Clouds 27 1016 83 10000 2.1 180 10:58 10.07.2019
5399 Rain 27 1016 83 10000 2.1 180 10:24 10.07.2019
5400 Rain 27 1018 83 10000 3.6 180 09:56 10.07.2019
5401 Rain 27 1018 83 10000 3.6 180 09:37 10.07.2019
5402 Rain 27 1016 87 0 6.6 155.99 09:19 10.07.2019
5403 Rain 27 1016 87 0 6.6 155.99 08:48 10.07.2019
5404 Clouds 27 1018 78 10000 2.1 170 08:23 10.07.2019
5405 Clouds 27 1018 78 10000 2.1 170 07:46 10.07.2019
5406 Clouds 27 1018 83 10000 2.1 70 07:23 10.07.2019
5407 Clouds 28 1018 83 10000 2.1 70 06:36 10.07.2019
5408 Clouds 28 1019 78 10000 1 0 05:40 10.07.2019
5409 Rain 28 1018 83 0 6.01 148.249 04:30 10.07.2019
5410 Clouds 29 1017 70 10000 4.1 150 01:59 10.07.2019
5411 Clouds 31 1017 70 10000 4.6 160 00:43 10.07.2019
5412 Clouds 31 1017 58 10000 5.1 180 23:42 09.07.2019
5413 Clouds 31 1017 58 10000 5.1 180 23:23 09.07.2019
5414 Clouds 31 1017 62 0 4.1 190 22:57 09.07.2019
5415 Clouds 32 1017 62 0 4.1 190 22:36 09.07.2019
5416 Clouds 32 1017 66 10000 5.1 170 22:18 09.07.2019
5417 Clouds 32 1017 66 10000 5.1 170 22:18 09.07.2019
5418 Clouds 32 1017 66 10000 5.1 170 21:43 09.07.2019
5419 Clouds 31 1017 66 10000 5.1 170 21:25 09.07.2019
5420 Clouds 32 1018 62 10000 6.7 170 20:44 09.07.2019
5421 Clouds 32 1018 62 10000 6.7 170 20:26 09.07.2019
5422 Clouds 32 1018 66 10000 6.2 190 19:44 09.07.2019
5423 Clouds 32 1018 66 10000 6.2 190 19:26 09.07.2019
5424 Clouds 31 1018 70 10000 6.2 180 18:49 09.07.2019
5425 Clouds 31 1018 70 10000 6.2 180 18:27 09.07.2019
5426 Clouds 31 1018 66 10000 6.7 190 17:58 09.07.2019
5427 Clouds 31 1018 66 10000 6.7 190 17:40 09.07.2019
5428 Clouds 31 1018 66 10000 6.7 190 17:21 09.07.2019
5429 Clouds 30 1018 70 10000 6.7 170 16:50 09.07.2019
5430 Clouds 30 1018 70 10000 6.7 170 16:25 09.07.2019
5431 Rain 30 1018 74 10000 6.2 180 15:56 09.07.2019
5432 Rain 29 1018 74 10000 6.2 180 15:36 09.07.2019
5433 Rain 28 1018 74 10000 5.1 180 14:59 09.07.2019
5434 Rain 28 1018 74 10000 5.1 180 14:40 09.07.2019
5435 Rain 28 1017 85 0 7.82 162.001 14:20 09.07.2019
5436 Rain 27 1017 87 0 7.82 162.001 13:45 09.07.2019
5437 Rain 27 1017 83 10000 4.1 170 13:27 09.07.2019
5438 Clouds 27 1017 83 10000 4.1 170 12:42 09.07.2019
5439 Clouds 27 1017 83 10000 4.1 170 12:23 09.07.2019
5440 Thunderstorm 27 1016 83 10000 3.1 180 11:58 09.07.2019
5441 Thunderstorm 27 1016 83 10000 3.1 180 11:40 09.07.2019
5442 Thunderstorm 27 1016 83 10000 3.1 180 11:21 09.07.2019
5443 -273 0 0 0 0 0 10:55 09.07.2019
5444 Thunderstorm 27 1016 78 10000 4.1 180 10:33 09.07.2019
5445 Thunderstorm 28 1016 78 10000 4.1 180 09:48 09.07.2019
5446 Thunderstorm 28 1016 78 10000 4.1 180 09:29 09.07.2019
5447 Thunderstorm 28 1016 78 10000 4.1 180 08:57 09.07.2019
5448 Thunderstorm 28 1016 78 10000 3.1 180 08:39 09.07.2019
5449 Clouds 27 1017 88 10000 1 0 04:18 05.07.2019
5450 Clouds 27 1017 88 10000 1 0 03:38 05.07.2019
5451 Clouds 27 1016 83 10000 1 0 03:19 05.07.2019
5452 Clouds 27 1016 83 10000 1 0 02:46 05.07.2019
5453 Rain 28 1016 74 10000 6.2 90 01:44 05.07.2019
5454 Rain 28 1016 74 10000 6.2 90 01:25 05.07.2019
5455 Clouds 29 1016 79 10000 2.6 50 00:47 05.07.2019
5456 Clouds 29 1016 74 10000 1 0 00:20 05.07.2019
5457 Clouds 29 1016 74 10000 1 0 23:23 04.07.2019
5458 Rain 27 1017 83 10000 1.5 40 22:58 04.07.2019
5459 Rain 27 1017 83 10000 1.5 40 22:40 04.07.2019
5460 Rain 26 1017 83 10000 5.7 100 22:19 04.07.2019
5461 Thunderstorm 26 1017 88 10000 5.7 70 21:40 04.07.2019
5462 Thunderstorm 26 1017 88 10000 5.7 70 21:22 04.07.2019
5463 Rain 28 1017 83 10000 2.6 40 20:55 04.07.2019
5464 Thunderstorm 28 1017 78 10000 2.1 10 20:37 04.07.2019
5465 Rain 26 1018 94 10000 4.1 210 20:18 04.07.2019
5466 Rain 26 1018 94 10000 4.1 210 19:41 04.07.2019
5467 Rain 26 1018 94 10000 4.1 210 19:20 04.07.2019
5468 Rain 29 1018 79 10000 2.6 30 18:44 04.07.2019
5469 Rain 29 1018 79 10000 2.6 30 18:26 04.07.2019
5470 Rain 29 1017 74 10000 2.6 40 17:48 04.07.2019
5471 Rain 29 1017 74 10000 3.1 50 17:19 04.07.2019
5472 Rain 29 1017 74 10000 3.1 50 16:36 04.07.2019
5473 Rain 27 1017 88 10000 2.1 100 15:42 04.07.2019
5474 Rain 27 1017 88 10000 2.1 100 15:24 04.07.2019
5475 Rain 29 1016 74 10000 2.1 50 14:56 04.07.2019
5476 Rain 29 1016 74 10000 2.1 50 14:37 04.07.2019
5477 Rain 28 1016 78 10000 1.5 60 14:18 04.07.2019
5478 Rain 28 1016 78 10000 1.5 60 13:54 04.07.2019
5479 Rain 28 1015 78 10000 2.1 80 13:36 04.07.2019
5480 Clouds 28 1015 78 10000 2.1 90 13:18 04.07.2019
5481 Clouds 28 1015 78 10000 2.1 90 12:37 04.07.2019
5482 Clouds 27 1015 83 10000 1 0 12:19 04.07.2019
5483 Clouds 28 1015 83 10000 1 0 11:39 04.07.2019
5484 Clouds 28 1015 83 10000 1 0 11:20 04.07.2019
5485 Clouds 28 1014 78 0 3.46 117.113 10:41 04.07.2019
5486 Clouds 28 1014 78 0 3.46 117.113 10:23 04.07.2019
5487 Clouds 28 1014 77 0 3.46 117.113 09:45 04.07.2019
5488 Clouds 28 1015 78 10000 1.5 50 09:26 04.07.2019
5489 Clouds 28 1015 78 10000 1.5 50 08:57 04.07.2019
5490 Clouds 28 1015 78 10000 1.5 50 08:28 04.07.2019
5491 Clouds 28 1016 69 10000 2.1 70 07:46 04.07.2019
5492 Clouds 29 1016 66 10000 2.1 100 07:23 04.07.2019
5493 Clouds 29 1016 66 10000 2.1 100 06:55 04.07.2019
5494 Clouds 29 1015 76 0 4.89 117.87 05:55 04.07.2019
5495 Clouds 29 1016 74 10000 2.1 60 05:36 04.07.2019
5496 Clouds 29 1014 66 10000 3.6 110 02:51 04.07.2019
5497 Clouds 30 1014 66 10000 3.6 80 01:42 04.07.2019
5498 Clouds 30 1014 66 10000 3.6 80 01:42 04.07.2019
5499 Clouds 30 1014 66 10000 3.6 80 01:22 04.07.2019
5500 Clouds 31 1014 62 10000 4.1 50 23:59 03.07.2019
5501 Clouds 31 1014 62 10000 4.1 50 23:41 03.07.2019
5502 Clouds 31 1014 62 10000 4.1 50 23:20 03.07.2019
5503 Clouds 31 1015 62 10000 4.6 60 22:55 03.07.2019
5504 Clouds 31 1015 62 10000 4.6 60 22:36 03.07.2019
5505 Clouds 30 1016 66 10000 5.1 50 22:18 03.07.2019
5506 Clouds 30 1016 66 10000 5.1 50 21:45 03.07.2019
5507 Clouds 30 1016 66 10000 5.1 50 21:26 03.07.2019
5508 Clouds 30 1016 70 10000 4.1 50 20:46 03.07.2019
5509 Clouds 31 1016 70 10000 4.1 50 20:24 03.07.2019
5510 Clouds 31 1016 70 10000 3.6 50 19:51 03.07.2019
5511 Clouds 31 1016 70 10000 3.6 50 19:33 03.07.2019
5512 Clouds 30 1016 70 10000 4.1 50 18:50 03.07.2019
5513 Clouds 30 1016 70 10000 4.1 50 18:30 03.07.2019
5514 Clouds 30 1016 70 10000 3.1 30 17:58 03.07.2019
5515 Clouds 30 1016 70 10000 3.1 30 17:39 03.07.2019
5516 Clouds 30 1016 70 10000 2.1 20 17:18 03.07.2019
5517 Clouds 30 1016 70 10000 2.1 20 16:44 03.07.2019
5518 Clouds 30 1016 70 10000 2.1 20 16:22 03.07.2019
5519 Clouds 29 1016 74 10000 2.1 10 15:50 03.07.2019
5520 -273 0 0 0 0 0 15:31 03.07.2019
5521 Clouds 29 1015 78 10000 1.5 10 14:58 03.07.2019
5522 Clouds 29 1015 78 10000 1.5 10 14:38 03.07.2019
5523 Clouds 27 1015 94 10000 1.5 330 14:19 03.07.2019
5524 Clouds 27 1015 94 10000 1.5 330 13:40 03.07.2019
5525 Clouds 27 1015 94 10000 1.49 109.419 13:18 03.07.2019
5526 Clouds 25 1015 94 10000 1.49 109.419 12:43 03.07.2019
5527 Clouds 25 1014 94 10000 0.51 115.071 12:18 03.07.2019
5528 Clouds 26 1014 94 10000 0.51 115.071 11:42 03.07.2019
5529 Clouds 26 1014 94 10000 0.51 115.071 11:21 03.07.2019
5530 Clear 26 1014 94 10000 0.51 115.071 10:43 03.07.2019
5531 Clear 26 1014 94 10000 0.51 115.071 10:24 03.07.2019
5532 Clear 26 1015 94 10000 0.51 115.071 09:55 03.07.2019
5533 Clear 26 1015 94 10000 0.51 115.071 09:36 03.07.2019
5534 Clear 26 1015 94 10000 1.75 130.306 09:18 03.07.2019
5535 Clear 26 1015 94 10000 1.75 130.306 08:41 03.07.2019
5536 Clear 26 1015 94 10000 2.43 149.84 08:22 03.07.2019
5537 Clear 27 1015 94 10000 0.5 0 07:38 03.07.2019
5538 Clear 27 1016 88 10000 2.43 149.84 07:18 03.07.2019
5539 Clouds 27 1016 88 10000 1.5 180 06:19 03.07.2019
5540 Clouds 27 1016 88 10000 1.5 180 05:29 03.07.2019
5541 Clouds 28 1015 78 10000 0.5 0 04:27 03.07.2019
5542 Clouds 29 1015 74 10000 1 0 02:58 03.07.2019
5543 Clouds 29 1015 79 10000 2.6 30 01:40 03.07.2019
5544 Clouds 30 1015 74 10000 2.1 20 01:21 03.07.2019
5545 Clouds 30 1014 75 0 0.9 110.168 00:40 03.07.2019
5546 Clouds 30 1015 74 10000 2.1 30 23:57 02.07.2019
5547 Clouds 30 1015 74 10000 2.1 30 23:37 02.07.2019
5548 Clouds 30 1016 74 10000 3.1 340 23:19 02.07.2019
5549 Clouds 31 1016 74 10000 3.1 340 22:41 02.07.2019
5550 Clouds 31 1016 62 10000 4.1 360 22:23 02.07.2019
5551 Clouds 31 1016 62 10000 4.1 360 21:58 02.07.2019
5552 Clouds 31 1016 62 10000 4.1 360 21:39 02.07.2019
5553 Clouds 31 1016 62 10000 4.1 360 21:20 02.07.2019
5554 Clouds 30 1016 66 10000 3.1 350 20:42 02.07.2019
5555 Clouds 31 1016 66 10000 3.1 350 20:24 02.07.2019
5556 Clouds 31 1016 66 10000 3.1 350 20:24 02.07.2019
5557 Rain 29 1017 88 10000 4.1 330 20:00 02.07.2019
5558 Rain 29 1017 88 10000 4.1 330 19:40 02.07.2019
5559 Rain 29 1017 88 10000 4.1 330 19:21 02.07.2019
5560 Rain 28 1018 88 10000 5.1 10 18:45 02.07.2019
5561 Rain 29 1018 88 10000 5.1 10 18:18 02.07.2019
5562 Rain 30 1018 83 10000 2.6 30 17:41 02.07.2019
5563 Clouds 31 1017 66 10000 4.6 290 17:21 02.07.2019
5564 Clouds 31 1017 66 10000 4.6 290 16:47 02.07.2019
5565 Clouds 31 1017 66 10000 4.6 290 16:29 02.07.2019
5566 Clouds 31 1016 73 0 2.29 251.589 15:45 02.07.2019
5567 Clouds 30 1017 79 10000 1.5 250 15:25 02.07.2019
5568 Clouds 30 1017 79 10000 1.5 250 14:51 02.07.2019
5569 Clouds 30 1017 79 10000 1.5 250 14:33 02.07.2019
5570 Clouds 26 1016 94 10000 1.5 260 13:48 02.07.2019
5571 Clouds 26 1016 94 10000 1.5 260 13:23 02.07.2019
5572 Clear 26 1016 94 10000 0.5 0 12:59 02.07.2019
5573 Clear 25 1016 94 10000 0.5 0 12:41 02.07.2019
5574 Clear 26 1016 94 10000 0.5 0 12:18 02.07.2019
5575 Clear 26 1016 94 10000 1 0 11:42 02.07.2019
5576 Clear 26 1016 94 10000 2.75 261.374 11:21 02.07.2019
5577 Clear 26 1016 94 10000 2.75 261.374 10:46 02.07.2019
5578 Clear 26 1016 94 10000 2.75 261.374 10:25 02.07.2019
5579 Clear 25 1016 94 10000 0.5 0 09:45 02.07.2019
5580 Clear 25 1016 94 10000 0.5 0 09:22 02.07.2019
5581 Clear 25 1016 94 10000 0.5 0 08:42 02.07.2019
5582 Clear 25 1016 94 10000 0.5 0 08:42 02.07.2019
5583 Clear 26 1016 94 10000 0.5 0 08:21 02.07.2019
5584 Clear 26 1017 88 10000 1 0 07:53 02.07.2019
5585 Clear 26 1017 88 10000 1 0 07:21 02.07.2019
5586 Clear 26 1017 88 10000 2.1 220 06:50 02.07.2019
5587 Clear 26 1017 88 10000 2.1 220 06:30 02.07.2019
5588 Clouds 29 1017 74 10000 2.6 330 04:57 02.07.2019
5589 Clouds 30 1017 70 10000 4.1 340 02:19 02.07.2019
5590 Clouds 31 1017 66 10000 4.6 340 23:50 01.07.2019
5591 Clouds 31 1017 66 10000 4.6 340 23:22 01.07.2019
5592 Clouds 31 1017 66 10000 4.1 330 22:46 01.07.2019
5593 Clouds 31 1017 62 10000 3.6 340 22:27 01.07.2019
5594 Clouds 31 1017 62 10000 3.6 340 21:48 01.07.2019
5595 Clouds 31 1017 62 10000 3.6 340 21:48 01.07.2019
5596 Clouds 31 1017 62 10000 3.6 340 21:26 01.07.2019
5597 Clouds 31 1018 62 10000 3.6 330 20:52 01.07.2019
5598 Clouds 31 1018 62 10000 3.6 330 20:22 01.07.2019
5599 Clouds 31 1018 62 10000 3.6 330 20:22 01.07.2019
5600 Clouds 31 1019 58 10000 3.1 310 19:59 01.07.2019
5601 Clouds 31 1019 58 10000 3.1 310 19:40 01.07.2019
5602 Clouds 32 1019 58 10000 2.6 310 19:22 01.07.2019
5603 Clouds 31 1019 58 10000 2.6 310 18:53 01.07.2019
5604 Clouds 30 1019 58 10000 2.6 310 18:31 01.07.2019
5605 Clouds 30 1019 66 10000 2.6 290 17:57 01.07.2019
5606 Clouds 30 1019 66 10000 2.6 290 17:57 01.07.2019
5607 Clouds 31 1019 66 10000 2.6 290 17:39 01.07.2019
5608 Clouds 30 1019 79 10000 2.6 290 17:19 01.07.2019
5609 Clouds 30 1019 79 10000 2.6 290 16:46 01.07.2019
5610 Clouds 30 1019 79 10000 2.6 290 16:25 01.07.2019
5611 Clouds 30 1019 79 10000 2.1 320 15:46 01.07.2019
5612 Clouds 30 1019 79 10000 2.1 320 15:26 01.07.2019
5613 Clouds 29 1018 88 10000 1.97 176.798 14:45 01.07.2019
5614 Clouds 28 1018 88 10000 1.97 176.798 14:24 01.07.2019
5615 Clouds 26 1018 94 10000 1.97 176.798 13:55 01.07.2019
5616 Clouds 26 1018 94 10000 2.89 189.251 13:37 01.07.2019
5617 Clouds 26 1018 94 10000 2.89 189.251 13:37 01.07.2019
5618 Clouds 26 1018 94 10000 2.89 189.251 13:18 01.07.2019
5619 Clouds 24 1017 100 10000 2.89 189.251 12:39 01.07.2019
5620 Clouds 24 1017 100 10000 2.89 189.251 12:39 01.07.2019
5621 Clouds 26 1017 100 10000 1.96 148.594 12:20 01.07.2019
5622 Rain 26 1016 87 0 1.96 148.594 11:48 01.07.2019
5623 Clouds 25 1017 100 10000 0.5 0 11:28 01.07.2019
5624 Clouds 25 1017 100 10000 0.5 0 10:55 01.07.2019
5625 Clouds 25 1017 100 10000 0.5 0 10:37 01.07.2019
5626 Clouds 25 1017 100 10000 0.5 0 10:18 01.07.2019
5627 Clouds 26 1018 94 10000 1.96 148.594 09:41 01.07.2019
5628 Clouds 26 1018 94 10000 3.89 146.926 09:22 01.07.2019
5629 Clouds 26 1017 87 0 3 143.295 08:39 01.07.2019
5630 Clouds 26 1017 87 0 3 143.295 08:21 01.07.2019
5631 Clouds 26 1019 100 10000 1 0 07:29 01.07.2019
5632 Clouds 26 1019 100 10000 3 143.295 06:39 01.07.2019
5633 Clouds 28 1018 83 10000 1 0 02:48 01.07.2019
5634 Clouds 29 1017 74 10000 1.5 260 00:53 01.07.2019
5635 Clouds 30 1017 74 10000 1.5 260 00:30 01.07.2019
5636 Clouds 29 1017 79 10000 1.5 240 23:58 30.06.2019
5637 Rain 30 1018 74 10000 1.5 170 23:23 30.06.2019
5638 Rain 30 1018 74 10000 1.5 170 22:53 30.06.2019
5639 Rain 29 1018 74 10000 1.5 170 22:22 30.06.2019
5640 Thunderstorm 27 1019 88 9000 6.7 330 21:45 30.06.2019
5641 Thunderstorm 27 1019 88 9000 6.7 330 21:26 30.06.2019
5642 Thunderstorm 27 1019 88 9000 6.7 330 21:26 30.06.2019
5643 Thunderstorm 28 1019 100 9000 8.7 310 20:58 30.06.2019
5644 Rain 31 1018 72 0 4.24 150.557 20:39 30.06.2019
5645 Rain 31 1017 71 0 4.24 150.557 20:21 30.06.2019
5646 Rain 31 1019 70 10000 5.1 170 19:46 30.06.2019
5647 Rain 31 1019 70 10000 5.1 170 19:25 30.06.2019
5648 Clouds 32 1019 66 10000 5.7 160 18:39 30.06.2019
5649 Clouds 32 1019 66 10000 5.7 160 18:20 30.06.2019
5650 Clouds 32 1019 66 10000 5.7 160 18:20 30.06.2019
5651 Clouds 31 1019 70 10000 4.6 160 17:40 30.06.2019
5652 Clouds 31 1019 70 10000 4.6 160 17:18 30.06.2019
5653 Clouds 31 1019 74 10000 3.1 210 16:50 30.06.2019
5654 Clouds 30 1019 74 10000 3.1 210 16:31 30.06.2019
5655 Rain 32 1018 71 0 5.22 150.65 15:38 30.06.2019
5656 Rain 29 1019 78 10000 4.1 190 15:19 30.06.2019
5657 Rain 29 1019 78 10000 4.1 190 14:55 30.06.2019
5658 Rain 29 1019 78 10000 3.1 200 14:36 30.06.2019
5659 Rain 28 1019 78 10000 3.1 200 13:57 30.06.2019
5660 Rain 28 1019 78 10000 3.1 200 13:37 30.06.2019
5661 Rain 28 1019 78 10000 3.1 200 13:18 30.06.2019
5662 Clouds 27 1019 83 10000 2.1 170 12:42 30.06.2019
5663 Clouds 27 1019 83 10000 2.1 170 12:20 30.06.2019
5664 Clouds 27 1018 83 10000 2.1 160 11:45 30.06.2019
5665 Clouds 27 1018 83 10000 2.1 160 11:22 30.06.2019
5666 Clouds 27 1018 83 10000 2.6 160 10:55 30.06.2019
5667 Clouds 27 1018 83 10000 2.6 160 10:55 30.06.2019
5668 Clouds 27 1018 83 10000 2.6 160 10:36 30.06.2019
5669 Clouds 27 1018 83 10000 2.6 160 10:18 30.06.2019
5670 Clouds 28 1019 78 10000 3.6 170 09:43 30.06.2019
5671 Clouds 27 1019 78 10000 3.6 170 09:20 30.06.2019
5672 Thunderstorm 27 1019 83 10000 3.6 160 08:40 30.06.2019
5673 Thunderstorm 27 1019 83 10000 3.6 160 08:21 30.06.2019
5674 Clouds 28 1019 78 10000 3.6 140 07:50 30.06.2019
5675 Clouds 28 1019 78 10000 3.6 140 07:24 30.06.2019
5676 Clouds 29 1020 74 10000 4.1 130 06:37 30.06.2019
5677 Clouds 29 1019 70 10000 2.6 110 03:33 30.06.2019
5678 Clouds 29 1019 70 10000 3.6 120 01:53 30.06.2019
5679 Rain 30 1019 70 10000 3.1 160 00:48 30.06.2019
5680 Rain 30 1019 70 10000 3.1 160 00:24 30.06.2019
5681 Rain 31 1019 66 10000 5.1 150 23:48 29.06.2019
5682 Rain 30 1019 66 10000 5.1 150 23:23 29.06.2019
5683 Clouds 31 1018 66 10000 6.2 150 22:48 29.06.2019
5684 Clouds 31 1018 66 10000 6.2 150 22:24 29.06.2019
5685 Clouds 32 1019 62 10000 6.7 150 21:55 29.06.2019
5686 Clouds 32 1019 62 10000 6.7 150 21:25 29.06.2019
5687 Clouds 32 1019 62 10000 7.2 160 20:56 29.06.2019
5688 Clouds 32 1019 62 10000 7.2 160 20:36 29.06.2019
5689 Clouds 32 1019 62 10000 7.2 160 20:18 29.06.2019
5690 Clouds 31 1020 66 10000 7.2 160 19:41 29.06.2019
5691 Clouds 31 1020 66 10000 7.2 160 19:20 29.06.2019
5692 Clouds 31 1020 66 10000 7.2 160 19:20 29.06.2019
5693 Clouds 32 1019 69 0 0.89 113 18:47 29.06.2019
5694 Clouds 31 1019 66 10000 8.7 140 18:24 29.06.2019
5695 Clouds 31 1019 66 10000 8.7 140 17:38 29.06.2019
5696 Clouds 31 1019 66 10000 8.7 140 17:19 29.06.2019
5697 Rain 31 1019 73 0 1.79 188 16:43 29.06.2019
5698 Clouds 30 1019 70 10000 7.7 150 16:00 29.06.2019
5699 Clouds 30 1019 70 10000 7.7 150 15:32 29.06.2019
5700 Clouds 29 1020 78 10000 5.1 140 14:46 29.06.2019
5701 Clouds 29 1020 78 10000 5.1 140 14:27 29.06.2019
5702 Rain 28 1019 78 10000 4.6 120 13:58 29.06.2019
5703 Rain 28 1019 78 10000 4.6 120 13:39 29.06.2019
5704 Rain 28 1019 78 10000 4.6 120 13:19 29.06.2019
5705 Clouds 28 1019 78 10000 3.6 140 12:40 29.06.2019
5706 Clouds 28 1019 78 10000 3.6 140 12:22 29.06.2019
5707 Clouds 28 1018 83 10000 2.1 110 11:46 29.06.2019
5708 Clouds 28 1017 82 0 0.45 127 11:27 29.06.2019
5709 Clouds 28 1017 82 0 0.45 127 10:51 29.06.2019
5710 Clouds 28 1017 82 0 7.99 115.802 10:22 29.06.2019
5711 Clouds 28 1017 82 0 7.99 115.802 09:57 29.06.2019
5712 Clouds 27 1019 83 10000 3.1 120 08:55 29.06.2019
5713 Clouds 27 1019 83 10000 3.1 120 08:31 29.06.2019
5714 Clouds 27 1018 83 0 9.08 104.432 07:45 29.06.2019
5715 Thunderstorm 27 1019 88 10000 2.1 360 06:55 29.06.2019
5716 Thunderstorm 27 1019 88 10000 2.1 360 06:36 29.06.2019
5717 Thunderstorm 26 1019 88 10000 2.1 360 06:18 29.06.2019
5718 Clouds 28 1019 78 10000 2.6 60 01:43 29.06.2019
5719 Clouds 27 1018 83 10000 3.1 90 00:51 29.06.2019
5720 Thunderstorm 28 1018 83 10000 2.1 50 23:53 28.06.2019
5721 Rain 27 1018 83 10000 2.1 50 23:21 28.06.2019
5722 Rain 25 1019 88 9000 2.1 210 22:47 28.06.2019
5723 Rain 27 1019 88 9000 2.1 210 22:21 28.06.2019
5724 Rain 27 1018 86 0 7.73 110.041 21:45 28.06.2019
5725 Rain 27 1018 86 0 7.73 110.041 21:45 28.06.2019
5726 Thunderstorm 25 1020 94 10000 8.7 100 21:19 28.06.2019
5727 Rain 25 1020 94 10000 8.7 100 20:41 28.06.2019
5728 Rain 25 1020 94 10000 8.7 100 20:19 28.06.2019
5729 Thunderstorm 28 1020 83 10000 2.6 170 19:40 28.06.2019
5730 Thunderstorm 27 1020 83 10000 2.6 170 19:21 28.06.2019
5731 Rain 28 1019 81 0 1.34 118 18:41 28.06.2019
5732 Rain 28 1019 74 10000 5.7 120 18:21 28.06.2019
5733 Rain 29 1019 74 10000 5.7 120 17:44 28.06.2019
5734 Rain 29 1019 74 10000 5.7 120 17:25 28.06.2019
5735 Rain 30 1019 66 10000 6.7 110 16:46 28.06.2019
5736 Rain 30 1019 66 10000 6.7 110 16:19 28.06.2019
5737 Rain 29 1019 74 10000 4.6 110 15:44 28.06.2019
5738 Rain 29 1019 74 10000 4.6 110 15:18 28.06.2019
5739 Rain 28 1019 69 10000 4.1 90 14:40 28.06.2019
5740 Rain 28 1019 69 10000 4.1 90 14:21 28.06.2019
5741 Rain 28 1018 74 10000 3.1 100 13:47 28.06.2019
5742 Rain 27 1018 74 10000 3.1 100 13:28 28.06.2019
5743 Thunderstorm 28 1018 74 10000 3.6 120 12:52 28.06.2019
5744 Thunderstorm 28 1018 74 10000 3.6 120 12:33 28.06.2019
5745 Rain 28 1018 74 10000 2.6 120 11:40 28.06.2019
5746 Rain 28 1018 74 10000 2.6 120 11:18 28.06.2019
5747 Clouds 28 1018 74 10000 3.1 140 10:41 28.06.2019
5748 Clouds 27 1018 74 10000 3.1 140 10:18 28.06.2019
5749 Clouds 28 1018 69 10000 3.6 120 09:44 28.06.2019
5750 Clouds 28 1018 69 10000 3.6 120 09:25 28.06.2019
5751 Clouds 28 1018 69 10000 3.6 130 08:43 28.06.2019
5752 Clouds 28 1018 69 10000 3.6 130 08:24 28.06.2019
5753 Clouds 28 1018 78 10000 4.1 130 07:42 28.06.2019
5754 Clouds 28 1019 78 10000 3.6 130 06:54 28.06.2019
5755 Clouds 29 1019 70 10000 3.6 100 04:35 28.06.2019
5756 Clouds 31 1018 58 10000 4.1 110 00:48 28.06.2019
5757 Clouds 31 1018 58 10000 4.1 110 00:20 28.06.2019
5758 Clouds 31 1018 62 10000 4.6 90 23:46 27.06.2019
5759 Clouds 31 1018 62 10000 4.6 90 23:24 27.06.2019
5760 Rain 30 1018 70 10000 3.1 280 22:43 27.06.2019
5761 Rain 30 1018 70 10000 3.1 280 22:25 27.06.2019
5762 Clouds 31 1018 59 10000 5.7 140 21:58 27.06.2019
5763 Clouds 30 1017 76 0 1.34 6 21:39 27.06.2019
5764 Clouds 30 1017 76 0 1.34 6 21:39 27.06.2019
5765 Rain 31 1018 70 10000 3.6 190 21:20 27.06.2019
5766 Rain 31 1018 70 10000 3.6 190 20:46 27.06.2019
5767 Rain 32 1017 65 0 4.6 104.749 20:28 27.06.2019
5768 Rain 30 1019 78 10000 3.1 280 19:48 27.06.2019
5769 Rain 30 1019 78 10000 3.1 280 19:29 27.06.2019
5770 Rain 30 1019 78 10000 3.1 280 18:52 27.06.2019
5771 Rain 29 1019 83 10000 2.6 360 18:30 27.06.2019
5772 Rain 30 1019 66 10000 4.1 60 17:47 27.06.2019
5773 Rain 30 1019 66 10000 4.1 60 17:24 27.06.2019
5774 Rain 29 1019 65 10000 3.6 90 16:59 27.06.2019
5775 Rain 28 1019 65 10000 3.6 90 16:37 27.06.2019
5776 Rain 28 1019 65 10000 3.6 90 16:18 27.06.2019
5777 Rain 28 1019 65 10000 3.6 90 16:18 27.06.2019
5778 Rain 28 1019 70 10000 2.6 90 15:45 27.06.2019
5779 Rain 27 1019 70 10000 2.6 90 15:22 27.06.2019
5780 Rain 28 1019 70 10000 2.1 70 14:46 27.06.2019
5781 Rain 29 1019 70 10000 2.1 70 14:28 27.06.2019
5782 Clouds 27 1018 78 10000 1 0 13:49 27.06.2019
5783 Clouds 27 1018 78 10000 1 0 13:30 27.06.2019
5784 Clouds 27 1017 74 10000 2.1 100 12:53 27.06.2019
5785 Clouds 26 1017 74 10000 2.1 100 12:35 27.06.2019
5786 Clouds 26 1017 74 10000 2.6 130 11:57 27.06.2019
5787 Clouds 26 1017 74 10000 2.6 130 11:39 27.06.2019
5788 Clouds 26 1017 74 10000 2.6 130 11:20 27.06.2019
5789 Clouds 26 1018 78 10000 2.6 140 10:44 27.06.2019
5790 Clouds 27 1018 78 10000 2.6 140 10:21 27.06.2019
5791 Thunderstorm 26 1018 83 10000 1 0 09:50 27.06.2019
5792 Thunderstorm 26 1018 83 10000 1 0 09:22 27.06.2019
5793 Thunderstorm 27 1018 78 10000 1.5 160 08:52 27.06.2019
5794 Thunderstorm 27 1018 78 10000 1.5 160 08:30 27.06.2019
5795 Clouds 27 1019 78 10000 2.1 200 07:49 27.06.2019
5796 Clouds 27 1019 78 10000 2.1 200 07:25 27.06.2019
5797 Thunderstorm 28 1019 70 10000 2.1 90 06:39 27.06.2019
5798 Clouds 29 1018 70 10000 2.1 70 03:53 27.06.2019
5799 Clouds 30 1018 66 10000 3.1 60 02:43 27.06.2019
5800 Clouds 30 1017 62 10000 3.6 60 01:46 27.06.2019
5801 Clouds 31 1017 62 10000 3.1 50 00:54 27.06.2019
5802 Clouds 31 1017 62 10000 3.1 50 00:29 27.06.2019
5803 Clouds 31 1018 62 10000 2.6 30 23:52 26.06.2019
5804 Clouds 31 1018 62 10000 2.6 30 23:23 26.06.2019
5805 Clouds 31 1018 58 10000 3.1 20 22:59 26.06.2019
5806 Clouds 31 1018 58 10000 3.1 20 22:40 26.06.2019
5807 Clouds 31 1018 58 10000 3.1 20 22:20 26.06.2019
5808 Rain 30 1018 66 10000 2.6 210 21:43 26.06.2019
5809 Rain 30 1018 66 10000 2.6 210 21:21 26.06.2019
5810 Thunderstorm 30 1020 69 10000 2.6 260 20:57 26.06.2019
5811 Thunderstorm 30 1020 69 10000 2.6 260 20:38 26.06.2019
5812 Thunderstorm 30 1020 69 10000 2.6 260 20:20 26.06.2019
5813 Clouds 31 1019 66 10000 2.6 240 19:43 26.06.2019
5814 Clouds 31 1019 66 10000 2.6 240 19:25 26.06.2019
5815 Clouds 31 1020 70 10000 2.1 60 18:46 26.06.2019
5816 Clouds 31 1020 70 10000 2.1 60 18:23 26.06.2019
5817 Clouds 31 1019 66 10000 2.1 100 17:58 26.06.2019
5818 Clouds 31 1019 66 10000 2.1 100 17:38 26.06.2019
5819 Clouds 31 1019 66 10000 2.1 100 17:19 26.06.2019
5820 Clouds 31 1019 66 10000 3.1 30 16:46 26.06.2019
5821 Clouds 31 1019 66 10000 3.1 30 16:22 26.06.2019
5822 Clouds 31 1019 66 10000 2.6 50 15:38 26.06.2019
5823 Clouds 31 1019 66 10000 2.6 50 15:19 26.06.2019
5824 Clouds 29 1019 79 10000 0.11 27.474 14:38 26.06.2019
5825 Clouds 30 1019 79 10000 0.11 27.474 14:19 26.06.2019
5826 Clouds 27 1019 94 10000 1 0 13:42 26.06.2019
5827 Clouds 27 1019 94 10000 1 0 13:20 26.06.2019
5828 Clouds 25 1018 94 10000 0.4 146.111 12:41 26.06.2019
5829 Clouds 28 1018 94 10000 1.67 130.475 12:22 26.06.2019
5830 Clouds 27 1018 94 10000 1.67 130.475 11:45 26.06.2019
5831 Clouds 27 1018 94 10000 1.67 130.475 11:19 26.06.2019
5832 Clouds 27 1018 88 10000 1.67 130.475 10:41 26.06.2019
5833 Clouds 27 1018 88 10000 1.67 130.475 10:22 26.06.2019
5834 Clouds 27 1018 88 10000 1.67 130.475 09:42 26.06.2019
5835 Clouds 27 1018 88 10000 3.06 118.208 09:18 26.06.2019
5836 Clouds 27 1019 83 10000 3.06 118.208 08:41 26.06.2019
5837 Clouds 27 1019 83 10000 2.97 115.1 08:19 26.06.2019
5838 Clouds 27 1019 83 10000 2.97 115.1 07:45 26.06.2019
5839 Clouds 28 1019 83 10000 1 0 06:38 26.06.2019
5840 Clouds 28 1019 83 10000 1 0 06:20 26.06.2019
5841 Clouds 31 1017 58 10000 3.1 30 00:59 26.06.2019
5842 Clouds 31 1017 58 10000 3.1 30 00:20 26.06.2019
5843 Clouds 31 1017 58 10000 3.6 30 23:43 25.06.2019
5844 Clouds 31 1017 58 10000 3.6 30 23:24 25.06.2019
5845 Clear 31 1017 69 0 2.8 27.252 22:56 25.06.2019
5846 Clear 31 1017 71 0 2.8 27.252 22:37 25.06.2019
5847 Clear 31 1017 73 0 2.8 27.252 22:19 25.06.2019
5848 Clouds 31 1018 66 10000 4.1 10 21:40 25.06.2019
5849 Clouds 31 1018 66 10000 4.1 10 21:21 25.06.2019
5850 Clouds 31 1019 66 10000 3.6 350 20:44 25.06.2019
5851 Clouds 31 1019 66 10000 3.6 350 20:43 25.06.2019
5852 Clouds 31 1019 66 10000 3.6 350 20:20 25.06.2019
5853 Clouds 30 1019 70 10000 4.1 340 19:45 25.06.2019
5854 Clouds 31 1019 70 10000 4.1 340 19:23 25.06.2019
5855 Clouds 31 1019 66 10000 3.6 330 18:44 25.06.2019
5856 Clouds 31 1019 66 10000 3.6 330 18:26 25.06.2019
5857 -273 0 0 0 0 0 17:54 25.06.2019
5858 -273 0 0 0 0 0 17:29 25.06.2019
5859 -273 0 0 0 0 0 17:29 25.06.2019
5860 Clouds 30 1016 66 10000 3.1 310 16:57 25.06.2019
5861 Clouds 30 1016 66 10000 3.1 310 16:38 25.06.2019
5862 Clouds 31 1016 66 10000 3.1 310 16:19 25.06.2019
5863 Clouds 31 1019 70 10000 1.5 250 15:40 25.06.2019
5864 Clouds 30 1019 70 10000 1.5 250 15:21 25.06.2019
5865 Clouds 30 1018 74 10000 1 0 14:53 25.06.2019
5866 Clouds 30 1018 74 10000 1 0 14:53 25.06.2019
5867 Clouds 30 1018 74 10000 1 0 14:33 25.06.2019
5868 Clouds 27 1017 83 10000 0.5 0 13:45 25.06.2019
5869 Clouds 27 1017 83 10000 0.5 0 13:26 25.06.2019
5870 Clouds 25 1017 94 10000 1.27 161.522 12:43 25.06.2019
5871 Clouds 25 1017 94 10000 2.15 158.406 12:24 25.06.2019
5872 Clouds 27 1017 94 10000 0.5 0 11:48 25.06.2019
5873 Clouds 26 1017 94 10000 0.5 0 11:26 25.06.2019
5874 Clouds 26 1017 88 10000 2.15 158.406 10:59 25.06.2019
5875 Clouds 26 1017 88 10000 2.15 158.406 10:38 25.06.2019
5876 Clouds 26 1017 88 10000 2.15 158.406 10:19 25.06.2019
5877 Clouds 27 1017 88 10000 2.15 158.406 09:40 25.06.2019
5878 Clouds 27 1017 88 10000 2.4 118.176 09:22 25.06.2019
5879 Clouds 27 1017 88 10000 0.5 0 08:59 25.06.2019
5880 Clouds 27 1017 88 10000 0.5 0 08:31 25.06.2019
5881 Clear 27 1018 88 10000 1 0 07:51 25.06.2019
5882 Clear 27 1018 88 10000 1 0 07:31 25.06.2019
5883 Clear 28 1018 83 10000 1 0 06:49 25.06.2019
5884 Clear 28 1018 83 10000 1 0 06:23 25.06.2019
5885 Clear 29 1017 75 0 2.79 73.003 02:44 25.06.2019
5886 Clouds 30 1017 70 10000 3.1 30 00:57 25.06.2019
5887 Clouds 30 1017 70 10000 3.1 30 00:25 25.06.2019
5888 Clouds 31 1017 66 10000 3.1 50 23:51 24.06.2019
5889 Clouds 31 1017 66 10000 3.1 50 23:32 24.06.2019
5890 Clouds 31 1018 66 10000 3.6 10 22:48 24.06.2019
5891 Clouds 31 1018 66 10000 3.6 10 22:22 24.06.2019
5892 Rain 30 1018 74 10000 3.1 20 21:57 24.06.2019
5893 Rain 30 1018 74 10000 3.1 20 21:37 24.06.2019
5894 Rain 30 1018 74 10000 3.1 20 21:18 24.06.2019
5895 Rain 30 1018 70 10000 3.6 350 20:43 24.06.2019
5896 Rain 30 1018 70 10000 3.6 350 20:23 24.06.2019
5897 Clouds 30 1018 74 10000 4.1 330 19:57 24.06.2019
5898 Clouds 31 1018 74 10000 4.1 330 19:39 24.06.2019
5899 Clouds 31 1018 74 10000 4.1 330 19:20 24.06.2019
5900 Clear 31 1017 69 0 0.7 73.035 18:41 24.06.2019
5901 Clouds 30 1018 74 10000 2.6 310 18:20 24.06.2019
5902 Clouds 30 1018 74 10000 2.6 310 17:37 24.06.2019
5903 Clouds 30 1018 74 10000 2.6 310 17:18 24.06.2019
5904 Clouds 30 1018 74 10000 2.1 210 16:40 24.06.2019
5905 Clouds 30 1018 74 10000 2.1 210 16:19 24.06.2019
5906 Clouds 30 1018 74 10000 2.1 230 15:44 24.06.2019
5907 Clouds 30 1018 74 10000 2.1 230 15:25 24.06.2019
5908 Clouds 29 1017 83 10000 1 0 14:37 24.06.2019
5909 Clouds 29 1017 83 10000 1 0 14:19 24.06.2019
5910 Clouds 28 1017 83 10000 2.1 180 13:33 24.06.2019
5911 Clouds 28 1017 78 10000 1.5 160 12:57 24.06.2019
5912 Clouds 28 1017 78 10000 1.5 160 12:38 24.06.2019
5913 Clouds 27 1017 78 10000 1.5 160 12:20 24.06.2019
5914 Clouds 27 1017 78 10000 1.5 60 11:43 24.06.2019
5915 -273 0 0 0 0 0 11:24 24.06.2019
5916 Clear 27 1015 81 0 3.66 140.267 10:51 24.06.2019
5917 Clear 27 1015 81 0 3.66 140.267 10:31 24.06.2019
5918 Clear 28 1016 79 0 3.66 140.267 09:51 24.06.2019
5919 Clouds 27 1017 83 10000 3.94 120.141 09:23 24.06.2019
5920 Clouds 27 1017 83 10000 3.94 120.141 08:55 24.06.2019
5921 Clouds 27 1017 83 10000 3.94 120.141 08:32 24.06.2019
5922 Clouds 28 1018 78 10000 1 0 07:47 24.06.2019
5923 Clouds 28 1018 78 10000 1 0 07:27 24.06.2019
5924 Clouds 28 1018 78 10000 3.92 120.075 06:52 24.06.2019
5925 Clouds 28 1018 78 10000 3.68 87.493 06:22 24.06.2019
5926 Clouds 28 1019 78 10000 1 0 05:28 24.06.2019
5927 Clouds 29 1018 70 10000 1.5 50 04:28 24.06.2019
5928 Clouds 29 1018 70 10000 1.5 50 03:30 24.06.2019
5929 Clouds 29 1018 66 10000 2.6 50 02:33 24.06.2019
5930 Clouds 30 1018 66 10000 3.1 30 01:54 24.06.2019
5931 Clouds 30 1018 66 10000 3.1 30 01:26 24.06.2019
5932 Clouds 31 1018 58 10000 3.6 40 00:41 24.06.2019
5933 Clouds 31 1018 58 10000 3.6 40 00:19 24.06.2019
5934 Clouds 31 1018 70 10000 3.6 20 23:45 23.06.2019
5935 Clouds 31 1018 70 10000 3.6 20 23:23 23.06.2019
5936 Clouds 31 1018 70 10000 4.1 360 22:43 23.06.2019
5937 Clouds 31 1018 70 10000 4.1 360 22:21 23.06.2019
5938 Clouds 31 1018 74 10000 2.1 320 21:56 23.06.2019
5939 Clouds 31 1018 74 10000 2.1 320 21:36 23.06.2019
5940 Clouds 31 1018 74 10000 2.1 320 21:18 23.06.2019
5941 Clouds 31 1019 70 10000 3.1 10 20:41 23.06.2019
5942 Clouds 31 1019 70 10000 3.1 10 20:22 23.06.2019
5943 Clouds 31 1020 70 10000 3.1 350 19:44 23.06.2019
5944 Clouds 31 1020 70 10000 3.1 350 19:21 23.06.2019
5945 Clouds 31 1020 70 10000 2.6 10 18:54 23.06.2019
5946 Clouds 31 1020 70 10000 2.6 10 18:54 23.06.2019
5947 Clouds 31 1020 70 10000 2.6 10 18:24 23.06.2019
5948 Clouds 30 1020 74 10000 3.6 340 17:50 23.06.2019
5949 Clouds 30 1020 74 10000 3.6 340 17:26 23.06.2019
5950 Clouds 31 1020 70 10000 1.5 210 16:55 23.06.2019
5951 Clouds 31 1020 70 10000 1.5 210 16:36 23.06.2019
5952 Clouds 30 1020 70 10000 1.5 210 16:18 23.06.2019
5953 Clouds 30 1020 70 10000 1.5 90 15:40 23.06.2019
5954 Clouds 30 1020 70 10000 1.5 90 15:20 23.06.2019
5955 Clouds 29 1020 83 10000 1 0 14:40 23.06.2019
5956 Clouds 29 1020 83 10000 1 0 14:22 23.06.2019
5957 Clouds 28 1019 94 10000 3.02 143.968 13:57 23.06.2019
5958 Clouds 28 1019 94 10000 3.02 143.968 13:57 23.06.2019
5959 Clouds 28 1019 94 10000 3.02 143.968 13:38 23.06.2019
5960 Clouds 27 1019 94 10000 3.59 147.558 13:18 23.06.2019
5961 Clouds 25 1019 88 10000 3.59 147.558 12:42 23.06.2019
5962 Clouds 25 1019 88 10000 2.97 107.74 12:21 23.06.2019
5963 Clouds 27 1019 88 10000 0.5 0 11:50 23.06.2019
5964 Clouds 27 1019 88 10000 0.5 0 11:29 23.06.2019
5965 Clear 27 1019 83 10000 1 0 10:53 23.06.2019
5966 Clear 27 1019 83 10000 1 0 10:22 23.06.2019
5967 Clear 27 1019 83 10000 1 0 10:22 23.06.2019
5968 Clear 27 1019 88 10000 0.5 0 09:59 23.06.2019
5969 Clear 27 1019 88 10000 0.5 0 09:25 23.06.2019
5970 Clear 27 1020 88 10000 1 0 08:55 23.06.2019
5971 Clear 27 1020 88 10000 1 0 08:37 23.06.2019
5972 Clear 27 1020 88 10000 1 0 08:18 23.06.2019
5973 Clear 27 1020 83 10000 1 0 07:48 23.06.2019
5974 Clear 27 1020 83 10000 1 0 07:19 23.06.2019
5975 Clear 28 1020 78 10000 1.5 60 06:53 23.06.2019
5976 Clear 27 1020 83 10000 1 0 05:53 23.06.2019
5977 Clouds 29 1020 74 10000 2.1 60 02:52 23.06.2019
5978 Clouds 29 1019 66 10000 3.1 60 01:42 23.06.2019
5979 Clouds 30 1019 66 10000 3.1 60 01:24 23.06.2019
5980 Clouds 30 1020 62 10000 3.6 50 00:32 23.06.2019
5981 Clouds 31 1020 66 10000 4.1 40 23:49 22.06.2019
5982 Clouds 31 1020 66 10000 4.1 40 23:26 22.06.2019
5983 Clouds 30 1020 70 10000 3.6 50 22:47 22.06.2019
5984 Clouds 30 1020 70 10000 3.6 50 22:29 22.06.2019
5985 Clouds 31 1021 70 10000 4.1 60 21:59 22.06.2019
5986 Clouds 31 1021 70 10000 3.6 30 21:36 22.06.2019
5987 Clouds 31 1021 70 10000 3.6 30 21:18 22.06.2019
5988 Clouds 31 1021 70 10000 3.6 30 20:45 22.06.2019
5989 Clouds 31 1021 70 10000 3.6 30 20:24 22.06.2019
5990 Clouds 31 1021 70 10000 2.6 20 19:41 22.06.2019
5991 Clouds 31 1021 70 10000 2.6 20 19:20 22.06.2019
5992 Clouds 31 1021 66 10000 4.1 20 18:43 22.06.2019
5993 Clouds 31 1021 66 10000 4.1 20 18:23 22.06.2019
5994 Clouds 31 1021 66 10000 2.6 140 17:46 22.06.2019
5995 Clouds 31 1021 66 10000 2.6 140 17:25 22.06.2019
5996 Clouds 30 1021 70 10000 3.1 180 16:43 22.06.2019
5997 Clouds 31 1021 70 10000 3.1 180 16:24 22.06.2019
5998 Clouds 30 1021 74 10000 2.6 160 15:45 22.06.2019
5999 Clouds 29 1021 74 10000 2.6 160 15:27 22.06.2019
6000 Clouds 29 1021 74 10000 2.6 160 15:27 22.06.2019
6001 Clouds 29 1020 78 10000 1.5 150 14:51 22.06.2019
6002 Clouds 29 1020 78 10000 1.5 150 14:31 22.06.2019
6003 Clouds 27 1020 94 10000 3.34 137.234 13:57 22.06.2019
6004 Clouds 26 1020 94 10000 3.34 137.234 13:38 22.06.2019
6005 Clouds 26 1020 94 10000 3.34 137.234 13:38 22.06.2019
6006 Clear 26 1019 86 0 3.61 137.292 13:18 22.06.2019
6007 Clear 28 1020 76 0 3.61 137.292 12:42 22.06.2019
6008 Clouds 26 1019 94 10000 0.5 0 12:18 22.06.2019
6009 Clouds 26 1019 94 10000 0.5 0 11:41 22.06.2019
6010 Clouds 26 1019 94 10000 0.5 0 10:58 22.06.2019
6011 Clouds 26 1019 94 10000 0.5 0 10:22 22.06.2019
6012 Clouds 26 1020 88 10000 0.5 0 09:56 22.06.2019
6013 Clouds 26 1020 88 10000 0.5 0 09:29 22.06.2019
6014 Clear 27 1020 83 10000 1.5 140 08:46 22.06.2019
6015 Clear 27 1020 83 10000 1.5 140 08:28 22.06.2019
6016 Clear 27 1020 83 10000 1.5 150 07:44 22.06.2019
6017 Clear 27 1020 83 10000 1.5 150 07:18 22.06.2019
6018 Clear 27 1021 83 10000 1.5 170 06:33 22.06.2019
6019 Clouds 28 1020 74 10000 3.6 150 03:21 22.06.2019
6020 Clouds 29 1020 74 10000 2.6 180 02:18 22.06.2019
6021 Clouds 30 1020 74 10000 4.1 50 00:47 22.06.2019
6022 Clouds 30 1020 74 10000 4.1 50 00:23 22.06.2019
6023 Clouds 30 1020 74 10000 3.6 50 23:49 21.06.2019
6024 Clouds 30 1020 74 10000 3.6 50 23:22 21.06.2019
6025 Clouds 30 1020 70 10000 4.1 30 22:54 21.06.2019
6026 Clouds 30 1020 70 10000 4.1 30 22:27 21.06.2019
6027 Clouds 31 1020 70 10000 4.1 360 21:56 21.06.2019
6028 Clouds 30 1020 70 10000 4.1 360 21:37 21.06.2019
6029 Clouds 30 1020 70 10000 4.1 360 21:18 21.06.2019
6030 Clouds 30 1020 74 10000 3.6 10 20:45 21.06.2019
6031 Clouds 31 1020 74 10000 3.6 10 20:22 21.06.2019
6032 Clouds 31 1020 70 10000 2.6 140 19:37 21.06.2019
6033 Clear 28 1020 74 0 2.98 153.34 18:54 21.06.2019
6034 Clouds 32 1020 66 10000 3.1 150 18:34 21.06.2019
6035 Clear 28 1019 74 0 2.28 171.788 17:47 21.06.2019
6036 Clear 28 1019 74 0 2.28 171.788 17:29 21.06.2019
6037 Clear 32 1019 71 0 2.28 171.788 16:42 21.06.2019
6038 Clouds 30 1020 74 10000 1.5 150 16:22 21.06.2019
6039 Clouds 31 1020 74 10000 1.5 150 15:43 21.06.2019
6040 Clouds 30 1020 74 10000 1.5 150 15:23 21.06.2019
6041 Clouds 29 1019 83 10000 1 0 14:52 21.06.2019
6042 Clouds 29 1019 83 10000 1 0 14:31 21.06.2019
6043 Clouds 28 1019 88 10000 2.48 170.941 13:58 21.06.2019
6044 Clouds 28 1019 88 10000 2.48 170.941 13:36 21.06.2019
6045 Clouds 27 1019 88 10000 2.66 173.286 13:18 21.06.2019
6046 Clear 28 1019 77 0 2.66 173.286 12:39 21.06.2019
6047 Clear 27 1017 86 0 4.46 162.077 12:18 21.06.2019
6048 Clear 27 1017 86 0 4.46 162.077 11:47 21.06.2019
6049 Clouds 26 1018 94 10000 1 0 11:26 21.06.2019
6050 Clouds 26 1018 94 10000 1 0 10:51 21.06.2019
6051 Clouds 26 1018 94 10000 1 0 10:51 21.06.2019
6052 Clouds 26 1018 94 10000 1 0 10:22 21.06.2019
6053 Clear 26 1019 94 10000 2.1 190 09:58 21.06.2019
6054 Clear 26 1019 94 10000 2.1 190 09:39 21.06.2019
6055 Clear 26 1019 94 10000 2.1 190 09:19 21.06.2019
6056 Clear 26 1019 88 10000 1 0 08:42 21.06.2019
6057 Clear 26 1019 88 10000 1 0 08:22 21.06.2019
6058 Clear 26 1019 88 10000 1 0 08:22 21.06.2019
6059 Clear 27 1019 83 10000 2.1 170 07:50 21.06.2019
6060 Clear 27 1019 83 10000 2.1 170 07:27 21.06.2019
6061 Clear 27 1019 83 10000 1.5 170 06:51 21.06.2019
6062 Clear 27 1019 83 10000 1.5 170 06:19 21.06.2019
6063 Clouds 27 1019 83 10000 3.1 170 04:58 21.06.2019
6064 Clouds 27 1019 83 10000 3.1 170 04:22 21.06.2019
6065 Clouds 28 1019 78 10000 4.6 150 03:33 21.06.2019
6066 Clouds 28 1018 74 10000 5.7 150 02:47 21.06.2019
6067 Clouds 29 1018 70 10000 5.1 160 01:38 21.06.2019
6068 Clouds 30 1018 70 10000 5.1 150 00:53 21.06.2019
6069 Clouds 30 1018 70 10000 5.1 150 00:18 21.06.2019
6070 Clouds 30 1018 70 10000 4.6 160 23:42 20.06.2019
6071 Clouds 30 1018 70 10000 4.6 160 23:42 20.06.2019
6072 Clouds 31 1018 70 10000 4.6 160 23:21 20.06.2019
6073 Clouds 31 1018 66 10000 4.6 170 22:46 20.06.2019
6074 Clouds 31 1018 66 10000 4.6 170 22:26 20.06.2019
6075 Clouds 31 1018 66 10000 3.6 160 21:57 20.06.2019
6076 Clouds 31 1018 66 10000 3.6 160 21:57 20.06.2019
6077 Clouds 31 1018 66 10000 3.6 160 21:38 20.06.2019
6078 Clouds 31 1018 66 10000 3.6 160 21:19 20.06.2019
6079 Clouds 31 1019 70 10000 5.1 180 20:44 20.06.2019
6080 Clouds 31 1019 70 10000 5.1 180 20:25 20.06.2019
6081 Clouds 31 1019 70 10000 5.1 180 20:25 20.06.2019
6082 Clouds 32 1019 66 10000 4.1 170 19:55 20.06.2019
6083 Clouds 32 1019 66 10000 4.1 170 19:36 20.06.2019
6084 Clouds 32 1019 66 10000 4.1 170 19:18 20.06.2019
6085 Clouds 31 1020 70 10000 3.1 180 18:41 20.06.2019
6086 Clouds 30 1020 70 10000 3.1 180 18:21 20.06.2019
6087 Clouds 31 1019 66 10000 4.1 180 17:48 20.06.2019
6088 Clouds 31 1019 66 10000 4.1 180 17:29 20.06.2019
6089 Clouds 30 1019 66 10000 5.1 150 16:47 20.06.2019
6090 Clouds 31 1019 66 10000 5.1 150 16:20 20.06.2019
6091 Clouds 31 1019 70 10000 4.6 180 15:57 20.06.2019
6092 Clouds 31 1019 70 10000 4.6 180 15:38 20.06.2019
6093 Clouds 30 1019 70 10000 4.6 180 15:19 20.06.2019
6094 Clouds 30 1018 74 10000 4.6 180 14:44 20.06.2019
6095 Clouds 30 1018 74 10000 4.6 180 14:22 20.06.2019
6096 Clouds 28 1018 83 10000 3.1 180 13:40 20.06.2019
6097 Clouds 27 1018 83 10000 3.1 180 13:19 20.06.2019
6098 Clouds 26 1017 88 10000 3.1 170 12:46 20.06.2019
6099 Clouds 26 1017 88 10000 3.1 170 12:23 20.06.2019
6100 Clouds 26 1017 88 10000 2.1 170 11:46 20.06.2019
6101 Clouds 26 1017 88 10000 2.1 170 11:27 20.06.2019
6102 Clouds 26 1017 88 10000 2.1 170 10:54 20.06.2019
6103 Clouds 26 1017 88 10000 2.1 170 10:36 20.06.2019
6104 Clouds 27 1018 83 10000 1.5 140 10:18 20.06.2019
6105 Clouds 27 1018 83 10000 1.5 140 09:40 20.06.2019
6106 Clouds 27 1018 83 10000 1.5 140 09:21 20.06.2019
6107 Clouds 27 1018 83 10000 1.5 160 08:45 20.06.2019
6108 Clouds 27 1018 83 10000 1.5 160 08:27 20.06.2019
6109 Clouds 27 1018 83 10000 2.6 160 07:53 20.06.2019
6110 Clouds 27 1018 83 10000 2.6 160 07:28 20.06.2019
6111 Clouds 27 1019 83 10000 2.1 170 06:28 20.06.2019
6112 Clear 28 1019 78 10000 2.1 170 04:54 20.06.2019
6113 Clouds 28 1018 83 10000 4.1 160 02:55 20.06.2019
6114 Clouds 30 1017 70 10000 5.1 180 00:34 20.06.2019
6115 Clouds 31 1017 70 10000 5.1 180 23:56 19.06.2019
6116 Clouds 31 1017 70 10000 5.1 180 23:37 19.06.2019
6117 Clouds 31 1017 70 10000 5.1 180 23:19 19.06.2019
6118 Clouds 32 1018 66 10000 4.6 180 22:40 19.06.2019
6119 Clouds 31 1018 66 10000 3.6 170 22:18 19.06.2019
6120 Clouds 31 1018 66 10000 3.6 170 22:18 19.06.2019
6121 Clouds 31 1018 66 10000 3.6 170 21:42 19.06.2019
6122 Clouds 31 1018 66 10000 3.6 170 21:23 19.06.2019
6123 Clouds 30 1018 66 10000 4.6 170 20:42 19.06.2019
6124 Clouds 30 1018 66 10000 4.6 170 20:42 19.06.2019
6125 Clouds 31 1018 66 10000 4.6 170 20:22 19.06.2019
6126 Clouds 31 1019 70 10000 4.1 150 19:51 19.06.2019
6127 Clouds 31 1019 70 10000 4.1 150 19:29 19.06.2019
6128 Clouds 31 1019 70 10000 4.6 160 18:57 19.06.2019
6129 Clouds 31 1019 70 10000 4.6 160 18:28 19.06.2019
6130 Clouds 30 1019 70 10000 5.1 170 17:53 19.06.2019
6131 Clouds 30 1019 70 10000 5.1 170 17:53 19.06.2019
6132 Clouds 30 1019 70 10000 5.1 170 17:33 19.06.2019
6133 Clouds 30 1019 74 10000 5.1 180 16:57 19.06.2019
6134 Clouds 31 1019 74 10000 5.1 180 16:38 19.06.2019
6135 Clouds 31 1019 74 10000 5.1 180 16:20 19.06.2019
6136 Clouds 30 1019 79 10000 4.1 180 15:47 19.06.2019
6137 Clouds 30 1019 79 10000 4.1 180 15:25 19.06.2019
6138 Clouds 30 1018 79 10000 3.1 170 14:50 19.06.2019
6139 Clouds 28 1018 83 10000 1.5 190 14:30 19.06.2019
6140 Clouds 28 1018 83 10000 1.5 190 13:59 19.06.2019
6141 Clouds 28 1018 83 10000 1.5 190 13:40 19.06.2019
6142 Clouds 28 1018 83 10000 1.5 190 13:20 19.06.2019
6143 Clouds 26 1018 88 10000 2.1 170 12:42 19.06.2019
6144 Clouds 26 1018 88 10000 2.1 170 12:20 19.06.2019
6145 Clouds 27 1018 88 10000 2.1 170 11:44 19.06.2019
6146 Clouds 27 1018 88 10000 2.1 170 11:24 19.06.2019
6147 Clouds 27 1018 88 10000 2.1 170 10:51 19.06.2019
6148 Clear 27 1017 85 0 6.01 159.344 10:32 19.06.2019
6149 Clear 27 1017 85 0 6.01 159.344 09:59 19.06.2019
6150 Clear 27 1017 85 0 6.01 159.344 09:39 19.06.2019
6151 Clouds 27 1019 88 10000 2.1 160 09:19 19.06.2019
6152 Clouds 27 1019 88 10000 2.1 160 08:48 19.06.2019
6153 Clouds 27 1019 88 10000 2.1 160 08:27 19.06.2019
6154 Clouds 27 1019 88 10000 2.6 140 07:46 19.06.2019
6155 Clouds 27 1019 88 10000 2.6 140 07:23 19.06.2019
6156 Clouds 28 1018 86 0 5.58 153.366 06:44 19.06.2019
6157 Clouds 28 1020 88 10000 2.1 140 06:22 19.06.2019
6158 Clouds 28 1020 88 10000 2.1 140 05:41 19.06.2019
6159 Clouds 27 1019 86 0 5.17 149.363 03:58 19.06.2019
6160 Clouds 28 1019 83 10000 2.1 150 02:59 19.06.2019
6161 Clouds 28 1018 83 10000 3.1 170 01:47 19.06.2019
6162 Clouds 29 1018 74 10000 3.6 160 00:56 19.06.2019
6163 Clouds 29 1018 74 10000 3.6 160 00:38 19.06.2019
6164 Clouds 29 1018 74 10000 3.6 160 00:19 19.06.2019
6165 Clouds 28 1018 78 10000 2.6 180 23:43 18.06.2019
6166 Clouds 28 1018 78 10000 2.6 180 23:25 18.06.2019
6167 Clouds 28 1018 69 10000 3.1 180 22:42 18.06.2019
6168 Clouds 28 1018 69 10000 3.1 180 22:23 18.06.2019
6169 Clouds 29 1018 62 10000 3.1 170 21:55 18.06.2019
6170 Clouds 29 1018 62 10000 3.1 170 21:37 18.06.2019
6171 Clouds 29 1018 62 10000 3.1 170 21:37 18.06.2019
6172 Rain 29 1019 58 10000 3.1 220 21:18 18.06.2019
6173 Rain 30 1019 58 10000 3.1 220 20:40 18.06.2019
6174 Rain 30 1019 58 10000 3.1 220 20:22 18.06.2019
6175 Rain 28 1020 69 10000 4.1 210 19:40 18.06.2019
6176 Rain 28 1020 69 10000 4.1 210 19:22 18.06.2019
6177 Rain 28 1020 65 10000 3.1 220 18:55 18.06.2019
6178 Rain 29 1020 65 10000 3.1 220 18:25 18.06.2019
6179 -273 0 0 0 0 0 17:49 18.06.2019
6180 Clouds 29 1020 69 10000 4.6 190 17:23 18.06.2019
6181 Rain 29 1019 65 10000 5.1 180 16:58 18.06.2019
6182 Rain 28 1019 65 10000 5.1 180 16:40 18.06.2019
6183 Rain 28 1019 65 10000 5.1 180 16:21 18.06.2019
6184 Rain 27 1019 74 10000 4.6 180 15:41 18.06.2019
6185 Rain 27 1019 74 10000 4.6 180 15:22 18.06.2019
6186 Clouds 27 1019 83 10000 6.7 170 14:56 18.06.2019
6187 Clouds 27 1019 83 10000 6.7 170 14:37 18.06.2019
6188 Clouds 27 1019 83 10000 6.7 170 14:18 18.06.2019
6189 Clouds 28 1019 83 10000 5.1 160 13:46 18.06.2019
6190 Clouds 27 1019 83 10000 5.1 160 13:28 18.06.2019
6191 Clouds 27 1018 83 10000 5.7 150 12:46 18.06.2019
6192 Clouds 27 1018 83 10000 5.7 150 12:46 18.06.2019
6193 Clouds 27 1018 83 10000 5.7 150 12:27 18.06.2019
6194 Clouds 27 1018 83 10000 4.1 150 11:50 18.06.2019
6195 Clouds 26 1018 83 10000 4.1 150 11:24 18.06.2019
6196 Clouds 26 1018 83 10000 4.1 160 10:59 18.06.2019
6197 Clouds 26 1018 83 10000 4.1 160 10:39 18.06.2019
6198 Clouds 26 1018 83 10000 4.1 160 10:20 18.06.2019
6199 Clouds 27 1018 83 10000 4.6 170 09:51 18.06.2019
6200 Clouds 27 1018 83 10000 4.6 170 09:24 18.06.2019
6201 Clouds 27 1019 83 10000 3.1 140 08:48 18.06.2019
6202 Clouds 27 1019 83 10000 3.1 140 08:22 18.06.2019
6203 Clouds 26 1019 78 10000 4.6 120 07:46 18.06.2019
6204 Clouds 26 1019 78 10000 4.6 120 07:24 18.06.2019
6205 Rain 26 1020 83 10000 2.6 80 06:48 18.06.2019
6206 Rain 25 1021 83 10000 3.1 90 05:24 18.06.2019
6207 Rain 27 1020 74 10000 1 0 03:59 18.06.2019
6208 Rain 28 1019 74 10000 2.6 140 02:27 18.06.2019
6209 Rain 28 1019 74 10000 2.6 140 01:25 18.06.2019
6210 Rain 29 1019 70 10000 4.1 140 00:57 18.06.2019
6211 Rain 29 1019 70 10000 4.1 140 00:30 18.06.2019
6212 Rain 29 1019 70 10000 4.6 140 23:42 17.06.2019
6213 Rain 29 1019 70 10000 4.6 140 23:20 17.06.2019
6214 Thunderstorm 29 1018 66 10000 5.7 140 22:58 17.06.2019
6215 Thunderstorm 29 1018 66 10000 5.7 140 22:38 17.06.2019
6216 Thunderstorm 30 1018 66 10000 5.7 140 22:20 17.06.2019
6217 Clouds 29 1018 73 0 5.4 116.114 21:42 17.06.2019
6218 Clouds 29 1019 70 10000 7.2 160 21:22 17.06.2019
6219 Clouds 30 1019 70 10000 7.2 160 20:38 17.06.2019
6220 Clouds 29 1019 70 10000 7.2 160 20:20 17.06.2019
6221 Clouds 31 1019 62 10000 6.7 160 19:43 17.06.2019
6222 Clouds 31 1019 62 10000 6.7 160 19:24 17.06.2019
6223 Clouds 31 1019 70 10000 7.7 150 18:58 17.06.2019
6224 Clouds 31 1019 70 10000 7.7 150 18:38 17.06.2019
6225 Rain 31 1019 66 10000 7.7 150 18:18 17.06.2019
6226 Rain 31 1019 66 10000 7.7 150 18:18 17.06.2019
6227 Rain 31 1019 66 10000 7.7 150 17:47 17.06.2019
6228 Rain 30 1019 66 10000 7.7 150 17:29 17.06.2019
6229 Rain 31 1018 72 0 0.45 180 16:55 17.06.2019
6230 Rain 30 1018 71 0 0.45 120 16:36 17.06.2019
6231 Rain 29 1018 77 0 8.46 129.434 16:18 17.06.2019
6232 Rain 29 1018 77 0 8.46 129.434 15:40 17.06.2019
6233 Rain 28 1018 75 0 8.21 131.744 15:20 17.06.2019
6234 Rain 28 1018 71 0 8.21 131.744 14:55 17.06.2019
6235 Clouds 27 1018 83 10000 6.2 150 14:34 17.06.2019
6236 Clouds 27 1018 83 10000 6.2 150 13:57 17.06.2019
6237 Clouds 27 1018 83 10000 6.2 150 13:39 17.06.2019
6238 Clouds 27 1017 78 10000 6.2 150 13:20 17.06.2019
6239 Clouds 27 1017 78 10000 6.2 150 12:33 17.06.2019
6240 Rain 28 1016 82 0 0.89 135 11:59 17.06.2019
6241 Rain 28 1016 82 0 0.89 135 11:39 17.06.2019
6242 Clouds 28 1017 78 10000 6.2 140 11:18 17.06.2019
6243 Clouds 28 1017 78 10000 6.2 140 10:46 17.06.2019
6244 Clouds 28 1017 78 10000 6.2 140 10:28 17.06.2019
6245 Clouds 28 1017 78 10000 5.7 150 09:56 17.06.2019
6246 Clouds 28 1017 78 10000 5.7 150 09:32 17.06.2019
6247 Thunderstorm 27 1018 83 10000 5.1 150 08:46 17.06.2019
6248 Thunderstorm 27 1018 83 10000 5.1 150 08:24 17.06.2019
6249 Clouds 28 1018 78 10000 5.7 130 07:52 17.06.2019
6250 Clouds 28 1018 78 10000 5.7 130 07:32 17.06.2019
6251 Clouds 28 1019 78 10000 5.1 130 06:50 17.06.2019
6252 Clouds 28 1019 78 10000 4.6 120 05:55 17.06.2019
6253 Clouds 28 1018 78 10000 4.1 120 04:59 17.06.2019
6254 Clouds 28 1018 74 10000 3.6 110 03:52 17.06.2019
6255 Clouds 28 1018 74 10000 3.6 110 03:25 17.06.2019
6256 Clouds 28 1018 78 10000 4.1 140 02:42 17.06.2019
6257 Clouds 28 1017 70 10000 4.1 120 02:19 17.06.2019
6258 Clouds 29 1017 70 10000 4.1 120 01:35 17.06.2019
6259 Clouds 29 1017 70 10000 4.1 120 00:48 17.06.2019
6260 Clouds 29 1017 70 10000 4.1 120 00:26 17.06.2019
6261 Thunderstorm 29 1017 74 10000 5.1 150 23:58 16.06.2019
6262 Thunderstorm 29 1017 74 10000 5.1 150 23:37 16.06.2019
6263 Clouds 30 1017 70 10000 5.1 150 23:19 16.06.2019
6264 Clouds 30 1017 70 10000 5.1 150 22:43 16.06.2019
6265 Clouds 30 1018 66 10000 5.1 140 22:19 16.06.2019
6266 Clouds 30 1018 66 10000 5.1 140 21:56 16.06.2019
6267 Clouds 30 1018 66 10000 5.1 140 21:38 16.06.2019
6268 Clouds 30 1018 70 10000 5.7 140 21:20 16.06.2019
6269 Clouds 30 1018 70 10000 5.7 140 20:38 16.06.2019
6270 Clouds 30 1018 66 10000 6.7 140 20:19 16.06.2019
6271 Clouds 30 1018 66 10000 6.7 140 20:19 16.06.2019
6272 Clouds 30 1018 66 10000 6.7 140 19:58 16.06.2019
6273 Clouds 30 1018 66 10000 6.7 140 19:38 16.06.2019
6274 Clouds 30 1018 70 10000 6.7 140 19:19 16.06.2019
6275 Clouds 30 1018 70 10000 6.7 140 19:19 16.06.2019
6276 Clouds 30 1018 70 10000 6.7 140 18:41 16.06.2019
6277 Rain 30 1018 78 10000 6.2 140 18:21 16.06.2019
6278 Rain 30 1018 78 10000 6.2 140 17:49 16.06.2019
6279 Rain 30 1018 78 10000 6.2 140 17:49 16.06.2019
6280 Rain 29 1018 74 10000 6.2 150 17:24 16.06.2019
6281 Rain 29 1018 74 10000 6.2 150 16:58 16.06.2019
6282 Rain 29 1018 74 10000 6.2 150 16:39 16.06.2019
6283 Rain 29 1018 70 10000 6.2 150 16:21 16.06.2019
6284 Rain 29 1018 70 10000 6.2 150 15:45 16.06.2019
6285 Rain 29 1018 70 10000 6.2 150 15:26 16.06.2019
6286 Rain 28 1018 74 10000 4.6 130 14:45 16.06.2019
6287 Rain 28 1018 74 10000 4.6 130 14:25 16.06.2019
6288 Clouds 27 1017 83 10000 4.6 140 13:57 16.06.2019
6289 Clouds 27 1017 83 10000 4.6 140 13:38 16.06.2019
6290 Clouds 27 1017 83 10000 3.6 130 13:20 16.06.2019
6291 Clouds 27 1017 83 10000 3.6 130 12:42 16.06.2019
6292 Clouds 27 1017 78 10000 4.1 130 12:20 16.06.2019
6293 Clouds 27 1017 78 10000 4.1 130 11:48 16.06.2019
6294 Clouds 27 1017 83 10000 4.1 140 11:21 16.06.2019
6295 Clouds 27 1017 83 10000 4.1 140 10:56 16.06.2019
6296 Clouds 27 1017 83 10000 4.1 140 10:38 16.06.2019
6297 Clouds 27 1017 78 10000 4.1 130 10:18 16.06.2019
6298 Clouds 27 1017 78 10000 4.1 130 09:39 16.06.2019
6299 Clouds 27 1018 83 10000 2.6 130 09:21 16.06.2019
6300 Clouds 27 1018 83 10000 2.6 130 08:41 16.06.2019
6301 Clouds 27 1018 83 10000 3.1 120 08:19 16.06.2019
6302 Clouds 27 1018 83 10000 3.1 120 07:44 16.06.2019
6303 Clouds 27 1019 88 10000 2.1 90 06:59 16.06.2019
6304 Clouds 27 1019 88 10000 2.1 90 06:39 16.06.2019
6305 Clouds 27 1019 88 10000 2.1 100 05:50 16.06.2019
6306 Rain 27 1019 83 10000 2.6 100 04:54 16.06.2019
6307 Clouds 26 1019 88 10000 3.1 60 03:57 16.06.2019
6308 Clouds 26 1019 88 10000 3.1 60 03:32 16.06.2019
6309 Rain 26 1017 88 0 3.79 123.308 02:31 16.06.2019
6310 Rain 26 1017 88 0 3.79 123.308 01:44 16.06.2019
6311 Rain 25 1018 94 10000 1.5 330 01:26 16.06.2019
6312 Rain 25 1018 94 10000 1.5 330 00:40 16.06.2019
6313 Rain 25 1019 88 10000 3.1 310 00:21 16.06.2019
6314 Rain 26 1019 88 10000 3.1 310 23:45 15.06.2019
6315 Rain 26 1019 88 10000 3.1 310 23:25 15.06.2019
6316 Thunderstorm 27 1018 88 10000 3.1 360 22:50 15.06.2019
6317 Thunderstorm 27 1018 88 10000 3.1 360 22:27 15.06.2019
6318 Thunderstorm 27 1019 94 10000 39.1 70 21:52 15.06.2019
6319 Thunderstorm 27 1019 94 10000 39.1 70 21:30 15.06.2019
6320 Rain 27 1019 94 9000 2.6 80 20:59 15.06.2019
6321 Rain 27 1019 94 9000 2.6 80 20:41 15.06.2019
6322 Rain 27 1019 88 9000 1.5 80 20:22 15.06.2019
6323 Rain 27 1019 88 9000 1.5 80 19:42 15.06.2019
6324 Rain 28 1019 88 9000 1.5 80 19:23 15.06.2019
6325 Rain 27 1020 88 10000 3.1 60 18:41 15.06.2019
6326 Rain 26 1020 94 9000 2.1 10 18:21 15.06.2019
6327 Rain 25 1020 94 9000 2.1 10 17:43 15.06.2019
6328 Rain 25 1020 94 9000 2.1 10 17:23 15.06.2019
6329 Rain 24 1020 100 9000 3.1 320 16:48 15.06.2019
6330 Rain 24 1020 100 9000 3.1 320 16:20 15.06.2019
6331 Rain 25 1019 94 3700 4.1 230 15:44 15.06.2019
6332 Rain 25 1019 94 9000 2.1 340 15:24 15.06.2019
6333 Rain 26 1019 94 9000 2.1 320 14:44 15.06.2019
6334 Thunderstorm 26 1019 94 9000 2.1 340 14:19 15.06.2019
6335 Thunderstorm 26 1019 94 9000 2.1 340 13:58 15.06.2019
6336 Rain 27 1018 88 10000 1.5 110 13:40 15.06.2019
6337 Rain 27 1018 88 10000 1.5 110 13:40 15.06.2019
6338 Rain 25 1018 94 10000 3.1 40 13:19 15.06.2019
6339 Rain 25 1018 94 10000 3.1 40 12:49 15.06.2019
6340 Rain 25 1018 94 10000 3.1 40 12:26 15.06.2019
6341 Clouds 26 1018 88 10000 2.6 0 11:51 15.06.2019
6342 Clouds 26 1018 88 10000 2.6 0 11:32 15.06.2019
6343 Clouds 27 1018 83 10000 2.1 50 10:47 15.06.2019
6344 Clouds 27 1018 83 10000 2.1 50 10:26 15.06.2019
6345 Clouds 27 1018 83 10000 3.1 100 09:58 15.06.2019
6346 Clouds 27 1018 83 10000 3.1 100 09:39 15.06.2019
6347 Clouds 26 1018 88 10000 3.1 100 09:19 15.06.2019
6348 Clouds 26 1018 88 10000 3.1 100 08:43 15.06.2019
6349 Clouds 26 1018 88 10000 3.1 100 08:43 15.06.2019
6350 Clouds 26 1018 88 10000 3.1 100 08:24 15.06.2019
6351 Clouds 27 1019 78 10000 2.1 80 07:27 15.06.2019
6352 Clouds 27 1019 78 10000 2.1 80 07:27 15.06.2019
6353 Clouds 26 1019 88 10000 2.6 80 06:50 15.06.2019
6354 Clouds 26 1019 88 10000 2.6 80 06:30 15.06.2019
6355 -273 0 0 0 0 0 05:41 15.06.2019
6356 Clouds 26 1020 83 10000 3.6 110 04:59 15.06.2019
6357 Clouds 26 1020 83 10000 3.6 110 04:59 15.06.2019
6358 Clouds 25 1020 83 10000 3.6 110 04:29 15.06.2019
6359 Clouds 24 1019 88 10000 3.1 100 03:33 15.06.2019
6360 Clouds 24 1019 88 10000 3.1 100 03:33 15.06.2019
6361 Rain 24 1019 88 10000 6.2 50 02:37 15.06.2019
6362 Rain 25 1019 88 9000 4.6 50 01:57 15.06.2019
6363 Rain 25 1019 88 9000 4.6 50 01:24 15.06.2019
6364 Rain 28 1018 88 10000 3.1 320 00:42 15.06.2019
6365 Rain 28 1018 88 10000 3.1 320 00:23 15.06.2019
6366 Clouds 29 1018 74 10000 3.1 180 23:49 14.06.2019
6367 Rain 30 1017 75 0 3.95 139.252 23:20 14.06.2019
6368 Rain 30 1017 75 0 3.95 139.252 23:20 14.06.2019
6369 Rain 30 1017 74 0 3.95 139.252 22:41 14.06.2019
6370 Rain 30 1017 74 0 3.95 139.252 22:41 14.06.2019
6371 Clouds 29 1018 74 10000 3.6 180 22:21 14.06.2019
6372 Clouds 29 1018 74 10000 3.6 180 22:21 14.06.2019
6373 Clouds 30 1018 74 10000 3.6 180 21:48 14.06.2019
6374 Clouds 30 1018 74 10000 3.6 180 21:28 14.06.2019
6375 Clouds 31 1019 66 10000 4.6 160 20:55 14.06.2019
6376 Clouds 31 1019 66 10000 4.6 160 20:36 14.06.2019
6377 Clouds 30 1019 70 10000 5.1 170 20:18 14.06.2019
6378 Clouds 31 1019 70 10000 5.1 170 19:39 14.06.2019
6379 Clouds 30 1019 70 10000 5.7 170 19:21 14.06.2019
6380 Clouds 31 1019 70 10000 5.7 170 18:54 14.06.2019
6381 Clouds 31 1019 70 10000 5.7 170 18:36 14.06.2019
6382 Clouds 30 1019 70 10000 5.7 180 18:18 14.06.2019
6383 Clouds 30 1019 70 10000 5.7 180 17:44 14.06.2019
6384 Clouds 30 1019 70 10000 5.7 180 17:23 14.06.2019
6385 Clouds 31 1019 74 10000 6.2 170 16:48 14.06.2019
6386 Clouds 30 1019 74 10000 6.2 170 16:24 14.06.2019
6387 Clouds 30 1019 74 10000 6.2 170 16:24 14.06.2019
6388 Rain 28 1019 88 10000 3.6 170 15:59 14.06.2019
6389 Rain 27 1019 88 10000 3.6 170 15:39 14.06.2019
6390 Rain 25 1018 88 10000 5.7 160 15:19 14.06.2019
6391 Rain 26 1018 88 10000 5.7 160 14:43 14.06.2019
6392 Rain 25 1018 88 10000 5.7 160 14:25 14.06.2019
6393 Thunderstorm 26 1019 94 6000 1.5 230 13:46 14.06.2019
6394 Thunderstorm 26 1019 94 6000 1.5 230 13:27 14.06.2019
6395 Clouds 25 1018 94 10000 2.6 260 12:55 14.06.2019
6396 Clouds 25 1018 94 10000 2.6 260 12:36 14.06.2019
6397 Thunderstorm 26 1018 88 6000 0.5 0 12:18 14.06.2019
6398 Thunderstorm 25 1018 88 6000 0.5 0 11:42 14.06.2019
6399 Thunderstorm 25 1018 88 6000 0.5 0 11:23 14.06.2019
6400 Thunderstorm 25 1018 88 6000 3.1 160 10:47 14.06.2019
6401 Clouds 26 1018 83 10000 1.5 160 10:21 14.06.2019
6402 Clouds 26 1018 83 10000 1.5 160 09:55 14.06.2019
6403 Clouds 26 1018 83 10000 1.5 160 09:33 14.06.2019
6404 Clouds 26 1019 94 10000 1.5 170 08:48 14.06.2019
6405 Thunderstorm 27 1019 78 10000 5.08 150.115 08:21 14.06.2019
6406 Thunderstorm 27 1019 78 10000 5.08 150.115 07:55 14.06.2019
6407 Thunderstorm 26 1019 83 10000 2.6 150 07:23 14.06.2019
6408 Thunderstorm 26 1019 83 10000 2.6 150 06:53 14.06.2019
6409 Thunderstorm 26 1019 83 10000 1 0 06:19 14.06.2019
6410 Thunderstorm 26 1019 83 10000 1 0 05:42 14.06.2019
6411 Thunderstorm 26 1019 83 10000 1 0 04:51 14.06.2019
6412 Thunderstorm 26 1019 83 10000 1 0 04:23 14.06.2019
6413 Clouds 27 1019 78 10000 3.1 90 03:38 14.06.2019
6414 Clouds 26 1018 83 10000 2.1 280 03:19 14.06.2019
6415 Rain 26 1018 83 10000 2.1 280 02:35 14.06.2019
6416 Clouds 28 1018 78 10000 2.1 280 01:39 14.06.2019
6417 Clouds 28 1018 78 10000 2.1 280 01:39 14.06.2019
6418 Clouds 29 1018 79 10000 4.1 240 00:37 14.06.2019
6419 Clouds 30 1018 70 10000 5.7 200 00:18 14.06.2019
6420 Clouds 31 1018 70 10000 5.7 200 23:49 13.06.2019
6421 Clouds 31 1018 70 10000 5.7 200 23:25 13.06.2019
6422 Rain 31 1018 70 10000 6.2 200 22:40 13.06.2019
6423 Rain 30 1017 74 10000 6.2 180 22:22 13.06.2019
6424 Rain 30 1017 74 10000 6.2 180 21:56 13.06.2019
6425 Rain 31 1017 74 10000 6.2 180 21:36 13.06.2019
6426 Rain 31 1017 74 10000 6.2 180 21:36 13.06.2019
6427 Clouds 31 1018 66 10000 4.6 190 21:18 13.06.2019
6428 Clouds 31 1018 66 10000 4.6 190 20:42 13.06.2019
6429 Clouds 31 1018 66 10000 3.6 170 20:20 13.06.2019
6430 Clouds 31 1018 66 10000 3.6 170 20:20 13.06.2019
6431 Clouds 32 1018 66 10000 3.6 170 19:43 13.06.2019
6432 Clouds 31 1019 66 10000 3.6 160 19:24 13.06.2019
6433 Clouds 32 1019 66 10000 3.6 160 18:58 13.06.2019
6434 Clouds 32 1019 66 10000 3.6 160 18:40 13.06.2019
6435 Clouds 31 1019 70 10000 4.1 210 18:21 13.06.2019
6436 Clouds 31 1019 70 10000 4.1 210 17:44 13.06.2019
6437 Clear 29 1019 74 0 3.49 170.5 17:21 13.06.2019
6438 Clear 32 1018 72 0 3.49 170.5 16:56 13.06.2019
6439 Clear 31 1018 73 0 3.49 170.5 16:36 13.06.2019
6440 Clouds 29 1019 78 10000 3.1 150 16:18 13.06.2019
6441 Clouds 28 1019 78 10000 3.1 150 15:40 13.06.2019
6442 Clouds 27 1018 88 10000 3.6 170 15:19 13.06.2019
6443 Clouds 27 1018 88 10000 3.6 170 14:49 13.06.2019
6444 Clouds 28 1018 88 10000 3.6 170 14:30 13.06.2019
6445 Thunderstorm 26 1018 94 10000 1 0 13:47 13.06.2019
6446 Thunderstorm 26 1018 94 10000 1 0 13:47 13.06.2019
6447 Clouds 25 1018 94 10000 1.5 190 13:22 13.06.2019
6448 Clouds 25 1018 94 10000 1.5 190 12:58 13.06.2019
6449 Clouds 25 1018 94 10000 1.5 190 12:39 13.06.2019
6450 Rain 29 1016 75 0 3.98 189.905 12:20 13.06.2019
6451 Rain 26 1016 85 0 3.98 189.905 11:44 13.06.2019
6452 Rain 25 1017 94 10000 1 0 11:25 13.06.2019
6453 Rain 25 1017 94 10000 1 0 10:48 13.06.2019
6454 Rain 25 1017 94 10000 1 0 10:28 13.06.2019
6455 Rain 26 1018 94 10000 1.5 260 09:52 13.06.2019
6456 Rain 26 1018 94 10000 1.5 260 09:29 13.06.2019
6457 Clouds 26 1018 94 10000 1.5 210 08:55 13.06.2019
6458 Clouds 26 1018 94 10000 1.5 210 08:55 13.06.2019
6459 Clouds 26 1018 94 10000 1.5 210 08:55 13.06.2019
6460 Clouds 26 1018 94 10000 1.5 210 08:37 13.06.2019
6461 Clouds 26 1018 88 10000 1.5 170 08:19 13.06.2019
6462 Clouds 26 1018 88 10000 1.5 170 07:37 13.06.2019
6463 Clouds 26 1019 88 10000 1.5 220 07:18 13.06.2019
6464 Clouds 26 1019 88 10000 1.5 220 06:38 13.06.2019
6465 Clouds 26 1019 88 10000 1.5 220 06:20 13.06.2019
6466 Clouds 27 1019 88 10000 1.5 120 05:39 13.06.2019
6467 Rain 27 1018 83 9000 3.1 200 05:18 13.06.2019
6468 Clouds 28 1018 78 10000 4.6 150 03:45 13.06.2019
6469 Clouds 28 1017 74 10000 3.1 180 01:55 13.06.2019
6470 Clouds 30 1017 70 10000 4.6 170 00:32 13.06.2019
6471 Clouds 30 1016 66 10000 3.6 140 23:37 12.06.2019
6472 Clouds 30 1017 66 10000 2.6 170 23:19 12.06.2019
6473 Clouds 30 1017 66 10000 2.6 170 22:41 12.06.2019
6474 Clouds 29 1017 70 10000 3.1 180 22:21 12.06.2019
6475 Clouds 30 1017 70 10000 3.1 180 21:43 12.06.2019
6476 Clouds 30 1017 70 10000 3.1 180 21:25 12.06.2019
6477 Clouds 31 1017 70 10000 3.6 160 20:49 12.06.2019
6478 Clouds 30 1017 70 10000 3.6 160 20:29 12.06.2019
6479 Clouds 30 1018 78 10000 3.6 180 19:57 12.06.2019
6480 Clouds 30 1018 78 10000 3.6 180 19:38 12.06.2019
6481 Rain 29 1018 74 10000 4.6 160 19:20 12.06.2019
6482 Rain 28 1018 74 10000 4.6 160 18:44 12.06.2019
6483 Rain 28 1018 74 10000 4.6 160 18:26 12.06.2019
6484 Rain 28 1018 78 10000 4.1 140 17:47 12.06.2019
6485 Clouds 28 1018 78 10000 1.5 130 17:23 12.06.2019
6486 Clouds 28 1018 78 10000 1.5 130 16:44 12.06.2019
6487 Clouds 28 1018 78 10000 1.5 130 16:25 12.06.2019
6488 Rain 27 1018 83 10000 2.6 90 15:58 12.06.2019
6489 Rain 27 1018 83 10000 2.6 90 15:33 12.06.2019
6490 Rain 26 1017 88 10000 2.1 120 14:58 12.06.2019
6491 Rain 26 1017 88 10000 2.1 120 14:33 12.06.2019
6492 Rain 25 1017 88 10000 2.6 120 13:58 12.06.2019
6493 Rain 25 1017 88 10000 2.6 120 13:58 12.06.2019
6494 Rain 25 1017 88 10000 2.6 120 13:39 12.06.2019
6495 Rain 25 1017 88 10000 2.6 120 13:39 12.06.2019
6496 Clouds 24 1016 100 0 0.5 0 13:19 12.06.2019
6497 Clouds 24 1016 100 0 0.5 0 12:44 12.06.2019
6498 Rain 25 1016 100 10000 1 0 12:21 12.06.2019
6499 Rain 25 1016 100 10000 1 0 11:55 12.06.2019
6500 Rain 25 1016 100 10000 1 0 11:37 12.06.2019
6501 Rain 25 1016 94 10000 1.5 130 11:19 12.06.2019
6502 Rain 26 1016 94 10000 1.5 130 10:42 12.06.2019
6503 Rain 25 1016 94 10000 0.5 0 10:18 12.06.2019
6504 Rain 25 1016 94 10000 0.5 0 09:41 12.06.2019
6505 Rain 25 1017 88 10000 3.1 180 09:21 12.06.2019
6506 Rain 25 1017 88 10000 3.1 180 08:29 12.06.2019
6507 Rain 26 1017 88 10000 4.1 190 07:58 12.06.2019
6508 Clouds 26 1018 94 10000 1.5 320 07:18 12.06.2019
6509 Clouds 26 1018 94 10000 1.5 320 06:39 12.06.2019
6510 Rain 27 1018 94 10000 1 0 05:25 12.06.2019
6511 Clouds 29 1016 70 10000 2.6 170 02:22 12.06.2019
6512 Rain 29 1016 74 10000 3.1 160 00:46 12.06.2019
6513 Rain 30 1016 74 10000 4.6 180 23:57 11.06.2019
6514 Rain 30 1016 74 10000 4.6 180 23:39 11.06.2019
6515 Thunderstorm 29 1016 66 10000 1 0 23:20 11.06.2019
6516 Thunderstorm 30 1016 66 10000 1 0 22:41 11.06.2019
6517 Rain 27 1017 88 10000 3.6 250 22:18 11.06.2019
6518 Rain 28 1017 88 10000 3.6 250 21:55 11.06.2019
6519 Rain 28 1017 88 10000 3.6 250 21:36 11.06.2019
6520 Thunderstorm 27 1018 100 6000 3.6 110 21:18 11.06.2019
6521 Thunderstorm 28 1018 100 6000 3.6 110 20:42 11.06.2019
6522 Rain 30 1018 74 10000 2.6 230 20:22 11.06.2019
6523 Rain 30 1018 74 10000 2.6 230 19:51 11.06.2019
6524 -273 0 0 0 0 0 19:28 11.06.2019
6525 Rain 30 1018 74 10000 2.6 230 19:28 11.06.2019
6526 Rain 30 1018 70 10000 3.1 260 18:49 11.06.2019
6527 Rain 30 1018 70 10000 3.1 260 18:49 11.06.2019
6528 Rain 29 1018 70 10000 3.1 260 18:20 11.06.2019
6529 Rain 30 1018 66 10000 1.5 120 17:41 11.06.2019
6530 Rain 30 1018 66 10000 1.5 120 17:41 11.06.2019
6531 Rain 29 1018 70 10000 1.5 120 17:20 11.06.2019
6532 Rain 29 1018 70 10000 1.5 120 16:44 11.06.2019
6533 Rain 29 1018 70 10000 1.5 120 16:24 11.06.2019
6534 Clouds 28 1018 74 10000 1.5 110 15:45 11.06.2019
6535 Clouds 28 1018 74 10000 1.5 110 15:25 11.06.2019
6536 Clouds 28 1018 78 10000 1.5 130 14:58 11.06.2019
6537 Clouds 28 1018 78 10000 1.5 130 14:39 11.06.2019
6538 Clouds 27 1017 88 10000 1 0 14:19 11.06.2019
6539 Clouds 26 1017 88 10000 1 0 13:43 11.06.2019
6540 Clouds 26 1016 85 0 2.45 93.671 13:21 11.06.2019
6541 Clouds 28 1017 74 0 2.45 93.671 12:42 11.06.2019
6542 Clouds 26 1017 83 10000 1.5 130 12:22 11.06.2019
6543 Clouds 26 1017 83 10000 1.5 130 11:56 11.06.2019
6544 Clouds 26 1017 83 10000 1.5 130 11:32 11.06.2019
6545 Clouds 26 1016 86 0 2.48 71.243 10:51 11.06.2019
6546 Clouds 26 1016 86 0 2.48 71.243 10:51 11.06.2019
6547 Clouds 27 1016 85 0 2.48 71.243 10:27 11.06.2019
6548 Clouds 27 1016 85 0 2.48 71.243 10:27 11.06.2019
6549 Clouds 27 1016 84 0 2.48 71.243 09:51 11.06.2019
6550 Clouds 27 1016 84 0 1.51 52.022 09:26 11.06.2019
6551 Clouds 27 1016 85 0 1.51 52.022 08:58 11.06.2019
6552 Clouds 27 1016 86 0 1.51 52.022 08:40 11.06.2019
6553 Clouds 27 1016 86 0 1.51 52.022 08:19 11.06.2019
6554 Clouds 27 1016 87 0 1.51 52.022 07:33 11.06.2019
6555 Clouds 27 1017 88 0 3.87 84.313 06:52 11.06.2019
6556 Thunderstorm 27 1018 83 10000 1.5 340 05:21 11.06.2019
6557 Thunderstorm 27 1018 83 10000 1.5 340 04:36 11.06.2019
6558 Clouds 27 1017 83 10000 1.5 300 02:26 11.06.2019
6559 Clouds 27 1016 83 10000 4.1 230 00:50 11.06.2019
6560 Clouds 28 1017 78 10000 2.6 180 00:24 11.06.2019
6561 Clouds 28 1017 78 10000 2.6 180 23:44 10.06.2019
6562 Rain 29 1017 79 10000 2.6 180 23:20 10.06.2019
6563 Rain 29 1017 79 10000 2.6 180 22:43 10.06.2019
6564 Rain 28 1017 79 10000 2.6 180 22:24 10.06.2019
6565 Rain 28 1017 66 10000 2.6 160 21:41 10.06.2019
6566 Rain 29 1018 66 10000 2.6 40 21:23 10.06.2019
6567 Rain 28 1018 66 10000 2.6 40 20:59 10.06.2019
6568 Rain 29 1018 66 10000 2.6 40 20:40 10.06.2019
6569 Rain 27 1018 100 10000 3.1 70 20:21 10.06.2019
6570 Rain 27 1018 100 10000 3.1 70 19:43 10.06.2019
6571 Rain 26 1018 88 10000 4.1 30 19:22 10.06.2019
6572 Rain 27 1018 88 10000 4.1 30 18:56 10.06.2019
6573 Thunderstorm 29 1019 83 9000 5.7 20 18:38 10.06.2019
6574 Thunderstorm 29 1019 83 9000 5.7 20 18:38 10.06.2019
6575 Thunderstorm 29 1018 78 10000 4.6 280 18:19 10.06.2019
6576 Thunderstorm 28 1018 78 10000 4.6 280 17:41 10.06.2019
6577 Thunderstorm 28 1018 78 10000 4.6 280 17:22 10.06.2019
6578 Rain 30 1018 74 10000 3.1 110 16:46 10.06.2019
6579 Rain 30 1018 74 10000 3.1 110 16:28 10.06.2019
6580 Rain 28 1018 88 10000 2.1 220 15:56 10.06.2019
6581 Rain 29 1018 88 10000 2.1 220 15:37 10.06.2019
6582 Thunderstorm 27 1018 88 10000 3.1 220 15:19 10.06.2019
6583 Thunderstorm 29 1017 83 9000 2.1 230 14:40 10.06.2019
6584 Thunderstorm 29 1017 83 10000 2.6 90 14:21 10.06.2019
6585 Thunderstorm 28 1017 83 10000 2.6 90 13:45 10.06.2019
6586 Clouds 28 1016 83 10000 2.6 100 13:23 10.06.2019
6587 Clouds 27 1016 83 10000 2.6 100 12:45 10.06.2019
6588 Clouds 27 1016 83 10000 2.6 100 12:27 10.06.2019
6589 Clouds 27 1016 83 10000 2.6 120 11:48 10.06.2019
6590 Clouds 27 1016 83 10000 2.6 120 11:29 10.06.2019
6591 Clouds 27 1016 83 10000 3.6 130 10:57 10.06.2019
6592 Clouds 27 1016 83 10000 3.1 120 10:38 10.06.2019
6593 Clouds 27 1016 83 10000 3.1 120 10:18 10.06.2019
6594 Clouds 27 1016 83 10000 3.1 120 09:45 10.06.2019
6595 Clouds 27 1016 83 10000 3.1 120 09:26 10.06.2019
6596 Clouds 27 1017 88 10000 2.1 120 08:45 10.06.2019
6597 Clouds 27 1017 88 10000 2.1 120 08:25 10.06.2019
6598 Clouds 27 1018 94 10000 4.09 113.697 07:26 10.06.2019
6599 Clouds 28 1017 84 0 3.52 86.991 04:41 10.06.2019
6600 Clouds 27 1017 88 10000 1 0 02:18 10.06.2019
6601 Clouds 28 1017 88 10000 1 0 01:27 10.06.2019
6602 Rain 28 1017 83 10000 2.6 230 00:58 10.06.2019
6603 Rain 28 1017 83 10000 2.6 230 00:23 10.06.2019
6604 Clouds 30 1016 70 10000 1.5 60 23:44 09.06.2019
6605 Clouds 30 1016 70 10000 0.5 0 23:20 09.06.2019
6606 Clouds 30 1016 70 10000 0.5 0 22:45 09.06.2019
6607 Clouds 29 1016 70 10000 0.5 0 22:25 09.06.2019
6608 Clouds 27 1017 83 10000 2.6 60 21:46 09.06.2019
6609 Clouds 27 1017 83 10000 2.6 60 21:46 09.06.2019
6610 Clouds 26 1017 83 10000 2.6 60 21:27 09.06.2019
6611 Thunderstorm 28 1017 70 9000 5.1 360 20:45 09.06.2019
6612 Thunderstorm 28 1017 70 9000 5.1 360 20:23 09.06.2019
6613 Thunderstorm 30 1017 70 10000 5.7 220 19:56 09.06.2019
6614 Rain 31 1017 66 10000 3.6 110 19:36 09.06.2019
6615 Rain 29 1017 78 10000 3.1 10 19:18 09.06.2019
6616 Rain 28 1017 78 10000 3.1 10 18:41 09.06.2019
6617 Rain 28 1017 78 10000 3.1 10 18:41 09.06.2019
6618 Rain 28 1017 78 10000 3.1 10 18:23 09.06.2019
6619 Rain 30 1017 70 10000 3.6 220 17:48 09.06.2019
6620 Rain 30 1017 70 10000 3.6 220 17:27 09.06.2019
6621 Rain 31 1017 70 10000 3.1 150 16:55 09.06.2019
6622 Rain 30 1017 70 10000 3.1 150 16:36 09.06.2019
6623 Clouds 30 1017 74 10000 1.5 140 16:18 09.06.2019
6624 Clouds 30 1017 74 10000 1.5 140 15:44 09.06.2019
6625 Clouds 30 1017 74 10000 1.5 140 15:26 09.06.2019
6626 -273 0 0 0 0 0 14:46 09.06.2019
6627 Clouds 27 1017 88 10000 1.5 180 14:25 09.06.2019
6628 Clouds 27 1016 83 10000 2.1 160 13:52 09.06.2019
6629 Clouds 27 1016 83 10000 2.1 160 13:27 09.06.2019
6630 Rain 28 1016 77 0 3.95 168.419 12:42 09.06.2019
6631 Clouds 27 1016 83 10000 2.1 150 12:24 09.06.2019
6632 Rain 27 1014 87 0 5.39 152.736 11:40 09.06.2019
6633 Rain 27 1014 87 0 5.39 152.736 11:22 09.06.2019
6634 Clouds 27 1014 87 0 5.15 151.099 10:46 09.06.2019
6635 Rain 27 1015 78 10000 2.1 120 10:23 09.06.2019
6636 Rain 27 1015 78 10000 2.1 120 10:23 09.06.2019
6637 Rain 27 1014 87 0 5.15 151.099 09:41 09.06.2019
6638 Rain 27 1014 87 0 5.15 151.099 09:41 09.06.2019
6639 Rain 27 1014 87 0 5.15 151.099 09:41 09.06.2019
6640 Rain 27 1014 86 0 5.76 147.436 09:22 09.06.2019
6641 Rain 28 1014 84 0 5.41 145.887 08:47 09.06.2019
6642 Rain 28 1014 84 0 5.41 145.887 08:28 09.06.2019
6643 Rain 28 1015 85 0 5.41 145.887 07:21 09.06.2019
6644 Rain 28 1015 84 0 5.58 137.231 06:30 09.06.2019
6645 Clouds 28 1016 78 10000 1 0 04:57 09.06.2019
6646 Rain 28 1015 70 10000 2.6 120 01:38 09.06.2019
6647 Thunderstorm 29 1015 70 10000 2.6 70 01:20 09.06.2019
6648 Thund